Date Latitude Longitude Distance au but Avance/retard Cap Vitesses Dist. sur 24h
VMG Pt. à pt. Sur 4h Sur 24h
08/01/2016 16:50:00 UTC 08/01 16:50 UTC 48°30.00'N 05°07.80'W 0.00 nm 0.00 nm 0 0.0 KNOTS.abrev 0.0 KNOTS.abrev 0.0 KNOTS.abrev 0.0 KNOTS.abrev 0.00 nm
08/01/2016 16:50:00 UTC 08/01 16:50 UTC 48°31.32'N 05°07.65'W 1.33 nm 2.35 nm 125 15.0 KNOTS.abrev 29.3 KNOTS.abrev 27.8 KNOTS.abrev 24.6 KNOTS.abrev 585.27 nm
08/01/2016 16:40:00 UTC 08/01 16:40 UTC 48°34.09'N 05°13.72'W 5.67 nm -2.00 nm 122 27.5 KNOTS.abrev 28.4 KNOTS.abrev 27.7 KNOTS.abrev 24.7 KNOTS.abrev 595.74 nm
08/01/2016 16:30:00 UTC 08/01 16:30 UTC 48°36.63'N 05°19.75'W 10.33 nm -6.65 nm 120 28.5 KNOTS.abrev 28.9 KNOTS.abrev 27.7 KNOTS.abrev 24.7 KNOTS.abrev 591.95 nm
08/01/2016 16:20:00 UTC 08/01 16:20 UTC 48°39.07'N 05°26.04'W 15.11 nm -11.43 nm 119 28.4 KNOTS.abrev 28.7 KNOTS.abrev 28.1 KNOTS.abrev 24.7 KNOTS.abrev 588.00 nm
08/01/2016 16:10:00 UTC 08/01 16:10 UTC 48°41.37'N 05°32.39'W 19.86 nm -16.18 nm 120 31.5 KNOTS.abrev 31.6 KNOTS.abrev 28.0 KNOTS.abrev 24.7 KNOTS.abrev 597.78 nm
08/01/2016 16:00:00 UTC 08/01 16:00 UTC 48°44.04'N 05°39.28'W 25.12 nm -21.44 nm 118 27.5 KNOTS.abrev 27.7 KNOTS.abrev 27.9 KNOTS.abrev 24.7 KNOTS.abrev 593.52 nm
08/01/2016 15:50:00 UTC 08/01 15:50 UTC 48°46.18'N 05°45.47'W 29.71 nm -26.03 nm 119 28.5 KNOTS.abrev 28.6 KNOTS.abrev 27.9 KNOTS.abrev 24.7 KNOTS.abrev 589.69 nm
08/01/2016 15:40:00 UTC 08/01 15:40 UTC 48°48.47'N 05°51.79'W 34.46 nm -30.78 nm 118 26.6 KNOTS.abrev 26.6 KNOTS.abrev 27.9 KNOTS.abrev 24.8 KNOTS.abrev 600.43 nm
08/01/2016 15:30:00 UTC 08/01 15:30 UTC 48°50.59'N 05°57.71'W 38.89 nm -35.21 nm 121 24.5 KNOTS.abrev 24.5 KNOTS.abrev 28.0 KNOTS.abrev 24.9 KNOTS.abrev 596.82 nm
08/01/2016 15:20:00 UTC 08/01 15:20 UTC 48°52.69'N 06°03.03'W 42.97 nm -39.29 nm 119 28.8 KNOTS.abrev 28.8 KNOTS.abrev 28.3 KNOTS.abrev 24.9 KNOTS.abrev 593.62 nm
08/01/2016 15:10:00 UTC 08/01 15:10 UTC 48°55.01'N 06°09.41'W 47.76 nm -44.09 nm 118 29.1 KNOTS.abrev 29.1 KNOTS.abrev 28.2 KNOTS.abrev 25.0 KNOTS.abrev 604.85 nm
08/01/2016 15:00:00 UTC 08/01 15:00 UTC 48°57.32'N 06°15.90'W 52.61 nm -48.94 nm 116 32.2 KNOTS.abrev 32.3 KNOTS.abrev 28.2 KNOTS.abrev 25.0 KNOTS.abrev 600.97 nm
08/01/2016 14:50:00 UTC 08/01 14:50 UTC 48°59.65'N 06°23.29'W 57.98 nm -54.30 nm 117 28.6 KNOTS.abrev 28.7 KNOTS.abrev 28.1 KNOTS.abrev 25.0 KNOTS.abrev 596.52 nm
08/01/2016 14:40:00 UTC 08/01 14:40 UTC 49°01.84'N 06°29.77'W 62.75 nm -59.08 nm 118 27.8 KNOTS.abrev 27.8 KNOTS.abrev 28.2 KNOTS.abrev 25.1 KNOTS.abrev 607.64 nm
08/01/2016 14:30:00 UTC 08/01 14:30 UTC 49°03.99'N 06°36.02'W 67.38 nm -63.70 nm 115 26.2 KNOTS.abrev 26.3 KNOTS.abrev 28.4 KNOTS.abrev 25.2 KNOTS.abrev 603.98 nm
08/01/2016 14:20:00 UTC 08/01 14:20 UTC 49°05.85'N 06°42.08'W 71.75 nm -68.07 nm 115 27.4 KNOTS.abrev 27.5 KNOTS.abrev 28.6 KNOTS.abrev 25.2 KNOTS.abrev 600.40 nm
08/01/2016 14:00:00 UTC 08/01 14:00 UTC 49°09.73'N 06°54.78'W 80.91 nm -77.23 nm 117 28.9 KNOTS.abrev 28.9 KNOTS.abrev 28.6 KNOTS.abrev 25.3 KNOTS.abrev 607.37 nm
08/01/2016 13:50:00 UTC 08/01 13:50 UTC 49°11.93'N 07°01.31'W 85.72 nm -82.04 nm 117 24.9 KNOTS.abrev 25.0 KNOTS.abrev 28.7 KNOTS.abrev 25.3 KNOTS.abrev 603.63 nm
08/01/2016 13:40:00 UTC 08/01 13:40 UTC 49°13.85'N 07°06.96'W 89.87 nm -86.20 nm 117 25.7 KNOTS.abrev 25.7 KNOTS.abrev 29.0 KNOTS.abrev 25.4 KNOTS.abrev 614.15 nm
08/01/2016 13:30:00 UTC 08/01 13:30 UTC 49°15.77'N 07°12.82'W 94.15 nm -90.48 nm 113 25.8 KNOTS.abrev 25.9 KNOTS.abrev 29.2 KNOTS.abrev 25.5 KNOTS.abrev 610.85 nm
08/01/2016 13:10:00 UTC 08/01 13:10 UTC 49°19.20'N 07°24.97'W 102.77 nm -99.09 nm 115 25.3 KNOTS.abrev 25.3 KNOTS.abrev 29.7 KNOTS.abrev 25.6 KNOTS.abrev 618.08 nm
08/01/2016 13:00:00 UTC 08/01 13:00 UTC 49°20.96'N 07°30.86'W 106.99 nm -103.31 nm 114 28.7 KNOTS.abrev 28.8 KNOTS.abrev 30.0 KNOTS.abrev 25.6 KNOTS.abrev 614.80 nm
08/01/2016 12:50:00 UTC 08/01 12:50 UTC 49°22.92'N 07°37.56'W 111.77 nm -108.09 nm 113 29.4 KNOTS.abrev 29.5 KNOTS.abrev 30.0 KNOTS.abrev 25.6 KNOTS.abrev 611.09 nm
08/01/2016 11:50:00 UTC 08/01 11:50 UTC 49°34.44'N 08°19.27'W 141.17 nm -137.50 nm 115 28.2 KNOTS.abrev 28.2 KNOTS.abrev 30.1 KNOTS.abrev 25.8 KNOTS.abrev 615.53 nm
08/01/2016 11:40:00 UTC 08/01 11:40 UTC 49°36.44'N 08°25.83'W 145.87 nm -142.20 nm 113 29.0 KNOTS.abrev 29.0 KNOTS.abrev 30.3 KNOTS.abrev 25.9 KNOTS.abrev 625.94 nm
08/01/2016 11:30:00 UTC 08/01 11:30 UTC 49°38.33'N 08°32.68'W 150.70 nm -147.02 nm 107 29.6 KNOTS.abrev 29.9 KNOTS.abrev 30.4 KNOTS.abrev 25.9 KNOTS.abrev 622.39 nm
08/01/2016 11:10:00 UTC 08/01 11:10 UTC 49°41.22'N 08°47.41'W 160.56 nm -156.88 nm 108 28.1 KNOTS.abrev 28.3 KNOTS.abrev 30.6 KNOTS.abrev 26.0 KNOTS.abrev 629.24 nm
08/01/2016 11:00:00 UTC 08/01 11:00 UTC 49°42.67'N 08°54.35'W 165.24 nm -161.56 nm 112 28.7 KNOTS.abrev 28.7 KNOTS.abrev 30.6 KNOTS.abrev 26.1 KNOTS.abrev 625.58 nm
08/01/2016 10:50:00 UTC 08/01 10:50 UTC 49°44.43'N 09°01.23'W 170.02 nm -166.35 nm 112 31.9 KNOTS.abrev 32.0 KNOTS.abrev 30.2 KNOTS.abrev 26.1 KNOTS.abrev 622.10 nm
08/01/2016 10:40:00 UTC 08/01 10:40 UTC 49°46.41'N 09°08.88'W 175.35 nm -171.67 nm 109 33.3 KNOTS.abrev 33.4 KNOTS.abrev 29.7 KNOTS.abrev 26.2 KNOTS.abrev 632.21 nm
08/01/2016 10:30:00 UTC 08/01 10:30 UTC 49°48.24'N 09°17.02'W 180.89 nm -177.22 nm 108 31.2 KNOTS.abrev 31.3 KNOTS.abrev 29.2 KNOTS.abrev 26.2 KNOTS.abrev 628.10 nm
08/01/2016 10:20:00 UTC 08/01 10:20 UTC 49°49.82'N 09°24.73'W 186.09 nm -182.41 nm 105 33.8 KNOTS.abrev 34.2 KNOTS.abrev 28.1 KNOTS.abrev 26.2 KNOTS.abrev 624.18 nm
08/01/2016 10:10:00 UTC 08/01 10:10 UTC 49°51.31'N 09°33.25'W 191.72 nm -188.05 nm 97 19.7 KNOTS.abrev 20.6 KNOTS.abrev 27.8 KNOTS.abrev 26.2 KNOTS.abrev 634.25 nm
08/01/2016 10:00:00 UTC 08/01 10:00 UTC 49°51.72'N 09°38.53'W 195.01 nm -191.33 nm 94 29.8 KNOTS.abrev 31.5 KNOTS.abrev 27.7 KNOTS.abrev 26.3 KNOTS.abrev 631.33 nm
08/01/2016 09:50:00 UTC 08/01 09:50 UTC 49°52.05'N 09°46.66'W 199.97 nm -196.30 nm 97 31.9 KNOTS.abrev 33.1 KNOTS.abrev 27.6 KNOTS.abrev 26.3 KNOTS.abrev 626.72 nm
08/01/2016 09:40:00 UTC 08/01 09:40 UTC 49°52.69'N 09°55.15'W 205.29 nm -201.61 nm 108 32.1 KNOTS.abrev 32.2 KNOTS.abrev 27.4 KNOTS.abrev 26.3 KNOTS.abrev 636.71 nm
08/01/2016 09:30:00 UTC 08/01 09:30 UTC 49°54.32'N 10°03.09'W 210.65 nm -206.97 nm 106 31.4 KNOTS.abrev 31.5 KNOTS.abrev 27.1 KNOTS.abrev 26.4 KNOTS.abrev 632.84 nm
08/01/2016 09:20:00 UTC 08/01 09:20 UTC 49°55.75'N 10°10.94'W 215.87 nm -212.20 nm 104 31.3 KNOTS.abrev 31.6 KNOTS.abrev 26.9 KNOTS.abrev 26.4 KNOTS.abrev 628.96 nm
08/01/2016 09:10:00 UTC 08/01 09:10 UTC 49°57.00'N 10°18.87'W 221.09 nm -217.41 nm 106 31.3 KNOTS.abrev 31.4 KNOTS.abrev 26.7 KNOTS.abrev 26.5 KNOTS.abrev 639.60 nm
08/01/2016 09:00:00 UTC 08/01 09:00 UTC 49°58.43'N 10°26.69'W 226.30 nm -222.62 nm 105 29.7 KNOTS.abrev 29.8 KNOTS.abrev 25.4 KNOTS.abrev 26.5 KNOTS.abrev 635.79 nm
08/01/2016 08:40:00 UTC 08/01 08:40 UTC 50°00.97'N 10°41.63'W 236.18 nm -232.51 nm 99 29.3 KNOTS.abrev 29.9 KNOTS.abrev 25.0 KNOTS.abrev 26.6 KNOTS.abrev 642.20 nm
08/01/2016 08:20:00 UTC 08/01 08:20 UTC 50°02.61'N 10°56.90'W 245.96 nm -242.29 nm 102 29.8 KNOTS.abrev 30.1 KNOTS.abrev 24.7 KNOTS.abrev 26.6 KNOTS.abrev 634.42 nm
08/01/2016 08:10:00 UTC 08/01 08:10 UTC 50°03.69'N 11°04.52'W 250.94 nm -247.26 nm 102 29.1 KNOTS.abrev 29.3 KNOTS.abrev 24.5 KNOTS.abrev 26.7 KNOTS.abrev 644.20 nm
08/01/2016 08:00:00 UTC 08/01 08:00 UTC 50°04.69'N 11°11.97'W 255.78 nm -252.11 nm 99 29.9 KNOTS.abrev 30.4 KNOTS.abrev 23.7 KNOTS.abrev 26.7 KNOTS.abrev 640.57 nm
08/01/2016 07:50:00 UTC 08/01 07:50 UTC 50°05.45'N 11°19.78'W 260.77 nm -257.09 nm 97 31.4 KNOTS.abrev 32.1 KNOTS.abrev 23.0 KNOTS.abrev 26.7 KNOTS.abrev 636.64 nm
08/01/2016 07:40:00 UTC 08/01 07:40 UTC 50°06.11'N 11°28.05'W 266.01 nm -262.33 nm 97 30.7 KNOTS.abrev 31.4 KNOTS.abrev 22.4 KNOTS.abrev 26.7 KNOTS.abrev 632.43 nm
08/01/2016 07:30:00 UTC 08/01 07:30 UTC 50°06.78'N 11°36.13'W 271.13 nm -267.45 nm 92 30.2 KNOTS.abrev 31.5 KNOTS.abrev 22.0 KNOTS.abrev 26.7 KNOTS.abrev 628.36 nm
08/01/2016 07:20:00 UTC 08/01 07:20 UTC 50°07.00'N 11°44.31'W 276.19 nm -272.51 nm 92 31.3 KNOTS.abrev 32.5 KNOTS.abrev 21.6 KNOTS.abrev 26.7 KNOTS.abrev 658.56 nm
08/01/2016 07:10:00 UTC 08/01 07:10 UTC 50°07.17'N 11°52.76'W 281.40 nm -277.72 nm 93 28.8 KNOTS.abrev 29.8 KNOTS.abrev 21.2 KNOTS.abrev 26.7 KNOTS.abrev 654.08 nm
08/01/2016 07:00:00 UTC 08/01 07:00 UTC 50°07.44'N 12°00.49'W 286.21 nm -282.53 nm 137 20.0 KNOTS.abrev 23.0 KNOTS.abrev 20.8 KNOTS.abrev 26.7 KNOTS.abrev 650.06 nm
08/01/2016 06:50:00 UTC 08/01 06:50 UTC 50°10.26'N 12°04.55'W 289.55 nm -285.87 nm 121 19.3 KNOTS.abrev 19.9 KNOTS.abrev 20.9 KNOTS.abrev 26.9 KNOTS.abrev 649.43 nm
08/01/2016 06:40:00 UTC 08/01 06:40 UTC 50°11.96'N 12°08.99'W 292.77 nm -289.09 nm 147 0.0 KNOTS.abrev 0.0 KNOTS.abrev 21.0 KNOTS.abrev 27.0 KNOTS.abrev 648.00 nm
08/01/2016 06:40:00 UTC 08/01 06:40 UTC 50°12.60'N 12°09.63'W 293.36 nm -289.68 nm 105 18.4 KNOTS.abrev 18.5 KNOTS.abrev 20.8 KNOTS.abrev 27.0 KNOTS.abrev 648.01 nm
08/01/2016 06:30:00 UTC 08/01 06:30 UTC 50°13.42'N 12°14.27'W 296.43 nm 0.00 nm 133 17.3 KNOTS.abrev 19.1 KNOTS.abrev 20.9 KNOTS.abrev 27.1 KNOTS.abrev 649.25 nm
08/01/2016 06:10:00 UTC 08/01 06:10 UTC 50°17.73'N 12°21.60'W 302.22 nm 0.00 nm 123 23.1 KNOTS.abrev 23.9 KNOTS.abrev 21.5 KNOTS.abrev 27.2 KNOTS.abrev 653.14 nm
08/01/2016 05:50:00 UTC 08/01 05:50 UTC 50°22.07'N 12°32.07'W 309.93 nm 0.00 nm 111 23.3 KNOTS.abrev 23.4 KNOTS.abrev 21.5 KNOTS.abrev 27.4 KNOTS.abrev 656.46 nm
08/01/2016 04:10:00 UTC 08/01 04:10 UTC 50°36.17'N 13°29.03'W 348.79 nm 0.00 nm 43 10.6 KNOTS.abrev 25.1 KNOTS.abrev 27.6 KNOTS.abrev 27.8 KNOTS.abrev 667.14 nm
08/01/2016 04:00:00 UTC 08/01 04:00 UTC 50°33.12'N 13°33.52'W 350.58 nm 0.00 nm 49 12.3 KNOTS.abrev 23.4 KNOTS.abrev 27.7 KNOTS.abrev 27.8 KNOTS.abrev 662.99 nm
08/01/2016 03:50:00 UTC 08/01 03:50 UTC 50°30.58'N 13°38.18'W 352.68 nm 0.00 nm 63 18.7 KNOTS.abrev 25.9 KNOTS.abrev 27.9 KNOTS.abrev 27.6 KNOTS.abrev 667.98 nm
08/01/2016 03:30:00 UTC 08/01 03:30 UTC 50°26.73'N 13°50.32'W 359.03 nm 0.00 nm 49 15.4 KNOTS.abrev 28.1 KNOTS.abrev 28.1 KNOTS.abrev 27.6 KNOTS.abrev 662.47 nm
07/01/2016 23:00:00 UTC 07/01 23:00 UTC 49°06.02'N 16°20.68'W 444.57 nm -440.89 nm 54 23.3 KNOTS.abrev 28.9 KNOTS.abrev 28.8 KNOTS.abrev 25.3 KNOTS.abrev 607.71 nm
07/01/2016 22:30:00 UTC 07/01 22:30 UTC 48°57.60'N 16°38.61'W 456.37 nm -452.69 nm 41 20.4 KNOTS.abrev 30.6 KNOTS.abrev 29.1 KNOTS.abrev 25.2 KNOTS.abrev 604.37 nm
07/01/2016 22:00:00 UTC 07/01 22:00 UTC 48°46.00'N 16°53.74'W 466.66 nm -462.98 nm 33 15.9 KNOTS.abrev 27.3 KNOTS.abrev 29.0 KNOTS.abrev 25.0 KNOTS.abrev 605.12 nm
07/01/2016 21:30:00 UTC 07/01 21:30 UTC 48°34.52'N 17°04.92'W 474.68 nm -471.01 nm 69 25.8 KNOTS.abrev 27.0 KNOTS.abrev 29.6 KNOTS.abrev 25.0 KNOTS.abrev 599.99 nm
07/01/2016 21:00:00 UTC 07/01 21:00 UTC 48°29.70'N 17°23.92'W 487.60 nm -483.92 nm 39 21.3 KNOTS.abrev 30.9 KNOTS.abrev 30.2 KNOTS.abrev 25.0 KNOTS.abrev 600.59 nm
07/01/2016 20:30:00 UTC 07/01 20:30 UTC 48°17.64'N 17°38.43'W 498.33 nm -494.65 nm 40 23.5 KNOTS.abrev 32.6 KNOTS.abrev 30.0 KNOTS.abrev 24.9 KNOTS.abrev 602.32 nm
07/01/2016 20:00:00 UTC 07/01 20:00 UTC 48°05.13'N 17°54.02'W 510.14 nm -506.46 nm 44 20.2 KNOTS.abrev 25.9 KNOTS.abrev 29.7 KNOTS.abrev 24.7 KNOTS.abrev 592.60 nm
07/01/2016 19:30:00 UTC 07/01 19:30 UTC 47°55.89'N 18°07.51'W 520.38 nm -516.71 nm 40 23.1 KNOTS.abrev 30.9 KNOTS.abrev 30.1 KNOTS.abrev 24.5 KNOTS.abrev 588.83 nm
07/01/2016 19:00:00 UTC 07/01 19:00 UTC 47°44.03'N 18°22.19'W 532.02 nm -528.34 nm 44 25.4 KNOTS.abrev 31.5 KNOTS.abrev 30.1 KNOTS.abrev 24.4 KNOTS.abrev 585.28 nm
07/01/2016 18:30:00 UTC 07/01 18:30 UTC 47°32.78'N 18°38.54'W 544.90 nm -541.22 nm 52 26.4 KNOTS.abrev 29.6 KNOTS.abrev 30.2 KNOTS.abrev 24.2 KNOTS.abrev 581.75 nm
07/01/2016 18:00:00 UTC 07/01 18:00 UTC 47°23.76'N 18°55.87'W 558.19 nm -554.51 nm 48 27.3 KNOTS.abrev 31.5 KNOTS.abrev 30.3 KNOTS.abrev 24.2 KNOTS.abrev 581.14 nm
07/01/2016 17:30:00 UTC 07/01 17:30 UTC 47°13.30'N 19°13.21'W 571.93 nm -568.25 nm 49 26.3 KNOTS.abrev 29.8 KNOTS.abrev 30.1 KNOTS.abrev 24.1 KNOTS.abrev 574.88 nm
07/01/2016 17:00:00 UTC 07/01 17:00 UTC 47°03.49'N 19°29.67'W 585.09 nm -581.41 nm 58 28.5 KNOTS.abrev 30.0 KNOTS.abrev 30.2 KNOTS.abrev 24.2 KNOTS.abrev 592.87 nm
07/01/2016 16:30:00 UTC 07/01 16:30 UTC 46°55.65'N 19°48.38'W 599.39 nm -595.71 nm 52 27.2 KNOTS.abrev 29.7 KNOTS.abrev 30.1 KNOTS.abrev 24.1 KNOTS.abrev 578.24 nm
07/01/2016 16:00:00 UTC 07/01 16:00 UTC 46°46.54'N 20°05.47'W 613.03 nm -609.35 nm 60 28.9 KNOTS.abrev 29.9 KNOTS.abrev 30.1 KNOTS.abrev 24.1 KNOTS.abrev 577.93 nm
07/01/2016 15:30:00 UTC 07/01 15:30 UTC 46°39.12'N 20°24.40'W 627.53 nm -623.85 nm 62 29.9 KNOTS.abrev 30.5 KNOTS.abrev 30.1 KNOTS.abrev 24.1 KNOTS.abrev 577.75 nm
07/01/2016 15:00:00 UTC 07/01 15:00 UTC 46°31.98'N 20°44.03'W 642.47 nm -638.80 nm 52 29.1 KNOTS.abrev 31.4 KNOTS.abrev 30.5 KNOTS.abrev 24.0 KNOTS.abrev 576.12 nm
07/01/2016 14:30:00 UTC 07/01 14:30 UTC 46°22.43'N 21°02.07'W 657.12 nm -653.45 nm 48 27.8 KNOTS.abrev 30.7 KNOTS.abrev 30.5 KNOTS.abrev 24.0 KNOTS.abrev 575.73 nm
07/01/2016 14:00:00 UTC 07/01 14:00 UTC 46°12.18'N 21°18.58'W 671.08 nm -667.41 nm 44 26.2 KNOTS.abrev 29.7 KNOTS.abrev 30.6 KNOTS.abrev 24.0 KNOTS.abrev 575.52 nm
07/01/2016 13:30:00 UTC 07/01 13:30 UTC 46°01.53'N 21°33.54'W 684.26 nm -680.58 nm 41 26.8 KNOTS.abrev 31.2 KNOTS.abrev 30.6 KNOTS.abrev 23.8 KNOTS.abrev 571.86 nm
07/01/2016 13:00:00 UTC 07/01 13:00 UTC 45°49.72'N 21°48.12'W 697.68 nm -694.01 nm 32 23.7 KNOTS.abrev 30.3 KNOTS.abrev 30.3 KNOTS.abrev 23.6 KNOTS.abrev 567.10 nm
07/01/2016 12:30:00 UTC 07/01 12:30 UTC 45°36.89'N 21°59.65'W 709.61 nm -705.93 nm 41 26.5 KNOTS.abrev 30.3 KNOTS.abrev 30.0 KNOTS.abrev 23.5 KNOTS.abrev 563.08 nm
07/01/2016 12:00:00 UTC 07/01 12:00 UTC 45°25.42'N 22°13.74'W 722.89 nm -719.21 nm 41 25.9 KNOTS.abrev 29.3 KNOTS.abrev 29.6 KNOTS.abrev 23.3 KNOTS.abrev 558.49 nm
07/01/2016 11:30:00 UTC 07/01 11:30 UTC 45°14.33'N 22°27.35'W 735.84 nm -732.16 nm 36 27.1 KNOTS.abrev 32.1 KNOTS.abrev 29.7 KNOTS.abrev 23.1 KNOTS.abrev 554.95 nm
07/01/2016 11:00:00 UTC 07/01 11:00 UTC 45°01.40'N 22°40.80'W 749.49 nm -745.82 nm 30 24.9 KNOTS.abrev 31.5 KNOTS.abrev 28.3 KNOTS.abrev 22.9 KNOTS.abrev 550.56 nm
07/01/2016 10:30:00 UTC 07/01 10:30 UTC 44°47.76'N 22°51.84'W 762.00 nm -758.33 nm 35 26.3 KNOTS.abrev 30.9 KNOTS.abrev 27.6 KNOTS.abrev 22.8 KNOTS.abrev 546.55 nm
07/01/2016 10:00:00 UTC 07/01 10:00 UTC 44°35.14'N 23°04.37'W 775.23 nm -771.55 nm 44 27.6 KNOTS.abrev 29.8 KNOTS.abrev 25.9 KNOTS.abrev 22.6 KNOTS.abrev 543.42 nm
07/01/2016 09:30:00 UTC 07/01 09:30 UTC 44°24.46'N 23°18.91'W 789.09 nm -785.41 nm 49 28.1 KNOTS.abrev 29.3 KNOTS.abrev 25.0 KNOTS.abrev 22.5 KNOTS.abrev 540.57 nm
07/01/2016 09:00:00 UTC 07/01 09:00 UTC 44°14.86'N 23°34.38'W 803.17 nm -799.49 nm 42 25.6 KNOTS.abrev 27.8 KNOTS.abrev 23.6 KNOTS.abrev 22.4 KNOTS.abrev 538.30 nm
07/01/2016 08:30:00 UTC 07/01 08:30 UTC 44°04.48'N 23°47.26'W 815.96 nm -812.29 nm 41 25.1 KNOTS.abrev 27.4 KNOTS.abrev 22.3 KNOTS.abrev 22.4 KNOTS.abrev 537.65 nm
07/01/2016 08:00:00 UTC 07/01 08:00 UTC 43°54.11'N 23°59.68'W 828.54 nm -824.86 nm 42 24.2 KNOTS.abrev 26.0 KNOTS.abrev 21.2 KNOTS.abrev 22.3 KNOTS.abrev 536.40 nm
07/01/2016 06:40:00 UTC 07/01 06:40 UTC 43°28.59'N 24°32.20'W 861.03 nm -857.35 nm 50 19.0 KNOTS.abrev 19.5 KNOTS.abrev 17.9 KNOTS.abrev 22.3 KNOTS.abrev 535.88 nm
07/01/2016 06:30:00 UTC 07/01 06:30 UTC 43°26.49'N 24°35.61'W 864.19 nm -860.51 nm 54 16.8 KNOTS.abrev 17.0 KNOTS.abrev 17.8 KNOTS.abrev 22.3 KNOTS.abrev 536.17 nm
07/01/2016 06:20:00 UTC 07/01 06:20 UTC 43°24.83'N 24°38.77'W 866.99 nm -863.31 nm 40 14.0 KNOTS.abrev 15.2 KNOTS.abrev 17.7 KNOTS.abrev 22.4 KNOTS.abrev 536.83 nm
07/01/2016 06:10:00 UTC 07/01 06:10 UTC 43°22.89'N 24°40.98'W 869.32 nm -865.64 nm 27 16.2 KNOTS.abrev 19.9 KNOTS.abrev 17.8 KNOTS.abrev 22.4 KNOTS.abrev 538.02 nm
07/01/2016 06:00:00 UTC 07/01 06:00 UTC 43°19.93'N 24°43.06'W 872.03 nm -868.35 nm 29 16.4 KNOTS.abrev 19.7 KNOTS.abrev 17.8 KNOTS.abrev 22.4 KNOTS.abrev 535.02 nm
07/01/2016 05:50:00 UTC 07/01 05:50 UTC 43°17.07'N 24°45.24'W 874.77 nm -871.09 nm 26 17.3 KNOTS.abrev 21.4 KNOTS.abrev 17.4 KNOTS.abrev 22.5 KNOTS.abrev 532.01 nm
07/01/2016 05:00:00 UTC 07/01 05:00 UTC 43°01.06'N 24°55.98'W 889.24 nm -885.56 nm 22 15.5 KNOTS.abrev 20.0 KNOTS.abrev 16.2 KNOTS.abrev 22.6 KNOTS.abrev 516.10 nm
07/01/2016 04:50:00 UTC 07/01 04:50 UTC 42°57.97'N 24°57.68'W 891.82 nm -888.14 nm 14 10.6 KNOTS.abrev 15.6 KNOTS.abrev 16.0 KNOTS.abrev 22.6 KNOTS.abrev 513.26 nm
07/01/2016 04:40:00 UTC 07/01 04:40 UTC 42°55.45'N 24°58.52'W 893.57 nm -889.89 nm 16 12.8 KNOTS.abrev 18.2 KNOTS.abrev 15.9 KNOTS.abrev 22.7 KNOTS.abrev 511.26 nm
07/01/2016 04:30:00 UTC 07/01 04:30 UTC 42°52.53'N 24°59.66'W 895.71 nm -892.03 nm 20 13.9 KNOTS.abrev 18.4 KNOTS.abrev 15.7 KNOTS.abrev 22.8 KNOTS.abrev 508.86 nm
07/01/2016 04:20:00 UTC 07/01 04:20 UTC 42°49.64'N 25°01.07'W 898.02 nm -894.34 nm 23 13.6 KNOTS.abrev 17.2 KNOTS.abrev 15.5 KNOTS.abrev 22.8 KNOTS.abrev 506.32 nm
07/01/2016 04:10:00 UTC 07/01 04:10 UTC 42°47.01'N 25°02.59'W 900.29 nm -896.61 nm 34 16.0 KNOTS.abrev 18.0 KNOTS.abrev 15.5 KNOTS.abrev 22.9 KNOTS.abrev 503.86 nm
07/01/2016 03:40:00 UTC 07/01 03:40 UTC 42°39.54'N 25°09.36'W 908.29 nm -904.61 nm 20 14.0 KNOTS.abrev 18.3 KNOTS.abrev 15.2 KNOTS.abrev 23.0 KNOTS.abrev 495.46 nm
07/01/2016 03:30:00 UTC 07/01 03:30 UTC 42°36.68'N 25°10.80'W 910.63 nm -906.95 nm 18 13.1 KNOTS.abrev 17.7 KNOTS.abrev 15.4 KNOTS.abrev 23.1 KNOTS.abrev 492.93 nm
07/01/2016 03:20:00 UTC 07/01 03:20 UTC 42°33.87'N 25°12.03'W 912.82 nm -909.14 nm 16 11.7 KNOTS.abrev 16.3 KNOTS.abrev 15.5 KNOTS.abrev 23.2 KNOTS.abrev 490.57 nm
07/01/2016 02:50:00 UTC 07/01 02:50 UTC 42°26.02'N 25°15.03'W 918.66 nm -914.98 nm 12 7.1 KNOTS.abrev 10.5 KNOTS.abrev 16.5 KNOTS.abrev 23.7 KNOTS.abrev 582.08 nm
07/01/2016 02:40:00 UTC 07/01 02:40 UTC 42°24.31'N 25°15.54'W 919.85 nm -916.18 nm 29 12.1 KNOTS.abrev 14.1 KNOTS.abrev 17.0 KNOTS.abrev 23.8 KNOTS.abrev 580.96 nm
07/01/2016 02:30:00 UTC 07/01 02:30 UTC 42°22.26'N 25°17.07'W 921.86 nm -918.19 nm 40 14.9 KNOTS.abrev 15.9 KNOTS.abrev 17.4 KNOTS.abrev 23.9 KNOTS.abrev 579.01 nm
07/01/2016 02:10:00 UTC 07/01 02:10 UTC 42°18.20'N 25°21.63'W 926.84 nm -923.16 nm 41 18.2 KNOTS.abrev 19.1 KNOTS.abrev 18.1 KNOTS.abrev 24.0 KNOTS.abrev 574.15 nm
07/01/2016 02:00:00 UTC 07/01 02:00 UTC 42°15.81'N 25°24.48'W 929.87 nm -926.20 nm 46 11.7 KNOTS.abrev 12.0 KNOTS.abrev 18.7 KNOTS.abrev 24.1 KNOTS.abrev 584.11 nm
07/01/2016 01:50:00 UTC 07/01 01:50 UTC 42°14.43'N 25°26.44'W 931.82 nm -928.14 nm 55 13.9 KNOTS.abrev 13.9 KNOTS.abrev 19.0 KNOTS.abrev 24.2 KNOTS.abrev 582.20 nm
07/01/2016 01:40:00 UTC 07/01 01:40 UTC 42°13.10'N 25°29.01'W 934.14 nm -930.46 nm 51 21.0 KNOTS.abrev 21.2 KNOTS.abrev 19.5 KNOTS.abrev 24.3 KNOTS.abrev 579.91 nm
07/01/2016 01:30:00 UTC 07/01 01:30 UTC 42°10.88'N 25°32.72'W 937.64 nm -933.96 nm 43 16.7 KNOTS.abrev 17.4 KNOTS.abrev 19.7 KNOTS.abrev 24.3 KNOTS.abrev 576.45 nm
07/01/2016 01:20:00 UTC 07/01 01:20 UTC 42°08.76'N 25°35.39'W 940.43 nm -936.75 nm 43 14.1 KNOTS.abrev 14.6 KNOTS.abrev 20.1 KNOTS.abrev 24.5 KNOTS.abrev 592.10 nm
07/01/2016 01:10:00 UTC 07/01 01:10 UTC 42°06.97'N 25°37.62'W 942.77 nm -939.09 nm 42 16.2 KNOTS.abrev 16.9 KNOTS.abrev 20.7 KNOTS.abrev 24.6 KNOTS.abrev 589.83 nm
07/01/2016 01:00:00 UTC 07/01 01:00 UTC 42°04.86'N 25°40.14'W 945.46 nm -941.78 nm 43 12.8 KNOTS.abrev 13.4 KNOTS.abrev 21.2 KNOTS.abrev 24.7 KNOTS.abrev 587.23 nm
07/01/2016 00:50:00 UTC 07/01 00:50 UTC 42°03.22'N 25°42.17'W 947.60 nm -943.92 nm 47 13.4 KNOTS.abrev 13.6 KNOTS.abrev 21.9 KNOTS.abrev 24.9 KNOTS.abrev 603.72 nm
07/01/2016 00:40:00 UTC 07/01 00:40 UTC 42°01.67'N 25°44.41'W 949.82 nm -946.15 nm 55 12.9 KNOTS.abrev 13.0 KNOTS.abrev 22.5 KNOTS.abrev 25.0 KNOTS.abrev 601.56 nm
07/01/2016 00:30:00 UTC 07/01 00:30 UTC 42°00.44'N 25°46.79'W 951.98 nm -948.30 nm 54 13.3 KNOTS.abrev 13.4 KNOTS.abrev 23.1 KNOTS.abrev 25.1 KNOTS.abrev 599.43 nm
07/01/2016 00:20:00 UTC 07/01 00:20 UTC 41°59.13'N 25°49.23'W 954.21 nm -950.53 nm 55 17.8 KNOTS.abrev 17.8 KNOTS.abrev 23.5 KNOTS.abrev 25.3 KNOTS.abrev 614.34 nm
07/01/2016 00:10:00 UTC 07/01 00:10 UTC 41°57.41'N 25°52.48'W 957.17 nm -953.49 nm 60 17.2 KNOTS.abrev 17.2 KNOTS.abrev 23.8 KNOTS.abrev 25.4 KNOTS.abrev 611.42 nm
06/01/2016 23:50:00 UTC 06/01 23:50 UTC 41°54.53'N 25°59.13'W 962.90 nm -959.22 nm 54 16.9 KNOTS.abrev 16.9 KNOTS.abrev 23.7 KNOTS.abrev 25.5 KNOTS.abrev 605.72 nm
06/01/2016 23:40:00 UTC 06/01 23:40 UTC 41°52.87'N 26°02.19'W 965.71 nm -962.03 nm 55 21.8 KNOTS.abrev 21.8 KNOTS.abrev 23.8 KNOTS.abrev 25.7 KNOTS.abrev 619.23 nm
06/01/2016 23:30:00 UTC 06/01 23:30 UTC 41°50.77'N 26°06.17'W 969.33 nm -965.66 nm 55 19.1 KNOTS.abrev 19.2 KNOTS.abrev 23.8 KNOTS.abrev 25.7 KNOTS.abrev 615.66 nm
06/01/2016 23:20:00 UTC 06/01 23:20 UTC 41°48.92'N 26°09.66'W 972.52 nm -968.84 nm 54 20.5 KNOTS.abrev 20.6 KNOTS.abrev 23.8 KNOTS.abrev 25.8 KNOTS.abrev 612.53 nm
06/01/2016 23:10:00 UTC 06/01 23:10 UTC 41°46.90'N 26°13.38'W 975.94 nm -972.27 nm 53 21.4 KNOTS.abrev 21.5 KNOTS.abrev 24.1 KNOTS.abrev 25.9 KNOTS.abrev 625.33 nm
06/01/2016 23:00:00 UTC 06/01 23:00 UTC 41°44.73'N 26°17.20'W 979.51 nm -975.83 nm 55 24.0 KNOTS.abrev 24.1 KNOTS.abrev 24.2 KNOTS.abrev 26.0 KNOTS.abrev 621.85 nm
06/01/2016 22:50:00 UTC 06/01 22:50 UTC 41°42.42'N 26°21.58'W 983.51 nm -979.83 nm 54 21.2 KNOTS.abrev 21.3 KNOTS.abrev 24.0 KNOTS.abrev 26.0 KNOTS.abrev 617.93 nm
06/01/2016 22:40:00 UTC 06/01 22:40 UTC 41°40.34'N 26°25.43'W 987.05 nm -983.37 nm 55 22.9 KNOTS.abrev 22.9 KNOTS.abrev 24.0 KNOTS.abrev 26.2 KNOTS.abrev 630.26 nm
06/01/2016 22:30:00 UTC 06/01 22:30 UTC 41°38.13'N 26°29.58'W 990.85 nm -987.18 nm 57 22.7 KNOTS.abrev 22.7 KNOTS.abrev 24.1 KNOTS.abrev 26.2 KNOTS.abrev 626.53 nm
06/01/2016 22:20:00 UTC 06/01 22:20 UTC 41°36.06'N 26°33.82'W 994.64 nm -990.96 nm 58 24.6 KNOTS.abrev 24.6 KNOTS.abrev 24.2 KNOTS.abrev 26.2 KNOTS.abrev 622.81 nm
06/01/2016 22:10:00 UTC 06/01 22:10 UTC 41°33.87'N 26°38.44'W 998.73 nm -995.05 nm 58 26.5 KNOTS.abrev 26.5 KNOTS.abrev 24.4 KNOTS.abrev 26.3 KNOTS.abrev 634.03 nm
06/01/2016 21:50:00 UTC 06/01 21:50 UTC 41°29.17'N 26°48.40'W 1007.55 nm -1003.87 nm 58 24.7 KNOTS.abrev 24.7 KNOTS.abrev 24.3 KNOTS.abrev 26.3 KNOTS.abrev 635.53 nm
06/01/2016 21:40:00 UTC 06/01 21:40 UTC 41°26.97'N 26°53.06'W 1011.68 nm -1008.00 nm 59 26.1 KNOTS.abrev 26.1 KNOTS.abrev 24.5 KNOTS.abrev 26.3 KNOTS.abrev 631.47 nm
06/01/2016 21:30:00 UTC 06/01 21:30 UTC 41°24.74'N 26°58.02'W 1016.02 nm -1012.34 nm 62 28.2 KNOTS.abrev 28.3 KNOTS.abrev 24.4 KNOTS.abrev 26.3 KNOTS.abrev 631.94 nm
06/01/2016 21:20:00 UTC 06/01 21:20 UTC 41°22.56'N 27°03.60'W 1020.72 nm -1017.05 nm 62 29.1 KNOTS.abrev 29.2 KNOTS.abrev 24.3 KNOTS.abrev 26.3 KNOTS.abrev 632.00 nm
06/01/2016 21:10:00 UTC 06/01 21:10 UTC 41°20.26'N 27°09.30'W 1025.58 nm -1021.90 nm 61 27.1 KNOTS.abrev 27.1 KNOTS.abrev 24.1 KNOTS.abrev 26.3 KNOTS.abrev 632.25 nm
06/01/2016 21:00:00 UTC 06/01 21:00 UTC 41°18.07'N 27°14.56'W 1030.09 nm -1026.41 nm 64 30.3 KNOTS.abrev 30.4 KNOTS.abrev 25.1 KNOTS.abrev 26.4 KNOTS.abrev 632.67 nm
06/01/2016 20:50:00 UTC 06/01 20:50 UTC 41°15.87'N 27°20.64'W 1035.13 nm -1031.45 nm 60 28.0 KNOTS.abrev 28.0 KNOTS.abrev 25.1 KNOTS.abrev 26.3 KNOTS.abrev 627.61 nm
06/01/2016 20:40:00 UTC 06/01 20:40 UTC 41°13.56'N 27°26.02'W 1039.79 nm -1036.11 nm 60 25.2 KNOTS.abrev 25.2 KNOTS.abrev 25.0 KNOTS.abrev 26.4 KNOTS.abrev 636.90 nm
06/01/2016 20:20:00 UTC 06/01 20:20 UTC 41°09.43'N 27°35.72'W 1048.17 nm -1044.49 nm 56 26.3 KNOTS.abrev 26.3 KNOTS.abrev 25.4 KNOTS.abrev 26.4 KNOTS.abrev 628.60 nm
06/01/2016 20:10:00 UTC 06/01 20:10 UTC 41°07.00'N 27°40.56'W 1052.55 nm -1048.87 nm 62 13.5 KNOTS.abrev 13.6 KNOTS.abrev 25.7 KNOTS.abrev 26.5 KNOTS.abrev 639.23 nm
06/01/2016 20:00:00 UTC 06/01 20:00 UTC 41°05.93'N 27°43.20'W 1054.81 nm -1051.13 nm 50 16.3 KNOTS.abrev 16.4 KNOTS.abrev 26.4 KNOTS.abrev 26.5 KNOTS.abrev 636.99 nm
06/01/2016 19:50:00 UTC 06/01 19:50 UTC 41°04.16'N 27°45.98'W 1057.53 nm -1053.85 nm 61 20.2 KNOTS.abrev 20.2 KNOTS.abrev 27.1 KNOTS.abrev 26.6 KNOTS.abrev 634.40 nm
06/01/2016 19:40:00 UTC 06/01 19:40 UTC 41°02.54'N 27°49.90'W 1060.89 nm -1057.21 nm 66 21.0 KNOTS.abrev 21.2 KNOTS.abrev 27.6 KNOTS.abrev 26.7 KNOTS.abrev 646.75 nm
06/01/2016 19:30:00 UTC 06/01 19:30 UTC 41°01.10'N 27°54.18'W 1064.39 nm -1060.71 nm 100 19.7 KNOTS.abrev 26.8 KNOTS.abrev 28.1 KNOTS.abrev 26.8 KNOTS.abrev 643.22 nm
06/01/2016 19:20:00 UTC 06/01 19:20 UTC 41°01.89'N 28°00.00'W 1067.67 nm -1063.99 nm 35 26.0 KNOTS.abrev 28.2 KNOTS.abrev 29.1 KNOTS.abrev 26.8 KNOTS.abrev 639.37 nm
06/01/2016 19:00:00 UTC 06/01 19:00 UTC 40°54.21'N 28°07.13'W 1076.35 nm -1072.67 nm 17 17.7 KNOTS.abrev 23.1 KNOTS.abrev 29.0 KNOTS.abrev 26.9 KNOTS.abrev 650.41 nm
06/01/2016 18:50:00 UTC 06/01 18:50 UTC 40°50.54'N 28°08.65'W 1079.31 nm -1075.63 nm 21 22.3 KNOTS.abrev 27.6 KNOTS.abrev 29.4 KNOTS.abrev 27.0 KNOTS.abrev 648.12 nm
06/01/2016 18:40:00 UTC 06/01 18:40 UTC 40°46.23'N 28°10.78'W 1083.01 nm -1079.33 nm 26 23.6 KNOTS.abrev 27.4 KNOTS.abrev 29.6 KNOTS.abrev 27.1 KNOTS.abrev 649.18 nm
06/01/2016 18:30:00 UTC 06/01 18:30 UTC 40°42.14'N 28°13.46'W 1086.95 nm -1083.27 nm 27 25.0 KNOTS.abrev 28.8 KNOTS.abrev 29.8 KNOTS.abrev 27.2 KNOTS.abrev 651.82 nm
06/01/2016 18:20:00 UTC 06/01 18:20 UTC 40°37.87'N 28°16.32'W 1091.11 nm -1087.43 nm 21 24.7 KNOTS.abrev 30.4 KNOTS.abrev 29.9 KNOTS.abrev 27.3 KNOTS.abrev 657.65 nm
06/01/2016 18:00:00 UTC 06/01 18:00 UTC 40°28.43'N 28°21.15'W 1099.39 nm -1095.71 nm 24 24.4 KNOTS.abrev 28.9 KNOTS.abrev 30.0 KNOTS.abrev 27.4 KNOTS.abrev 662.77 nm
06/01/2016 17:50:00 UTC 06/01 17:50 UTC 40°24.04'N 28°23.75'W 1103.48 nm -1099.80 nm 25 26.1 KNOTS.abrev 30.5 KNOTS.abrev 30.0 KNOTS.abrev 27.5 KNOTS.abrev 659.62 nm
06/01/2016 17:40:00 UTC 06/01 17:40 UTC 40°19.42'N 28°26.52'W 1107.82 nm -1104.14 nm 25 25.1 KNOTS.abrev 29.2 KNOTS.abrev 29.4 KNOTS.abrev 27.6 KNOTS.abrev 661.53 nm
06/01/2016 16:30:00 UTC 06/01 16:30 UTC 39°48.50'N 28°45.24'W 1137.19 nm -1133.51 nm 21 25.2 KNOTS.abrev 30.4 KNOTS.abrev 26.2 KNOTS.abrev 28.2 KNOTS.abrev 677.58 nm
06/01/2016 16:20:00 UTC 06/01 16:20 UTC 39°43.78'N 28°47.64'W 1141.41 nm -1137.73 nm 20 24.8 KNOTS.abrev 30.2 KNOTS.abrev 25.9 KNOTS.abrev 28.4 KNOTS.abrev 686.10 nm
06/01/2016 16:10:00 UTC 06/01 16:10 UTC 39°39.07'N 28°49.92'W 1145.57 nm -1141.90 nm 18 24.9 KNOTS.abrev 31.0 KNOTS.abrev 25.6 KNOTS.abrev 28.5 KNOTS.abrev 683.33 nm
06/01/2016 16:00:00 UTC 06/01 16:00 UTC 39°34.16'N 28°51.99'W 1149.73 nm -1146.05 nm 17 24.5 KNOTS.abrev 30.9 KNOTS.abrev 25.4 KNOTS.abrev 28.6 KNOTS.abrev 686.53 nm
06/01/2016 15:50:00 UTC 06/01 15:50 UTC 39°29.23'N 28°53.92'W 1153.81 nm -1150.13 nm 17 23.8 KNOTS.abrev 29.9 KNOTS.abrev 25.4 KNOTS.abrev 28.7 KNOTS.abrev 689.74 nm
06/01/2016 15:40:00 UTC 06/01 15:40 UTC 39°24.48'N 28°55.82'W 1157.78 nm -1156.20 nm 17 24.4 KNOTS.abrev 30.6 KNOTS.abrev 25.5 KNOTS.abrev 28.9 KNOTS.abrev 693.06 nm
06/01/2016 15:30:00 UTC 06/01 15:30 UTC 39°19.61'N 28°57.72'W 1161.84 nm -1157.14 nm 15 22.7 KNOTS.abrev 29.2 KNOTS.abrev 25.6 KNOTS.abrev 29.0 KNOTS.abrev 696.33 nm
06/01/2016 15:20:00 UTC 06/01 15:20 UTC 39°14.92'N 28°59.35'W 1165.63 nm -1156.74 nm 13 20.7 KNOTS.abrev 27.3 KNOTS.abrev 25.9 KNOTS.abrev 29.2 KNOTS.abrev 699.93 nm
06/01/2016 15:00:00 UTC 06/01 15:00 UTC 39°06.04'N 29°01.91'W 1172.50 nm -1154.81 nm 15 25.4 KNOTS.abrev 32.4 KNOTS.abrev 26.9 KNOTS.abrev 29.5 KNOTS.abrev 707.70 nm
06/01/2016 14:50:00 UTC 06/01 14:50 UTC 39°00.84'N 29°03.73'W 1176.74 nm -1154.31 nm 15 25.6 KNOTS.abrev 32.7 KNOTS.abrev 27.3 KNOTS.abrev 29.6 KNOTS.abrev 716.45 nm
06/01/2016 14:40:00 UTC 06/01 14:40 UTC 38°55.58'N 29°05.51'W 1181.01 nm -1153.69 nm 14 24.6 KNOTS.abrev 31.8 KNOTS.abrev 27.8 KNOTS.abrev 29.8 KNOTS.abrev 714.18 nm
06/01/2016 14:30:00 UTC 06/01 14:30 UTC 38°50.45'N 29°07.16'W 1185.13 nm -1152.94 nm 15 24.8 KNOTS.abrev 31.4 KNOTS.abrev 28.4 KNOTS.abrev 29.9 KNOTS.abrev 722.89 nm
06/01/2016 14:20:00 UTC 06/01 14:20 UTC 38°45.40'N 29°08.93'W 1189.27 nm -1152.23 nm 19 27.0 KNOTS.abrev 32.4 KNOTS.abrev 29.2 KNOTS.abrev 30.0 KNOTS.abrev 720.72 nm
06/01/2016 14:10:00 UTC 06/01 14:10 UTC 38°40.30'N 29°11.18'W 1193.77 nm -1151.95 nm 18 25.4 KNOTS.abrev 30.8 KNOTS.abrev 29.9 KNOTS.abrev 30.2 KNOTS.abrev 723.71 nm
06/01/2016 14:00:00 UTC 06/01 14:00 UTC 38°35.42'N 29°13.24'W 1198.02 nm -1151.56 nm 15 22.7 KNOTS.abrev 28.6 KNOTS.abrev 30.6 KNOTS.abrev 30.3 KNOTS.abrev 726.88 nm
06/01/2016 13:50:00 UTC 06/01 13:50 UTC 38°30.84'N 29°14.85'W 1201.82 nm -1150.38 nm 58 21.0 KNOTS.abrev 21.1 KNOTS.abrev 31.5 KNOTS.abrev 30.4 KNOTS.abrev 730.31 nm
06/01/2016 13:40:00 UTC 06/01 13:40 UTC 38°28.98'N 29°18.67'W 1205.32 nm -1148.86 nm 86 27.4 KNOTS.abrev 33.0 KNOTS.abrev 32.0 KNOTS.abrev 30.5 KNOTS.abrev 732.27 nm
06/01/2016 13:30:00 UTC 06/01 13:30 UTC 38°28.59'N 29°25.67'W 1209.90 nm -1148.55 nm 86 27.5 KNOTS.abrev 33.1 KNOTS.abrev 32.0 KNOTS.abrev 30.5 KNOTS.abrev 731.93 nm
06/01/2016 13:20:00 UTC 06/01 13:20 UTC 38°28.17'N 29°32.69'W 1214.51 nm -1148.67 nm 85 28.1 KNOTS.abrev 33.4 KNOTS.abrev 32.0 KNOTS.abrev 30.5 KNOTS.abrev 731.66 nm
06/01/2016 13:00:00 UTC 06/01 13:00 UTC 38°27.15'N 29°46.83'W 1223.91 nm -1148.69 nm 83 27.4 KNOTS.abrev 31.8 KNOTS.abrev 31.9 KNOTS.abrev 30.5 KNOTS.abrev 731.23 nm
06/01/2016 12:40:00 UTC 06/01 12:40 UTC 38°25.88'N 30°00.26'W 1233.04 nm -1148.17 nm 83 27.2 KNOTS.abrev 31.5 KNOTS.abrev 31.9 KNOTS.abrev 30.4 KNOTS.abrev 730.56 nm
06/01/2016 12:30:00 UTC 06/01 12:30 UTC 38°25.29'N 30°06.91'W 1237.55 nm -1147.65 nm 84 26.4 KNOTS.abrev 30.9 KNOTS.abrev 31.9 KNOTS.abrev 30.4 KNOTS.abrev 730.48 nm
06/01/2016 12:20:00 UTC 06/01 12:20 UTC 38°24.73'N 30°13.43'W 1241.95 nm -1146.93 nm 87 25.9 KNOTS.abrev 31.4 KNOTS.abrev 31.7 KNOTS.abrev 30.4 KNOTS.abrev 730.75 nm
06/01/2016 12:10:00 UTC 06/01 12:10 UTC 38°24.45'N 30°20.09'W 1246.28 nm -1146.24 nm 86 26.8 KNOTS.abrev 32.1 KNOTS.abrev 30.9 KNOTS.abrev 30.4 KNOTS.abrev 730.76 nm
06/01/2016 12:00:00 UTC 06/01 12:00 UTC 38°24.12'N 30°26.88'W 1250.72 nm -1145.66 nm 83 26.5 KNOTS.abrev 30.6 KNOTS.abrev 30.1 KNOTS.abrev 30.4 KNOTS.abrev 735.08 nm
06/01/2016 11:50:00 UTC 06/01 11:50 UTC 38°23.50'N 30°33.35'W 1255.13 nm -1145.24 nm 84 27.2 KNOTS.abrev 31.8 KNOTS.abrev 29.4 KNOTS.abrev 30.4 KNOTS.abrev 729.98 nm
06/01/2016 11:40:00 UTC 06/01 11:40 UTC 38°22.92'N 30°40.07'W 1259.69 nm -1144.85 nm 85 26.9 KNOTS.abrev 31.7 KNOTS.abrev 28.7 KNOTS.abrev 30.4 KNOTS.abrev 729.73 nm
06/01/2016 11:30:00 UTC 06/01 11:30 UTC 38°22.46'N 30°46.78'W 1264.17 nm -1144.26 nm 84 27.2 KNOTS.abrev 31.8 KNOTS.abrev 28.1 KNOTS.abrev 30.4 KNOTS.abrev 729.31 nm
06/01/2016 11:20:00 UTC 06/01 11:20 UTC 38°21.87'N 30°53.49'W 1268.73 nm -1143.94 nm 83 28.5 KNOTS.abrev 32.9 KNOTS.abrev 27.6 KNOTS.abrev 30.3 KNOTS.abrev 726.30 nm
06/01/2016 11:10:00 UTC 06/01 11:10 UTC 38°21.26'N 31°00.43'W 1273.45 nm -1143.79 nm 86 26.5 KNOTS.abrev 31.5 KNOTS.abrev 27.1 KNOTS.abrev 30.1 KNOTS.abrev 721.88 nm
06/01/2016 11:00:00 UTC 06/01 11:00 UTC 38°20.90'N 31°07.11'W 1277.86 nm -1143.32 nm 88 26.4 KNOTS.abrev 32.2 KNOTS.abrev 26.7 KNOTS.abrev 29.9 KNOTS.abrev 717.81 nm
06/01/2016 10:50:00 UTC 06/01 10:50 UTC 38°20.75'N 31°13.95'W 1282.25 nm -1142.80 nm 87 26.2 KNOTS.abrev 31.5 KNOTS.abrev 26.3 KNOTS.abrev 29.7 KNOTS.abrev 713.49 nm
06/01/2016 10:40:00 UTC 06/01 10:40 UTC 38°20.48'N 31°20.63'W 1286.60 nm -1142.29 nm 86 26.5 KNOTS.abrev 31.5 KNOTS.abrev 26.1 KNOTS.abrev 29.6 KNOTS.abrev 709.28 nm
06/01/2016 10:30:00 UTC 06/01 10:30 UTC 38°20.16'N 31°27.30'W 1290.99 nm -1141.82 nm 86 28.0 KNOTS.abrev 33.2 KNOTS.abrev 26.1 KNOTS.abrev 29.4 KNOTS.abrev 704.92 nm
06/01/2016 10:20:00 UTC 06/01 10:20 UTC 38°19.75'N 31°34.34'W 1295.66 nm -1141.54 nm 86 27.6 KNOTS.abrev 32.8 KNOTS.abrev 25.9 KNOTS.abrev 29.2 KNOTS.abrev 699.90 nm
06/01/2016 10:10:00 UTC 06/01 10:10 UTC 38°19.37'N 31°41.29'W 1300.27 nm -1141.20 nm 86 26.7 KNOTS.abrev 31.7 KNOTS.abrev 25.8 KNOTS.abrev 29.0 KNOTS.abrev 695.09 nm
06/01/2016 10:00:00 UTC 06/01 10:00 UTC 38°18.96'N 31°48.00'W 1304.75 nm -1140.75 nm 86 27.6 KNOTS.abrev 32.7 KNOTS.abrev 25.6 KNOTS.abrev 28.8 KNOTS.abrev 690.64 nm
06/01/2016 09:50:00 UTC 06/01 09:50 UTC 38°18.59'N 31°54.92'W 1309.33 nm -1140.64 nm 85 26.6 KNOTS.abrev 31.1 KNOTS.abrev 25.4 KNOTS.abrev 28.6 KNOTS.abrev 686.11 nm
06/01/2016 09:40:00 UTC 06/01 09:40 UTC 38°18.18'N 32°01.51'W 1313.74 nm -1140.27 nm 84 27.7 KNOTS.abrev 32.1 KNOTS.abrev 25.3 KNOTS.abrev 28.4 KNOTS.abrev 682.57 nm
06/01/2016 09:30:00 UTC 06/01 09:30 UTC 38°17.67'N 32°08.29'W 1318.33 nm -1140.01 nm 86 27.4 KNOTS.abrev 32.5 KNOTS.abrev 25.1 KNOTS.abrev 28.4 KNOTS.abrev 677.82 nm
06/01/2016 09:20:00 UTC 06/01 09:20 UTC 38°17.27'N 32°15.17'W 1322.91 nm -1139.64 nm 86 27.0 KNOTS.abrev 31.9 KNOTS.abrev 25.0 KNOTS.abrev 28.4 KNOTS.abrev 681.02 nm
06/01/2016 09:10:00 UTC 06/01 09:10 UTC 38°16.86'N 32°21.92'W 1327.42 nm -1138.90 nm 82 28.4 KNOTS.abrev 32.2 KNOTS.abrev 24.9 KNOTS.abrev 28.3 KNOTS.abrev 681.04 nm
06/01/2016 09:00:00 UTC 06/01 09:00 UTC 38°16.16'N 32°28.70'W 1332.13 nm -1138.12 nm 82 28.4 KNOTS.abrev 32.3 KNOTS.abrev 24.7 KNOTS.abrev 28.3 KNOTS.abrev 675.72 nm
06/01/2016 08:50:00 UTC 06/01 08:50 UTC 38°15.44'N 32°35.49'W 1336.86 nm -1137.49 nm 81 28.1 KNOTS.abrev 31.7 KNOTS.abrev 24.5 KNOTS.abrev 28.3 KNOTS.abrev 670.39 nm
06/01/2016 08:40:00 UTC 06/01 08:40 UTC 38°14.62'N 32°42.12'W 1341.54 nm -1137.11 nm 82 28.9 KNOTS.abrev 32.8 KNOTS.abrev 24.4 KNOTS.abrev 28.3 KNOTS.abrev 684.69 nm
06/01/2016 08:30:00 UTC 06/01 08:30 UTC 38°13.91'N 32°49.02'W 1346.34 nm -1137.05 nm 78 23.7 KNOTS.abrev 26.0 KNOTS.abrev 24.3 KNOTS.abrev 28.3 KNOTS.abrev 679.28 nm
06/01/2016 08:20:00 UTC 06/01 08:20 UTC 38°13.03'N 32°54.41'W 1350.28 nm -1136.00 nm 17 22.6 KNOTS.abrev 28.2 KNOTS.abrev 24.6 KNOTS.abrev 28.4 KNOTS.abrev 685.43 nm
06/01/2016 08:10:00 UTC 06/01 08:10 UTC 38°08.54'N 32°56.17'W 1354.06 nm -1134.56 nm 13 23.8 KNOTS.abrev 31.5 KNOTS.abrev 26.4 KNOTS.abrev 28.5 KNOTS.abrev 682.88 nm
06/01/2016 08:00:00 UTC 06/01 08:00 UTC 38°03.44'N 32°57.70'W 1358.05 nm -1133.18 nm 14 23.2 KNOTS.abrev 30.0 KNOTS.abrev 26.8 KNOTS.abrev 28.6 KNOTS.abrev 685.54 nm
06/01/2016 07:50:00 UTC 06/01 07:50 UTC 37°58.58'N 32°59.23'W 1361.91 nm -1131.55 nm 17 23.8 KNOTS.abrev 29.6 KNOTS.abrev 27.2 KNOTS.abrev 28.7 KNOTS.abrev 688.31 nm
06/01/2016 07:40:00 UTC 06/01 07:40 UTC 37°53.87'N 33°01.06'W 1365.89 nm -1130.07 nm 17 26.2 KNOTS.abrev 32.5 KNOTS.abrev 27.6 KNOTS.abrev 28.8 KNOTS.abrev 690.76 nm
06/01/2016 07:30:00 UTC 06/01 07:30 UTC 37°48.69'N 33°03.05'W 1370.25 nm -1128.98 nm 16 25.8 KNOTS.abrev 32.4 KNOTS.abrev 28.0 KNOTS.abrev 28.9 KNOTS.abrev 696.57 nm
06/01/2016 07:20:00 UTC 06/01 07:20 UTC 37°43.50'N 33°04.87'W 1374.53 nm -1127.76 nm 15 24.9 KNOTS.abrev 31.6 KNOTS.abrev 28.6 KNOTS.abrev 29.0 KNOTS.abrev 695.76 nm
06/01/2016 07:10:00 UTC 06/01 07:10 UTC 37°38.41'N 33°06.58'W 1378.68 nm -1126.41 nm 14 24.8 KNOTS.abrev 31.9 KNOTS.abrev 29.2 KNOTS.abrev 29.1 KNOTS.abrev 698.43 nm
06/01/2016 07:00:00 UTC 06/01 07:00 UTC 37°33.27'N 33°08.25'W 1382.85 nm -1125.09 nm 37 19.4 KNOTS.abrev 20.1 KNOTS.abrev 29.9 KNOTS.abrev 29.2 KNOTS.abrev 700.93 nm
06/01/2016 06:50:00 UTC 06/01 06:50 UTC 37°30.61'N 33°10.82'W 1386.08 nm -1122.92 nm 94 23.4 KNOTS.abrev 31.1 KNOTS.abrev 30.5 KNOTS.abrev 29.3 KNOTS.abrev 703.36 nm
06/01/2016 06:40:00 UTC 06/01 06:40 UTC 37°30.96'N 33°17.34'W 1389.98 nm -1121.59 nm 92 23.9 KNOTS.abrev 30.9 KNOTS.abrev 30.5 KNOTS.abrev 29.3 KNOTS.abrev 703.32 nm
06/01/2016 06:30:00 UTC 06/01 06:30 UTC 37°31.16'N 33°23.83'W 1393.96 nm -1120.49 nm 94 23.5 KNOTS.abrev 31.3 KNOTS.abrev 30.4 KNOTS.abrev 29.3 KNOTS.abrev 703.28 nm
06/01/2016 06:20:00 UTC 06/01 06:20 UTC 37°31.52'N 33°30.39'W 1397.89 nm -1119.55 nm 93 24.7 KNOTS.abrev 32.4 KNOTS.abrev 30.4 KNOTS.abrev 29.3 KNOTS.abrev 703.38 nm
06/01/2016 06:10:00 UTC 06/01 06:10 UTC 37°31.85'N 33°37.18'W 1401.98 nm -1118.61 nm 86 25.4 KNOTS.abrev 30.3 KNOTS.abrev 30.3 KNOTS.abrev 29.3 KNOTS.abrev 703.37 nm
06/01/2016 02:16:00 UTC 06/01 02:16 UTC 37°26.05'N 36°06.03'W 1500.30 nm -1086.09 nm 75 25.5 KNOTS.abrev 27.4 KNOTS.abrev 32.3 KNOTS.abrev 26.4 KNOTS.abrev 634.36 nm
06/01/2016 01:46:00 UTC 06/01 01:46 UTC 37°22.62'N 36°22.68'W 1513.02 nm -1080.91 nm 71 31.1 KNOTS.abrev 32.6 KNOTS.abrev 32.6 KNOTS.abrev 26.0 KNOTS.abrev 623.33 nm
06/01/2016 01:11:00 UTC 06/01 01:11 UTC 37°16.60'N 36°45.32'W 1531.11 nm -1079.37 nm 73 32.2 KNOTS.abrev 34.1 KNOTS.abrev 32.4 KNOTS.abrev 25.3 KNOTS.abrev 607.92 nm
06/01/2016 00:37:00 UTC 06/01 00:37 UTC 37°11.13'N 37°08.58'W 1549.30 nm -1078.77 nm 73 30.5 KNOTS.abrev 32.3 KNOTS.abrev 31.8 KNOTS.abrev 24.7 KNOTS.abrev 592.23 nm
06/01/2016 00:04:00 UTC 06/01 00:04 UTC 37°06.00'N 37°29.87'W 1566.04 nm -1077.13 nm 76 31.7 KNOTS.abrev 34.2 KNOTS.abrev 31.7 KNOTS.abrev 24.1 KNOTS.abrev 580.31 nm
05/01/2016 23:34:00 UTC 05/01 23:34 UTC 37°01.93'N 37°50.70'W 1581.86 nm -1076.31 nm 77 31.4 KNOTS.abrev 34.1 KNOTS.abrev 31.5 KNOTS.abrev 23.9 KNOTS.abrev 575.53 nm
05/01/2016 23:04:00 UTC 05/01 23:04 UTC 36°58.24'N 38°11.55'W 1597.49 nm -1075.59 nm 79 30.4 KNOTS.abrev 33.6 KNOTS.abrev 31.0 KNOTS.abrev 23.7 KNOTS.abrev 568.31 nm
05/01/2016 22:34:00 UTC 05/01 22:34 UTC 36°55.10'N 38°32.20'W 1612.68 nm -1074.53 nm 77 27.6 KNOTS.abrev 30.1 KNOTS.abrev 30.7 KNOTS.abrev 23.5 KNOTS.abrev 563.59 nm
05/01/2016 22:02:00 UTC 05/01 22:02 UTC 36°51.65'N 38°51.77'W 1627.36 nm -1072.32 nm 79 23.5 KNOTS.abrev 26.0 KNOTS.abrev 30.9 KNOTS.abrev 23.4 KNOTS.abrev 561.66 nm
05/01/2016 22:00:00 UTC 05/01 22:00 UTC 36°51.48'N 38°52.83'W 1628.15 nm -1072.05 nm 80 26.9 KNOTS.abrev 29.9 KNOTS.abrev 31.1 KNOTS.abrev 23.4 KNOTS.abrev 560.87 nm
05/01/2016 21:40:00 UTC 05/01 21:40 UTC 36°49.76'N 39°05.10'W 1637.10 nm -1070.30 nm 77 28.5 KNOTS.abrev 31.0 KNOTS.abrev 31.3 KNOTS.abrev 23.3 KNOTS.abrev 561.23 nm
05/01/2016 21:31:00 UTC 05/01 21:31 UTC 36°48.71'N 39°10.76'W 1641.38 nm -1069.75 nm 74 17.5 KNOTS.abrev 18.6 KNOTS.abrev 31.3 KNOTS.abrev 23.3 KNOTS.abrev 559.60 nm
05/01/2016 21:30:00 UTC 05/01 21:30 UTC 36°48.62'N 39°11.14'W 1641.67 nm -1069.49 nm 81 27.1 KNOTS.abrev 30.5 KNOTS.abrev 31.4 KNOTS.abrev 23.3 KNOTS.abrev 559.31 nm
05/01/2016 21:20:00 UTC 05/01 21:20 UTC 36°47.81'N 39°17.39'W 1646.20 nm -1068.53 nm 82 28.8 KNOTS.abrev 32.6 KNOTS.abrev 31.5 KNOTS.abrev 23.3 KNOTS.abrev 558.98 nm
05/01/2016 21:10:00 UTC 05/01 21:10 UTC 36°47.02'N 39°24.11'W 1651.02 nm -1067.85 nm 85 29.4 KNOTS.abrev 34.3 KNOTS.abrev 31.5 KNOTS.abrev 23.3 KNOTS.abrev 558.24 nm
05/01/2016 21:01:00 UTC 05/01 21:01 UTC 36°46.60'N 39°30.51'W 1655.41 nm -1067.28 nm 82 12.7 KNOTS.abrev 14.4 KNOTS.abrev 31.5 KNOTS.abrev 23.2 KNOTS.abrev 557.77 nm
05/01/2016 21:00:00 UTC 05/01 21:00 UTC 36°46.57'N 39°30.81'W 1655.63 nm -1066.94 nm 81 26.4 KNOTS.abrev 29.6 KNOTS.abrev 31.6 KNOTS.abrev 23.2 KNOTS.abrev 557.56 nm
05/01/2016 20:30:00 UTC 05/01 20:30 UTC 36°44.28'N 39°49.05'W 1668.80 nm -1063.40 nm 79 28.3 KNOTS.abrev 31.2 KNOTS.abrev 32.0 KNOTS.abrev 23.2 KNOTS.abrev 554.96 nm
05/01/2016 20:00:00 UTC 05/01 20:00 UTC 36°41.26'N 40°08.14'W 1682.96 nm -1061.16 nm 79 28.9 KNOTS.abrev 31.9 KNOTS.abrev 32.4 KNOTS.abrev 23.2 KNOTS.abrev 556.23 nm
05/01/2016 19:29:00 UTC 05/01 19:29 UTC 36°38.28'N 40°28.31'W 1697.81 nm -1059.07 nm 82 27.1 KNOTS.abrev 30.7 KNOTS.abrev 32.6 KNOTS.abrev 23.1 KNOTS.abrev 554.61 nm
05/01/2016 18:50:00 UTC 05/01 18:50 UTC 36°35.71'N 40°52.95'W 1715.34 nm -1056.51 nm 73 28.6 KNOTS.abrev 30.3 KNOTS.abrev 33.1 KNOTS.abrev 23.1 KNOTS.abrev 553.92 nm
05/01/2016 18:42:00 UTC 05/01 18:42 UTC 36°34.50'N 40°57.74'W 1719.16 nm -1056.45 nm 86 27.0 KNOTS.abrev 31.8 KNOTS.abrev 33.2 KNOTS.abrev 23.0 KNOTS.abrev 553.95 nm
05/01/2016 18:30:00 UTC 05/01 18:30 UTC 36°34.06'N 41°05.63'W 1724.55 nm -1055.65 nm 82 28.6 KNOTS.abrev 32.4 KNOTS.abrev 33.2 KNOTS.abrev 23.0 KNOTS.abrev 552.84 nm
05/01/2016 18:12:00 UTC 05/01 18:12 UTC 36°32.77'N 41°17.61'W 1733.11 nm -1054.82 nm 81 29.0 KNOTS.abrev 32.6 KNOTS.abrev 33.3 KNOTS.abrev 23.0 KNOTS.abrev 548.66 nm
05/01/2016 17:50:00 UTC 05/01 17:50 UTC 36°31.00'N 41°32.29'W 1743.72 nm -1054.04 nm 81 30.0 KNOTS.abrev 33.6 KNOTS.abrev 33.4 KNOTS.abrev 22.9 KNOTS.abrev 546.88 nm
05/01/2016 17:42:00 UTC 05/01 17:42 UTC 36°30.34'N 41°37.81'W 1747.70 nm -1053.78 nm 79 25.9 KNOTS.abrev 28.6 KNOTS.abrev 33.3 KNOTS.abrev 22.9 KNOTS.abrev 550.26 nm
05/01/2016 17:40:00 UTC 05/01 17:40 UTC 36°30.15'N 41°38.97'W 1748.56 nm -1053.59 nm 78 30.1 KNOTS.abrev 32.9 KNOTS.abrev 33.3 KNOTS.abrev 22.9 KNOTS.abrev 549.47 nm
05/01/2016 17:30:00 UTC 05/01 17:30 UTC 36°29.01'N 41°45.64'W 1753.58 nm -1053.33 nm 79 30.2 KNOTS.abrev 33.2 KNOTS.abrev 33.3 KNOTS.abrev 22.9 KNOTS.abrev 548.69 nm
05/01/2016 17:20:00 UTC 05/01 17:20 UTC 36°27.92'N 41°52.39'W 1758.62 nm -1053.19 nm 80 31.5 KNOTS.abrev 35.0 KNOTS.abrev 33.2 KNOTS.abrev 22.8 KNOTS.abrev 547.85 nm
05/01/2016 17:12:00 UTC 05/01 17:12 UTC 36°27.13'N 41°58.11'W 1762.81 nm -1053.23 nm 81 22.5 KNOTS.abrev 25.2 KNOTS.abrev 33.2 KNOTS.abrev 22.8 KNOTS.abrev 547.77 nm
05/01/2016 17:10:00 UTC 05/01 17:10 UTC 36°27.00'N 41°59.14'W 1763.56 nm -1052.94 nm 77 30.4 KNOTS.abrev 33.0 KNOTS.abrev 33.2 KNOTS.abrev 22.8 KNOTS.abrev 547.12 nm
05/01/2016 17:00:00 UTC 05/01 17:00 UTC 36°25.78'N 42°05.81'W 1768.63 nm -1052.81 nm 76 30.7 KNOTS.abrev 33.1 KNOTS.abrev 33.1 KNOTS.abrev 22.8 KNOTS.abrev 550.19 nm
05/01/2016 16:50:00 UTC 05/01 16:50 UTC 36°24.48'N 42°12.46'W 1773.73 nm -1052.74 nm 74 30.8 KNOTS.abrev 32.7 KNOTS.abrev 33.0 KNOTS.abrev 22.7 KNOTS.abrev 545.65 nm
05/01/2016 16:41:00 UTC 05/01 16:41 UTC 36°23.17'N 42°18.33'W 1778.33 nm -1052.67 nm 74 24.1 KNOTS.abrev 25.7 KNOTS.abrev 32.9 KNOTS.abrev 22.7 KNOTS.abrev 543.31 nm
05/01/2016 16:40:00 UTC 05/01 16:40 UTC 36°23.05'N 42°18.84'W 1778.73 nm -1052.55 nm 77 30.7 KNOTS.abrev 33.3 KNOTS.abrev 32.9 KNOTS.abrev 22.7 KNOTS.abrev 542.95 nm
05/01/2016 16:30:00 UTC 05/01 16:30 UTC 36°21.78'N 42°25.56'W 1783.86 nm -1052.47 nm 74 32.3 KNOTS.abrev 34.3 KNOTS.abrev 32.8 KNOTS.abrev 22.7 KNOTS.abrev 550.85 nm
05/01/2016 16:10:00 UTC 05/01 16:10 UTC 36°18.55'N 42°39.18'W 1794.65 nm -1052.47 nm 73 33.1 KNOTS.abrev 35.0 KNOTS.abrev 32.6 KNOTS.abrev 22.6 KNOTS.abrev 541.31 nm
05/01/2016 16:10:00 UTC 05/01 16:10 UTC 36°18.48'N 42°39.46'W 1794.87 nm -1052.69 nm 253 0.0 KNOTS.abrev 0.0 KNOTS.abrev 32.5 KNOTS.abrev 22.6 KNOTS.abrev 541.11 nm
05/01/2016 16:00:00 UTC 05/01 16:00 UTC 36°16.83'N 42°46.08'W 1800.17 nm -1052.69 nm 69 33.0 KNOTS.abrev 34.2 KNOTS.abrev 32.2 KNOTS.abrev 22.6 KNOTS.abrev 548.74 nm
05/01/2016 15:50:00 UTC 05/01 15:50 UTC 36°14.78'N 42°52.67'W 1805.68 nm -1053.29 nm 69 33.2 KNOTS.abrev 34.4 KNOTS.abrev 32.1 KNOTS.abrev 22.6 KNOTS.abrev 543.82 nm
05/01/2016 15:40:00 UTC 05/01 15:40 UTC 36°12.75'N 42°59.31'W 1811.21 nm -1053.91 nm 69 52.2 KNOTS.abrev 54.1 KNOTS.abrev 31.9 KNOTS.abrev 22.5 KNOTS.abrev 538.90 nm
05/01/2016 15:39:00 UTC 05/01 15:39 UTC 36°12.43'N 43°00.36'W 1812.08 nm -1054.29 nm 71 30.5 KNOTS.abrev 31.9 KNOTS.abrev 31.9 KNOTS.abrev 22.5 KNOTS.abrev 538.13 nm
05/01/2016 15:30:00 UTC 05/01 15:30 UTC 36°10.89'N 43°05.96'W 1816.65 nm -1054.41 nm 71 33.0 KNOTS.abrev 34.5 KNOTS.abrev 31.7 KNOTS.abrev 22.5 KNOTS.abrev 534.13 nm
05/01/2016 15:20:00 UTC 05/01 15:20 UTC 36°09.06'N 43°12.70'W 1822.13 nm -1054.71 nm 69 33.0 KNOTS.abrev 34.2 KNOTS.abrev 30.9 KNOTS.abrev 22.5 KNOTS.abrev 541.43 nm
05/01/2016 15:10:00 UTC 05/01 15:10 UTC 36°06.99'N 43°19.26'W 1827.64 nm -1055.16 nm 69 26.5 KNOTS.abrev 27.4 KNOTS.abrev 30.0 KNOTS.abrev 22.4 KNOTS.abrev 536.59 nm
05/01/2016 15:08:00 UTC 05/01 15:08 UTC 36°06.66'N 43°20.32'W 1828.52 nm -1055.05 nm 68 34.7 KNOTS.abrev 35.7 KNOTS.abrev 30.0 KNOTS.abrev 22.4 KNOTS.abrev 535.82 nm
05/01/2016 15:00:00 UTC 05/01 15:00 UTC 36°04.90'N 43°25.80'W 1833.13 nm -1055.71 nm 64 32.9 KNOTS.abrev 33.4 KNOTS.abrev 28.9 KNOTS.abrev 22.4 KNOTS.abrev 531.78 nm
05/01/2016 14:40:00 UTC 05/01 14:40 UTC 36°00.12'N 43°38.21'W 1844.07 nm -1057.25 nm 63 32.4 KNOTS.abrev 32.8 KNOTS.abrev 27.0 KNOTS.abrev 22.3 KNOTS.abrev 533.57 nm
05/01/2016 14:20:00 UTC 05/01 14:20 UTC 35°55.23'N 43°50.29'W 1854.86 nm -1058.13 nm 61 31.3 KNOTS.abrev 31.6 KNOTS.abrev 25.3 KNOTS.abrev 22.2 KNOTS.abrev 535.52 nm
05/01/2016 14:15:00 UTC 05/01 14:15 UTC 35°53.97'N 43°53.14'W 1857.47 nm -1058.27 nm 63 35.2 KNOTS.abrev 35.7 KNOTS.abrev 24.7 KNOTS.abrev 22.2 KNOTS.abrev 533.18 nm
05/01/2016 14:10:00 UTC 05/01 14:10 UTC 35°52.63'N 43°56.42'W 1860.40 nm -1058.57 nm 63 33.0 KNOTS.abrev 33.5 KNOTS.abrev 24.5 KNOTS.abrev 22.2 KNOTS.abrev 530.58 nm
05/01/2016 14:00:00 UTC 05/01 14:00 UTC 35°50.10'N 44°02.54'W 1865.91 nm -1058.81 nm 65 31.8 KNOTS.abrev 32.4 KNOTS.abrev 23.8 KNOTS.abrev 22.1 KNOTS.abrev 525.72 nm
05/01/2016 13:50:00 UTC 05/01 13:50 UTC 35°47.81'N 44°08.57'W 1871.21 nm -1059.03 nm 66 29.2 KNOTS.abrev 29.9 KNOTS.abrev 23.2 KNOTS.abrev 22.2 KNOTS.abrev 535.30 nm
05/01/2016 13:44:00 UTC 05/01 13:44 UTC 35°46.59'N 44°11.93'W 1874.12 nm -1058.98 nm 67 32.6 KNOTS.abrev 33.5 KNOTS.abrev 22.8 KNOTS.abrev 22.1 KNOTS.abrev 532.80 nm
05/01/2016 13:40:00 UTC 05/01 13:40 UTC 35°45.72'N 44°14.47'W 1876.30 nm -1059.34 nm 68 30.0 KNOTS.abrev 30.9 KNOTS.abrev 22.7 KNOTS.abrev 22.1 KNOTS.abrev 530.96 nm
05/01/2016 13:30:00 UTC 05/01 13:30 UTC 35°43.82'N 44°20.37'W 1881.29 nm -1059.79 nm 68 30.5 KNOTS.abrev 31.5 KNOTS.abrev 22.5 KNOTS.abrev 22.1 KNOTS.abrev 530.99 nm
05/01/2016 13:20:00 UTC 05/01 13:20 UTC 35°41.86'N 44°26.35'W 1886.37 nm -1060.30 nm 68 32.7 KNOTS.abrev 33.7 KNOTS.abrev 22.2 KNOTS.abrev 22.1 KNOTS.abrev 531.06 nm
05/01/2016 13:13:00 UTC 05/01 13:13 UTC 35°40.42'N 44°30.85'W 1890.17 nm -1060.83 nm 71 28.3 KNOTS.abrev 29.6 KNOTS.abrev 22.1 KNOTS.abrev 22.1 KNOTS.abrev 532.13 nm
05/01/2016 13:10:00 UTC 05/01 13:10 UTC 35°39.92'N 44°32.57'W 1891.59 nm -1060.79 nm 73 29.8 KNOTS.abrev 31.6 KNOTS.abrev 22.0 KNOTS.abrev 22.1 KNOTS.abrev 530.99 nm
05/01/2016 13:00:00 UTC 05/01 13:00 UTC 35°38.41'N 44°38.78'W 1896.55 nm -1060.87 nm 75 27.4 KNOTS.abrev 29.4 KNOTS.abrev 21.8 KNOTS.abrev 22.1 KNOTS.abrev 530.93 nm
05/01/2016 12:50:00 UTC 05/01 12:50 UTC 35°37.18'N 44°44.61'W 1901.09 nm -1060.48 nm 75 26.7 KNOTS.abrev 28.7 KNOTS.abrev 21.8 KNOTS.abrev 22.1 KNOTS.abrev 531.58 nm
05/01/2016 12:42:00 UTC 05/01 12:42 UTC 35°36.17'N 44°49.14'W 1904.66 nm -1060.13 nm 74 34.3 KNOTS.abrev 36.6 KNOTS.abrev 22.3 KNOTS.abrev 22.2 KNOTS.abrev 533.17 nm
05/01/2016 12:40:00 UTC 05/01 12:40 UTC 35°35.83'N 44°50.58'W 1905.81 nm -1060.31 nm 74 29.1 KNOTS.abrev 31.0 KNOTS.abrev 22.2 KNOTS.abrev 22.2 KNOTS.abrev 532.30 nm
05/01/2016 12:30:00 UTC 05/01 12:30 UTC 35°34.44'N 44°56.70'W 1910.64 nm -1060.34 nm 74 30.4 KNOTS.abrev 32.4 KNOTS.abrev 22.1 KNOTS.abrev 22.2 KNOTS.abrev 532.86 nm
05/01/2016 12:20:00 UTC 05/01 12:20 UTC 35°32.96'N 45°03.09'W 1915.70 nm -1061.30 nm 75 28.2 KNOTS.abrev 30.3 KNOTS.abrev 22.4 KNOTS.abrev 22.2 KNOTS.abrev 533.05 nm
05/01/2016 12:12:00 UTC 05/01 12:12 UTC 35°31.90'N 45°07.88'W 1919.47 nm -1061.76 nm 72 33.2 KNOTS.abrev 35.0 KNOTS.abrev 22.4 KNOTS.abrev 22.2 KNOTS.abrev 534.38 nm
05/01/2016 12:10:00 UTC 05/01 12:10 UTC 35°31.54'N 45°09.24'W 1920.58 nm -1062.04 nm 71 27.6 KNOTS.abrev 28.9 KNOTS.abrev 22.3 KNOTS.abrev 22.2 KNOTS.abrev 533.55 nm
05/01/2016 11:50:00 UTC 05/01 11:50 UTC 35°28.43'N 45°20.44'W 1929.77 nm -1062.92 nm 72 27.4 KNOTS.abrev 28.9 KNOTS.abrev 22.6 KNOTS.abrev 22.3 KNOTS.abrev 534.06 nm
05/01/2016 11:42:00 UTC 05/01 11:42 UTC 35°27.23'N 45°24.94'W 1933.42 nm -1063.24 nm 72 33.8 KNOTS.abrev 35.6 KNOTS.abrev 22.8 KNOTS.abrev 22.3 KNOTS.abrev 535.50 nm
05/01/2016 11:40:00 UTC 05/01 11:40 UTC 35°26.88'N 45°26.33'W 1934.55 nm -1063.53 nm 70 27.9 KNOTS.abrev 29.1 KNOTS.abrev 22.8 KNOTS.abrev 22.3 KNOTS.abrev 534.69 nm
05/01/2016 11:30:00 UTC 05/01 11:30 UTC 35°25.21'N 45°31.92'W 1939.21 nm -1063.99 nm 18 18.5 KNOTS.abrev 22.8 KNOTS.abrev 23.1 KNOTS.abrev 22.3 KNOTS.abrev 535.50 nm
05/01/2016 11:20:00 UTC 05/01 11:20 UTC 35°21.61'N 45°33.38'W 1942.30 nm -1062.93 nm 355 15.0 KNOTS.abrev 28.6 KNOTS.abrev 23.2 KNOTS.abrev 22.3 KNOTS.abrev 535.99 nm
05/01/2016 11:11:00 UTC 05/01 11:11 UTC 35°17.34'N 45°32.95'W 1944.57 nm -1061.44 nm 353 15.2 KNOTS.abrev 30.7 KNOTS.abrev 23.5 KNOTS.abrev 22.3 KNOTS.abrev 536.74 nm
05/01/2016 11:00:00 UTC 05/01 11:00 UTC 35°11.77'N 45°32.06'W 1947.32 nm -1059.58 nm 352 14.4 KNOTS.abrev 29.8 KNOTS.abrev 23.9 KNOTS.abrev 22.4 KNOTS.abrev 536.55 nm
05/01/2016 10:50:00 UTC 05/01 10:50 UTC 35°06.86'N 45°31.16'W 1949.68 nm -1057.73 nm 352 13.8 KNOTS.abrev 28.6 KNOTS.abrev 24.4 KNOTS.abrev 22.4 KNOTS.abrev 537.02 nm
05/01/2016 10:40:00 UTC 05/01 10:40 UTC 35°02.14'N 45°30.33'W 1951.97 nm -1055.79 nm 349 13.2 KNOTS.abrev 30.2 KNOTS.abrev 25.0 KNOTS.abrev 22.4 KNOTS.abrev 537.95 nm
05/01/2016 10:30:00 UTC 05/01 10:30 UTC 34°57.21'N 45°29.13'W 1954.16 nm -1053.72 nm 344 10.9 KNOTS.abrev 30.2 KNOTS.abrev 25.7 KNOTS.abrev 22.5 KNOTS.abrev 538.99 nm
05/01/2016 10:20:00 UTC 05/01 10:20 UTC 34°52.38'N 45°27.46'W 1955.99 nm -1051.15 nm 345 11.6 KNOTS.abrev 30.6 KNOTS.abrev 26.6 KNOTS.abrev 22.5 KNOTS.abrev 539.99 nm
05/01/2016 10:10:00 UTC 05/01 10:10 UTC 34°47.46'N 45°25.86'W 1957.93 nm -1048.67 nm 344 7.2 KNOTS.abrev 19.9 KNOTS.abrev 27.5 KNOTS.abrev 22.6 KNOTS.abrev 545.00 nm
05/01/2016 10:09:00 UTC 05/01 10:09 UTC 34°47.14'N 45°25.75'W 1958.05 nm -1048.34 nm 347 12.2 KNOTS.abrev 29.6 KNOTS.abrev 27.6 KNOTS.abrev 22.6 KNOTS.abrev 544.76 nm
05/01/2016 10:00:00 UTC 05/01 10:00 UTC 34°42.80'N 45°24.58'W 1959.92 nm -1046.22 nm 348 11.9 KNOTS.abrev 27.8 KNOTS.abrev 28.4 KNOTS.abrev 22.6 KNOTS.abrev 541.28 nm
05/01/2016 09:50:00 UTC 05/01 09:50 UTC 34°38.28'N 45°23.39'W 1961.90 nm -1043.74 nm 5 13.6 KNOTS.abrev 20.2 KNOTS.abrev 29.3 KNOTS.abrev 22.6 KNOTS.abrev 541.90 nm
05/01/2016 09:40:00 UTC 05/01 09:40 UTC 34°34.92'N 45°23.74'W 1964.17 nm -1041.54 nm 75 29.9 KNOTS.abrev 32.4 KNOTS.abrev 30.1 KNOTS.abrev 22.6 KNOTS.abrev 543.39 nm
05/01/2016 09:39:00 UTC 05/01 09:39 UTC 34°34.78'N 45°24.37'W 1964.67 nm -1041.59 nm 76 24.9 KNOTS.abrev 27.2 KNOTS.abrev 30.1 KNOTS.abrev 22.6 KNOTS.abrev 543.04 nm
05/01/2016 09:20:00 UTC 05/01 09:20 UTC 34°32.64'N 45°34.49'W 1972.58 nm -1040.97 nm 68 25.3 KNOTS.abrev 26.3 KNOTS.abrev 30.5 KNOTS.abrev 22.8 KNOTS.abrev 546.52 nm
05/01/2016 09:08:00 UTC 05/01 09:08 UTC 34°30.72'N 45°40.42'W 1977.63 nm -1040.59 nm 73 29.1 KNOTS.abrev 31.1 KNOTS.abrev 30.7 KNOTS.abrev 22.8 KNOTS.abrev 547.52 nm
05/01/2016 08:30:00 UTC 05/01 08:30 UTC 34°25.03'N 46°03.24'W 1996.02 nm -1041.64 nm 62 31.0 KNOTS.abrev 31.5 KNOTS.abrev 26.7 KNOTS.abrev 23.1 KNOTS.abrev 554.37 nm
05/01/2016 08:10:00 UTC 05/01 08:10 UTC 34°20.16'N 46°14.49'W 2006.35 nm -1042.60 nm 64 30.4 KNOTS.abrev 31.0 KNOTS.abrev 26.3 KNOTS.abrev 23.2 KNOTS.abrev 556.67 nm
05/01/2016 08:00:00 UTC 05/01 08:00 UTC 34°17.90'N 46°20.12'W 2011.41 nm -1042.95 nm 64 33.0 KNOTS.abrev 33.7 KNOTS.abrev 24.4 KNOTS.abrev 23.3 KNOTS.abrev 561.50 nm
05/01/2016 07:54:00 UTC 05/01 07:54 UTC 34°16.42'N 46°23.78'W 2014.71 nm -1043.41 nm 63 27.1 KNOTS.abrev 27.6 KNOTS.abrev 24.2 KNOTS.abrev 23.3 KNOTS.abrev 559.09 nm
05/01/2016 07:50:00 UTC 05/01 07:50 UTC 34°15.58'N 46°25.76'W 2016.52 nm -1043.32 nm 59 30.3 KNOTS.abrev 30.5 KNOTS.abrev 24.2 KNOTS.abrev 23.3 KNOTS.abrev 559.33 nm
05/01/2016 07:40:00 UTC 05/01 07:40 UTC 34°13.00'N 46°31.05'W 2021.56 nm -1043.62 nm 63 31.8 KNOTS.abrev 32.4 KNOTS.abrev 24.0 KNOTS.abrev 23.4 KNOTS.abrev 560.89 nm
05/01/2016 07:24:00 UTC 05/01 07:24 UTC 34°09.14'N 46°40.39'W 2030.04 nm -1044.77 nm 63 27.5 KNOTS.abrev 28.0 KNOTS.abrev 22.9 KNOTS.abrev 23.4 KNOTS.abrev 560.00 nm
05/01/2016 07:20:00 UTC 05/01 07:20 UTC 34°08.30'N 46°42.41'W 2031.87 nm -1044.88 nm 60 31.1 KNOTS.abrev 31.4 KNOTS.abrev 22.9 KNOTS.abrev 23.4 KNOTS.abrev 558.70 nm
05/01/2016 07:10:00 UTC 05/01 07:10 UTC 34°05.72'N 46°47.90'W 2037.05 nm -1045.72 nm 62 29.7 KNOTS.abrev 30.2 KNOTS.abrev 22.7 KNOTS.abrev 23.6 KNOTS.abrev 571.07 nm
05/01/2016 07:00:00 UTC 05/01 07:00 UTC 34°03.35'N 46°53.25'W 2042.01 nm -1046.32 nm 63 28.1 KNOTS.abrev 28.6 KNOTS.abrev 22.4 KNOTS.abrev 23.6 KNOTS.abrev 567.56 nm
05/01/2016 06:53:00 UTC 05/01 06:53 UTC 34°01.82'N 46°56.83'W 2045.29 nm -1046.55 nm 61 33.9 KNOTS.abrev 34.3 KNOTS.abrev 22.5 KNOTS.abrev 23.7 KNOTS.abrev 569.72 nm
05/01/2016 06:50:00 UTC 05/01 06:50 UTC 34°01.00'N 46°58.65'W 2046.98 nm -1046.93 nm 59 29.7 KNOTS.abrev 29.9 KNOTS.abrev 22.5 KNOTS.abrev 23.7 KNOTS.abrev 568.94 nm
05/01/2016 06:40:00 UTC 05/01 06:40 UTC 33°58.44'N 47°03.80'W 2051.93 nm -1047.50 nm 58 29.8 KNOTS.abrev 29.9 KNOTS.abrev 22.5 KNOTS.abrev 23.8 KNOTS.abrev 570.45 nm
05/01/2016 06:30:00 UTC 05/01 06:30 UTC 33°55.83'N 47°08.93'W 2056.89 nm -1048.08 nm 55 33.5 KNOTS.abrev 33.6 KNOTS.abrev 22.8 KNOTS.abrev 23.8 KNOTS.abrev 571.90 nm
05/01/2016 06:24:00 UTC 05/01 06:24 UTC 33°53.92'N 47°12.25'W 2060.24 nm -1049.01 nm 54 27.8 KNOTS.abrev 27.8 KNOTS.abrev 22.8 KNOTS.abrev 23.8 KNOTS.abrev 569.38 nm
05/01/2016 06:20:00 UTC 05/01 06:20 UTC 33°52.82'N 47°14.04'W 2062.09 nm -1049.24 nm 53 31.9 KNOTS.abrev 31.9 KNOTS.abrev 22.9 KNOTS.abrev 23.8 KNOTS.abrev 567.95 nm
05/01/2016 06:10:00 UTC 05/01 06:10 UTC 33°49.59'N 47°19.13'W 2067.41 nm -1050.51 nm 54 30.0 KNOTS.abrev 30.0 KNOTS.abrev 23.0 KNOTS.abrev 23.8 KNOTS.abrev 563.83 nm
05/01/2016 06:00:00 UTC 05/01 06:00 UTC 33°46.64'N 47°24.00'W 2072.42 nm -1051.44 nm 54 32.4 KNOTS.abrev 32.4 KNOTS.abrev 23.5 KNOTS.abrev 23.8 KNOTS.abrev 560.04 nm
05/01/2016 05:54:00 UTC 05/01 05:54 UTC 33°44.74'N 47°27.15'W 2075.65 nm -1052.22 nm 56 24.8 KNOTS.abrev 24.9 KNOTS.abrev 23.6 KNOTS.abrev 23.8 KNOTS.abrev 557.61 nm
05/01/2016 05:50:00 UTC 05/01 05:50 UTC 33°43.82'N 47°28.81'W 2077.31 nm -1052.24 nm 58 28.9 KNOTS.abrev 29.1 KNOTS.abrev 23.8 KNOTS.abrev 24.2 KNOTS.abrev 597.10 nm
05/01/2016 05:40:00 UTC 05/01 05:40 UTC 33°41.28'N 47°33.77'W 2082.13 nm -1052.96 nm 56 31.5 KNOTS.abrev 31.5 KNOTS.abrev 24.3 KNOTS.abrev 24.2 KNOTS.abrev 593.88 nm
05/01/2016 05:23:00 UTC 05/01 05:23 UTC 33°36.32'N 47°42.69'W 2091.04 nm -1058.39 nm 37 22.9 KNOTS.abrev 23.7 KNOTS.abrev 25.1 KNOTS.abrev 24.3 KNOTS.abrev 587.79 nm
05/01/2016 04:52:00 UTC 05/01 04:52 UTC 33°26.54'N 47°51.51'W 2102.88 nm -1071.64 nm 340 8.0 KNOTS.abrev 25.3 KNOTS.abrev 26.3 KNOTS.abrev 24.3 KNOTS.abrev 577.00 nm
05/01/2016 04:20:00 UTC 05/01 04:20 UTC 33°13.89'N 47°45.88'W 2107.09 nm -1075.88 nm 340 8.5 KNOTS.abrev 26.5 KNOTS.abrev 26.2 KNOTS.abrev 24.3 KNOTS.abrev 584.72 nm
05/01/2016 03:50:00 UTC 05/01 03:50 UTC 33°01.48'N 47°40.44'W 2111.32 nm -1077.70 nm 345 10.9 KNOTS.abrev 26.9 KNOTS.abrev 24.5 KNOTS.abrev 24.3 KNOTS.abrev 585.96 nm
05/01/2016 03:19:00 UTC 05/01 03:19 UTC 32°48.03'N 47°36.19'W 2117.03 nm -1076.01 nm 340 9.1 KNOTS.abrev 27.8 KNOTS.abrev 22.1 KNOTS.abrev 24.4 KNOTS.abrev 586.49 nm
05/01/2016 02:49:00 UTC 05/01 02:49 UTC 32°34.94'N 47°30.65'W 2121.72 nm -1065.78 nm 339 9.2 KNOTS.abrev 29.0 KNOTS.abrev 20.0 KNOTS.abrev 24.4 KNOTS.abrev 589.22 nm
05/01/2016 02:17:00 UTC 05/01 02:17 UTC 32°20.49'N 47°24.07'W 2126.65 nm -1054.64 nm 337 7.8 KNOTS.abrev 27.2 KNOTS.abrev 18.1 KNOTS.abrev 24.4 KNOTS.abrev 589.62 nm
05/01/2016 01:45:00 UTC 05/01 01:45 UTC 32°07.18'N 47°17.28'W 2130.78 nm -1042.52 nm 340 8.4 KNOTS.abrev 24.7 KNOTS.abrev 17.7 KNOTS.abrev 24.5 KNOTS.abrev 590.23 nm
05/01/2016 01:11:00 UTC 05/01 01:11 UTC 31°54.09'N 47°11.52'W 2135.49 nm -1030.73 nm 340 8.1 KNOTS.abrev 23.4 KNOTS.abrev 18.8 KNOTS.abrev 24.4 KNOTS.abrev 587.33 nm
05/01/2016 00:41:00 UTC 05/01 00:41 UTC 31°43.13'N 47°06.79'W 2139.52 nm -1020.68 nm 337 6.9 KNOTS.abrev 23.0 KNOTS.abrev 20.4 KNOTS.abrev 24.5 KNOTS.abrev 588.49 nm
05/01/2016 00:30:00 UTC 05/01 00:30 UTC 31°39.24'N 47°04.87'W 2140.81 nm -1016.81 nm 338 7.5 KNOTS.abrev 23.7 KNOTS.abrev 21.1 KNOTS.abrev 24.5 KNOTS.abrev 584.78 nm
05/01/2016 00:20:00 UTC 05/01 00:20 UTC 31°35.59'N 47°03.12'W 2142.05 nm -1013.67 nm 342 7.9 KNOTS.abrev 20.4 KNOTS.abrev 22.0 KNOTS.abrev 24.7 KNOTS.abrev 595.82 nm
05/01/2016 00:10:00 UTC 05/01 00:10 UTC 31°32.36'N 47°01.85'W 2143.34 nm -1010.56 nm 338 6.1 KNOTS.abrev 19.1 KNOTS.abrev 22.8 KNOTS.abrev 24.7 KNOTS.abrev 592.69 nm
05/01/2016 00:09:00 UTC 05/01 00:09 UTC 31°32.06'N 47°01.72'W 2143.44 nm -1010.22 nm 20 13.7 KNOTS.abrev 15.8 KNOTS.abrev 22.8 KNOTS.abrev 24.7 KNOTS.abrev 592.41 nm
05/01/2016 00:00:00 UTC 05/01 00:00 UTC 31°29.84'N 47°02.65'W 2145.49 nm -1008.32 nm 59 23.0 KNOTS.abrev 23.4 KNOTS.abrev 23.3 KNOTS.abrev 24.6 KNOTS.abrev 587.98 nm
04/01/2016 23:50:00 UTC 04/01 23:50 UTC 31°27.83'N 47°06.56'W 2149.34 nm -1007.75 nm 57 22.3 KNOTS.abrev 22.5 KNOTS.abrev 23.4 KNOTS.abrev 24.7 KNOTS.abrev 597.26 nm
04/01/2016 23:39:00 UTC 04/01 23:39 UTC 31°25.60'N 47°10.63'W 2153.42 nm -1006.99 nm 55 22.7 KNOTS.abrev 22.8 KNOTS.abrev 23.5 KNOTS.abrev 24.8 KNOTS.abrev 594.79 nm
04/01/2016 23:30:00 UTC 04/01 23:30 UTC 31°23.65'N 47°13.91'W 2156.82 nm -1006.41 nm 55 23.0 KNOTS.abrev 23.1 KNOTS.abrev 23.6 KNOTS.abrev 24.9 KNOTS.abrev 597.35 nm
04/01/2016 23:20:00 UTC 04/01 23:20 UTC 31°21.46'N 47°17.62'W 2160.65 nm -1005.84 nm 57 22.2 KNOTS.abrev 22.4 KNOTS.abrev 23.6 KNOTS.abrev 25.0 KNOTS.abrev 599.61 nm
04/01/2016 23:10:00 UTC 04/01 23:10 UTC 31°19.43'N 47°21.29'W 2164.35 nm -1005.14 nm 56 22.8 KNOTS.abrev 23.0 KNOTS.abrev 23.7 KNOTS.abrev 25.1 KNOTS.abrev 597.44 nm
04/01/2016 23:07:00 UTC 04/01 23:07 UTC 31°18.80'N 47°22.41'W 2165.49 nm -1004.95 nm 58 21.3 KNOTS.abrev 21.5 KNOTS.abrev 23.7 KNOTS.abrev 25.1 KNOTS.abrev 596.77 nm
04/01/2016 23:00:00 UTC 04/01 23:00 UTC 31°17.46'N 47°24.90'W 2167.98 nm -1004.34 nm 56 21.5 KNOTS.abrev 21.7 KNOTS.abrev 23.8 KNOTS.abrev 25.4 KNOTS.abrev 617.33 nm
04/01/2016 22:50:00 UTC 04/01 22:50 UTC 31°15.44'N 47°28.41'W 2171.57 nm -1003.51 nm 56 21.1 KNOTS.abrev 21.2 KNOTS.abrev 23.8 KNOTS.abrev 25.5 KNOTS.abrev 615.28 nm
04/01/2016 22:40:00 UTC 04/01 22:40 UTC 31°13.48'N 47°31.85'W 2175.08 nm -1002.58 nm 59 21.4 KNOTS.abrev 21.7 KNOTS.abrev 23.9 KNOTS.abrev 25.6 KNOTS.abrev 613.31 nm
04/01/2016 22:37:00 UTC 04/01 22:37 UTC 31°12.92'N 47°32.94'W 2176.15 nm -1002.31 nm 61 18.8 KNOTS.abrev 19.2 KNOTS.abrev 23.9 KNOTS.abrev 25.5 KNOTS.abrev 611.84 nm
04/01/2016 22:30:00 UTC 04/01 22:30 UTC 31°11.82'N 47°35.22'W 2178.34 nm -1001.39 nm 61 20.4 KNOTS.abrev 20.8 KNOTS.abrev 24.1 KNOTS.abrev 25.6 KNOTS.abrev 613.21 nm
04/01/2016 22:20:00 UTC 04/01 22:20 UTC 31°10.14'N 47°38.76'W 2181.74 nm -1000.20 nm 61 21.4 KNOTS.abrev 21.9 KNOTS.abrev 24.2 KNOTS.abrev 25.7 KNOTS.abrev 616.19 nm
04/01/2016 22:10:00 UTC 04/01 22:10 UTC 31°08.35'N 47°42.46'W 2185.31 nm -999.18 nm 56 23.4 KNOTS.abrev 23.6 KNOTS.abrev 24.1 KNOTS.abrev 25.8 KNOTS.abrev 619.45 nm
04/01/2016 22:07:00 UTC 04/01 22:07 UTC 31°07.69'N 47°43.61'W 2186.48 nm -998.98 nm 59 21.4 KNOTS.abrev 21.7 KNOTS.abrev 24.1 KNOTS.abrev 25.8 KNOTS.abrev 618.82 nm
04/01/2016 22:00:00 UTC 04/01 22:00 UTC 31°06.39'N 47°46.15'W 2188.98 nm -998.25 nm 57 25.4 KNOTS.abrev 25.6 KNOTS.abrev 24.2 KNOTS.abrev 25.9 KNOTS.abrev 622.51 nm
04/01/2016 21:50:00 UTC 04/01 21:50 UTC 31°04.09'N 47°50.36'W 2193.21 nm -997.85 nm 54 22.0 KNOTS.abrev 22.0 KNOTS.abrev 24.2 KNOTS.abrev 26.1 KNOTS.abrev 625.46 nm
04/01/2016 21:36:00 UTC 04/01 21:36 UTC 31°01.06'N 47°55.20'W 2198.33 nm -996.49 nm 51 26.5 KNOTS.abrev 26.5 KNOTS.abrev 24.3 KNOTS.abrev 26.2 KNOTS.abrev 627.62 nm
04/01/2016 21:30:00 UTC 04/01 21:30 UTC 30°59.41'N 47°57.62'W 2200.98 nm -996.36 nm 50 25.2 KNOTS.abrev 25.2 KNOTS.abrev 24.3 KNOTS.abrev 26.3 KNOTS.abrev 631.01 nm
04/01/2016 21:20:00 UTC 04/01 21:20 UTC 30°56.73'N 48°01.39'W 2205.18 nm -996.01 nm 50 24.3 KNOTS.abrev 24.4 KNOTS.abrev 24.2 KNOTS.abrev 26.4 KNOTS.abrev 633.42 nm
04/01/2016 21:10:00 UTC 04/01 21:10 UTC 30°54.15'N 48°05.04'W 2209.24 nm -995.51 nm 50 23.9 KNOTS.abrev 23.9 KNOTS.abrev 24.2 KNOTS.abrev 26.5 KNOTS.abrev 636.17 nm
04/01/2016 21:06:00 UTC 04/01 21:06 UTC 30°53.14'N 48°06.46'W 2210.83 nm -995.28 nm 51 23.0 KNOTS.abrev 23.0 KNOTS.abrev 24.2 KNOTS.abrev 26.5 KNOTS.abrev 635.27 nm
04/01/2016 21:00:00 UTC 04/01 21:00 UTC 30°51.69'N 48°08.55'W 2213.13 nm -994.83 nm 47 23.9 KNOTS.abrev 23.9 KNOTS.abrev 24.2 KNOTS.abrev 26.6 KNOTS.abrev 639.05 nm
04/01/2016 20:50:00 UTC 04/01 20:50 UTC 30°48.99'N 48°11.94'W 2217.11 nm -994.23 nm 49 25.0 KNOTS.abrev 25.0 KNOTS.abrev 24.3 KNOTS.abrev 26.7 KNOTS.abrev 641.55 nm
04/01/2016 20:40:00 UTC 04/01 20:40 UTC 30°46.27'N 48°15.62'W 2221.27 nm -993.80 nm 45 26.8 KNOTS.abrev 26.9 KNOTS.abrev 24.4 KNOTS.abrev 26.8 KNOTS.abrev 643.94 nm
04/01/2016 20:35:00 UTC 04/01 20:35 UTC 30°44.68'N 48°17.46'W 2223.51 nm -993.73 nm 40 26.5 KNOTS.abrev 26.8 KNOTS.abrev 24.3 KNOTS.abrev 26.9 KNOTS.abrev 647.69 nm
04/01/2016 20:20:00 UTC 04/01 20:20 UTC 30°39.53'N 48°22.43'W 2230.12 nm -993.64 nm 35 24.8 KNOTS.abrev 25.5 KNOTS.abrev 24.3 KNOTS.abrev 27.0 KNOTS.abrev 648.50 nm
04/01/2016 20:10:00 UTC 04/01 20:10 UTC 30°36.04'N 48°25.24'W 2234.25 nm -993.34 nm 35 25.1 KNOTS.abrev 25.9 KNOTS.abrev 24.2 KNOTS.abrev 27.1 KNOTS.abrev 651.59 nm
04/01/2016 20:03:00 UTC 04/01 20:03 UTC 30°33.56'N 48°27.23'W 2237.17 nm -993.16 nm 34 27.4 KNOTS.abrev 28.3 KNOTS.abrev 24.2 KNOTS.abrev 27.2 KNOTS.abrev 654.98 nm
04/01/2016 20:00:00 UTC 04/01 20:00 UTC 30°32.39'N 48°28.16'W 2238.55 nm -993.20 nm 34 25.7 KNOTS.abrev 26.6 KNOTS.abrev 24.3 KNOTS.abrev 27.2 KNOTS.abrev 653.94 nm
04/01/2016 19:50:00 UTC 04/01 19:50 UTC 30°28.73'N 48°31.05'W 2242.84 nm -993.04 nm 36 25.3 KNOTS.abrev 25.9 KNOTS.abrev 24.2 KNOTS.abrev 27.3 KNOTS.abrev 656.17 nm
04/01/2016 19:40:00 UTC 04/01 19:40 UTC 30°25.24'N 48°33.99'W 2247.05 nm -992.79 nm 34 25.3 KNOTS.abrev 26.1 KNOTS.abrev 24.2 KNOTS.abrev 27.5 KNOTS.abrev 659.19 nm
04/01/2016 19:33:00 UTC 04/01 19:33 UTC 30°22.71'N 48°35.97'W 2250.00 nm -992.60 nm 35 22.3 KNOTS.abrev 23.0 KNOTS.abrev 24.1 KNOTS.abrev 27.6 KNOTS.abrev 663.00 nm
04/01/2016 19:30:00 UTC 04/01 19:30 UTC 30°21.77'N 48°36.72'W 2251.12 nm -992.33 nm 36 23.7 KNOTS.abrev 24.3 KNOTS.abrev 24.1 KNOTS.abrev 27.6 KNOTS.abrev 662.18 nm
04/01/2016 19:20:00 UTC 04/01 19:20 UTC 30°18.51'N 48°39.49'W 2255.07 nm -991.19 nm 34 23.5 KNOTS.abrev 24.2 KNOTS.abrev 24.2 KNOTS.abrev 27.6 KNOTS.abrev 663.00 nm
04/01/2016 19:10:00 UTC 04/01 19:10 UTC 30°15.18'N 48°42.13'W 2258.99 nm -990.01 nm 30 22.9 KNOTS.abrev 24.2 KNOTS.abrev 24.2 KNOTS.abrev 27.7 KNOTS.abrev 663.68 nm
04/01/2016 19:02:00 UTC 04/01 19:02 UTC 30°12.39'N 48°44.01'W 2262.05 nm -988.99 nm 28 28.3 KNOTS.abrev 30.2 KNOTS.abrev 24.2 KNOTS.abrev 27.8 KNOTS.abrev 667.94 nm
04/01/2016 19:00:00 UTC 04/01 19:00 UTC 30°11.50'N 48°44.55'W 2263.00 nm -988.91 nm 27 22.2 KNOTS.abrev 23.9 KNOTS.abrev 24.1 KNOTS.abrev 27.8 KNOTS.abrev 667.16 nm
04/01/2016 18:50:00 UTC 04/01 18:50 UTC 30°07.97'N 48°46.66'W 2266.71 nm -987.50 nm 26 21.4 KNOTS.abrev 23.1 KNOTS.abrev 24.1 KNOTS.abrev 27.9 KNOTS.abrev 669.65 nm
04/01/2016 18:40:00 UTC 04/01 18:40 UTC 30°04.51'N 48°48.63'W 2270.28 nm -985.95 nm 30 22.4 KNOTS.abrev 23.6 KNOTS.abrev 24.1 KNOTS.abrev 28.0 KNOTS.abrev 672.16 nm
04/01/2016 18:30:00 UTC 04/01 18:30 UTC 30°01.11'N 48°50.91'W 2274.02 nm -984.56 nm 29 18.4 KNOTS.abrev 19.5 KNOTS.abrev 24.2 KNOTS.abrev 28.1 KNOTS.abrev 674.62 nm
04/01/2016 18:28:00 UTC 04/01 18:28 UTC 30°00.54'N 48°51.27'W 2274.64 nm -984.16 nm 26 22.1 KNOTS.abrev 23.8 KNOTS.abrev 24.2 KNOTS.abrev 28.1 KNOTS.abrev 674.14 nm
04/01/2016 18:20:00 UTC 04/01 18:20 UTC 29°57.69'N 48°52.90'W 2277.59 nm -983.08 nm 25 20.9 KNOTS.abrev 22.8 KNOTS.abrev 24.2 KNOTS.abrev 28.2 KNOTS.abrev 677.28 nm
04/01/2016 18:00:00 UTC 04/01 18:00 UTC 29°50.81'N 48°56.56'W 2284.55 nm -979.94 nm 25 17.9 KNOTS.abrev 19.4 KNOTS.abrev 24.3 KNOTS.abrev 28.4 KNOTS.abrev 682.57 nm
04/01/2016 17:58:00 UTC 04/01 17:58 UTC 29°50.22'N 48°56.88'W 2285.15 nm -979.52 nm 23 22.1 KNOTS.abrev 24.4 KNOTS.abrev 24.4 KNOTS.abrev 28.5 KNOTS.abrev 682.07 nm
04/01/2016 17:40:00 UTC 04/01 17:40 UTC 29°43.51'N 49°00.19'W 2291.78 nm -977.02 nm 20 21.3 KNOTS.abrev 24.1 KNOTS.abrev 24.6 KNOTS.abrev 28.6 KNOTS.abrev 687.50 nm
04/01/2016 17:30:00 UTC 04/01 17:30 UTC 29°39.73'N 49°01.76'W 2295.32 nm -975.48 nm 18 21.1 KNOTS.abrev 24.3 KNOTS.abrev 24.7 KNOTS.abrev 28.7 KNOTS.abrev 689.37 nm
04/01/2016 17:24:00 UTC 04/01 17:24 UTC 29°37.41'N 49°02.61'W 2297.43 nm -974.57 nm 19 20.0 KNOTS.abrev 22.9 KNOTS.abrev 24.8 KNOTS.abrev 28.8 KNOTS.abrev 692.16 nm
04/01/2016 17:20:00 UTC 04/01 17:20 UTC 29°35.97'N 49°03.19'W 2298.77 nm -973.90 nm 19 20.4 KNOTS.abrev 23.3 KNOTS.abrev 24.8 KNOTS.abrev 28.8 KNOTS.abrev 690.91 nm
04/01/2016 17:10:00 UTC 04/01 17:10 UTC 29°32.29'N 49°04.61'W 2302.16 nm -972.25 nm 20 21.2 KNOTS.abrev 24.0 KNOTS.abrev 24.9 KNOTS.abrev 28.8 KNOTS.abrev 692.22 nm
04/01/2016 16:50:00 UTC 04/01 16:50 UTC 29°24.80'N 49°07.79'W 2309.25 nm -969.24 nm 22 24.9 KNOTS.abrev 27.7 KNOTS.abrev 25.0 KNOTS.abrev 29.0 KNOTS.abrev 695.73 nm
04/01/2016 16:46:00 UTC 04/01 16:46 UTC 29°23.09'N 49°08.59'W 2310.91 nm -968.88 nm 21 22.3 KNOTS.abrev 24.9 KNOTS.abrev 25.0 KNOTS.abrev 29.0 KNOTS.abrev 694.30 nm
04/01/2016 16:15:00 UTC 04/01 16:15 UTC 29°11.11'N 49°14.00'W 2322.48 nm -965.42 nm 20 22.7 KNOTS.abrev 25.6 KNOTS.abrev 25.1 KNOTS.abrev 29.3 KNOTS.abrev 704.54 nm
04/01/2016 15:45:00 UTC 04/01 15:45 UTC 28°59.09'N 49°18.97'W 2333.81 nm -962.83 nm 19 21.3 KNOTS.abrev 24.2 KNOTS.abrev 24.9 KNOTS.abrev 29.5 KNOTS.abrev 711.06 nm
04/01/2016 15:14:00 UTC 04/01 15:14 UTC 28°47.30'N 49°23.62'W 2344.81 nm -958.78 nm 19 20.9 KNOTS.abrev 23.7 KNOTS.abrev 25.2 KNOTS.abrev 29.7 KNOTS.abrev 714.57 nm
04/01/2016 14:44:00 UTC 04/01 14:44 UTC 28°36.14'N 49°28.13'W 2355.31 nm -954.16 nm 16 20.6 KNOTS.abrev 24.0 KNOTS.abrev 25.9 KNOTS.abrev 30.0 KNOTS.abrev 721.01 nm
04/01/2016 14:14:00 UTC 04/01 14:14 UTC 28°24.57'N 49°31.82'W 2365.57 nm -948.87 nm 14 22.1 KNOTS.abrev 26.4 KNOTS.abrev 26.7 KNOTS.abrev 30.2 KNOTS.abrev 723.87 nm
04/01/2016 13:40:00 UTC 04/01 13:40 UTC 28°10.11'N 49°36.05'W 2378.19 nm -943.45 nm 217 0.0 KNOTS.abrev 0.0 KNOTS.abrev 27.1 KNOTS.abrev 30.5 KNOTS.abrev 732.14 nm
04/01/2016 13:40:00 UTC 04/01 13:40 UTC 28°10.28'N 49°35.90'W 2377.98 nm -943.24 nm 9 21.1 KNOTS.abrev 26.7 KNOTS.abrev 27.1 KNOTS.abrev 30.5 KNOTS.abrev 732.25 nm
04/01/2016 13:30:00 UTC 04/01 13:30 UTC 28°05.89'N 49°36.73'W 2381.52 nm -941.47 nm 11 22.0 KNOTS.abrev 27.1 KNOTS.abrev 27.2 KNOTS.abrev 30.6 KNOTS.abrev 733.71 nm
04/01/2016 13:20:00 UTC 04/01 13:20 UTC 28°01.46'N 49°37.68'W 2385.18 nm -939.94 nm 10 21.3 KNOTS.abrev 26.5 KNOTS.abrev 27.3 KNOTS.abrev 30.6 KNOTS.abrev 734.80 nm
04/01/2016 13:10:00 UTC 04/01 13:10 UTC 27°57.11'N 49°38.54'W 2388.72 nm -938.29 nm 5 18.5 KNOTS.abrev 24.7 KNOTS.abrev 27.5 KNOTS.abrev 30.7 KNOTS.abrev 736.27 nm
04/01/2016 13:00:00 UTC 04/01 13:00 UTC 27°53.02'N 49°38.97'W 2391.81 nm -936.19 nm 7 16.2 KNOTS.abrev 21.1 KNOTS.abrev 27.7 KNOTS.abrev 30.7 KNOTS.abrev 737.82 nm
04/01/2016 12:58:00 UTC 04/01 12:58 UTC 27°52.33'N 49°39.07'W 2392.36 nm -935.69 nm 9 21.4 KNOTS.abrev 26.9 KNOTS.abrev 27.8 KNOTS.abrev 30.8 KNOTS.abrev 737.22 nm
04/01/2016 12:50:00 UTC 04/01 12:50 UTC 27°48.78'N 49°39.72'W 2395.22 nm -934.39 nm 11 21.7 KNOTS.abrev 26.6 KNOTS.abrev 27.9 KNOTS.abrev 30.8 KNOTS.abrev 739.68 nm
04/01/2016 12:40:00 UTC 04/01 12:40 UTC 27°44.43'N 49°40.68'W 2398.83 nm -932.80 nm 7 20.4 KNOTS.abrev 26.4 KNOTS.abrev 28.1 KNOTS.abrev 30.9 KNOTS.abrev 741.30 nm
04/01/2016 12:30:00 UTC 04/01 12:30 UTC 27°40.07'N 49°41.31'W 2402.25 nm -931.01 nm 8 19.9 KNOTS.abrev 25.3 KNOTS.abrev 28.4 KNOTS.abrev 31.0 KNOTS.abrev 742.94 nm
04/01/2016 12:28:00 UTC 04/01 12:28 UTC 27°39.23'N 49°41.44'W 2402.91 nm -930.64 nm 5 18.9 KNOTS.abrev 25.1 KNOTS.abrev 28.4 KNOTS.abrev 31.0 KNOTS.abrev 742.23 nm
04/01/2016 12:20:00 UTC 04/01 12:20 UTC 27°35.90'N 49°41.76'W 2405.43 nm -929.07 nm 7 19.9 KNOTS.abrev 25.7 KNOTS.abrev 28.6 KNOTS.abrev 31.0 KNOTS.abrev 747.21 nm
04/01/2016 12:10:00 UTC 04/01 12:10 UTC 27°31.64'N 49°42.33'W 2408.73 nm -927.25 nm 10 19.9 KNOTS.abrev 24.7 KNOTS.abrev 28.9 KNOTS.abrev 31.1 KNOTS.abrev 745.69 nm
04/01/2016 12:00:00 UTC 04/01 12:00 UTC 27°27.59'N 49°43.11'W 2412.04 nm -925.43 nm 353 9.3 KNOTS.abrev 15.6 KNOTS.abrev 29.4 KNOTS.abrev 31.2 KNOTS.abrev 747.82 nm
04/01/2016 11:56:00 UTC 04/01 11:56 UTC 27°26.56'N 49°42.97'W 2412.67 nm -924.00 nm 8 20.5 KNOTS.abrev 26.0 KNOTS.abrev 29.6 KNOTS.abrev 31.2 KNOTS.abrev 747.55 nm
04/01/2016 11:50:00 UTC 04/01 11:50 UTC 27°23.99'N 49°43.40'W 2414.73 nm -922.98 nm 11 20.7 KNOTS.abrev 25.3 KNOTS.abrev 29.7 KNOTS.abrev 31.3 KNOTS.abrev 750.32 nm
04/01/2016 11:40:00 UTC 04/01 11:40 UTC 27°19.85'N 49°44.30'W 2418.17 nm -921.29 nm 12 21.6 KNOTS.abrev 26.0 KNOTS.abrev 30.2 KNOTS.abrev 31.4 KNOTS.abrev 752.43 nm
04/01/2016 11:30:00 UTC 04/01 11:30 UTC 27°15.62'N 49°45.35'W 2421.78 nm -919.74 nm 15 24.7 KNOTS.abrev 28.9 KNOTS.abrev 30.5 KNOTS.abrev 31.4 KNOTS.abrev 754.51 nm
04/01/2016 11:26:00 UTC 04/01 11:26 UTC 27°13.76'N 49°45.89'W 2423.43 nm -919.31 nm 15 20.4 KNOTS.abrev 23.7 KNOTS.abrev 30.6 KNOTS.abrev 31.5 KNOTS.abrev 753.82 nm
04/01/2016 11:20:00 UTC 04/01 11:20 UTC 27°11.47'N 49°46.59'W 2425.47 nm -918.23 nm 9 22.1 KNOTS.abrev 27.6 KNOTS.abrev 30.8 KNOTS.abrev 31.5 KNOTS.abrev 752.04 nm
04/01/2016 11:10:00 UTC 04/01 11:10 UTC 27°06.93'N 49°47.39'W 2429.14 nm -916.70 nm 7 22.1 KNOTS.abrev 28.4 KNOTS.abrev 31.4 KNOTS.abrev 31.6 KNOTS.abrev 758.09 nm
04/01/2016 11:00:00 UTC 04/01 11:00 UTC 27°02.24'N 49°48.06'W 2432.84 nm -915.19 nm 6 21.4 KNOTS.abrev 27.9 KNOTS.abrev 31.6 KNOTS.abrev 31.6 KNOTS.abrev 759.35 nm
04/01/2016 10:54:00 UTC 04/01 10:54 UTC 26°59.47'N 49°48.39'W 2434.98 nm -914.20 nm 7 23.4 KNOTS.abrev 30.1 KNOTS.abrev 31.7 KNOTS.abrev 31.7 KNOTS.abrev 758.18 nm
04/01/2016 10:50:00 UTC 04/01 10:50 UTC 26°57.48'N 49°48.68'W 2436.56 nm -913.68 nm 6 23.6 KNOTS.abrev 30.7 KNOTS.abrev 31.7 KNOTS.abrev 31.7 KNOTS.abrev 756.53 nm
04/01/2016 10:40:00 UTC 04/01 10:40 UTC 26°52.40'N 49°49.33'W 2440.52 nm -912.41 nm 7 24.8 KNOTS.abrev 31.7 KNOTS.abrev 31.8 KNOTS.abrev 31.8 KNOTS.abrev 762.25 nm
04/01/2016 10:30:00 UTC 04/01 10:30 UTC 26°47.16'N 49°50.02'W 2444.63 nm -911.29 nm 0 21.8 KNOTS.abrev 31.1 KNOTS.abrev 31.9 KNOTS.abrev 31.8 KNOTS.abrev 757.87 nm
04/01/2016 10:24:00 UTC 04/01 10:24 UTC 26°44.05'N 49°50.04'W 2446.82 nm -910.39 nm 359 21.6 KNOTS.abrev 31.4 KNOTS.abrev 32.0 KNOTS.abrev 31.8 KNOTS.abrev 771.78 nm
04/01/2016 10:20:00 UTC 04/01 10:20 UTC 26°41.96'N 49°49.99'W 2448.25 nm -909.77 nm 360 20.4 KNOTS.abrev 29.1 KNOTS.abrev 32.0 KNOTS.abrev 31.9 KNOTS.abrev 769.92 nm
04/01/2016 10:00:00 UTC 04/01 10:00 UTC 26°32.25'N 49°49.92'W 2455.02 nm -906.23 nm 360 19.6 KNOTS.abrev 28.0 KNOTS.abrev 32.3 KNOTS.abrev 31.9 KNOTS.abrev 766.04 nm
04/01/2016 09:54:00 UTC 04/01 09:54 UTC 26°29.46'N 49°49.90'W 2456.97 nm -905.09 nm 2 20.1 KNOTS.abrev 27.6 KNOTS.abrev 32.4 KNOTS.abrev 32.0 KNOTS.abrev 767.91 nm
04/01/2016 09:50:00 UTC 04/01 09:50 UTC 26°27.62'N 49°49.96'W 2458.30 nm -904.35 nm 4 22.2 KNOTS.abrev 29.6 KNOTS.abrev 33.1 KNOTS.abrev 32.0 KNOTS.abrev 767.33 nm
04/01/2016 09:40:00 UTC 04/01 09:40 UTC 26°22.70'N 49°50.33'W 2462.00 nm -902.88 nm 1 21.1 KNOTS.abrev 29.5 KNOTS.abrev 33.2 KNOTS.abrev 32.0 KNOTS.abrev 768.51 nm
04/01/2016 09:30:00 UTC 04/01 09:30 UTC 26°17.80'N 49°50.42'W 2465.51 nm -901.20 nm 359 19.2 KNOTS.abrev 27.7 KNOTS.abrev 33.4 KNOTS.abrev 32.1 KNOTS.abrev 769.99 nm
04/01/2016 09:23:00 UTC 04/01 09:23 UTC 26°14.56'N 49°50.38'W 2467.76 nm -899.69 nm 0 23.3 KNOTS.abrev 33.0 KNOTS.abrev 33.6 KNOTS.abrev 32.1 KNOTS.abrev 772.11 nm
04/01/2016 09:20:00 UTC 04/01 09:20 UTC 26°12.92'N 49°50.39'W 2468.94 nm -899.25 nm 2 22.4 KNOTS.abrev 30.7 KNOTS.abrev 33.6 KNOTS.abrev 32.2 KNOTS.abrev 770.67 nm
04/01/2016 09:10:00 UTC 04/01 09:10 UTC 26°07.81'N 49°50.55'W 2472.65 nm -897.58 nm 2 22.4 KNOTS.abrev 30.7 KNOTS.abrev 33.7 KNOTS.abrev 32.2 KNOTS.abrev 778.76 nm
04/01/2016 09:00:00 UTC 04/01 09:00 UTC 26°02.70'N 49°50.72'W 2476.37 nm -895.91 nm 3 22.1 KNOTS.abrev 29.8 KNOTS.abrev 33.9 KNOTS.abrev 32.3 KNOTS.abrev 774.39 nm
04/01/2016 08:53:00 UTC 04/01 08:53 UTC 25°59.23'N 49°50.94'W 2478.96 nm -894.73 nm 1 23.9 KNOTS.abrev 33.2 KNOTS.abrev 34.0 KNOTS.abrev 32.3 KNOTS.abrev 775.99 nm
04/01/2016 08:50:00 UTC 04/01 08:50 UTC 25°57.57'N 49°50.99'W 2480.16 nm -894.32 nm 360 22.5 KNOTS.abrev 31.7 KNOTS.abrev 34.1 KNOTS.abrev 32.3 KNOTS.abrev 774.57 nm
04/01/2016 08:40:00 UTC 04/01 08:40 UTC 25°52.29'N 49°50.94'W 2483.88 nm -892.63 nm 359 21.9 KNOTS.abrev 31.4 KNOTS.abrev 32.6 KNOTS.abrev 32.3 KNOTS.abrev 774.92 nm
04/01/2016 08:30:00 UTC 04/01 08:30 UTC 25°47.06'N 49°50.82'W 2487.52 nm -890.86 nm 1 22.1 KNOTS.abrev 30.6 KNOTS.abrev 32.7 KNOTS.abrev 32.3 KNOTS.abrev 775.68 nm
04/01/2016 08:23:00 UTC 04/01 08:23 UTC 25°43.49'N 49°50.87'W 2490.08 nm -889.64 nm 359 24.3 KNOTS.abrev 34.8 KNOTS.abrev 32.8 KNOTS.abrev 32.3 KNOTS.abrev 777.98 nm
04/01/2016 08:20:00 UTC 04/01 08:20 UTC 25°41.75'N 49°50.84'W 2491.30 nm -889.23 nm 359 23.3 KNOTS.abrev 33.3 KNOTS.abrev 32.7 KNOTS.abrev 32.4 KNOTS.abrev 776.47 nm
04/01/2016 08:10:00 UTC 04/01 08:10 UTC 25°36.20'N 49°50.68'W 2495.15 nm -887.67 nm 355 21.3 KNOTS.abrev 32.8 KNOTS.abrev 32.8 KNOTS.abrev 32.4 KNOTS.abrev 777.15 nm
04/01/2016 07:53:00 UTC 04/01 07:53 UTC 25°26.94'N 49°49.84'W 2501.22 nm -884.52 nm 353 21.5 KNOTS.abrev 34.6 KNOTS.abrev 32.5 KNOTS.abrev 32.4 KNOTS.abrev 779.88 nm
04/01/2016 07:50:00 UTC 04/01 07:50 UTC 25°25.22'N 49°49.61'W 2502.30 nm -883.97 nm 353 22.2 KNOTS.abrev 35.7 KNOTS.abrev 32.4 KNOTS.abrev 32.4 KNOTS.abrev 778.31 nm
04/01/2016 07:40:00 UTC 04/01 07:40 UTC 25°19.31'N 49°48.84'W 2506.03 nm -882.26 nm 350 20.2 KNOTS.abrev 34.7 KNOTS.abrev 32.3 KNOTS.abrev 32.4 KNOTS.abrev 778.12 nm
04/01/2016 07:30:00 UTC 04/01 07:30 UTC 25°13.61'N 49°47.77'W 2509.43 nm -880.25 nm 352 21.8 KNOTS.abrev 35.7 KNOTS.abrev 32.0 KNOTS.abrev 32.4 KNOTS.abrev 778.02 nm
04/01/2016 07:00:00 UTC 04/01 07:00 UTC 24°56.09'N 49°44.80'W 2520.12 nm -875.60 nm 350 19.0 KNOTS.abrev 32.3 KNOTS.abrev 31.7 KNOTS.abrev 32.4 KNOTS.abrev 777.50 nm
04/01/2016 06:51:00 UTC 04/01 06:51 UTC 24°51.31'N 49°43.91'W 2522.99 nm -873.87 nm 345 14.6 KNOTS.abrev 28.4 KNOTS.abrev 32.1 KNOTS.abrev 32.4 KNOTS.abrev 778.08 nm
04/01/2016 06:50:00 UTC 04/01 06:50 UTC 24°50.85'N 49°43.77'W 2523.24 nm -873.60 nm 349 19.3 KNOTS.abrev 33.6 KNOTS.abrev 32.1 KNOTS.abrev 32.4 KNOTS.abrev 777.63 nm
04/01/2016 06:40:00 UTC 04/01 06:40 UTC 24°45.35'N 49°42.63'W 2526.47 nm -871.70 nm 342 16.6 KNOTS.abrev 35.3 KNOTS.abrev 32.0 KNOTS.abrev 32.4 KNOTS.abrev 778.01 nm
04/01/2016 06:30:00 UTC 04/01 06:30 UTC 24°39.77'N 49°40.58'W 2529.21 nm -869.30 nm 340 15.6 KNOTS.abrev 35.5 KNOTS.abrev 31.9 KNOTS.abrev 32.4 KNOTS.abrev 778.09 nm
04/01/2016 05:10:00 UTC 04/01 05:10 UTC 23°55.45'N 49°22.45'W 2549.97 nm -849.83 nm 335 7.1 KNOTS.abrev 19.2 KNOTS.abrev 30.3 KNOTS.abrev 32.3 KNOTS.abrev 775.62 nm
04/01/2016 04:17:00 UTC 04/01 04:17 UTC 23°34.33'N 49°10.71'W 2558.07 nm -831.66 nm 333 10.4 KNOTS.abrev 30.2 KNOTS.abrev 31.8 KNOTS.abrev 32.6 KNOTS.abrev 779.75 nm
04/01/2016 03:46:00 UTC 04/01 03:46 UTC 23°20.43'N 49°02.98'W 2563.46 nm -822.13 nm 332 10.2 KNOTS.abrev 30.8 KNOTS.abrev 30.8 KNOTS.abrev 32.6 KNOTS.abrev 780.82 nm
04/01/2016 03:14:00 UTC 04/01 03:14 UTC 23°06.01'N 48°54.50'W 2568.81 nm -811.47 nm 329 9.9 KNOTS.abrev 34.7 KNOTS.abrev 31.0 KNOTS.abrev 32.7 KNOTS.abrev 785.90 nm
04/01/2016 02:41:00 UTC 04/01 02:41 UTC 22°49.68'N 48°43.83'W 2574.28 nm -799.85 nm 323 6.8 KNOTS.abrev 36.1 KNOTS.abrev 31.8 KNOTS.abrev 32.6 KNOTS.abrev 783.57 nm
04/01/2016 02:09:00 UTC 04/01 02:09 UTC 22°34.28'N 48°31.31'W 2577.97 nm -786.91 nm 327 8.5 KNOTS.abrev 32.9 KNOTS.abrev 30.5 KNOTS.abrev 32.5 KNOTS.abrev 779.50 nm
04/01/2016 01:38:00 UTC 04/01 01:38 UTC 22°20.08'N 48°21.26'W 2582.37 nm -775.11 nm 332 8.0 KNOTS.abrev 23.0 KNOTS.abrev 30.8 KNOTS.abrev 32.4 KNOTS.abrev 777.14 nm
04/01/2016 01:08:00 UTC 04/01 01:08 UTC 22°09.91'N 48°15.50'W 2586.43 nm -763.51 nm 333 10.0 KNOTS.abrev 27.5 KNOTS.abrev 32.2 KNOTS.abrev 32.6 KNOTS.abrev 786.97 nm
04/01/2016 00:38:00 UTC 04/01 00:38 UTC 21°57.64'N 48°08.88'W 2591.57 nm -753.04 nm 327 10.6 KNOTS.abrev 39.5 KNOTS.abrev 32.8 KNOTS.abrev 32.7 KNOTS.abrev 783.73 nm
04/01/2016 00:10:00 UTC 04/01 00:10 UTC 21°42.19'N 47°58.09'W 2596.59 nm -743.49 nm 151 -17.4 KNOTS.abrev 51.2 KNOTS.abrev 32.5 KNOTS.abrev 32.5 KNOTS.abrev 780.57 nm
04/01/2016 00:07:00 UTC 04/01 00:07 UTC 21°44.43'N 47°59.41'W 2595.71 nm -741.04 nm 333 11.2 KNOTS.abrev 30.1 KNOTS.abrev 33.5 KNOTS.abrev 32.7 KNOTS.abrev 783.12 nm
03/01/2016 23:40:00 UTC 03/01 23:40 UTC 21°32.40'N 47°52.76'W 2600.72 nm -731.96 nm 335 13.0 KNOTS.abrev 31.8 KNOTS.abrev 34.3 KNOTS.abrev 32.7 KNOTS.abrev 784.86 nm
03/01/2016 23:37:00 UTC 03/01 23:37 UTC 21°30.96'N 47°52.03'W 2601.36 nm -731.03 nm 331 11.4 KNOTS.abrev 33.1 KNOTS.abrev 34.3 KNOTS.abrev 32.7 KNOTS.abrev 783.29 nm
03/01/2016 23:30:00 UTC 03/01 23:30 UTC 21°27.57'N 47°50.05'W 2602.72 nm -728.72 nm 329 10.3 KNOTS.abrev 33.2 KNOTS.abrev 34.5 KNOTS.abrev 32.7 KNOTS.abrev 784.70 nm
03/01/2016 23:20:00 UTC 03/01 23:20 UTC 21°22.83'N 47°46.97'W 2604.43 nm -725.11 nm 329 10.0 KNOTS.abrev 32.0 KNOTS.abrev 34.2 KNOTS.abrev 32.7 KNOTS.abrev 784.38 nm
03/01/2016 22:40:00 UTC 03/01 22:40 UTC 21°00.58'N 47°32.44'W 2612.49 nm -711.86 nm 148 -3.9 KNOTS.abrev 13.0 KNOTS.abrev 33.6 KNOTS.abrev 32.5 KNOTS.abrev 773.51 nm
03/01/2016 22:35:00 UTC 03/01 22:35 UTC 21°01.50'N 47°33.06'W 2612.17 nm -708.87 nm 328 10.5 KNOTS.abrev 35.0 KNOTS.abrev 34.6 KNOTS.abrev 32.6 KNOTS.abrev 774.59 nm
03/01/2016 22:30:00 UTC 03/01 22:30 UTC 20°59.03'N 47°31.39'W 2613.03 nm -707.10 nm 328 9.8 KNOTS.abrev 32.6 KNOTS.abrev 34.6 KNOTS.abrev 32.6 KNOTS.abrev 771.67 nm
03/01/2016 22:20:00 UTC 03/01 22:20 UTC 20°54.43'N 47°28.30'W 2614.67 nm -704.05 nm 328 10.6 KNOTS.abrev 34.9 KNOTS.abrev 34.7 KNOTS.abrev 32.6 KNOTS.abrev 766.24 nm
03/01/2016 22:10:00 UTC 03/01 22:10 UTC 20°49.51'N 47°24.98'W 2616.41 nm -701.10 nm 326 9.3 KNOTS.abrev 34.3 KNOTS.abrev 34.8 KNOTS.abrev 32.5 KNOTS.abrev 797.02 nm
03/01/2016 22:02:00 UTC 03/01 22:02 UTC 20°45.70'N 47°22.28'W 2617.69 nm -698.62 nm 326 10.0 KNOTS.abrev 36.7 KNOTS.abrev 34.8 KNOTS.abrev 32.5 KNOTS.abrev 792.45 nm
03/01/2016 22:00:00 UTC 03/01 22:00 UTC 20°44.69'N 47°21.55'W 2618.02 nm -698.01 nm 327 10.3 KNOTS.abrev 35.7 KNOTS.abrev 34.8 KNOTS.abrev 32.5 KNOTS.abrev 791.23 nm
03/01/2016 21:50:00 UTC 03/01 21:50 UTC 20°39.73'N 47°18.04'W 2619.70 nm -694.98 nm 327 10.0 KNOTS.abrev 34.4 KNOTS.abrev 34.8 KNOTS.abrev 32.5 KNOTS.abrev 785.28 nm
03/01/2016 21:40:00 UTC 03/01 21:40 UTC 20°34.92'N 47°14.72'W 2621.37 nm -691.95 nm 327 9.9 KNOTS.abrev 34.0 KNOTS.abrev 34.8 KNOTS.abrev 32.5 KNOTS.abrev 779.55 nm
03/01/2016 21:30:00 UTC 03/01 21:30 UTC 20°30.19'N 47°11.39'W 2622.99 nm -688.82 nm 327 9.7 KNOTS.abrev 33.1 KNOTS.abrev 34.8 KNOTS.abrev 32.5 KNOTS.abrev 779.46 nm
03/01/2016 21:20:00 UTC 03/01 21:20 UTC 20°25.54'N 47°08.22'W 2624.64 nm -685.32 nm 328 8.9 KNOTS.abrev 28.8 KNOTS.abrev 34.7 KNOTS.abrev 32.5 KNOTS.abrev 779.38 nm
03/01/2016 21:17:00 UTC 03/01 21:17 UTC 20°24.32'N 47°07.40'W 2625.09 nm -684.22 nm 328 11.3 KNOTS.abrev 36.5 KNOTS.abrev 34.8 KNOTS.abrev 32.5 KNOTS.abrev 777.94 nm
03/01/2016 21:10:00 UTC 03/01 21:10 UTC 20°20.70'N 47°05.01'W 2626.43 nm -681.94 nm 329 11.1 KNOTS.abrev 33.8 KNOTS.abrev 34.4 KNOTS.abrev 32.5 KNOTS.abrev 778.98 nm
03/01/2016 21:00:00 UTC 03/01 21:00 UTC 20°15.89'N 47°01.89'W 2628.25 nm -678.60 nm 326 9.3 KNOTS.abrev 33.3 KNOTS.abrev 34.3 KNOTS.abrev 32.4 KNOTS.abrev 783.56 nm
03/01/2016 20:50:00 UTC 03/01 20:50 UTC 20°11.28'N 46°58.61'W 2629.84 nm -675.01 nm 328 10.0 KNOTS.abrev 31.9 KNOTS.abrev 34.2 KNOTS.abrev 32.4 KNOTS.abrev 778.01 nm
03/01/2016 20:43:00 UTC 03/01 20:43 UTC 20°08.12'N 46°56.51'W 2631.01 nm -672.56 nm 336 13.0 KNOTS.abrev 29.2 KNOTS.abrev 34.3 KNOTS.abrev 32.4 KNOTS.abrev 779.57 nm
03/01/2016 20:40:00 UTC 03/01 20:40 UTC 20°06.79'N 46°55.87'W 2631.66 nm -671.65 nm 331 12.2 KNOTS.abrev 33.4 KNOTS.abrev 34.2 KNOTS.abrev 32.4 KNOTS.abrev 778.13 nm
03/01/2016 20:30:00 UTC 03/01 20:30 UTC 20°01.92'N 46°53.01'W 2633.69 nm -668.51 nm 331 12.7 KNOTS.abrev 34.8 KNOTS.abrev 34.2 KNOTS.abrev 32.4 KNOTS.abrev 778.03 nm
03/01/2016 20:20:00 UTC 03/01 20:20 UTC 19°56.85'N 46°50.02'W 2635.82 nm -665.49 nm 331 14.4 KNOTS.abrev 39.2 KNOTS.abrev 34.1 KNOTS.abrev 32.4 KNOTS.abrev 777.64 nm
03/01/2016 20:12:00 UTC 03/01 20:12 UTC 19°52.28'N 46°47.35'W 2637.75 nm -663.32 nm 332 16.6 KNOTS.abrev 43.3 KNOTS.abrev 33.9 KNOTS.abrev 32.4 KNOTS.abrev 777.62 nm
03/01/2016 20:10:00 UTC 03/01 20:10 UTC 19°51.01'N 46°46.63'W 2638.31 nm -662.85 nm 334 14.7 KNOTS.abrev 35.3 KNOTS.abrev 33.8 KNOTS.abrev 32.3 KNOTS.abrev 776.18 nm
03/01/2016 20:00:00 UTC 03/01 20:00 UTC 19°45.71'N 46°43.91'W 2640.79 nm -660.18 nm 334 14.4 KNOTS.abrev 34.5 KNOTS.abrev 33.8 KNOTS.abrev 32.3 KNOTS.abrev 775.55 nm
03/01/2016 19:50:00 UTC 03/01 19:50 UTC 19°40.56'N 46°41.19'W 2643.16 nm -657.40 nm 328 12.2 KNOTS.abrev 38.0 KNOTS.abrev 33.9 KNOTS.abrev 32.3 KNOTS.abrev 775.21 nm
03/01/2016 19:42:00 UTC 03/01 19:42 UTC 19°36.24'N 46°38.37'W 2644.82 nm -654.95 nm 328 14.6 KNOTS.abrev 45.2 KNOTS.abrev 33.8 KNOTS.abrev 32.3 KNOTS.abrev 775.38 nm
03/01/2016 19:40:00 UTC 03/01 19:40 UTC 19°34.96'N 46°37.53'W 2645.31 nm -654.41 nm 331 14.3 KNOTS.abrev 38.4 KNOTS.abrev 33.7 KNOTS.abrev 32.2 KNOTS.abrev 773.88 nm
03/01/2016 19:30:00 UTC 03/01 19:30 UTC 19°29.38'N 46°34.23'W 2647.69 nm -651.63 nm 318 4.0 KNOTS.abrev 25.7 KNOTS.abrev 33.3 KNOTS.abrev 32.2 KNOTS.abrev 772.42 nm
03/01/2016 19:20:00 UTC 03/01 19:20 UTC 19°26.21'N 46°31.17'W 2648.33 nm -646.99 nm 309 0.0 KNOTS.abrev 35.1 KNOTS.abrev 33.2 KNOTS.abrev 32.2 KNOTS.abrev 772.97 nm
03/01/2016 19:12:00 UTC 03/01 19:12 UTC 19°23.27'N 46°27.31'W 2648.33 nm -642.77 nm 323 9.1 KNOTS.abrev 37.3 KNOTS.abrev 33.0 KNOTS.abrev 32.2 KNOTS.abrev 773.55 nm
03/01/2016 19:00:00 UTC 03/01 19:00 UTC 19°17.33'N 46°22.54'W 2650.13 nm -638.24 nm 324 9.6 KNOTS.abrev 36.8 KNOTS.abrev 32.7 KNOTS.abrev 32.1 KNOTS.abrev 771.11 nm
03/01/2016 18:50:00 UTC 03/01 18:50 UTC 19°12.34'N 46°18.77'W 2651.78 nm -634.62 nm 327 11.4 KNOTS.abrev 36.5 KNOTS.abrev 32.5 KNOTS.abrev 32.1 KNOTS.abrev 770.18 nm
03/01/2016 18:42:00 UTC 03/01 18:42 UTC 19°08.24'N 46°15.99'W 2653.34 nm -631.94 nm 325 9.1 KNOTS.abrev 32.4 KNOTS.abrev 32.4 KNOTS.abrev 32.1 KNOTS.abrev 770.30 nm
03/01/2016 18:40:00 UTC 03/01 18:40 UTC 19°07.35'N 46°15.34'W 2653.65 nm -631.20 nm 328 11.3 KNOTS.abrev 34.2 KNOTS.abrev 32.4 KNOTS.abrev 32.1 KNOTS.abrev 769.22 nm
03/01/2016 18:30:00 UTC 03/01 18:30 UTC 19°02.51'N 46°12.16'W 2655.55 nm -627.81 nm 326 10.8 KNOTS.abrev 36.1 KNOTS.abrev 32.4 KNOTS.abrev 31.9 KNOTS.abrev 765.08 nm
03/01/2016 18:20:00 UTC 03/01 18:20 UTC 18°57.51'N 46°08.61'W 2657.37 nm -624.33 nm 327 11.4 KNOTS.abrev 35.8 KNOTS.abrev 32.2 KNOTS.abrev 31.7 KNOTS.abrev 760.02 nm
03/01/2016 18:10:00 UTC 03/01 18:10 UTC 18°52.52'N 46°05.16'W 2659.25 nm -620.93 nm 332 9.3 KNOTS.abrev 23.3 KNOTS.abrev 32.0 KNOTS.abrev 31.5 KNOTS.abrev 755.13 nm
03/01/2016 18:09:00 UTC 03/01 18:09 UTC 18°52.17'N 46°04.97'W 2659.41 nm -620.56 nm 332 14.5 KNOTS.abrev 36.4 KNOTS.abrev 32.1 KNOTS.abrev 31.5 KNOTS.abrev 754.74 nm
03/01/2016 18:00:00 UTC 03/01 18:00 UTC 18°47.34'N 46°02.29'W 2661.62 nm -618.02 nm 327 11.4 KNOTS.abrev 35.8 KNOTS.abrev 32.0 KNOTS.abrev 31.3 KNOTS.abrev 750.38 nm
03/01/2016 17:40:00 UTC 03/01 17:40 UTC 18°37.37'N 45°55.42'W 2665.41 nm -611.25 nm 325 10.4 KNOTS.abrev 36.1 KNOTS.abrev 31.8 KNOTS.abrev 30.8 KNOTS.abrev 739.73 nm
03/01/2016 17:37:00 UTC 03/01 17:37 UTC 18°35.90'N 45°54.32'W 2665.92 nm -610.18 nm 328 10.7 KNOTS.abrev 31.7 KNOTS.abrev 31.7 KNOTS.abrev 30.8 KNOTS.abrev 737.92 nm
03/01/2016 17:30:00 UTC 03/01 17:30 UTC 18°32.78'N 45°52.24'W 2667.15 nm -607.72 nm 328 9.1 KNOTS.abrev 26.9 KNOTS.abrev 31.8 KNOTS.abrev 30.6 KNOTS.abrev 734.89 nm
03/01/2016 17:28:00 UTC 03/01 17:28 UTC 18°32.02'N 45°51.74'W 2667.46 nm -607.02 nm 329 11.1 KNOTS.abrev 31.1 KNOTS.abrev 31.9 KNOTS.abrev 30.6 KNOTS.abrev 734.00 nm
03/01/2016 17:20:00 UTC 03/01 17:20 UTC 18°28.46'N 45°49.49'W 2668.95 nm -604.48 nm 327 9.3 KNOTS.abrev 28.6 KNOTS.abrev 31.8 KNOTS.abrev 30.4 KNOTS.abrev 730.63 nm
03/01/2016 17:10:00 UTC 03/01 17:10 UTC 18°24.45'N 45°46.79'W 2670.53 nm -601.02 nm 331 11.7 KNOTS.abrev 30.0 KNOTS.abrev 32.0 KNOTS.abrev 30.3 KNOTS.abrev 726.76 nm
03/01/2016 17:00:00 UTC 03/01 17:00 UTC 18°20.09'N 45°44.22'W 2672.46 nm -597.91 nm 330 12.5 KNOTS.abrev 33.3 KNOTS.abrev 32.0 KNOTS.abrev 30.1 KNOTS.abrev 723.45 nm
03/01/2016 16:58:00 UTC 03/01 16:58 UTC 18°19.13'N 45°43.63'W 2672.87 nm -597.31 nm 332 12.7 KNOTS.abrev 31.1 KNOTS.abrev 32.0 KNOTS.abrev 30.1 KNOTS.abrev 722.35 nm
03/01/2016 16:50:00 UTC 03/01 16:50 UTC 18°15.47'N 45°41.57'W 2674.55 nm -594.96 nm 328 11.0 KNOTS.abrev 32.0 KNOTS.abrev 32.1 KNOTS.abrev 30.1 KNOTS.abrev 723.31 nm
03/01/2016 16:30:00 UTC 03/01 16:30 UTC 18°06.48'N 45°35.54'W 2678.15 nm -588.45 nm 323 8.6 KNOTS.abrev 32.6 KNOTS.abrev 32.2 KNOTS.abrev 30.1 KNOTS.abrev 722.70 nm
03/01/2016 16:20:00 UTC 03/01 16:20 UTC 18°02.15'N 45°32.10'W 2679.57 nm -584.86 nm 320 7.0 KNOTS.abrev 32.9 KNOTS.abrev 32.1 KNOTS.abrev 30.1 KNOTS.abrev 722.34 nm
03/01/2016 16:10:00 UTC 03/01 16:10 UTC 17°57.93'N 45°28.42'W 2680.78 nm -581.05 nm 319 7.0 KNOTS.abrev 35.3 KNOTS.abrev 32.0 KNOTS.abrev 30.1 KNOTS.abrev 722.02 nm
03/01/2016 16:04:00 UTC 03/01 16:04 UTC 17°55.28'N 45°25.96'W 2681.45 nm -578.71 nm 319 7.2 KNOTS.abrev 36.2 KNOTS.abrev 32.0 KNOTS.abrev 30.1 KNOTS.abrev 723.72 nm
03/01/2016 16:00:00 UTC 03/01 16:00 UTC 17°53.46'N 45°24.30'W 2681.93 nm -577.18 nm 326 11.1 KNOTS.abrev 34.9 KNOTS.abrev 32.0 KNOTS.abrev 30.1 KNOTS.abrev 721.32 nm
03/01/2016 15:40:00 UTC 03/01 15:40 UTC 17°43.80'N 45°17.48'W 2685.65 nm -570.86 nm 317 4.5 KNOTS.abrev 26.9 KNOTS.abrev 31.9 KNOTS.abrev 30.0 KNOTS.abrev 719.73 nm
03/01/2016 15:34:00 UTC 03/01 15:34 UTC 17°41.84'N 45°15.55'W 2686.09 nm -568.28 nm 331 10.4 KNOTS.abrev 25.9 KNOTS.abrev 32.0 KNOTS.abrev 30.0 KNOTS.abrev 722.04 nm
03/01/2016 15:20:00 UTC 03/01 15:20 UTC 17°36.54'N 45°12.50'W 2688.55 nm -563.73 nm 331 12.1 KNOTS.abrev 30.0 KNOTS.abrev 32.5 KNOTS.abrev 30.0 KNOTS.abrev 721.15 nm
03/01/2016 15:10:00 UTC 03/01 15:10 UTC 17°32.16'N 45°09.96'W 2690.57 nm -560.75 nm 330 11.9 KNOTS.abrev 30.8 KNOTS.abrev 32.5 KNOTS.abrev 30.1 KNOTS.abrev 721.29 nm
03/01/2016 15:00:00 UTC 03/01 15:00 UTC 17°27.70'N 45°07.29'W 2692.58 nm -557.75 nm 330 12.3 KNOTS.abrev 31.7 KNOTS.abrev 32.5 KNOTS.abrev 30.1 KNOTS.abrev 721.54 nm
03/01/2016 14:50:00 UTC 03/01 14:50 UTC 17°23.13'N 45°04.52'W 2694.64 nm -554.80 nm 332 12.1 KNOTS.abrev 28.7 KNOTS.abrev 32.6 KNOTS.abrev 30.1 KNOTS.abrev 721.53 nm
03/01/2016 14:48:00 UTC 03/01 14:48 UTC 17°22.28'N 45°04.06'W 2695.04 nm -554.21 nm 335 15.4 KNOTS.abrev 32.9 KNOTS.abrev 32.7 KNOTS.abrev 30.1 KNOTS.abrev 720.58 nm
03/01/2016 14:40:00 UTC 03/01 14:40 UTC 17°18.30'N 45°02.13'W 2697.12 nm -552.27 nm 333 15.0 KNOTS.abrev 34.3 KNOTS.abrev 32.7 KNOTS.abrev 30.1 KNOTS.abrev 721.47 nm
03/01/2016 14:30:00 UTC 03/01 14:30 UTC 17°13.21'N 44°59.39'W 2699.61 nm -549.76 nm 332 13.2 KNOTS.abrev 31.3 KNOTS.abrev 32.6 KNOTS.abrev 30.0 KNOTS.abrev 721.13 nm
03/01/2016 14:20:00 UTC 03/01 14:20 UTC 17°08.62'N 44°56.81'W 2701.80 nm -547.07 nm 333 14.7 KNOTS.abrev 33.5 KNOTS.abrev 32.8 KNOTS.abrev 30.1 KNOTS.abrev 721.56 nm
03/01/2016 14:17:00 UTC 03/01 14:17 UTC 17°07.13'N 44°56.02'W 2702.54 nm -546.34 nm 332 13.9 KNOTS.abrev 32.7 KNOTS.abrev 32.8 KNOTS.abrev 30.1 KNOTS.abrev 719.90 nm
03/01/2016 14:10:00 UTC 03/01 14:10 UTC 17°03.77'N 44°54.13'W 2704.15 nm -544.54 nm 331 13.8 KNOTS.abrev 33.7 KNOTS.abrev 32.8 KNOTS.abrev 30.1 KNOTS.abrev 721.51 nm
03/01/2016 14:00:00 UTC 03/01 14:00 UTC 16°58.87'N 44°51.27'W 2706.44 nm -541.94 nm 329 12.6 KNOTS.abrev 33.3 KNOTS.abrev 32.6 KNOTS.abrev 30.1 KNOTS.abrev 721.29 nm
03/01/2016 13:50:00 UTC 03/01 13:50 UTC 16°54.12'N 44°48.28'W 2708.54 nm -539.15 nm 330 14.1 KNOTS.abrev 35.7 KNOTS.abrev 32.5 KNOTS.abrev 30.0 KNOTS.abrev 720.95 nm
03/01/2016 13:47:00 UTC 03/01 13:47 UTC 16°52.58'N 44°47.33'W 2709.23 nm -538.38 nm 324 10.0 KNOTS.abrev 33.5 KNOTS.abrev 32.5 KNOTS.abrev 30.0 KNOTS.abrev 719.17 nm
03/01/2016 13:40:00 UTC 03/01 13:40 UTC 16°49.41'N 44°44.96'W 2710.42 nm -536.15 nm 312 3.3 KNOTS.abrev 35.4 KNOTS.abrev 32.5 KNOTS.abrev 30.0 KNOTS.abrev 720.53 nm
03/01/2016 13:30:00 UTC 03/01 13:30 UTC 16°45.50'N 44°40.35'W 2710.94 nm -531.80 nm 324 9.0 KNOTS.abrev 30.1 KNOTS.abrev 32.5 KNOTS.abrev 30.0 KNOTS.abrev 719.85 nm
03/01/2016 13:20:00 UTC 03/01 13:20 UTC 16°41.47'N 44°37.24'W 2712.41 nm -528.76 nm 324 8.7 KNOTS.abrev 28.9 KNOTS.abrev 32.7 KNOTS.abrev 30.0 KNOTS.abrev 720.07 nm
03/01/2016 13:16:00 UTC 03/01 13:16 UTC 16°39.91'N 44°36.05'W 2712.99 nm -527.53 nm 327 11.8 KNOTS.abrev 33.6 KNOTS.abrev 32.8 KNOTS.abrev 30.0 KNOTS.abrev 718.14 nm
03/01/2016 13:10:00 UTC 03/01 13:10 UTC 16°37.08'N 44°34.16'W 2714.19 nm -526.02 nm 323 9.1 KNOTS.abrev 32.0 KNOTS.abrev 32.9 KNOTS.abrev 30.0 KNOTS.abrev 720.00 nm
03/01/2016 13:00:00 UTC 03/01 13:00 UTC 16°32.83'N 44°30.81'W 2715.71 nm -523.03 nm 329 12.8 KNOTS.abrev 33.2 KNOTS.abrev 33.0 KNOTS.abrev 30.0 KNOTS.abrev 720.55 nm
03/01/2016 12:50:00 UTC 03/01 12:50 UTC 16°28.08'N 44°27.84'W 2717.86 nm -520.66 nm 328 12.9 KNOTS.abrev 34.8 KNOTS.abrev 32.7 KNOTS.abrev 30.0 KNOTS.abrev 720.44 nm
03/01/2016 12:46:00 UTC 03/01 12:46 UTC 16°26.11'N 44°26.58'W 2718.74 nm -519.72 nm 330 12.1 KNOTS.abrev 29.9 KNOTS.abrev 32.7 KNOTS.abrev 30.0 KNOTS.abrev 718.13 nm
03/01/2016 12:40:00 UTC 03/01 12:40 UTC 16°23.52'N 44°25.02'W 2719.94 nm -518.22 nm 326 11.2 KNOTS.abrev 33.0 KNOTS.abrev 32.6 KNOTS.abrev 30.0 KNOTS.abrev 720.40 nm
03/01/2016 12:30:00 UTC 03/01 12:30 UTC 16°18.99'N 44°21.78'W 2721.77 nm -515.52 nm 325 10.5 KNOTS.abrev 32.3 KNOTS.abrev 32.6 KNOTS.abrev 30.0 KNOTS.abrev 720.34 nm
03/01/2016 12:15:00 UTC 03/01 12:15 UTC 16°12.38'N 44°16.94'W 2724.38 nm -511.52 nm 311 2.5 KNOTS.abrev 28.4 KNOTS.abrev 32.6 KNOTS.abrev 30.0 KNOTS.abrev 723.18 nm
03/01/2016 12:10:00 UTC 03/01 12:10 UTC 16°10.83'N 44°15.07'W 2724.58 nm -509.51 nm 325 11.0 KNOTS.abrev 33.8 KNOTS.abrev 32.7 KNOTS.abrev 30.0 KNOTS.abrev 720.89 nm
03/01/2016 12:00:00 UTC 03/01 12:00 UTC 16°06.24'N 44°11.69'W 2726.39 nm -506.91 nm 327 15.5 KNOTS.abrev 43.0 KNOTS.abrev 32.8 KNOTS.abrev 30.0 KNOTS.abrev 720.31 nm
03/01/2016 11:59:00 UTC 03/01 11:59 UTC 16°05.63'N 44°11.29'W 2726.66 nm -506.73 nm 328 12.5 KNOTS.abrev 33.3 KNOTS.abrev 32.7 KNOTS.abrev 30.0 KNOTS.abrev 719.59 nm
03/01/2016 11:50:00 UTC 03/01 11:50 UTC 16°01.42'N 44°08.52'W 2728.51 nm -504.61 nm 329 13.1 KNOTS.abrev 33.2 KNOTS.abrev 32.7 KNOTS.abrev 30.0 KNOTS.abrev 719.73 nm
03/01/2016 11:40:00 UTC 03/01 11:40 UTC 15°56.68'N 44°05.54'W 2730.68 nm -502.35 nm 328 12.6 KNOTS.abrev 33.2 KNOTS.abrev 32.6 KNOTS.abrev 30.0 KNOTS.abrev 719.29 nm
03/01/2016 11:30:00 UTC 03/01 11:30 UTC 15°52.01'N 44°02.45'W 2732.75 nm -500.00 nm 325 15.5 KNOTS.abrev 46.8 KNOTS.abrev 32.5 KNOTS.abrev 30.0 KNOTS.abrev 718.89 nm
03/01/2016 11:29:00 UTC 03/01 11:29 UTC 15°51.37'N 44°01.98'W 2733.00 nm -499.80 nm 327 11.4 KNOTS.abrev 31.3 KNOTS.abrev 32.5 KNOTS.abrev 29.9 KNOTS.abrev 718.11 nm
03/01/2016 11:10:00 UTC 03/01 11:10 UTC 15°43.07'N 43°56.37'W 2736.61 nm -494.94 nm 327 11.5 KNOTS.abrev 31.4 KNOTS.abrev 32.5 KNOTS.abrev 30.0 KNOTS.abrev 724.57 nm
03/01/2016 11:00:00 UTC 03/01 11:00 UTC 15°38.67'N 43°53.43'W 2738.54 nm -492.41 nm 327 12.9 KNOTS.abrev 35.3 KNOTS.abrev 32.5 KNOTS.abrev 30.0 KNOTS.abrev 719.34 nm
03/01/2016 10:58:00 UTC 03/01 10:58 UTC 15°37.69'N 43°52.76'W 2738.97 nm -491.95 nm 327 12.3 KNOTS.abrev 33.5 KNOTS.abrev 32.5 KNOTS.abrev 30.0 KNOTS.abrev 718.17 nm
03/01/2016 10:40:00 UTC 03/01 10:40 UTC 15°29.23'N 43°47.12'W 2742.71 nm -487.65 nm 329 13.7 KNOTS.abrev 34.1 KNOTS.abrev 32.3 KNOTS.abrev 29.9 KNOTS.abrev 718.52 nm
03/01/2016 10:10:00 UTC 03/01 10:10 UTC 15°15.03'N 43°37.92'W 2749.20 nm -481.62 nm 328 11.0 KNOTS.abrev 28.4 KNOTS.abrev 32.5 KNOTS.abrev 29.9 KNOTS.abrev 716.71 nm
03/01/2016 10:00:00 UTC 03/01 10:00 UTC 15°11.01'N 43°35.34'W 2751.06 nm -479.44 nm 327 12.3 KNOTS.abrev 32.8 KNOTS.abrev 32.7 KNOTS.abrev 29.8 KNOTS.abrev 721.23 nm
03/01/2016 09:52:00 UTC 03/01 09:52 UTC 15°07.35'N 43°32.85'W 2752.67 nm -477.81 nm 325 10.5 KNOTS.abrev 30.8 KNOTS.abrev 32.7 KNOTS.abrev 29.8 KNOTS.abrev 716.85 nm
03/01/2016 09:50:00 UTC 03/01 09:50 UTC 15°06.51'N 43°32.24'W 2753.02 nm -477.35 nm 327 12.0 KNOTS.abrev 32.1 KNOTS.abrev 32.7 KNOTS.abrev 29.8 KNOTS.abrev 715.83 nm
03/01/2016 09:40:00 UTC 03/01 09:40 UTC 15°02.01'N 43°29.24'W 2755.05 nm -475.33 nm 324 11.4 KNOTS.abrev 34.9 KNOTS.abrev 32.7 KNOTS.abrev 29.8 KNOTS.abrev 720.60 nm
03/01/2016 09:30:00 UTC 03/01 09:30 UTC 14°57.31'N 43°25.71'W 2756.96 nm -473.49 nm 329 15.3 KNOTS.abrev 37.4 KNOTS.abrev 32.6 KNOTS.abrev 29.8 KNOTS.abrev 714.79 nm
03/01/2016 09:22:00 UTC 03/01 09:22 UTC 14°53.06'N 43°23.03'W 2758.97 nm -475.80 nm 327 23.7 KNOTS.abrev 62.7 KNOTS.abrev 32.3 KNOTS.abrev 29.7 KNOTS.abrev 714.79 nm
03/01/2016 09:00:00 UTC 03/01 09:00 UTC 14°42.54'N 43°16.01'W 2763.75 nm -481.40 nm 324 9.1 KNOTS.abrev 27.3 KNOTS.abrev 32.2 KNOTS.abrev 29.7 KNOTS.abrev 712.41 nm
03/01/2016 08:50:00 UTC 03/01 08:50 UTC 14°38.84'N 43°13.26'W 2765.28 nm -483.30 nm 331 13.2 KNOTS.abrev 29.6 KNOTS.abrev 32.5 KNOTS.abrev 29.7 KNOTS.abrev 711.67 nm
03/01/2016 08:40:00 UTC 03/01 08:40 UTC 14°34.54'N 43°10.76'W 2767.46 nm -485.84 nm 330 13.8 KNOTS.abrev 32.0 KNOTS.abrev 32.7 KNOTS.abrev 29.6 KNOTS.abrev 711.23 nm
03/01/2016 08:30:00 UTC 03/01 08:30 UTC 14°29.92'N 43°08.02'W 2769.76 nm -488.55 nm 317 7.2 KNOTS.abrev 33.3 KNOTS.abrev 32.7 KNOTS.abrev 29.6 KNOTS.abrev 710.72 nm
03/01/2016 08:20:00 UTC 03/01 08:20 UTC 14°25.89'N 43°04.08'W 2770.93 nm -490.67 nm 319 8.5 KNOTS.abrev 33.9 KNOTS.abrev 32.7 KNOTS.abrev 29.6 KNOTS.abrev 709.55 nm
03/01/2016 08:10:00 UTC 03/01 08:10 UTC 14°21.60'N 43°00.29'W 2772.40 nm -493.08 nm 323 11.0 KNOTS.abrev 34.3 KNOTS.abrev 32.7 KNOTS.abrev 29.5 KNOTS.abrev 708.76 nm
03/01/2016 08:00:00 UTC 03/01 08:00 UTC 14°17.07'N 42°56.71'W 2774.19 nm -495.82 nm 329 13.6 KNOTS.abrev 32.5 KNOTS.abrev 32.7 KNOTS.abrev 29.5 KNOTS.abrev 707.53 nm
03/01/2016 07:50:00 UTC 03/01 07:50 UTC 14°12.45'N 42°53.81'W 2776.44 nm -499.01 nm 328 18.2 KNOTS.abrev 45.1 KNOTS.abrev 32.7 KNOTS.abrev 29.4 KNOTS.abrev 706.55 nm
03/01/2016 07:49:00 UTC 03/01 07:49 UTC 14°11.81'N 42°53.40'W 2776.74 nm -499.41 nm 330 13.0 KNOTS.abrev 29.8 KNOTS.abrev 32.6 KNOTS.abrev 29.4 KNOTS.abrev 705.80 nm
03/01/2016 07:40:00 UTC 03/01 07:40 UTC 14°07.93'N 42°51.13'W 2778.72 nm -502.24 nm 334 15.8 KNOTS.abrev 31.6 KNOTS.abrev 32.6 KNOTS.abrev 29.4 KNOTS.abrev 705.96 nm
03/01/2016 07:30:00 UTC 03/01 07:30 UTC 14°03.18'N 42°48.78'W 2781.38 nm -505.78 nm 328 13.1 KNOTS.abrev 32.3 KNOTS.abrev 32.6 KNOTS.abrev 29.4 KNOTS.abrev 705.36 nm
03/01/2016 07:20:00 UTC 03/01 07:20 UTC 13°58.60'N 42°45.86'W 2783.58 nm -508.11 nm 328 19.4 KNOTS.abrev 47.7 KNOTS.abrev 32.6 KNOTS.abrev 29.3 KNOTS.abrev 704.35 nm
03/01/2016 07:19:00 UTC 03/01 07:19 UTC 13°57.92'N 42°45.43'W 2783.91 nm -508.45 nm 329 12.5 KNOTS.abrev 29.6 KNOTS.abrev 32.6 KNOTS.abrev 29.3 KNOTS.abrev 703.56 nm
03/01/2016 07:10:00 UTC 03/01 07:10 UTC 13°54.14'N 42°43.04'W 2785.76 nm -510.40 nm 329 13.1 KNOTS.abrev 30.9 KNOTS.abrev 32.8 KNOTS.abrev 29.3 KNOTS.abrev 703.33 nm
03/01/2016 07:00:00 UTC 03/01 07:00 UTC 13°49.72'N 42°40.32'W 2787.95 nm -512.71 nm 328 12.4 KNOTS.abrev 30.4 KNOTS.abrev 32.9 KNOTS.abrev 29.2 KNOTS.abrev 701.68 nm
03/01/2016 06:50:00 UTC 03/01 06:50 UTC 13°45.43'N 42°37.53'W 2790.01 nm -514.88 nm 328 13.7 KNOTS.abrev 33.5 KNOTS.abrev 33.0 KNOTS.abrev 29.2 KNOTS.abrev 699.84 nm
03/01/2016 06:40:00 UTC 03/01 06:40 UTC 13°40.71'N 42°34.47'W 2792.28 nm -517.25 nm 325 12.7 KNOTS.abrev 34.9 KNOTS.abrev 33.0 KNOTS.abrev 29.1 KNOTS.abrev 697.36 nm
03/01/2016 06:30:00 UTC 03/01 06:30 UTC 13°35.96'N 42°31.03'W 2794.38 nm -519.19 nm 322 10.8 KNOTS.abrev 34.2 KNOTS.abrev 32.9 KNOTS.abrev 29.0 KNOTS.abrev 695.12 nm
03/01/2016 06:25:00 UTC 03/01 06:25 UTC 13°33.71'N 42°29.23'W 2795.29 nm -518.09 nm 323 12.0 KNOTS.abrev 36.1 KNOTS.abrev 32.8 KNOTS.abrev 28.9 KNOTS.abrev 696.14 nm
03/01/2016 06:20:00 UTC 03/01 06:20 UTC 13°31.30'N 42°27.37'W 2796.29 nm -517.09 nm 325 12.4 KNOTS.abrev 33.9 KNOTS.abrev 32.7 KNOTS.abrev 28.9 KNOTS.abrev 693.13 nm
03/01/2016 06:10:00 UTC 03/01 06:10 UTC 13°26.68'N 42°24.05'W 2798.36 nm -515.15 nm 327 13.1 KNOTS.abrev 33.0 KNOTS.abrev 32.5 KNOTS.abrev 28.8 KNOTS.abrev 691.43 nm
03/01/2016 06:00:00 UTC 03/01 06:00 UTC 13°22.04'N 42°21.01'W 2800.60 nm -513.38 nm 327 13.5 KNOTS.abrev 33.7 KNOTS.abrev 32.3 KNOTS.abrev 28.7 KNOTS.abrev 694.25 nm
03/01/2016 05:55:00 UTC 03/01 05:55 UTC 13°19.67'N 42°19.45'W 2801.74 nm -512.51 nm 330 14.9 KNOTS.abrev 33.4 KNOTS.abrev 32.2 KNOTS.abrev 28.7 KNOTS.abrev 691.44 nm
03/01/2016 05:50:00 UTC 03/01 05:50 UTC 13°17.28'N 42°18.01'W 2802.97 nm -511.74 nm 329 14.0 KNOTS.abrev 32.4 KNOTS.abrev 32.1 KNOTS.abrev 28.7 KNOTS.abrev 688.67 nm
03/01/2016 05:40:00 UTC 03/01 05:40 UTC 13°12.66'N 42°15.15'W 2805.30 nm -510.05 nm 325 11.5 KNOTS.abrev 31.2 KNOTS.abrev 32.0 KNOTS.abrev 28.6 KNOTS.abrev 687.39 nm
03/01/2016 05:30:00 UTC 03/01 05:30 UTC 13°08.38'N 42°12.11'W 2807.25 nm -508.00 nm 326 11.9 KNOTS.abrev 30.7 KNOTS.abrev 32.0 KNOTS.abrev 28.6 KNOTS.abrev 686.77 nm
03/01/2016 05:20:00 UTC 03/01 05:20 UTC 13°04.13'N 42°09.19'W 2809.25 nm -506.20 nm 327 13.2 KNOTS.abrev 32.8 KNOTS.abrev 32.0 KNOTS.abrev 28.6 KNOTS.abrev 686.26 nm
03/01/2016 05:10:00 UTC 03/01 05:10 UTC 12°59.57'N 42°06.12'W 2811.43 nm -504.60 nm 328 14.1 KNOTS.abrev 33.6 KNOTS.abrev 32.0 KNOTS.abrev 28.5 KNOTS.abrev 685.20 nm
03/01/2016 05:00:00 UTC 03/01 05:00 UTC 12°54.82'N 42°03.08'W 2813.80 nm -503.17 nm 329 14.5 KNOTS.abrev 33.2 KNOTS.abrev 32.0 KNOTS.abrev 28.5 KNOTS.abrev 684.06 nm
03/01/2016 04:50:00 UTC 03/01 04:50 UTC 12°50.09'N 42°00.12'W 2816.19 nm -501.76 nm 326 13.1 KNOTS.abrev 33.5 KNOTS.abrev 31.9 KNOTS.abrev 28.5 KNOTS.abrev 683.18 nm
03/01/2016 04:40:00 UTC 03/01 04:40 UTC 12°45.48'N 41°56.92'W 2818.37 nm -500.14 nm 326 12.7 KNOTS.abrev 32.5 KNOTS.abrev 31.8 KNOTS.abrev 28.4 KNOTS.abrev 682.23 nm
03/01/2016 04:30:00 UTC 03/01 04:30 UTC 12°40.97'N 41°53.85'W 2820.52 nm -498.52 nm 329 14.8 KNOTS.abrev 33.5 KNOTS.abrev 31.7 KNOTS.abrev 28.4 KNOTS.abrev 681.45 nm
03/01/2016 04:20:00 UTC 03/01 04:20 UTC 12°36.20'N 41°50.90'W 2822.98 nm -497.57 nm 327 13.4 KNOTS.abrev 32.6 KNOTS.abrev 31.6 KNOTS.abrev 28.4 KNOTS.abrev 675.88 nm
03/01/2016 04:10:00 UTC 03/01 04:10 UTC 12°31.62'N 41°47.90'W 2825.24 nm -496.41 nm 328 14.5 KNOTS.abrev 33.9 KNOTS.abrev 31.5 KNOTS.abrev 28.3 KNOTS.abrev 670.45 nm
03/01/2016 04:00:00 UTC 03/01 04:00 UTC 12°26.87'N 41°44.80'W 2827.62 nm -495.37 nm 331 15.7 KNOTS.abrev 33.0 KNOTS.abrev 31.3 KNOTS.abrev 28.3 KNOTS.abrev 664.81 nm
03/01/2016 03:50:00 UTC 03/01 03:50 UTC 12°22.06'N 41°42.07'W 2830.23 nm -494.56 nm 328 13.2 KNOTS.abrev 30.8 KNOTS.abrev 31.2 KNOTS.abrev 28.3 KNOTS.abrev 659.33 nm
03/01/2016 03:30:00 UTC 03/01 03:30 UTC 12°13.32'N 41°36.55'W 2834.70 nm -492.20 nm 328 13.9 KNOTS.abrev 32.3 KNOTS.abrev 31.3 KNOTS.abrev 28.2 KNOTS.abrev 649.07 nm
03/01/2016 03:20:00 UTC 03/01 03:20 UTC 12°08.76'N 41°33.64'W 2837.03 nm -491.25 nm 327 14.4 KNOTS.abrev 34.5 KNOTS.abrev 31.2 KNOTS.abrev 28.2 KNOTS.abrev 643.69 nm
03/01/2016 03:10:00 UTC 03/01 03:10 UTC 12°03.92'N 41°30.47'W 2839.45 nm -490.39 nm 330 15.6 KNOTS.abrev 33.6 KNOTS.abrev 31.1 KNOTS.abrev 28.1 KNOTS.abrev 637.94 nm
03/01/2016 03:00:00 UTC 03/01 03:00 UTC 11°59.10'N 41°27.57'W 2842.01 nm -489.67 nm 329 15.3 KNOTS.abrev 33.9 KNOTS.abrev 30.9 KNOTS.abrev 28.1 KNOTS.abrev 632.35 nm
03/01/2016 02:50:00 UTC 03/01 02:50 UTC 11°54.25'N 41°24.60'W 2844.57 nm -488.94 nm 328 14.3 KNOTS.abrev 32.8 KNOTS.abrev 30.8 KNOTS.abrev 28.1 KNOTS.abrev 626.70 nm
03/01/2016 02:40:00 UTC 03/01 02:40 UTC 11°49.61'N 41°21.64'W 2846.95 nm -488.03 nm 329 14.3 KNOTS.abrev 31.7 KNOTS.abrev 30.7 KNOTS.abrev 28.0 KNOTS.abrev 621.23 nm
03/01/2016 02:30:00 UTC 03/01 02:30 UTC 11°45.07'N 41°18.87'W 2849.36 nm -487.15 nm 326 12.6 KNOTS.abrev 31.0 KNOTS.abrev 30.6 KNOTS.abrev 28.0 KNOTS.abrev 615.95 nm
03/01/2016 02:20:00 UTC 03/01 02:20 UTC 11°40.80'N 41°15.90'W 2851.44 nm -486.09 nm 327 11.9 KNOTS.abrev 28.3 KNOTS.abrev 30.6 KNOTS.abrev 28.0 KNOTS.abrev 610.78 nm
03/01/2016 02:10:00 UTC 03/01 02:10 UTC 11°36.84'N 41°13.29'W 2853.44 nm -484.94 nm 324 10.7 KNOTS.abrev 28.6 KNOTS.abrev 30.9 KNOTS.abrev 28.0 KNOTS.abrev 606.07 nm
03/01/2016 02:00:00 UTC 03/01 02:00 UTC 11°32.98'N 41°10.44'W 2855.24 nm -483.59 nm 327 12.8 KNOTS.abrev 30.1 KNOTS.abrev 31.0 KNOTS.abrev 28.0 KNOTS.abrev 601.30 nm
03/01/2016 01:50:00 UTC 03/01 01:50 UTC 11°28.76'N 41°07.68'W 2857.40 nm -482.59 nm 327 12.4 KNOTS.abrev 29.1 KNOTS.abrev 31.0 KNOTS.abrev 27.7 KNOTS.abrev 688.10 nm
03/01/2016 01:40:00 UTC 03/01 01:40 UTC 11°24.69'N 41°05.00'W 2859.48 nm -481.51 nm 328 13.5 KNOTS.abrev 30.6 KNOTS.abrev 31.1 KNOTS.abrev 27.7 KNOTS.abrev 683.25 nm
03/01/2016 01:30:00 UTC 03/01 01:30 UTC 11°20.38'N 41°02.25'W 2861.73 nm -480.57 nm 329 14.3 KNOTS.abrev 31.3 KNOTS.abrev 31.2 KNOTS.abrev 27.7 KNOTS.abrev 678.16 nm
03/01/2016 01:20:00 UTC 03/01 01:20 UTC 11°15.89'N 40°59.54'W 2864.16 nm -479.41 nm 325 13.0 KNOTS.abrev 32.9 KNOTS.abrev 31.3 KNOTS.abrev 27.7 KNOTS.abrev 672.95 nm
03/01/2016 01:00:00 UTC 03/01 01:00 UTC 11°06.92'N 40°53.10'W 2868.49 nm -476.57 nm 329 14.6 KNOTS.abrev 31.7 KNOTS.abrev 31.1 KNOTS.abrev 27.6 KNOTS.abrev 661.98 nm
03/01/2016 00:50:00 UTC 03/01 00:50 UTC 11°02.40'N 40°50.32'W 2870.92 nm -475.42 nm 328 13.7 KNOTS.abrev 30.6 KNOTS.abrev 31.1 KNOTS.abrev 27.5 KNOTS.abrev 661.08 nm
03/01/2016 00:40:00 UTC 03/01 00:40 UTC 10°58.10'N 40°47.54'W 2873.17 nm -474.07 nm 329 14.4 KNOTS.abrev 31.0 KNOTS.abrev 31.1 KNOTS.abrev 27.5 KNOTS.abrev 660.52 nm
03/01/2016 00:20:00 UTC 03/01 00:20 UTC 10°49.28'N 40°42.09'W 2877.92 nm -471.73 nm 330 14.2 KNOTS.abrev 29.6 KNOTS.abrev 31.3 KNOTS.abrev 27.3 KNOTS.abrev 659.58 nm
03/01/2016 00:10:00 UTC 03/01 00:10 UTC 10°45.01'N 40°39.59'W 2880.30 nm -470.60 nm 328 13.5 KNOTS.abrev 30.1 KNOTS.abrev 31.3 KNOTS.abrev 27.3 KNOTS.abrev 654.65 nm
02/01/2016 23:50:00 UTC 02/01 23:50 UTC 10°36.48'N 40°34.24'W 2884.88 nm -468.16 nm 327 13.6 KNOTS.abrev 31.1 KNOTS.abrev 31.5 KNOTS.abrev 27.1 KNOTS.abrev 650.96 nm
02/01/2016 23:40:00 UTC 02/01 23:40 UTC 10°32.13'N 40°31.40'W 2887.17 nm -466.94 nm 327 13.8 KNOTS.abrev 31.6 KNOTS.abrev 31.5 KNOTS.abrev 27.0 KNOTS.abrev 648.48 nm
02/01/2016 23:30:00 UTC 02/01 23:30 UTC 10°27.71'N 40°28.50'W 2889.49 nm -465.78 nm 325 12.7 KNOTS.abrev 31.3 KNOTS.abrev 31.4 KNOTS.abrev 26.9 KNOTS.abrev 646.14 nm
02/01/2016 23:20:00 UTC 02/01 23:20 UTC 10°23.42'N 40°25.48'W 2891.64 nm -464.94 nm 325 12.8 KNOTS.abrev 31.3 KNOTS.abrev 31.3 KNOTS.abrev 26.8 KNOTS.abrev 643.88 nm
02/01/2016 23:10:00 UTC 02/01 23:10 UTC 10°19.14'N 40°22.46'W 2893.79 nm -464.10 nm 324 11.8 KNOTS.abrev 30.1 KNOTS.abrev 31.2 KNOTS.abrev 26.7 KNOTS.abrev 641.51 nm
02/01/2016 23:00:00 UTC 02/01 23:00 UTC 10°15.07'N 40°19.48'W 2895.78 nm -463.11 nm 326 12.7 KNOTS.abrev 29.7 KNOTS.abrev 31.2 KNOTS.abrev 26.6 KNOTS.abrev 639.59 nm
02/01/2016 22:50:00 UTC 02/01 22:50 UTC 10°10.96'N 40°16.68'W 2897.91 nm -462.24 nm 327 13.9 KNOTS.abrev 31.4 KNOTS.abrev 31.3 KNOTS.abrev 26.5 KNOTS.abrev 640.26 nm
02/01/2016 21:40:00 UTC 02/01 21:40 UTC 09°40.36'N 39°56.32'W 2914.09 nm -459.94 nm 327 15.0 KNOTS.abrev 33.5 KNOTS.abrev 25.0 KNOTS.abrev 25.8 KNOTS.abrev 619.94 nm
02/01/2016 21:30:00 UTC 02/01 21:30 UTC 09°35.67'N 39°53.26'W 2916.62 nm -459.98 nm 327 14.7 KNOTS.abrev 32.6 KNOTS.abrev 23.9 KNOTS.abrev 25.7 KNOTS.abrev 616.86 nm
02/01/2016 21:20:00 UTC 02/01 21:20 UTC 09°31.09'N 39°50.28'W 2919.10 nm -460.38 nm 327 14.3 KNOTS.abrev 31.8 KNOTS.abrev 22.8 KNOTS.abrev 25.6 KNOTS.abrev 614.09 nm
02/01/2016 21:10:00 UTC 02/01 21:10 UTC 09°26.67'N 39°47.34'W 2921.47 nm -460.66 nm 326 13.4 KNOTS.abrev 30.6 KNOTS.abrev 21.8 KNOTS.abrev 25.5 KNOTS.abrev 611.40 nm
02/01/2016 20:50:00 UTC 02/01 20:50 UTC 09°18.18'N 39°41.61'W 2925.98 nm -461.00 nm 328 14.9 KNOTS.abrev 31.7 KNOTS.abrev 21.0 KNOTS.abrev 25.2 KNOTS.abrev 607.79 nm
02/01/2016 20:40:00 UTC 02/01 20:40 UTC 09°13.72'N 39°38.73'W 2928.43 nm -461.35 nm 327 14.8 KNOTS.abrev 32.6 KNOTS.abrev 21.0 KNOTS.abrev 25.1 KNOTS.abrev 602.51 nm
02/01/2016 20:30:00 UTC 02/01 20:30 UTC 09°09.14'N 39°35.77'W 2930.95 nm -461.79 nm 327 14.7 KNOTS.abrev 32.3 KNOTS.abrev 20.9 KNOTS.abrev 24.9 KNOTS.abrev 601.26 nm
02/01/2016 20:20:00 UTC 02/01 20:20 UTC 09°04.59'N 39°32.84'W 2933.45 nm -462.42 nm 328 14.7 KNOTS.abrev 31.1 KNOTS.abrev 20.8 KNOTS.abrev 24.8 KNOTS.abrev 595.87 nm
02/01/2016 20:10:00 UTC 02/01 20:10 UTC 09°00.19'N 39°30.08'W 2935.91 nm -463.02 nm 329 15.2 KNOTS.abrev 31.2 KNOTS.abrev 20.8 KNOTS.abrev 24.7 KNOTS.abrev 592.81 nm
02/01/2016 20:00:00 UTC 02/01 20:00 UTC 08°55.73'N 39°27.39'W 2938.47 nm -463.70 nm 327 14.8 KNOTS.abrev 32.2 KNOTS.abrev 20.8 KNOTS.abrev 24.6 KNOTS.abrev 589.61 nm
02/01/2016 19:50:00 UTC 02/01 19:50 UTC 08°51.26'N 39°24.39'W 2940.89 nm -464.24 nm 330 15.9 KNOTS.abrev 31.4 KNOTS.abrev 20.7 KNOTS.abrev 24.4 KNOTS.abrev 586.40 nm
02/01/2016 19:40:00 UTC 02/01 19:40 UTC 08°46.73'N 39°21.74'W 2943.54 nm -465.02 nm 330 14.9 KNOTS.abrev 29.5 KNOTS.abrev 20.7 KNOTS.abrev 24.2 KNOTS.abrev 585.71 nm
02/01/2016 19:30:00 UTC 02/01 19:30 UTC 08°42.48'N 39°19.23'W 2946.01 nm -465.64 nm 330 14.6 KNOTS.abrev 28.8 KNOTS.abrev 20.7 KNOTS.abrev 24.2 KNOTS.abrev 580.79 nm
02/01/2016 19:20:00 UTC 02/01 19:20 UTC 08°38.35'N 39°16.78'W 2948.41 nm -466.71 nm 331 15.9 KNOTS.abrev 30.4 KNOTS.abrev 20.8 KNOTS.abrev 24.1 KNOTS.abrev 578.20 nm
02/01/2016 19:10:00 UTC 02/01 19:10 UTC 08°33.95'N 39°14.26'W 2951.03 nm -467.98 nm 330 15.3 KNOTS.abrev 30.0 KNOTS.abrev 20.8 KNOTS.abrev 24.0 KNOTS.abrev 575.38 nm
02/01/2016 19:00:00 UTC 02/01 19:00 UTC 08°29.62'N 39°11.72'W 2953.57 nm -469.18 nm 326 14.0 KNOTS.abrev 31.2 KNOTS.abrev 20.9 KNOTS.abrev 23.9 KNOTS.abrev 572.71 nm
02/01/2016 18:50:00 UTC 02/01 18:50 UTC 08°25.30'N 39°08.79'W 2955.91 nm -470.19 nm 324 12.6 KNOTS.abrev 30.1 KNOTS.abrev 20.9 KNOTS.abrev 23.7 KNOTS.abrev 569.58 nm
02/01/2016 18:40:00 UTC 02/01 18:40 UTC 08°21.27'N 39°05.78'W 2957.97 nm -470.90 nm 275 -6.3 KNOTS.abrev 15.3 KNOTS.abrev 20.9 KNOTS.abrev 23.6 KNOTS.abrev 566.47 nm
02/01/2016 18:30:00 UTC 02/01 18:30 UTC 08°21.04'N 39°03.21'W 2956.93 nm -468.54 nm 263 -8.0 KNOTS.abrev 13.5 KNOTS.abrev 21.7 KNOTS.abrev 23.6 KNOTS.abrev 567.17 nm
02/01/2016 18:20:00 UTC 02/01 18:20 UTC 08°21.32'N 39°00.95'W 2955.59 nm -466.13 nm 265 -7.9 KNOTS.abrev 14.0 KNOTS.abrev 22.8 KNOTS.abrev 23.7 KNOTS.abrev 568.61 nm
02/01/2016 18:10:00 UTC 02/01 18:10 UTC 08°21.51'N 38°58.60'W 2954.29 nm -463.77 nm 266 -7.3 KNOTS.abrev 13.3 KNOTS.abrev 23.8 KNOTS.abrev 23.8 KNOTS.abrev 570.12 nm
02/01/2016 18:00:00 UTC 02/01 18:00 UTC 08°21.67'N 38°56.37'W 2953.08 nm -461.48 nm 255 -8.1 KNOTS.abrev 11.7 KNOTS.abrev 24.8 KNOTS.abrev 23.8 KNOTS.abrev 571.34 nm
02/01/2016 17:50:00 UTC 02/01 17:50 UTC 08°22.18'N 38°54.48'W 2951.72 nm -459.06 nm 257 -7.8 KNOTS.abrev 11.6 KNOTS.abrev 25.9 KNOTS.abrev 23.9 KNOTS.abrev 572.83 nm
02/01/2016 17:40:00 UTC 02/01 17:40 UTC 08°22.60'N 38°52.57'W 2950.43 nm -456.70 nm 257 -7.8 KNOTS.abrev 11.6 KNOTS.abrev 27.0 KNOTS.abrev 23.9 KNOTS.abrev 574.74 nm
02/01/2016 17:30:00 UTC 02/01 17:30 UTC 08°23.04'N 38°50.67'W 2949.14 nm -454.35 nm 258 -8.5 KNOTS.abrev 12.9 KNOTS.abrev 28.1 KNOTS.abrev 24.1 KNOTS.abrev 574.14 nm
02/01/2016 17:20:00 UTC 02/01 17:20 UTC 08°23.49'N 38°48.55'W 2947.72 nm -452.05 nm 259 -8.8 KNOTS.abrev 13.7 KNOTS.abrev 29.2 KNOTS.abrev 24.0 KNOTS.abrev 580.06 nm
02/01/2016 17:10:00 UTC 02/01 17:10 UTC 08°23.91'N 38°46.28'W 2946.26 nm -449.71 nm 279 -5.1 KNOTS.abrev 14.9 KNOTS.abrev 30.3 KNOTS.abrev 24.1 KNOTS.abrev 579.28 nm
02/01/2016 17:00:00 UTC 02/01 17:00 UTC 08°23.54'N 38°43.80'W 2945.40 nm -447.96 nm 325 13.3 KNOTS.abrev 30.5 KNOTS.abrev 31.3 KNOTS.abrev 24.1 KNOTS.abrev 583.14 nm
02/01/2016 16:50:00 UTC 02/01 16:50 UTC 08°19.37'N 38°40.88'W 2947.64 nm -449.33 nm 327 14.5 KNOTS.abrev 31.0 KNOTS.abrev 31.4 KNOTS.abrev 24.1 KNOTS.abrev 578.08 nm
02/01/2016 16:40:00 UTC 02/01 16:40 UTC 08°15.05'N 38°38.03'W 2950.05 nm -450.86 nm 326 13.4 KNOTS.abrev 29.4 KNOTS.abrev 31.4 KNOTS.abrev 24.0 KNOTS.abrev 575.92 nm
02/01/2016 16:30:00 UTC 02/01 16:30 UTC 08°11.01'N 38°35.25'W 2952.26 nm -452.18 nm 327 14.3 KNOTS.abrev 30.4 KNOTS.abrev 31.6 KNOTS.abrev 23.9 KNOTS.abrev 573.90 nm
02/01/2016 16:20:00 UTC 02/01 16:20 UTC 08°06.78'N 38°32.43'W 2954.62 nm -453.70 nm 329 15.6 KNOTS.abrev 30.9 KNOTS.abrev 31.7 KNOTS.abrev 23.8 KNOTS.abrev 571.56 nm
02/01/2016 16:10:00 UTC 02/01 16:10 UTC 08°02.39'N 38°29.71'W 2957.18 nm -455.41 nm 326 14.3 KNOTS.abrev 31.2 KNOTS.abrev 31.7 KNOTS.abrev 23.7 KNOTS.abrev 568.96 nm
02/01/2016 16:00:00 UTC 02/01 16:00 UTC 07°58.06'N 38°26.79'W 2959.59 nm -456.98 nm 326 13.9 KNOTS.abrev 30.3 KNOTS.abrev 31.7 KNOTS.abrev 23.6 KNOTS.abrev 566.14 nm
02/01/2016 15:50:00 UTC 02/01 15:50 UTC 07°53.90'N 38°23.92'W 2961.88 nm -458.42 nm 327 14.3 KNOTS.abrev 30.1 KNOTS.abrev 31.7 KNOTS.abrev 23.5 KNOTS.abrev 563.11 nm
02/01/2016 15:40:00 UTC 02/01 15:40 UTC 07°49.69'N 38°21.18'W 2964.27 nm -459.97 nm 329 15.1 KNOTS.abrev 29.8 KNOTS.abrev 31.7 KNOTS.abrev 23.4 KNOTS.abrev 560.43 nm
02/01/2016 15:30:00 UTC 02/01 15:30 UTC 07°45.41'N 38°18.62'W 2966.82 nm -461.69 nm 331 16.6 KNOTS.abrev 30.9 KNOTS.abrev 31.8 KNOTS.abrev 23.3 KNOTS.abrev 558.07 nm
02/01/2016 15:20:00 UTC 02/01 15:20 UTC 07°40.93'N 38°16.07'W 2969.55 nm -463.86 nm 331 16.5 KNOTS.abrev 30.8 KNOTS.abrev 31.9 KNOTS.abrev 23.1 KNOTS.abrev 558.70 nm
02/01/2016 15:10:00 UTC 02/01 15:10 UTC 07°36.45'N 38°13.56'W 2972.31 nm -466.06 nm 331 17.4 KNOTS.abrev 32.3 KNOTS.abrev 32.0 KNOTS.abrev 23.1 KNOTS.abrev 553.57 nm
02/01/2016 15:00:00 UTC 02/01 15:00 UTC 07°31.76'N 38°10.92'W 2975.20 nm -468.39 nm 332 17.6 KNOTS.abrev 31.7 KNOTS.abrev 32.0 KNOTS.abrev 22.9 KNOTS.abrev 554.29 nm
02/01/2016 14:50:00 UTC 02/01 14:50 UTC 07°27.09'N 38°08.42'W 2978.13 nm -470.75 nm 329 16.0 KNOTS.abrev 31.3 KNOTS.abrev 32.0 KNOTS.abrev 22.9 KNOTS.abrev 549.01 nm
02/01/2016 14:40:00 UTC 02/01 14:40 UTC 07°22.65'N 38°05.68'W 2980.76 nm -472.82 nm 327 15.4 KNOTS.abrev 31.9 KNOTS.abrev 32.0 KNOTS.abrev 22.8 KNOTS.abrev 546.24 nm
02/01/2016 14:30:00 UTC 02/01 14:30 UTC 07°18.17'N 38°02.79'W 2983.36 nm -474.90 nm 327 16.2 KNOTS.abrev 33.6 KNOTS.abrev 31.9 KNOTS.abrev 22.6 KNOTS.abrev 543.26 nm
02/01/2016 14:20:00 UTC 02/01 14:20 UTC 07°13.46'N 37°59.73'W 2986.07 nm -477.70 nm 327 15.7 KNOTS.abrev 32.4 KNOTS.abrev 31.7 KNOTS.abrev 22.5 KNOTS.abrev 540.37 nm
02/01/2016 14:10:00 UTC 02/01 14:10 UTC 07°08.93'N 37°56.77'W 2988.69 nm -480.41 nm 328 16.1 KNOTS.abrev 32.2 KNOTS.abrev 31.6 KNOTS.abrev 22.4 KNOTS.abrev 537.60 nm
02/01/2016 14:00:00 UTC 02/01 14:00 UTC 07°04.40'N 37°53.89'W 2991.35 nm -483.16 nm 330 16.6 KNOTS.abrev 31.2 KNOTS.abrev 31.3 KNOTS.abrev 22.3 KNOTS.abrev 534.83 nm
02/01/2016 13:50:00 UTC 02/01 13:50 UTC 06°59.90'N 37°51.26'W 2994.10 nm -485.99 nm 327 15.3 KNOTS.abrev 31.6 KNOTS.abrev 31.3 KNOTS.abrev 22.2 KNOTS.abrev 529.63 nm
02/01/2016 13:40:00 UTC 02/01 13:40 UTC 06°55.47'N 37°48.40'W 2996.69 nm -488.67 nm 328 15.2 KNOTS.abrev 30.4 KNOTS.abrev 31.2 KNOTS.abrev 22.0 KNOTS.abrev 530.79 nm
02/01/2016 13:30:00 UTC 02/01 13:30 UTC 06°51.18'N 37°45.70'W 2999.24 nm -491.30 nm 326 14.8 KNOTS.abrev 31.4 KNOTS.abrev 31.2 KNOTS.abrev 21.9 KNOTS.abrev 525.74 nm
02/01/2016 13:20:00 UTC 02/01 13:20 UTC 06°46.84'N 37°42.75'W 3001.71 nm -493.99 nm 327 15.3 KNOTS.abrev 31.4 KNOTS.abrev 31.2 KNOTS.abrev 21.8 KNOTS.abrev 522.61 nm
02/01/2016 13:10:00 UTC 02/01 13:10 UTC 06°42.47'N 37°39.88'W 3004.25 nm -496.74 nm 327 17.2 KNOTS.abrev 35.3 KNOTS.abrev 31.1 KNOTS.abrev 21.6 KNOTS.abrev 519.59 nm
02/01/2016 13:00:00 UTC 02/01 13:00 UTC 06°37.54'N 37°36.66'W 3007.13 nm -499.83 nm 332 18.4 KNOTS.abrev 32.7 KNOTS.abrev 30.9 KNOTS.abrev 21.5 KNOTS.abrev 518.81 nm
02/01/2016 12:50:00 UTC 02/01 12:50 UTC 06°32.73'N 37°34.11'W 3010.22 nm -503.13 nm 332 17.9 KNOTS.abrev 31.6 KNOTS.abrev 30.5 KNOTS.abrev 21.4 KNOTS.abrev 513.37 nm
02/01/2016 12:40:00 UTC 02/01 12:40 UTC 06°28.07'N 37°31.62'W 3013.21 nm -506.33 nm 328 16.6 KNOTS.abrev 32.7 KNOTS.abrev 30.3 KNOTS.abrev 21.3 KNOTS.abrev 510.78 nm
02/01/2016 12:30:00 UTC 02/01 12:30 UTC 06°23.45'N 37°28.74'W 3015.99 nm -509.24 nm 328 16.8 KNOTS.abrev 33.0 KNOTS.abrev 30.2 KNOTS.abrev 21.2 KNOTS.abrev 507.95 nm
02/01/2016 12:20:00 UTC 02/01 12:20 UTC 06°18.80'N 37°25.79'W 3018.77 nm -511.14 nm 328 16.6 KNOTS.abrev 32.6 KNOTS.abrev 29.9 KNOTS.abrev 21.1 KNOTS.abrev 505.23 nm
02/01/2016 12:10:00 UTC 02/01 12:10 UTC 06°14.20'N 37°22.90'W 3021.53 nm -513.03 nm 329 15.9 KNOTS.abrev 30.3 KNOTS.abrev 29.7 KNOTS.abrev 20.9 KNOTS.abrev 502.52 nm
02/01/2016 12:00:00 UTC 02/01 12:00 UTC 06°09.88'N 37°20.25'W 3024.16 nm -514.77 nm 329 16.1 KNOTS.abrev 30.7 KNOTS.abrev 29.6 KNOTS.abrev 20.8 KNOTS.abrev 499.75 nm
02/01/2016 11:50:00 UTC 02/01 11:50 UTC 06°05.52'N 37°17.57'W 3026.82 nm -516.55 nm 329 16.1 KNOTS.abrev 30.6 KNOTS.abrev 29.4 KNOTS.abrev 20.7 KNOTS.abrev 497.10 nm
02/01/2016 11:40:00 UTC 02/01 11:40 UTC 06°01.17'N 37°14.90'W 3029.47 nm -518.32 nm 331 17.2 KNOTS.abrev 30.9 KNOTS.abrev 29.3 KNOTS.abrev 20.6 KNOTS.abrev 494.44 nm
02/01/2016 11:30:00 UTC 02/01 11:30 UTC 05°56.69'N 37°12.35'W 3032.31 nm -520.29 nm 330 17.6 KNOTS.abrev 32.5 KNOTS.abrev 29.1 KNOTS.abrev 20.5 KNOTS.abrev 491.71 nm
02/01/2016 11:20:00 UTC 02/01 11:20 UTC 05°52.02'N 37°09.61'W 3035.23 nm -522.68 nm 330 17.9 KNOTS.abrev 32.9 KNOTS.abrev 28.9 KNOTS.abrev 20.4 KNOTS.abrev 488.92 nm
02/01/2016 11:00:00 UTC 02/01 11:00 UTC 05°42.52'N 37°04.08'W 3041.19 nm -527.59 nm 330 17.6 KNOTS.abrev 32.3 KNOTS.abrev 28.1 KNOTS.abrev 20.1 KNOTS.abrev 483.35 nm
02/01/2016 10:50:00 UTC 02/01 10:50 UTC 05°37.84'N 37°01.41'W 3044.16 nm -530.03 nm 332 17.5 KNOTS.abrev 30.4 KNOTS.abrev 27.5 KNOTS.abrev 20.0 KNOTS.abrev 480.74 nm
02/01/2016 10:40:00 UTC 02/01 10:40 UTC 05°33.38'N 36°59.02'W 3047.07 nm -532.41 nm 333 17.6 KNOTS.abrev 29.9 KNOTS.abrev 27.0 KNOTS.abrev 19.9 KNOTS.abrev 478.45 nm
02/01/2016 10:30:00 UTC 02/01 10:30 UTC 05°28.96'N 36°56.73'W 3049.99 nm -534.81 nm 328 15.5 KNOTS.abrev 29.9 KNOTS.abrev 26.7 KNOTS.abrev 19.8 KNOTS.abrev 476.31 nm
02/01/2016 10:10:00 UTC 02/01 10:10 UTC 05°20.51'N 36°51.40'W 3055.15 nm -539.25 nm 329 14.8 KNOTS.abrev 27.8 KNOTS.abrev 26.2 KNOTS.abrev 19.7 KNOTS.abrev 472.10 nm
02/01/2016 09:50:00 UTC 02/01 09:50 UTC 05°12.57'N 36°46.64'W 3060.12 nm -543.49 nm 328 15.8 KNOTS.abrev 30.4 KNOTS.abrev 25.9 KNOTS.abrev 19.5 KNOTS.abrev 472.08 nm
02/01/2016 09:30:00 UTC 02/01 09:30 UTC 05°04.00'N 36°41.23'W 3065.39 nm -548.01 nm 327 15.1 KNOTS.abrev 29.8 KNOTS.abrev 25.6 KNOTS.abrev 19.4 KNOTS.abrev 465.34 nm
02/01/2016 09:20:00 UTC 02/01 09:20 UTC 04°59.82'N 36°38.55'W 3067.95 nm -549.99 nm 328 15.9 KNOTS.abrev 30.3 KNOTS.abrev 25.5 KNOTS.abrev 19.3 KNOTS.abrev 463.86 nm
02/01/2016 09:10:00 UTC 02/01 09:10 UTC 04°55.53'N 36°35.86'W 3070.59 nm -552.06 nm 326 15.1 KNOTS.abrev 30.5 KNOTS.abrev 25.3 KNOTS.abrev 19.3 KNOTS.abrev 462.45 nm
02/01/2016 09:00:00 UTC 02/01 09:00 UTC 04°51.31'N 36°33.01'W 3073.12 nm -554.01 nm 321 9.6 KNOTS.abrev 23.0 KNOTS.abrev 25.2 KNOTS.abrev 19.2 KNOTS.abrev 460.65 nm
02/01/2016 08:50:00 UTC 02/01 08:50 UTC 04°48.33'N 36°30.60'W 3074.73 nm -555.04 nm 329 14.6 KNOTS.abrev 26.9 KNOTS.abrev 25.4 KNOTS.abrev 19.2 KNOTS.abrev 460.11 nm
02/01/2016 08:40:00 UTC 02/01 08:40 UTC 04°44.49'N 36°28.27'W 3077.14 nm -556.87 nm 330 16.1 KNOTS.abrev 28.9 KNOTS.abrev 25.4 KNOTS.abrev 19.1 KNOTS.abrev 459.22 nm
02/01/2016 08:30:00 UTC 02/01 08:30 UTC 04°40.34'N 36°25.83'W 3079.80 nm -558.94 nm 324 12.1 KNOTS.abrev 25.9 KNOTS.abrev 25.4 KNOTS.abrev 19.1 KNOTS.abrev 457.85 nm
02/01/2016 08:20:00 UTC 02/01 08:20 UTC 04°36.84'N 36°23.31'W 3081.84 nm -560.45 nm 325 14.0 KNOTS.abrev 29.0 KNOTS.abrev 25.4 KNOTS.abrev 19.0 KNOTS.abrev 457.05 nm
02/01/2016 08:10:00 UTC 02/01 08:10 UTC 04°32.87'N 36°20.57'W 3084.20 nm -562.28 nm 325 13.0 KNOTS.abrev 26.9 KNOTS.abrev 25.2 KNOTS.abrev 19.0 KNOTS.abrev 455.71 nm
02/01/2016 08:00:00 UTC 02/01 08:00 UTC 04°29.20'N 36°17.99'W 3086.37 nm -563.92 nm 324 12.5 KNOTS.abrev 26.6 KNOTS.abrev 25.1 KNOTS.abrev 18.9 KNOTS.abrev 454.52 nm
02/01/2016 07:50:00 UTC 02/01 07:50 UTC 04°25.62'N 36°15.37'W 3088.44 nm -565.45 nm 324 13.0 KNOTS.abrev 27.7 KNOTS.abrev 25.1 KNOTS.abrev 18.9 KNOTS.abrev 453.49 nm
02/01/2016 07:40:00 UTC 02/01 07:40 UTC 04°21.91'N 36°12.63'W 3090.59 nm -567.06 nm 326 13.8 KNOTS.abrev 27.6 KNOTS.abrev 24.9 KNOTS.abrev 18.8 KNOTS.abrev 452.32 nm
02/01/2016 07:30:00 UTC 02/01 07:30 UTC 04°18.09'N 36°10.05'W 3092.90 nm -568.81 nm 328 14.0 KNOTS.abrev 26.3 KNOTS.abrev 24.8 KNOTS.abrev 18.8 KNOTS.abrev 451.33 nm
02/01/2016 07:20:00 UTC 02/01 07:20 UTC 04°14.39'N 36°07.72'W 3095.22 nm -570.31 nm 322 11.2 KNOTS.abrev 25.3 KNOTS.abrev 24.7 KNOTS.abrev 18.8 KNOTS.abrev 450.44 nm
02/01/2016 07:10:00 UTC 02/01 07:10 UTC 04°11.04'N 36°05.14'W 3097.11 nm -571.39 nm 333 12.7 KNOTS.abrev 21.0 KNOTS.abrev 24.7 KNOTS.abrev 18.7 KNOTS.abrev 449.70 nm
02/01/2016 07:00:00 UTC 02/01 07:00 UTC 04°07.93'N 36°03.53'W 3099.22 nm -572.68 nm 330 10.9 KNOTS.abrev 19.4 KNOTS.abrev 24.9 KNOTS.abrev 18.7 KNOTS.abrev 449.51 nm
02/01/2016 06:50:00 UTC 02/01 06:50 UTC 04°05.13'N 36°01.90'W 3101.03 nm -573.67 nm 332 11.0 KNOTS.abrev 18.7 KNOTS.abrev 25.3 KNOTS.abrev 18.7 KNOTS.abrev 449.83 nm
02/01/2016 06:40:00 UTC 02/01 06:40 UTC 04°02.39'N 36°00.42'W 3102.86 nm -574.67 nm 334 13.4 KNOTS.abrev 21.6 KNOTS.abrev 26.2 KNOTS.abrev 18.7 KNOTS.abrev 452.21 nm
02/01/2016 06:30:00 UTC 02/01 06:30 UTC 03°59.18'N 35°58.81'W 3105.07 nm -576.03 nm 331 13.5 KNOTS.abrev 23.3 KNOTS.abrev 26.3 KNOTS.abrev 18.7 KNOTS.abrev 449.14 nm
02/01/2016 06:20:00 UTC 02/01 06:20 UTC 03°55.78'N 35°56.93'W 3107.32 nm -577.23 nm 329 13.0 KNOTS.abrev 23.7 KNOTS.abrev 26.4 KNOTS.abrev 18.7 KNOTS.abrev 448.66 nm
02/01/2016 06:10:00 UTC 02/01 06:10 UTC 03°52.40'N 35°54.89'W 3109.49 nm -578.34 nm 332 14.9 KNOTS.abrev 25.1 KNOTS.abrev 26.5 KNOTS.abrev 18.7 KNOTS.abrev 450.83 nm
02/01/2016 05:50:00 UTC 02/01 05:50 UTC 03°45.05'N 35°50.93'W 3114.43 nm -581.16 nm 332 14.8 KNOTS.abrev 24.8 KNOTS.abrev 26.6 KNOTS.abrev 18.6 KNOTS.abrev 446.99 nm
02/01/2016 05:40:00 UTC 02/01 05:40 UTC 03°41.42'N 35°48.97'W 3116.87 nm -582.54 nm 330 15.6 KNOTS.abrev 27.5 KNOTS.abrev 26.6 KNOTS.abrev 18.6 KNOTS.abrev 446.62 nm
02/01/2016 05:30:00 UTC 02/01 05:30 UTC 03°37.44'N 35°46.68'W 3119.47 nm -584.16 nm 333 17.0 KNOTS.abrev 27.8 KNOTS.abrev 26.6 KNOTS.abrev 18.6 KNOTS.abrev 445.55 nm
02/01/2016 05:20:00 UTC 02/01 05:20 UTC 03°33.31'N 35°44.58'W 3122.31 nm -587.17 nm 332 15.9 KNOTS.abrev 26.6 KNOTS.abrev 26.6 KNOTS.abrev 18.5 KNOTS.abrev 444.99 nm
02/01/2016 05:10:00 UTC 02/01 05:10 UTC 03°29.39'N 35°42.53'W 3124.98 nm -590.02 nm 331 15.7 KNOTS.abrev 26.8 KNOTS.abrev 26.6 KNOTS.abrev 18.5 KNOTS.abrev 445.06 nm
02/01/2016 05:00:00 UTC 02/01 05:00 UTC 03°25.49'N 35°40.34'W 3127.57 nm -592.79 nm 331 16.3 KNOTS.abrev 27.9 KNOTS.abrev 26.6 KNOTS.abrev 18.6 KNOTS.abrev 445.31 nm
02/01/2016 04:50:00 UTC 02/01 04:50 UTC 03°21.41'N 35°38.10'W 3130.31 nm -595.70 nm 333 17.1 KNOTS.abrev 27.9 KNOTS.abrev 26.5 KNOTS.abrev 18.6 KNOTS.abrev 445.52 nm
02/01/2016 04:40:00 UTC 02/01 04:40 UTC 03°17.26'N 35°35.99'W 3133.18 nm -598.73 nm 332 16.7 KNOTS.abrev 27.9 KNOTS.abrev 26.4 KNOTS.abrev 18.6 KNOTS.abrev 445.64 nm
02/01/2016 04:30:00 UTC 02/01 04:30 UTC 03°13.17'N 35°33.77'W 3135.94 nm -601.62 nm 333 16.2 KNOTS.abrev 26.4 KNOTS.abrev 26.2 KNOTS.abrev 18.6 KNOTS.abrev 445.66 nm
02/01/2016 01:00:00 UTC 02/01 01:00 UTC 01°51.41'N 34°51.16'W 3192.49 nm -642.01 nm 329 15.0 KNOTS.abrev 26.3 KNOTS.abrev 17.8 KNOTS.abrev 18.7 KNOTS.abrev 447.99 nm
02/01/2016 00:50:00 UTC 02/01 00:50 UTC 01°47.66'N 34°48.90'W 3194.99 nm -643.42 nm 328 15.1 KNOTS.abrev 27.2 KNOTS.abrev 17.1 KNOTS.abrev 18.7 KNOTS.abrev 447.98 nm
02/01/2016 00:40:00 UTC 02/01 00:40 UTC 01°43.82'N 34°46.50'W 3197.52 nm -644.84 nm 330 13.6 KNOTS.abrev 23.1 KNOTS.abrev 16.6 KNOTS.abrev 18.7 KNOTS.abrev 447.71 nm
02/01/2016 00:30:00 UTC 02/01 00:30 UTC 01°40.48'N 34°44.57'W 3199.77 nm -646.03 nm 330 9.7 KNOTS.abrev 16.6 KNOTS.abrev 16.1 KNOTS.abrev 18.7 KNOTS.abrev 448.08 nm
02/01/2016 00:10:00 UTC 02/01 00:10 UTC 01°35.70'N 34°41.80'W 3203.02 nm -647.94 nm 315 6.9 KNOTS.abrev 19.4 KNOTS.abrev 15.9 KNOTS.abrev 18.8 KNOTS.abrev 450.77 nm
01/01/2016 23:50:00 UTC 01/01 23:50 UTC 01°31.10'N 34°37.27'W 3205.38 nm -648.96 nm 323 7.9 KNOTS.abrev 16.2 KNOTS.abrev 15.4 KNOTS.abrev 18.9 KNOTS.abrev 454.01 nm
01/01/2016 23:40:00 UTC 01/01 23:40 UTC 01°28.95'N 34°35.64'W 3206.68 nm -649.59 nm 327 9.6 KNOTS.abrev 17.6 KNOTS.abrev 15.2 KNOTS.abrev 19.0 KNOTS.abrev 456.51 nm
01/01/2016 23:30:00 UTC 01/01 23:30 UTC 01°26.48'N 34°34.06'W 3208.30 nm -650.55 nm 325 9.2 KNOTS.abrev 17.7 KNOTS.abrev 15.1 KNOTS.abrev 19.1 KNOTS.abrev 458.68 nm
01/01/2016 23:20:00 UTC 01/01 23:20 UTC 01°24.05'N 34°32.37'W 3209.83 nm -651.70 nm 323 8.3 KNOTS.abrev 17.1 KNOTS.abrev 15.0 KNOTS.abrev 19.2 KNOTS.abrev 460.90 nm
01/01/2016 23:10:00 UTC 01/01 23:10 UTC 01°21.79'N 34°30.64'W 3211.20 nm -652.67 nm 308 4.8 KNOTS.abrev 19.7 KNOTS.abrev 14.8 KNOTS.abrev 19.3 KNOTS.abrev 463.12 nm
01/01/2016 23:00:00 UTC 01/01 23:00 UTC 01°19.76'N 34°28.07'W 3212.02 nm -653.09 nm 329 9.7 KNOTS.abrev 16.9 KNOTS.abrev 14.7 KNOTS.abrev 19.4 KNOTS.abrev 465.33 nm
01/01/2016 22:40:00 UTC 01/01 22:40 UTC 01°14.96'N 34°25.17'W 3215.25 nm -655.52 nm 332 11.1 KNOTS.abrev 17.9 KNOTS.abrev 14.3 KNOTS.abrev 19.6 KNOTS.abrev 469.56 nm
01/01/2016 22:30:00 UTC 01/01 22:30 UTC 01°12.32'N 34°23.78'W 3217.11 nm -656.98 nm 330 10.0 KNOTS.abrev 16.8 KNOTS.abrev 14.1 KNOTS.abrev 19.6 KNOTS.abrev 470.65 nm
01/01/2016 22:20:00 UTC 01/01 22:20 UTC 01°09.88'N 34°22.38'W 3218.78 nm -658.24 nm 334 11.0 KNOTS.abrev 17.1 KNOTS.abrev 14.0 KNOTS.abrev 19.6 KNOTS.abrev 470.78 nm
01/01/2016 22:10:00 UTC 01/01 22:10 UTC 01°07.32'N 34°21.13'W 3220.62 nm -660.03 nm 329 9.5 KNOTS.abrev 16.3 KNOTS.abrev 14.0 KNOTS.abrev 19.7 KNOTS.abrev 472.24 nm
01/01/2016 22:00:00 UTC 01/01 22:00 UTC 01°04.99'N 34°19.74'W 3222.20 nm -661.84 nm 327 8.3 KNOTS.abrev 15.1 KNOTS.abrev 13.8 KNOTS.abrev 19.7 KNOTS.abrev 473.72 nm
01/01/2016 21:50:00 UTC 01/01 21:50 UTC 01°02.87'N 34°18.36'W 3223.59 nm -663.45 nm 328 8.3 KNOTS.abrev 14.7 KNOTS.abrev 13.7 KNOTS.abrev 19.8 KNOTS.abrev 475.26 nm
01/01/2016 21:40:00 UTC 01/01 21:40 UTC 01°00.79'N 34°17.09'W 3224.98 nm -665.07 nm 338 10.7 KNOTS.abrev 15.2 KNOTS.abrev 13.8 KNOTS.abrev 19.9 KNOTS.abrev 477.13 nm
01/01/2016 21:30:00 UTC 01/01 21:30 UTC 00°58.44'N 34°16.13'W 3226.76 nm -667.04 nm 342 12.4 KNOTS.abrev 16.6 KNOTS.abrev 13.7 KNOTS.abrev 19.9 KNOTS.abrev 478.73 nm
01/01/2016 21:20:00 UTC 01/01 21:20 UTC 00°55.81'N 34°15.28'W 3228.83 nm -668.98 nm 340 11.6 KNOTS.abrev 16.0 KNOTS.abrev 13.6 KNOTS.abrev 20.0 KNOTS.abrev 479.86 nm
01/01/2016 21:10:00 UTC 01/01 21:10 UTC 00°53.30'N 34°14.39'W 3230.78 nm -670.79 nm 346 11.3 KNOTS.abrev 14.3 KNOTS.abrev 13.4 KNOTS.abrev 20.1 KNOTS.abrev 481.20 nm
01/01/2016 21:00:00 UTC 01/01 21:00 UTC 00°50.99'N 34°13.80'W 3232.66 nm -672.54 nm 344 10.5 KNOTS.abrev 13.6 KNOTS.abrev 13.7 KNOTS.abrev 20.1 KNOTS.abrev 482.80 nm
01/01/2016 20:40:00 UTC 01/01 20:40 UTC 00°46.64'N 34°12.54'W 3236.14 nm -675.74 nm 338 9.0 KNOTS.abrev 12.8 KNOTS.abrev 13.9 KNOTS.abrev 20.3 KNOTS.abrev 486.38 nm
01/01/2016 20:20:00 UTC 01/01 20:20 UTC 00°42.68'N 34°10.96'W 3239.15 nm -678.83 nm 334 8.4 KNOTS.abrev 12.9 KNOTS.abrev 14.2 KNOTS.abrev 20.4 KNOTS.abrev 489.84 nm
01/01/2016 20:10:00 UTC 01/01 20:10 UTC 00°40.75'N 34°10.04'W 3240.56 nm -680.43 nm 341 9.0 KNOTS.abrev 12.3 KNOTS.abrev 14.3 KNOTS.abrev 20.5 KNOTS.abrev 492.14 nm
01/01/2016 20:00:00 UTC 01/01 20:00 UTC 00°38.82'N 34°09.38'W 3242.07 nm -682.14 nm 339 9.5 KNOTS.abrev 13.2 KNOTS.abrev 14.4 KNOTS.abrev 20.6 KNOTS.abrev 490.93 nm
01/01/2016 19:50:00 UTC 01/01 19:50 UTC 00°36.75'N 34°08.61'W 3243.66 nm -683.93 nm 345 11.2 KNOTS.abrev 14.2 KNOTS.abrev 14.4 KNOTS.abrev 20.7 KNOTS.abrev 496.79 nm
01/01/2016 19:30:00 UTC 01/01 19:30 UTC 00°32.18'N 34°07.35'W 3247.36 nm -688.01 nm 340 9.8 KNOTS.abrev 13.5 KNOTS.abrev 14.5 KNOTS.abrev 20.9 KNOTS.abrev 501.25 nm
01/01/2016 19:20:00 UTC 01/01 19:20 UTC 00°30.06'N 34°06.60'W 3249.00 nm -690.05 nm 336 9.2 KNOTS.abrev 13.6 KNOTS.abrev 14.8 KNOTS.abrev 21.0 KNOTS.abrev 503.46 nm
01/01/2016 19:10:00 UTC 01/01 19:10 UTC 00°28.00'N 34°05.68'W 3250.54 nm -691.97 nm 331 8.5 KNOTS.abrev 14.0 KNOTS.abrev 14.9 KNOTS.abrev 21.1 KNOTS.abrev 505.71 nm
01/01/2016 19:00:00 UTC 01/01 19:00 UTC 00°25.95'N 34°04.55'W 3251.97 nm -693.79 nm 343 9.8 KNOTS.abrev 12.9 KNOTS.abrev 15.3 KNOTS.abrev 21.2 KNOTS.abrev 507.96 nm
01/01/2016 18:50:00 UTC 01/01 18:50 UTC 00°23.91'N 34°03.92'W 3253.60 nm -695.81 nm 337 7.9 KNOTS.abrev 11.5 KNOTS.abrev 15.4 KNOTS.abrev 21.3 KNOTS.abrev 514.35 nm
01/01/2016 18:40:00 UTC 01/01 18:40 UTC 00°22.15'N 34°03.17'W 3254.92 nm -697.51 nm 331 8.3 KNOTS.abrev 13.6 KNOTS.abrev 15.5 KNOTS.abrev 21.4 KNOTS.abrev 512.60 nm
01/01/2016 18:30:00 UTC 01/01 18:30 UTC 00°20.17'N 34°02.07'W 3256.30 nm -699.23 nm 331 8.8 KNOTS.abrev 14.3 KNOTS.abrev 15.6 KNOTS.abrev 21.5 KNOTS.abrev 515.20 nm
01/01/2016 18:20:00 UTC 01/01 18:20 UTC 00°18.09'N 34°00.90'W 3257.76 nm -700.36 nm 332 9.7 KNOTS.abrev 15.5 KNOTS.abrev 15.7 KNOTS.abrev 21.6 KNOTS.abrev 517.80 nm
01/01/2016 18:10:00 UTC 01/01 18:10 UTC 00°15.82'N 33°59.67'W 3259.36 nm -701.63 nm 327 7.5 KNOTS.abrev 13.5 KNOTS.abrev 15.8 KNOTS.abrev 21.7 KNOTS.abrev 519.99 nm
01/01/2016 18:00:00 UTC 01/01 18:00 UTC 00°13.94'N 33°58.45'W 3260.61 nm -702.55 nm 347 10.4 KNOTS.abrev 12.8 KNOTS.abrev 15.9 KNOTS.abrev 21.8 KNOTS.abrev 519.91 nm
01/01/2016 17:50:00 UTC 01/01 17:50 UTC 00°11.86'N 33°57.97'W 3262.34 nm -703.95 nm 326 8.2 KNOTS.abrev 15.2 KNOTS.abrev 16.0 KNOTS.abrev 21.9 KNOTS.abrev 524.56 nm
01/01/2016 17:40:00 UTC 01/01 17:40 UTC 00°09.76'N 33°56.55'W 3263.70 nm -704.98 nm 340 9.8 KNOTS.abrev 13.4 KNOTS.abrev 15.8 KNOTS.abrev 22.0 KNOTS.abrev 527.43 nm
01/01/2016 17:10:00 UTC 01/01 17:10 UTC 00°03.44'N 33°54.27'W 3268.62 nm -708.68 nm 338 11.6 KNOTS.abrev 16.4 KNOTS.abrev 15.9 KNOTS.abrev 22.3 KNOTS.abrev 535.40 nm
01/01/2016 16:50:00 UTC 01/01 16:50 UTC 00°01.64'S 33°52.25'W 3272.51 nm -711.67 nm 338 12.8 KNOTS.abrev 18.1 KNOTS.abrev 15.9 KNOTS.abrev 22.5 KNOTS.abrev 538.87 nm
01/01/2016 16:40:00 UTC 01/01 16:40 UTC 00°04.44'S 33°51.12'W 3274.65 nm -713.36 nm 341 13.0 KNOTS.abrev 17.5 KNOTS.abrev 15.9 KNOTS.abrev 22.5 KNOTS.abrev 543.51 nm
01/01/2016 16:30:00 UTC 01/01 16:30 UTC 00°07.20'S 33°50.19'W 3276.82 nm -715.08 nm 345 13.3 KNOTS.abrev 16.8 KNOTS.abrev 15.9 KNOTS.abrev 22.6 KNOTS.abrev 541.92 nm
01/01/2016 16:20:00 UTC 01/01 16:20 UTC 00°09.91'S 33°49.47'W 3279.04 nm -716.97 nm 350 13.6 KNOTS.abrev 16.2 KNOTS.abrev 15.9 KNOTS.abrev 22.7 KNOTS.abrev 543.65 nm
01/01/2016 16:10:00 UTC 01/01 16:10 UTC 00°12.57'S 33°48.99'W 3281.30 nm -718.90 nm 350 12.7 KNOTS.abrev 15.1 KNOTS.abrev 15.9 KNOTS.abrev 22.7 KNOTS.abrev 545.41 nm
01/01/2016 16:00:00 UTC 01/01 16:00 UTC 00°15.05'S 33°48.56'W 3283.42 nm -720.68 nm 358 12.2 KNOTS.abrev 13.4 KNOTS.abrev 15.9 KNOTS.abrev 22.8 KNOTS.abrev 547.50 nm
01/01/2016 15:50:00 UTC 01/01 15:50 UTC 00°17.28'S 33°48.46'W 3285.44 nm -722.35 nm 350 12.3 KNOTS.abrev 14.7 KNOTS.abrev 16.0 KNOTS.abrev 22.9 KNOTS.abrev 549.95 nm
01/01/2016 15:40:00 UTC 01/01 15:40 UTC 00°19.69'S 33°48.03'W 3287.49 nm -724.05 nm 352 14.4 KNOTS.abrev 16.8 KNOTS.abrev 16.0 KNOTS.abrev 23.0 KNOTS.abrev 552.32 nm
01/01/2016 15:30:00 UTC 01/01 15:30 UTC 00°22.46'S 33°47.64'W 3289.89 nm -726.10 nm 348 14.8 KNOTS.abrev 18.1 KNOTS.abrev 16.0 KNOTS.abrev 23.1 KNOTS.abrev 554.29 nm
01/01/2016 15:10:00 UTC 01/01 15:10 UTC 00°28.34'S 33°46.36'W 3294.82 nm -730.38 nm 346 15.1 KNOTS.abrev 18.9 KNOTS.abrev 15.8 KNOTS.abrev 23.3 KNOTS.abrev 558.19 nm
01/01/2016 14:50:00 UTC 01/01 14:50 UTC 00°34.46'S 33°44.83'W 3299.87 nm -734.76 nm 347 12.3 KNOTS.abrev 15.2 KNOTS.abrev 15.7 KNOTS.abrev 23.4 KNOTS.abrev 561.99 nm
01/01/2016 14:40:00 UTC 01/01 14:40 UTC 00°36.93'S 33°44.28'W 3301.94 nm -736.50 nm 356 13.7 KNOTS.abrev 15.3 KNOTS.abrev 15.8 KNOTS.abrev 23.5 KNOTS.abrev 564.54 nm
01/01/2016 14:30:00 UTC 01/01 14:30 UTC 00°39.48'S 33°44.09'W 3304.21 nm -738.43 nm 351 14.5 KNOTS.abrev 17.1 KNOTS.abrev 16.0 KNOTS.abrev 23.6 KNOTS.abrev 566.98 nm
01/01/2016 14:20:00 UTC 01/01 14:20 UTC 00°42.29'S 33°43.63'W 3306.63 nm -740.55 nm 346 13.0 KNOTS.abrev 16.2 KNOTS.abrev 16.0 KNOTS.abrev 23.7 KNOTS.abrev 569.10 nm
01/01/2016 14:10:00 UTC 01/01 14:10 UTC 00°44.91'S 33°42.98'W 3308.80 nm -742.42 nm 343 12.1 KNOTS.abrev 15.8 KNOTS.abrev 16.1 KNOTS.abrev 23.8 KNOTS.abrev 571.40 nm
01/01/2016 14:00:00 UTC 01/01 14:00 UTC 00°47.42'S 33°42.23'W 3310.82 nm -744.14 nm 347 10.8 KNOTS.abrev 13.3 KNOTS.abrev 16.2 KNOTS.abrev 23.9 KNOTS.abrev 578.51 nm
01/01/2016 13:30:00 UTC 01/01 13:30 UTC 00°53.89'S 33°40.75'W 3316.22 nm -748.60 nm 353 11.6 KNOTS.abrev 13.3 KNOTS.abrev 17.1 KNOTS.abrev 24.2 KNOTS.abrev 581.03 nm
01/01/2016 13:20:00 UTC 01/01 13:20 UTC 00°56.09'S 33°40.48'W 3318.15 nm -750.48 nm 354 12.3 KNOTS.abrev 14.0 KNOTS.abrev 17.4 KNOTS.abrev 24.3 KNOTS.abrev 583.63 nm
01/01/2016 13:10:00 UTC 01/01 13:10 UTC 00°58.41'S 33°40.22'W 3320.19 nm -752.47 nm 355 14.6 KNOTS.abrev 16.5 KNOTS.abrev 17.8 KNOTS.abrev 24.4 KNOTS.abrev 586.26 nm
01/01/2016 12:50:00 UTC 01/01 12:50 UTC 01°03.88'S 33°39.79'W 3325.08 nm -757.22 nm 356 15.6 KNOTS.abrev 17.5 KNOTS.abrev 18.1 KNOTS.abrev 24.6 KNOTS.abrev 590.43 nm
01/01/2016 12:40:00 UTC 01/01 12:40 UTC 01°06.78'S 33°39.57'W 3327.68 nm -759.75 nm 358 15.6 KNOTS.abrev 17.2 KNOTS.abrev 18.3 KNOTS.abrev 24.7 KNOTS.abrev 592.57 nm
01/01/2016 12:30:00 UTC 01/01 12:30 UTC 01°09.65'S 33°39.49'W 3330.29 nm -762.36 nm 351 14.8 KNOTS.abrev 17.4 KNOTS.abrev 18.6 KNOTS.abrev 24.8 KNOTS.abrev 594.66 nm
01/01/2016 12:20:00 UTC 01/01 12:20 UTC 01°12.50'S 33°39.02'W 3332.74 nm -765.74 nm 354 15.2 KNOTS.abrev 17.3 KNOTS.abrev 18.8 KNOTS.abrev 24.9 KNOTS.abrev 596.72 nm
01/01/2016 12:10:00 UTC 01/01 12:10 UTC 01°15.36'S 33°38.74'W 3335.29 nm -769.21 nm 355 12.9 KNOTS.abrev 14.6 KNOTS.abrev 19.0 KNOTS.abrev 24.9 KNOTS.abrev 598.64 nm
01/01/2016 12:00:00 UTC 01/01 12:00 UTC 01°17.78'S 33°38.52'W 3337.43 nm -772.28 nm 355 14.0 KNOTS.abrev 15.7 KNOTS.abrev 19.2 KNOTS.abrev 25.0 KNOTS.abrev 600.95 nm
01/01/2016 11:50:00 UTC 01/01 11:50 UTC 01°20.39'S 33°38.27'W 3339.75 nm -775.52 nm 350 12.7 KNOTS.abrev 15.1 KNOTS.abrev 19.5 KNOTS.abrev 25.1 KNOTS.abrev 602.93 nm
01/01/2016 11:40:00 UTC 01/01 11:40 UTC 01°22.86'S 33°37.84'W 3341.87 nm -778.55 nm 355 13.8 KNOTS.abrev 15.6 KNOTS.abrev 19.7 KNOTS.abrev 25.2 KNOTS.abrev 604.94 nm
01/01/2016 11:30:00 UTC 01/01 11:30 UTC 01°25.45'S 33°37.63'W 3344.18 nm -781.73 nm 349 13.5 KNOTS.abrev 16.2 KNOTS.abrev 20.0 KNOTS.abrev 25.3 KNOTS.abrev 606.88 nm
01/01/2016 11:20:00 UTC 01/01 11:20 UTC 01°28.09'S 33°37.10'W 3346.42 nm -784.21 nm 353 13.9 KNOTS.abrev 15.9 KNOTS.abrev 20.3 KNOTS.abrev 25.4 KNOTS.abrev 608.78 nm
01/01/2016 11:10:00 UTC 01/01 11:10 UTC 01°30.73'S 33°36.80'W 3348.75 nm -786.78 nm 356 16.6 KNOTS.abrev 18.5 KNOTS.abrev 20.5 KNOTS.abrev 25.4 KNOTS.abrev 610.39 nm
01/01/2016 11:00:00 UTC 01/01 11:00 UTC 01°33.80'S 33°36.61'W 3351.52 nm -789.79 nm 356 15.9 KNOTS.abrev 17.8 KNOTS.abrev 20.6 KNOTS.abrev 25.5 KNOTS.abrev 611.55 nm
01/01/2016 10:50:00 UTC 01/01 10:50 UTC 01°36.76'S 33°36.40'W 3354.17 nm -792.68 nm 358 16.5 KNOTS.abrev 18.1 KNOTS.abrev 20.8 KNOTS.abrev 25.5 KNOTS.abrev 616.89 nm
01/01/2016 10:40:00 UTC 01/01 10:40 UTC 01°39.77'S 33°36.30'W 3356.92 nm -795.65 nm 357 16.6 KNOTS.abrev 18.4 KNOTS.abrev 20.8 KNOTS.abrev 25.6 KNOTS.abrev 613.90 nm
01/01/2016 10:30:00 UTC 01/01 10:30 UTC 01°42.83'S 33°36.17'W 3359.70 nm -798.62 nm 348 14.0 KNOTS.abrev 16.9 KNOTS.abrev 20.8 KNOTS.abrev 25.6 KNOTS.abrev 614.53 nm
01/01/2016 10:20:00 UTC 01/01 10:20 UTC 01°45.59'S 33°35.59'W 3362.03 nm -800.68 nm 353 16.1 KNOTS.abrev 18.5 KNOTS.abrev 21.0 KNOTS.abrev 25.6 KNOTS.abrev 615.43 nm
01/01/2016 10:10:00 UTC 01/01 10:10 UTC 01°48.64'S 33°35.21'W 3364.70 nm -803.08 nm 357 16.9 KNOTS.abrev 18.7 KNOTS.abrev 21.2 KNOTS.abrev 25.7 KNOTS.abrev 616.97 nm
01/01/2016 10:00:00 UTC 01/01 10:00 UTC 01°51.75'S 33°35.06'W 3367.53 nm -805.62 nm 355 17.7 KNOTS.abrev 19.9 KNOTS.abrev 21.3 KNOTS.abrev 25.8 KNOTS.abrev 618.73 nm
01/01/2016 09:40:00 UTC 01/01 09:40 UTC 01°58.36'S 33°34.48'W 3373.43 nm -810.94 nm 358 19.4 KNOTS.abrev 21.3 KNOTS.abrev 21.6 KNOTS.abrev 25.9 KNOTS.abrev 621.49 nm
01/01/2016 09:30:00 UTC 01/01 09:30 UTC 02°01.91'S 33°34.36'W 3376.67 nm -813.92 nm 355 19.3 KNOTS.abrev 21.7 KNOTS.abrev 21.7 KNOTS.abrev 25.9 KNOTS.abrev 622.76 nm
01/01/2016 09:20:00 UTC 01/01 09:20 UTC 02°05.51'S 33°34.04'W 3379.87 nm -817.34 nm 353 19.5 KNOTS.abrev 22.4 KNOTS.abrev 21.9 KNOTS.abrev 26.0 KNOTS.abrev 624.26 nm
01/01/2016 09:10:00 UTC 01/01 09:10 UTC 02°09.20'S 33°33.55'W 3383.11 nm -820.78 nm 357 18.5 KNOTS.abrev 20.5 KNOTS.abrev 22.1 KNOTS.abrev 26.1 KNOTS.abrev 625.72 nm
01/01/2016 09:00:00 UTC 01/01 09:00 UTC 02°12.61'S 33°33.38'W 3386.20 nm -824.07 nm 359 18.7 KNOTS.abrev 20.4 KNOTS.abrev 22.5 KNOTS.abrev 26.1 KNOTS.abrev 627.12 nm
01/01/2016 08:50:00 UTC 01/01 08:50 UTC 02°16.00'S 33°33.34'W 3389.33 nm -827.40 nm 1 21.6 KNOTS.abrev 23.1 KNOTS.abrev 22.9 KNOTS.abrev 26.2 KNOTS.abrev 628.61 nm
01/01/2016 08:40:00 UTC 01/01 08:40 UTC 02°19.85'S 33°33.38'W 3392.91 nm -831.17 nm 3 21.3 KNOTS.abrev 22.6 KNOTS.abrev 23.1 KNOTS.abrev 26.2 KNOTS.abrev 629.68 nm
01/01/2016 08:30:00 UTC 01/01 08:30 UTC 02°23.61'S 33°33.61'W 3396.48 nm -834.87 nm 3 21.1 KNOTS.abrev 22.4 KNOTS.abrev 23.4 KNOTS.abrev 26.3 KNOTS.abrev 630.75 nm
01/01/2016 08:20:00 UTC 01/01 08:20 UTC 02°27.33'S 33°33.77'W 3399.98 nm -837.69 nm 3 20.9 KNOTS.abrev 22.2 KNOTS.abrev 23.6 KNOTS.abrev 26.3 KNOTS.abrev 631.77 nm
01/01/2016 08:10:00 UTC 01/01 08:10 UTC 02°31.02'S 33°33.96'W 3403.47 nm -840.48 nm 8 19.7 KNOTS.abrev 20.3 KNOTS.abrev 24.1 KNOTS.abrev 26.4 KNOTS.abrev 632.89 nm
01/01/2016 08:08:00 UTC 01/01 08:08 UTC 02°31.69'S 33°34.05'W 3404.13 nm -841.00 nm 5 20.6 KNOTS.abrev 21.5 KNOTS.abrev 24.1 KNOTS.abrev 26.4 KNOTS.abrev 632.21 nm
01/01/2016 08:00:00 UTC 01/01 08:00 UTC 02°34.54'S 33°34.29'W 3406.87 nm -843.18 nm 6 20.9 KNOTS.abrev 21.8 KNOTS.abrev 24.5 KNOTS.abrev 26.4 KNOTS.abrev 633.81 nm
01/01/2016 07:50:00 UTC 01/01 07:50 UTC 02°38.15'S 33°34.65'W 3410.34 nm -845.95 nm 4 20.6 KNOTS.abrev 21.6 KNOTS.abrev 24.9 KNOTS.abrev 26.5 KNOTS.abrev 635.29 nm
01/01/2016 07:40:00 UTC 01/01 07:40 UTC 02°41.75'S 33°34.92'W 3413.78 nm -848.68 nm 6 21.3 KNOTS.abrev 22.2 KNOTS.abrev 25.2 KNOTS.abrev 26.5 KNOTS.abrev 636.26 nm
01/01/2016 07:38:00 UTC 01/01 07:38 UTC 02°42.48'S 33°35.00'W 3414.49 nm -849.25 nm 359 20.6 KNOTS.abrev 22.4 KNOTS.abrev 25.2 KNOTS.abrev 26.5 KNOTS.abrev 635.52 nm
01/01/2016 07:30:00 UTC 01/01 07:30 UTC 02°45.47'S 33°34.96'W 3417.25 nm -851.44 nm 359 19.9 KNOTS.abrev 21.6 KNOTS.abrev 25.4 KNOTS.abrev 26.6 KNOTS.abrev 637.27 nm
01/01/2016 07:20:00 UTC 01/01 07:20 UTC 02°49.07'S 33°34.93'W 3420.57 nm -854.11 nm 4 20.4 KNOTS.abrev 21.4 KNOTS.abrev 25.6 KNOTS.abrev 26.6 KNOTS.abrev 638.34 nm
01/01/2016 07:10:00 UTC 01/01 07:10 UTC 02°52.63'S 33°35.18'W 3423.96 nm -856.86 nm 9 20.3 KNOTS.abrev 20.8 KNOTS.abrev 25.9 KNOTS.abrev 26.6 KNOTS.abrev 639.34 nm
01/01/2016 07:07:00 UTC 01/01 07:07 UTC 02°53.66'S 33°35.33'W 3424.97 nm -857.67 nm 4 21.0 KNOTS.abrev 22.1 KNOTS.abrev 26.0 KNOTS.abrev 26.7 KNOTS.abrev 638.30 nm
01/01/2016 07:00:00 UTC 01/01 07:00 UTC 02°56.23'S 33°35.50'W 3427.42 nm -859.66 nm 1 20.9 KNOTS.abrev 22.4 KNOTS.abrev 25.8 KNOTS.abrev 26.7 KNOTS.abrev 639.83 nm
01/01/2016 06:50:00 UTC 01/01 06:50 UTC 02°59.95'S 33°35.57'W 3430.90 nm -862.47 nm 358 17.3 KNOTS.abrev 18.9 KNOTS.abrev 25.9 KNOTS.abrev 26.7 KNOTS.abrev 641.42 nm
01/01/2016 06:32:00 UTC 01/01 06:32 UTC 03°05.62'S 33°35.34'W 3436.07 nm -866.44 nm 334 9.9 KNOTS.abrev 14.8 KNOTS.abrev 26.6 KNOTS.abrev 26.9 KNOTS.abrev 646.72 nm
01/01/2016 06:30:00 UTC 01/01 06:30 UTC 03°06.07'S 33°35.12'W 3436.40 nm -866.63 nm 360 19.6 KNOTS.abrev 21.1 KNOTS.abrev 26.7 KNOTS.abrev 26.9 KNOTS.abrev 646.30 nm
01/01/2016 06:20:00 UTC 01/01 06:20 UTC 03°09.59'S 33°35.10'W 3439.66 nm -869.07 nm 5 20.8 KNOTS.abrev 21.8 KNOTS.abrev 27.0 KNOTS.abrev 27.0 KNOTS.abrev 647.98 nm
01/01/2016 06:02:00 UTC 01/01 06:02 UTC 03°16.09'S 33°35.63'W 3445.89 nm -873.82 nm 0 20.8 KNOTS.abrev 22.5 KNOTS.abrev 27.3 KNOTS.abrev 27.1 KNOTS.abrev 652.24 nm
01/01/2016 06:00:00 UTC 01/01 06:00 UTC 03°16.84'S 33°35.64'W 3446.59 nm -874.35 nm 2 22.0 KNOTS.abrev 23.4 KNOTS.abrev 27.3 KNOTS.abrev 27.1 KNOTS.abrev 651.49 nm
01/01/2016 05:50:00 UTC 01/01 05:50 UTC 03°20.73'S 33°35.78'W 3450.25 nm -877.19 nm 7 23.4 KNOTS.abrev 24.3 KNOTS.abrev 27.4 KNOTS.abrev 27.2 KNOTS.abrev 653.00 nm
01/01/2016 05:40:00 UTC 01/01 05:40 UTC 03°24.74'S 33°36.26'W 3454.15 nm -880.25 nm 10 21.3 KNOTS.abrev 21.8 KNOTS.abrev 27.4 KNOTS.abrev 27.2 KNOTS.abrev 653.82 nm
01/01/2016 05:31:00 UTC 01/01 05:31 UTC 03°27.96'S 33°36.81'W 3457.35 nm -882.69 nm 5 29.9 KNOTS.abrev 31.2 KNOTS.abrev 27.4 KNOTS.abrev 27.3 KNOTS.abrev 655.32 nm
01/01/2016 05:30:00 UTC 01/01 05:30 UTC 03°28.48'S 33°36.86'W 3457.85 nm -883.08 nm 9 26.1 KNOTS.abrev 26.8 KNOTS.abrev 27.4 KNOTS.abrev 27.3 KNOTS.abrev 654.80 nm
01/01/2016 05:20:00 UTC 01/01 05:20 UTC 03°32.88'S 33°37.56'W 3462.19 nm -886.24 nm 4 26.9 KNOTS.abrev 28.3 KNOTS.abrev 27.4 KNOTS.abrev 27.3 KNOTS.abrev 655.29 nm
01/01/2016 05:10:00 UTC 01/01 05:10 UTC 03°37.58'S 33°37.90'W 3466.68 nm -889.53 nm 0 26.7 KNOTS.abrev 28.8 KNOTS.abrev 27.2 KNOTS.abrev 27.3 KNOTS.abrev 655.27 nm
01/01/2016 05:00:00 UTC 01/01 05:00 UTC 03°42.37'S 33°37.91'W 3471.13 nm -892.78 nm 2 27.8 KNOTS.abrev 29.6 KNOTS.abrev 27.0 KNOTS.abrev 27.3 KNOTS.abrev 660.40 nm
01/01/2016 04:57:00 UTC 01/01 04:57 UTC 03°43.85'S 33°37.96'W 3472.52 nm -893.82 nm 360 27.5 KNOTS.abrev 29.7 KNOTS.abrev 27.0 KNOTS.abrev 27.3 KNOTS.abrev 658.93 nm
01/01/2016 04:50:00 UTC 01/01 04:50 UTC 03°47.31'S 33°37.96'W 3475.74 nm -896.18 nm 3 28.1 KNOTS.abrev 29.7 KNOTS.abrev 26.8 KNOTS.abrev 27.3 KNOTS.abrev 655.50 nm
01/01/2016 04:40:00 UTC 01/01 04:40 UTC 03°52.25'S 33°38.25'W 3480.43 nm -899.66 nm 6 28.2 KNOTS.abrev 29.3 KNOTS.abrev 26.6 KNOTS.abrev 27.3 KNOTS.abrev 655.52 nm
01/01/2016 04:30:00 UTC 01/01 04:30 UTC 03°57.11'S 33°38.76'W 3485.13 nm -903.14 nm 5 27.3 KNOTS.abrev 28.5 KNOTS.abrev 26.4 KNOTS.abrev 27.3 KNOTS.abrev 655.17 nm
01/01/2016 04:26:00 UTC 01/01 04:26 UTC 03°59.00'S 33°38.95'W 3486.96 nm -904.48 nm 10 26.6 KNOTS.abrev 27.2 KNOTS.abrev 26.3 KNOTS.abrev 27.3 KNOTS.abrev 653.27 nm
01/01/2016 04:20:00 UTC 01/01 04:20 UTC 04°01.67'S 33°39.44'W 3489.62 nm -906.41 nm 354 29.7 KNOTS.abrev 33.6 KNOTS.abrev 26.3 KNOTS.abrev 27.3 KNOTS.abrev 654.88 nm
01/01/2016 04:10:00 UTC 01/01 04:10 UTC 04°07.24'S 33°38.88'W 3494.58 nm -910.14 nm 4 29.6 KNOTS.abrev 31.1 KNOTS.abrev 25.9 KNOTS.abrev 27.2 KNOTS.abrev 653.90 nm
01/01/2016 04:00:00 UTC 01/01 04:00 UTC 04°12.41'S 33°39.24'W 3499.52 nm -913.85 nm 1 28.4 KNOTS.abrev 30.3 KNOTS.abrev 25.6 KNOTS.abrev 27.2 KNOTS.abrev 653.35 nm
01/01/2016 03:50:00 UTC 01/01 03:50 UTC 04°17.46'S 33°39.36'W 3504.26 nm -917.35 nm 2 25.7 KNOTS.abrev 27.3 KNOTS.abrev 25.4 KNOTS.abrev 27.2 KNOTS.abrev 653.04 nm
01/01/2016 03:49:00 UTC 01/01 03:49 UTC 04°17.92'S 33°39.38'W 3504.68 nm -917.65 nm 4 27.9 KNOTS.abrev 29.3 KNOTS.abrev 25.4 KNOTS.abrev 27.2 KNOTS.abrev 652.58 nm
01/01/2016 03:40:00 UTC 01/01 03:40 UTC 04°22.29'S 33°39.71'W 3508.87 nm -920.71 nm 5 27.3 KNOTS.abrev 28.5 KNOTS.abrev 25.4 KNOTS.abrev 27.2 KNOTS.abrev 652.76 nm
01/01/2016 03:30:00 UTC 01/01 03:30 UTC 04°27.02'S 33°40.11'W 3513.41 nm -924.00 nm 4 24.8 KNOTS.abrev 26.1 KNOTS.abrev 25.5 KNOTS.abrev 27.2 KNOTS.abrev 652.01 nm
01/01/2016 03:20:00 UTC 01/01 03:20 UTC 04°31.35'S 33°40.44'W 3517.56 nm -926.89 nm 1 30.5 KNOTS.abrev 32.6 KNOTS.abrev 25.6 KNOTS.abrev 27.2 KNOTS.abrev 651.88 nm
01/01/2016 03:17:00 UTC 01/01 03:17 UTC 04°32.98'S 33°40.49'W 3519.09 nm -928.06 nm 8 25.5 KNOTS.abrev 26.2 KNOTS.abrev 25.5 KNOTS.abrev 27.2 KNOTS.abrev 651.64 nm
01/01/2016 03:10:00 UTC 01/01 03:10 UTC 04°36.00'S 33°40.93'W 3522.06 nm -930.19 nm 6 19.7 KNOTS.abrev 20.5 KNOTS.abrev 25.6 KNOTS.abrev 27.1 KNOTS.abrev 651.35 nm
01/01/2016 03:00:00 UTC 01/01 03:00 UTC 04°39.39'S 33°41.26'W 3525.34 nm -932.25 nm 339 17.9 KNOTS.abrev 24.4 KNOTS.abrev 25.9 KNOTS.abrev 27.2 KNOTS.abrev 651.99 nm
01/01/2016 02:50:00 UTC 01/01 02:50 UTC 04°43.20'S 33°39.84'W 3528.35 nm -934.05 nm 352 24.9 KNOTS.abrev 28.7 KNOTS.abrev 26.1 KNOTS.abrev 27.2 KNOTS.abrev 652.68 nm
01/01/2016 02:40:00 UTC 01/01 02:40 UTC 04°47.93'S 33°39.14'W 3532.49 nm -936.97 nm 356 26.5 KNOTS.abrev 29.4 KNOTS.abrev 26.1 KNOTS.abrev 27.2 KNOTS.abrev 652.44 nm
01/01/2016 02:31:00 UTC 01/01 02:31 UTC 04°52.32'S 33°38.86'W 3536.47 nm -939.84 nm 357 16.8 KNOTS.abrev 18.5 KNOTS.abrev 25.9 KNOTS.abrev 27.2 KNOTS.abrev 652.81 nm
01/01/2016 02:30:00 UTC 01/01 02:30 UTC 04°52.63'S 33°38.84'W 3536.75 nm -940.08 nm 359 26.2 KNOTS.abrev 28.4 KNOTS.abrev 25.9 KNOTS.abrev 27.2 KNOTS.abrev 652.51 nm
01/01/2016 02:20:00 UTC 01/01 02:20 UTC 04°57.36'S 33°38.78'W 3541.12 nm -944.42 nm 1 25.1 KNOTS.abrev 26.9 KNOTS.abrev 25.4 KNOTS.abrev 27.2 KNOTS.abrev 652.79 nm
01/01/2016 02:10:00 UTC 01/01 02:10 UTC 05°01.83'S 33°38.84'W 3545.31 nm -948.57 nm 358 22.3 KNOTS.abrev 24.4 KNOTS.abrev 25.3 KNOTS.abrev 27.2 KNOTS.abrev 652.87 nm
01/01/2016 02:00:00 UTC 01/01 02:00 UTC 05°05.89'S 33°38.67'W 3549.02 nm -952.25 nm 1 23.6 KNOTS.abrev 25.2 KNOTS.abrev 25.3 KNOTS.abrev 27.2 KNOTS.abrev 653.28 nm
01/01/2016 01:58:00 UTC 01/01 01:58 UTC 05°06.73'S 33°38.68'W 3549.80 nm -953.02 nm 2 24.4 KNOTS.abrev 25.9 KNOTS.abrev 25.3 KNOTS.abrev 27.2 KNOTS.abrev 652.45 nm
01/01/2016 01:50:00 UTC 01/01 01:50 UTC 05°10.18'S 33°38.79'W 3553.05 nm -956.24 nm 4 23.9 KNOTS.abrev 25.1 KNOTS.abrev 25.2 KNOTS.abrev 27.2 KNOTS.abrev 653.34 nm
01/01/2016 01:40:00 UTC 01/01 01:40 UTC 05°14.35'S 33°39.05'W 3557.03 nm -960.16 nm 1 22.5 KNOTS.abrev 24.0 KNOTS.abrev 25.2 KNOTS.abrev 27.2 KNOTS.abrev 653.76 nm
01/01/2016 01:26:00 UTC 01/01 01:26 UTC 05°19.95'S 33°39.14'W 3562.27 nm -964.91 nm 4 23.8 KNOTS.abrev 24.9 KNOTS.abrev 25.3 KNOTS.abrev 27.3 KNOTS.abrev 652.90 nm
01/01/2016 01:20:00 UTC 01/01 01:20 UTC 05°22.43'S 33°39.29'W 3564.64 nm -966.73 nm 360 22.2 KNOTS.abrev 23.9 KNOTS.abrev 25.2 KNOTS.abrev 27.3 KNOTS.abrev 654.74 nm
01/01/2016 01:10:00 UTC 01/01 01:10 UTC 05°26.42'S 33°39.28'W 3568.35 nm -969.50 nm 359 22.4 KNOTS.abrev 24.3 KNOTS.abrev 25.2 KNOTS.abrev 27.3 KNOTS.abrev 654.93 nm
01/01/2016 01:00:00 UTC 01/01 01:00 UTC 05°30.47'S 33°39.21'W 3572.09 nm -972.31 nm 6 24.0 KNOTS.abrev 24.9 KNOTS.abrev 25.2 KNOTS.abrev 27.3 KNOTS.abrev 658.88 nm
01/01/2016 00:56:00 UTC 01/01 00:56 UTC 05°32.12'S 33°39.39'W 3573.69 nm -973.53 nm 2 23.6 KNOTS.abrev 25.0 KNOTS.abrev 25.3 KNOTS.abrev 27.3 KNOTS.abrev 657.22 nm
01/01/2016 00:50:00 UTC 01/01 00:50 UTC 05°34.62'S 33°39.46'W 3576.04 nm -975.32 nm 9 23.9 KNOTS.abrev 24.5 KNOTS.abrev 25.3 KNOTS.abrev 27.3 KNOTS.abrev 654.74 nm
01/01/2016 00:40:00 UTC 01/01 00:40 UTC 05°38.65'S 33°40.09'W 3580.02 nm -978.36 nm 5 23.3 KNOTS.abrev 24.3 KNOTS.abrev 25.3 KNOTS.abrev 27.3 KNOTS.abrev 654.82 nm
01/01/2016 00:30:00 UTC 01/01 00:30 UTC 05°42.69'S 33°40.43'W 3583.91 nm -981.34 nm 5 22.8 KNOTS.abrev 23.8 KNOTS.abrev 25.3 KNOTS.abrev 27.3 KNOTS.abrev 654.92 nm
01/01/2016 00:26:00 UTC 01/01 00:26 UTC 05°44.27'S 33°40.56'W 3585.42 nm -982.73 nm 4 23.2 KNOTS.abrev 24.3 KNOTS.abrev 25.3 KNOTS.abrev 27.3 KNOTS.abrev 653.34 nm
01/01/2016 00:20:00 UTC 01/01 00:20 UTC 05°46.69'S 33°40.73'W 3587.74 nm -984.86 nm 4 22.8 KNOTS.abrev 23.9 KNOTS.abrev 25.2 KNOTS.abrev 27.3 KNOTS.abrev 654.94 nm
01/01/2016 00:10:00 UTC 01/01 00:10 UTC 05°50.66'S 33°41.00'W 3591.54 nm -988.33 nm 1 22.9 KNOTS.abrev 24.4 KNOTS.abrev 25.3 KNOTS.abrev 27.3 KNOTS.abrev 654.81 nm
31/12/2015 23:54:00 UTC 31/12 23:54 UTC 05°57.17'S 33°41.17'W 3597.66 nm -993.93 nm 1 27.7 KNOTS.abrev 29.5 KNOTS.abrev 25.5 KNOTS.abrev 27.2 KNOTS.abrev 658.79 nm
31/12/2015 23:50:00 UTC 31/12 23:50 UTC 05°59.14'S 33°41.20'W 3599.51 nm -995.64 nm 359 27.0 KNOTS.abrev 29.2 KNOTS.abrev 25.5 KNOTS.abrev 27.2 KNOTS.abrev 656.84 nm
31/12/2015 23:40:00 UTC 31/12 23:40 UTC 06°04.00'S 33°41.09'W 3603.99 nm -999.78 nm 356 26.0 KNOTS.abrev 28.8 KNOTS.abrev 25.4 KNOTS.abrev 27.2 KNOTS.abrev 653.05 nm
31/12/2015 23:30:00 UTC 31/12 23:30 UTC 06°08.79'S 33°40.71'W 3608.31 nm -1003.72 nm 358 24.6 KNOTS.abrev 26.8 KNOTS.abrev 25.4 KNOTS.abrev 27.2 KNOTS.abrev 652.18 nm
31/12/2015 23:22:00 UTC 31/12 23:22 UTC 06°12.36'S 33°40.61'W 3611.60 nm -1006.23 nm 358 34.8 KNOTS.abrev 37.9 KNOTS.abrev 25.5 KNOTS.abrev 27.2 KNOTS.abrev 652.53 nm
31/12/2015 23:20:00 UTC 31/12 23:20 UTC 06°13.62'S 33°40.57'W 3612.77 nm -1007.19 nm 0 26.2 KNOTS.abrev 28.2 KNOTS.abrev 25.4 KNOTS.abrev 27.1 KNOTS.abrev 651.29 nm
31/12/2015 23:10:00 UTC 31/12 23:10 UTC 06°18.31'S 33°40.61'W 3617.15 nm -1010.60 nm 5 26.3 KNOTS.abrev 27.5 KNOTS.abrev 25.4 KNOTS.abrev 27.1 KNOTS.abrev 650.73 nm
31/12/2015 23:00:00 UTC 31/12 23:00 UTC 06°22.87'S 33°40.98'W 3621.53 nm -1013.99 nm 4 27.2 KNOTS.abrev 28.5 KNOTS.abrev 25.3 KNOTS.abrev 27.1 KNOTS.abrev 650.28 nm
31/12/2015 22:50:00 UTC 31/12 22:50 UTC 06°27.60'S 33°41.35'W 3626.08 nm -1017.54 nm 1 27.7 KNOTS.abrev 29.6 KNOTS.abrev 25.3 KNOTS.abrev 27.1 KNOTS.abrev 649.62 nm
31/12/2015 22:42:00 UTC 31/12 22:42 UTC 06°31.55'S 33°41.44'W 3629.78 nm -1020.45 nm 2 20.1 KNOTS.abrev 21.3 KNOTS.abrev 25.2 KNOTS.abrev 27.0 KNOTS.abrev 649.19 nm
31/12/2015 22:40:00 UTC 31/12 22:40 UTC 06°32.25'S 33°41.46'W 3630.45 nm -1020.92 nm 5 22.5 KNOTS.abrev 23.4 KNOTS.abrev 25.2 KNOTS.abrev 27.1 KNOTS.abrev 649.23 nm
31/12/2015 22:30:00 UTC 31/12 22:30 UTC 06°36.14'S 33°41.80'W 3634.20 nm -1023.65 nm 1 15.2 KNOTS.abrev 16.2 KNOTS.abrev 25.4 KNOTS.abrev 27.1 KNOTS.abrev 649.45 nm
31/12/2015 22:20:00 UTC 31/12 22:20 UTC 06°38.84'S 33°41.83'W 3636.73 nm -1025.19 nm 7 23.2 KNOTS.abrev 23.9 KNOTS.abrev 26.0 KNOTS.abrev 27.1 KNOTS.abrev 650.84 nm
31/12/2015 22:11:00 UTC 31/12 22:11 UTC 06°42.41'S 33°42.25'W 3640.20 nm -1027.77 nm 6 34.7 KNOTS.abrev 35.9 KNOTS.abrev 26.1 KNOTS.abrev 27.1 KNOTS.abrev 651.30 nm
31/12/2015 22:10:00 UTC 31/12 22:10 UTC 06°43.00'S 33°42.32'W 3640.78 nm -1028.25 nm 9 23.7 KNOTS.abrev 24.3 KNOTS.abrev 26.1 KNOTS.abrev 27.1 KNOTS.abrev 650.70 nm
31/12/2015 22:00:00 UTC 31/12 22:00 UTC 06°46.99'S 33°42.97'W 3644.74 nm -1031.20 nm 17 24.0 KNOTS.abrev 24.1 KNOTS.abrev 26.2 KNOTS.abrev 27.1 KNOTS.abrev 650.54 nm
31/12/2015 21:50:00 UTC 31/12 21:50 UTC 06°50.84'S 33°44.14'W 3648.74 nm -1034.20 nm 15 25.5 KNOTS.abrev 25.6 KNOTS.abrev 26.3 KNOTS.abrev 27.1 KNOTS.abrev 650.48 nm
31/12/2015 21:40:00 UTC 31/12 21:40 UTC 06°54.96'S 33°45.27'W 3652.99 nm -1037.43 nm 13 24.9 KNOTS.abrev 25.1 KNOTS.abrev 26.4 KNOTS.abrev 27.1 KNOTS.abrev 650.07 nm
31/12/2015 21:40:00 UTC 31/12 21:40 UTC 06°54.91'S 33°45.26'W 3652.94 nm -1037.38 nm 16 0.0 KNOTS.abrev 0.0 KNOTS.abrev 26.4 KNOTS.abrev 27.1 KNOTS.abrev 650.12 nm
31/12/2015 21:30:00 UTC 31/12 21:30 UTC 06°59.04'S 33°46.20'W 3657.13 nm -1040.56 nm 17 24.3 KNOTS.abrev 24.4 KNOTS.abrev 26.6 KNOTS.abrev 27.0 KNOTS.abrev 653.60 nm
31/12/2015 21:20:00 UTC 31/12 21:20 UTC 07°02.92'S 33°47.41'W 3661.19 nm -1043.62 nm 13 24.1 KNOTS.abrev 24.3 KNOTS.abrev 26.8 KNOTS.abrev 27.1 KNOTS.abrev 649.58 nm
31/12/2015 21:10:00 UTC 31/12 21:10 UTC 07°06.88'S 33°48.30'W 3665.20 nm -1046.62 nm 13 36.1 KNOTS.abrev 36.5 KNOTS.abrev 26.9 KNOTS.abrev 27.1 KNOTS.abrev 649.32 nm
31/12/2015 21:09:00 UTC 31/12 21:09 UTC 07°07.47'S 33°48.44'W 3665.80 nm -1047.12 nm 16 23.6 KNOTS.abrev 23.7 KNOTS.abrev 26.9 KNOTS.abrev 27.0 KNOTS.abrev 648.71 nm
31/12/2015 21:00:00 UTC 31/12 21:00 UTC 07°10.87'S 33°49.44'W 3669.33 nm -1049.75 nm 20 25.9 KNOTS.abrev 25.9 KNOTS.abrev 27.0 KNOTS.abrev 27.0 KNOTS.abrev 649.02 nm
31/12/2015 20:50:00 UTC 31/12 20:50 UTC 07°14.92'S 33°50.93'W 3673.64 nm -1053.04 nm 19 25.9 KNOTS.abrev 25.9 KNOTS.abrev 27.0 KNOTS.abrev 27.0 KNOTS.abrev 648.52 nm
31/12/2015 20:40:00 UTC 31/12 20:40 UTC 07°18.99'S 33°52.35'W 3677.95 nm -1056.33 nm 16 23.1 KNOTS.abrev 23.2 KNOTS.abrev 26.9 KNOTS.abrev 27.0 KNOTS.abrev 647.99 nm
31/12/2015 20:38:00 UTC 31/12 20:38 UTC 07°19.74'S 33°52.55'W 3678.72 nm -1056.90 nm 21 24.8 KNOTS.abrev 24.8 KNOTS.abrev 26.9 KNOTS.abrev 27.0 KNOTS.abrev 647.22 nm
31/12/2015 20:30:00 UTC 31/12 20:30 UTC 07°22.83'S 33°53.74'W 3682.03 nm -1059.30 nm 20 23.9 KNOTS.abrev 23.9 KNOTS.abrev 27.0 KNOTS.abrev 27.0 KNOTS.abrev 647.67 nm
31/12/2015 20:20:00 UTC 31/12 20:20 UTC 07°26.57'S 33°55.13'W 3686.02 nm -1060.96 nm 12 26.0 KNOTS.abrev 26.3 KNOTS.abrev 27.1 KNOTS.abrev 27.0 KNOTS.abrev 647.52 nm
31/12/2015 20:10:00 UTC 31/12 20:10 UTC 07°30.86'S 33°56.05'W 3690.35 nm -1062.95 nm 9 22.3 KNOTS.abrev 22.8 KNOTS.abrev 27.1 KNOTS.abrev 27.0 KNOTS.abrev 646.88 nm
31/12/2015 20:08:00 UTC 31/12 20:08 UTC 07°31.61'S 33°56.17'W 3691.09 nm -1063.23 nm 11 26.7 KNOTS.abrev 27.2 KNOTS.abrev 27.2 KNOTS.abrev 26.9 KNOTS.abrev 646.32 nm
31/12/2015 19:50:00 UTC 31/12 19:50 UTC 07°39.59'S 33°57.80'W 3699.12 nm -1067.05 nm 12 27.3 KNOTS.abrev 27.7 KNOTS.abrev 27.2 KNOTS.abrev 26.9 KNOTS.abrev 645.33 nm
31/12/2015 19:40:00 UTC 31/12 19:40 UTC 07°44.10'S 33°58.80'W 3703.68 nm -1069.26 nm 15 29.8 KNOTS.abrev 30.0 KNOTS.abrev 27.3 KNOTS.abrev 26.8 KNOTS.abrev 644.84 nm
31/12/2015 19:38:00 UTC 31/12 19:38 UTC 07°45.06'S 33°59.06'W 3704.67 nm -1069.78 nm 14 27.8 KNOTS.abrev 28.0 KNOTS.abrev 27.3 KNOTS.abrev 26.8 KNOTS.abrev 643.85 nm
31/12/2015 19:30:00 UTC 31/12 19:30 UTC 07°48.68'S 33°59.96'W 3708.37 nm -1071.60 nm 16 27.0 KNOTS.abrev 27.1 KNOTS.abrev 27.3 KNOTS.abrev 26.8 KNOTS.abrev 642.76 nm
31/12/2015 19:20:00 UTC 31/12 19:20 UTC 07°53.03'S 34°01.20'W 3712.88 nm -1073.80 nm 16 27.0 KNOTS.abrev 27.1 KNOTS.abrev 27.4 KNOTS.abrev 26.7 KNOTS.abrev 641.28 nm
31/12/2015 19:10:00 UTC 31/12 19:10 UTC 07°57.36'S 34°02.48'W 3717.38 nm -1075.99 nm 13 29.0 KNOTS.abrev 29.4 KNOTS.abrev 27.5 KNOTS.abrev 26.7 KNOTS.abrev 639.70 nm
31/12/2015 19:07:00 UTC 31/12 19:07 UTC 07°58.79'S 34°02.82'W 3718.83 nm -1076.75 nm 14 25.2 KNOTS.abrev 25.4 KNOTS.abrev 27.5 KNOTS.abrev 26.6 KNOTS.abrev 638.87 nm
31/12/2015 19:00:00 UTC 31/12 19:00 UTC 08°01.66'S 34°03.55'W 3721.77 nm -1078.07 nm 16 26.2 KNOTS.abrev 26.3 KNOTS.abrev 27.6 KNOTS.abrev 26.6 KNOTS.abrev 637.85 nm
31/12/2015 18:40:00 UTC 31/12 18:40 UTC 08°10.09'S 34°05.92'W 3730.48 nm -1082.14 nm 14 27.4 KNOTS.abrev 27.6 KNOTS.abrev 27.9 KNOTS.abrev 26.4 KNOTS.abrev 634.10 nm
31/12/2015 18:36:00 UTC 31/12 18:36 UTC 08°11.88'S 34°06.36'W 3732.30 nm -1083.03 nm 13 28.2 KNOTS.abrev 28.5 KNOTS.abrev 27.9 KNOTS.abrev 26.4 KNOTS.abrev 633.10 nm
31/12/2015 18:30:00 UTC 31/12 18:30 UTC 08°14.66'S 34°07.01'W 3735.13 nm -1084.46 nm 14 28.5 KNOTS.abrev 28.8 KNOTS.abrev 28.0 KNOTS.abrev 26.3 KNOTS.abrev 632.12 nm
31/12/2015 18:20:00 UTC 31/12 18:20 UTC 08°19.31'S 34°08.16'W 3739.88 nm -1086.88 nm 15 27.3 KNOTS.abrev 27.4 KNOTS.abrev 28.0 KNOTS.abrev 26.3 KNOTS.abrev 630.32 nm
31/12/2015 18:10:00 UTC 31/12 18:10 UTC 08°23.72'S 34°09.35'W 3744.43 nm -1088.99 nm 17 27.7 KNOTS.abrev 27.7 KNOTS.abrev 28.1 KNOTS.abrev 26.2 KNOTS.abrev 628.98 nm
31/12/2015 18:06:00 UTC 31/12 18:06 UTC 08°25.49'S 34°09.89'W 3746.27 nm -1089.82 nm 15 25.8 KNOTS.abrev 26.0 KNOTS.abrev 28.1 KNOTS.abrev 26.2 KNOTS.abrev 628.37 nm
31/12/2015 17:50:00 UTC 31/12 17:50 UTC 08°32.17'S 34°11.73'W 3753.16 nm -1092.68 nm 10 29.2 KNOTS.abrev 29.8 KNOTS.abrev 28.3 KNOTS.abrev 26.0 KNOTS.abrev 630.98 nm
31/12/2015 17:40:00 UTC 31/12 17:40 UTC 08°37.07'S 34°12.56'W 3758.02 nm -1095.01 nm 9 25.2 KNOTS.abrev 25.8 KNOTS.abrev 28.3 KNOTS.abrev 26.0 KNOTS.abrev 626.03 nm
31/12/2015 17:34:00 UTC 31/12 17:34 UTC 08°39.61'S 34°12.98'W 3760.55 nm -1096.02 nm 10 32.4 KNOTS.abrev 33.1 KNOTS.abrev 28.2 KNOTS.abrev 26.0 KNOTS.abrev 623.45 nm
31/12/2015 17:30:00 UTC 31/12 17:30 UTC 08°41.78'S 34°13.39'W 3762.71 nm -1097.18 nm 12 28.5 KNOTS.abrev 28.9 KNOTS.abrev 28.1 KNOTS.abrev 26.0 KNOTS.abrev 621.25 nm
31/12/2015 17:20:00 UTC 31/12 17:20 UTC 08°46.48'S 34°14.41'W 3767.47 nm -1099.54 nm 11 28.3 KNOTS.abrev 28.8 KNOTS.abrev 28.1 KNOTS.abrev 25.8 KNOTS.abrev 625.57 nm
31/12/2015 17:10:00 UTC 31/12 17:10 UTC 08°51.18'S 34°15.37'W 3772.19 nm -1101.86 nm 12 24.7 KNOTS.abrev 25.0 KNOTS.abrev 28.1 KNOTS.abrev 25.8 KNOTS.abrev 620.80 nm
31/12/2015 17:03:00 UTC 31/12 17:03 UTC 08°54.03'S 34°15.98'W 3775.07 nm -1103.06 nm 11 29.1 KNOTS.abrev 29.5 KNOTS.abrev 28.2 KNOTS.abrev 25.8 KNOTS.abrev 617.90 nm
31/12/2015 17:00:00 UTC 31/12 17:00 UTC 08°55.48'S 34°16.27'W 3776.52 nm -1103.79 nm 11 24.7 KNOTS.abrev 25.1 KNOTS.abrev 28.2 KNOTS.abrev 25.8 KNOTS.abrev 616.43 nm
31/12/2015 16:50:00 UTC 31/12 16:50 UTC 08°59.58'S 34°17.09'W 3780.64 nm -1105.50 nm 10 24.3 KNOTS.abrev 24.8 KNOTS.abrev 28.3 KNOTS.abrev 25.8 KNOTS.abrev 612.26 nm
31/12/2015 16:32:00 UTC 31/12 16:32 UTC 09°06.90'S 34°18.38'W 3787.93 nm -1108.45 nm 9 33.0 KNOTS.abrev 33.7 KNOTS.abrev 28.7 KNOTS.abrev 25.6 KNOTS.abrev 614.98 nm
31/12/2015 16:30:00 UTC 31/12 16:30 UTC 09°08.01'S 34°18.56'W 3789.03 nm -1109.04 nm 11 26.2 KNOTS.abrev 26.6 KNOTS.abrev 28.7 KNOTS.abrev 25.6 KNOTS.abrev 613.86 nm
31/12/2015 16:20:00 UTC 31/12 16:20 UTC 09°12.37'S 34°19.38'W 3793.39 nm -1110.55 nm 9 25.9 KNOTS.abrev 26.5 KNOTS.abrev 28.8 KNOTS.abrev 25.6 KNOTS.abrev 609.44 nm
31/12/2015 16:10:00 UTC 31/12 16:10 UTC 09°16.73'S 34°20.11'W 3797.71 nm -1112.01 nm 11 27.3 KNOTS.abrev 27.8 KNOTS.abrev 28.9 KNOTS.abrev 25.5 KNOTS.abrev 615.67 nm
31/12/2015 16:02:00 UTC 31/12 16:02 UTC 09°20.36'S 34°20.82'W 3801.36 nm -1113.36 nm 11 26.3 KNOTS.abrev 26.7 KNOTS.abrev 28.9 KNOTS.abrev 25.5 KNOTS.abrev 611.99 nm
31/12/2015 16:00:00 UTC 31/12 16:00 UTC 09°21.24'S 34°20.99'W 3802.23 nm -1113.67 nm 11 27.8 KNOTS.abrev 28.3 KNOTS.abrev 28.9 KNOTS.abrev 25.5 KNOTS.abrev 611.10 nm
31/12/2015 15:50:00 UTC 31/12 15:50 UTC 09°25.85'S 34°21.93'W 3806.88 nm -1115.45 nm 11 28.3 KNOTS.abrev 28.8 KNOTS.abrev 28.9 KNOTS.abrev 25.5 KNOTS.abrev 606.41 nm
31/12/2015 15:40:00 UTC 31/12 15:40 UTC 09°30.55'S 34°22.88'W 3811.60 nm -1117.30 nm 11 28.8 KNOTS.abrev 29.2 KNOTS.abrev 28.8 KNOTS.abrev 25.4 KNOTS.abrev 612.78 nm
31/12/2015 15:32:00 UTC 31/12 15:32 UTC 09°34.38'S 34°23.64'W 3815.44 nm -1118.84 nm 11 25.0 KNOTS.abrev 25.4 KNOTS.abrev 28.7 KNOTS.abrev 25.3 KNOTS.abrev 608.90 nm
31/12/2015 15:30:00 UTC 31/12 15:30 UTC 09°35.21'S 34°23.79'W 3816.27 nm -1119.10 nm 11 28.9 KNOTS.abrev 29.4 KNOTS.abrev 28.7 KNOTS.abrev 25.3 KNOTS.abrev 608.06 nm
31/12/2015 15:20:00 UTC 31/12 15:20 UTC 09°40.00'S 34°24.76'W 3821.09 nm -1121.05 nm 11 28.7 KNOTS.abrev 29.2 KNOTS.abrev 28.6 KNOTS.abrev 25.3 KNOTS.abrev 603.20 nm
31/12/2015 15:10:00 UTC 31/12 15:10 UTC 09°44.78'S 34°25.71'W 3825.88 nm -1122.99 nm 11 29.0 KNOTS.abrev 29.5 KNOTS.abrev 28.4 KNOTS.abrev 25.2 KNOTS.abrev 608.35 nm
31/12/2015 15:00:00 UTC 31/12 15:00 UTC 09°49.59'S 34°26.65'W 3830.71 nm -1125.00 nm 13 29.6 KNOTS.abrev 29.9 KNOTS.abrev 28.3 KNOTS.abrev 25.1 KNOTS.abrev 603.46 nm
31/12/2015 14:50:00 UTC 31/12 14:50 UTC 09°54.44'S 34°27.81'W 3835.64 nm -1127.10 nm 14 29.6 KNOTS.abrev 29.8 KNOTS.abrev 27.9 KNOTS.abrev 25.1 KNOTS.abrev 601.67 nm
31/12/2015 14:42:00 UTC 31/12 14:42 UTC 09°58.30'S 34°28.76'W 3839.58 nm -1128.77 nm 12 31.4 KNOTS.abrev 31.8 KNOTS.abrev 27.9 KNOTS.abrev 25.0 KNOTS.abrev 600.60 nm
31/12/2015 14:40:00 UTC 31/12 14:40 UTC 09°59.33'S 34°28.98'W 3840.63 nm -1129.25 nm 13 29.8 KNOTS.abrev 30.1 KNOTS.abrev 27.8 KNOTS.abrev 25.0 KNOTS.abrev 599.54 nm
31/12/2015 14:30:00 UTC 31/12 14:30 UTC 10°04.22'S 34°30.10'W 3845.59 nm -1131.38 nm 11 29.1 KNOTS.abrev 29.5 KNOTS.abrev 27.5 KNOTS.abrev 24.9 KNOTS.abrev 597.34 nm
31/12/2015 14:20:00 UTC 31/12 14:20 UTC 10°09.05'S 34°31.09'W 3850.44 nm -1133.40 nm 9 28.8 KNOTS.abrev 29.4 KNOTS.abrev 27.2 KNOTS.abrev 24.8 KNOTS.abrev 593.57 nm
31/12/2015 14:12:00 UTC 31/12 14:12 UTC 10°12.93'S 34°31.69'W 3854.27 nm -1134.98 nm 6 27.2 KNOTS.abrev 28.2 KNOTS.abrev 27.1 KNOTS.abrev 24.7 KNOTS.abrev 594.44 nm
31/12/2015 14:10:00 UTC 31/12 14:10 UTC 10°13.86'S 34°31.78'W 3855.18 nm -1135.32 nm 8 27.9 KNOTS.abrev 28.7 KNOTS.abrev 27.1 KNOTS.abrev 24.7 KNOTS.abrev 593.50 nm
31/12/2015 13:50:00 UTC 31/12 13:50 UTC 10°23.33'S 34°33.06'W 3864.47 nm -1138.96 nm 7 28.0 KNOTS.abrev 28.8 KNOTS.abrev 27.0 KNOTS.abrev 24.6 KNOTS.abrev 589.42 nm
31/12/2015 13:42:00 UTC 31/12 13:42 UTC 10°27.15'S 34°33.54'W 3868.20 nm -1140.42 nm 7 24.2 KNOTS.abrev 25.0 KNOTS.abrev 27.0 KNOTS.abrev 24.5 KNOTS.abrev 588.27 nm
31/12/2015 13:30:00 UTC 31/12 13:30 UTC 10°32.09'S 34°34.19'W 3873.05 nm -1141.87 nm 7 27.8 KNOTS.abrev 28.6 KNOTS.abrev 27.2 KNOTS.abrev 24.4 KNOTS.abrev 586.32 nm
31/12/2015 13:20:00 UTC 31/12 13:20 UTC 10°36.82'S 34°34.80'W 3877.68 nm -1143.66 nm 8 27.3 KNOTS.abrev 28.0 KNOTS.abrev 27.3 KNOTS.abrev 24.3 KNOTS.abrev 583.88 nm
31/12/2015 13:11:00 UTC 31/12 13:11 UTC 10°40.98'S 34°35.42'W 3881.78 nm -1145.17 nm 7 42.0 KNOTS.abrev 43.3 KNOTS.abrev 27.4 KNOTS.abrev 24.3 KNOTS.abrev 582.62 nm
31/12/2015 13:10:00 UTC 31/12 13:10 UTC 10°41.70'S 34°35.52'W 3882.48 nm -1145.59 nm 9 28.0 KNOTS.abrev 28.6 KNOTS.abrev 27.3 KNOTS.abrev 24.2 KNOTS.abrev 581.90 nm
31/12/2015 13:00:00 UTC 31/12 13:00 UTC 10°46.41'S 34°36.24'W 3887.13 nm -1147.34 nm 12 28.7 KNOTS.abrev 29.1 KNOTS.abrev 27.3 KNOTS.abrev 24.2 KNOTS.abrev 579.86 nm
31/12/2015 12:50:00 UTC 31/12 12:50 UTC 10°51.14'S 34°37.25'W 3891.91 nm -1149.21 nm 10 28.2 KNOTS.abrev 28.7 KNOTS.abrev 27.3 KNOTS.abrev 24.1 KNOTS.abrev 577.43 nm
31/12/2015 12:41:00 UTC 31/12 12:41 UTC 10°55.38'S 34°38.00'W 3896.13 nm -1150.81 nm 8 41.8 KNOTS.abrev 42.9 KNOTS.abrev 27.3 KNOTS.abrev 24.0 KNOTS.abrev 575.88 nm
31/12/2015 12:40:00 UTC 31/12 12:40 UTC 10°56.09'S 34°38.09'W 3896.83 nm -1151.22 nm 8 28.9 KNOTS.abrev 29.7 KNOTS.abrev 27.3 KNOTS.abrev 24.0 KNOTS.abrev 575.16 nm
31/12/2015 12:30:00 UTC 31/12 12:30 UTC 11°00.98'S 34°38.82'W 3901.65 nm -1153.13 nm 6 28.1 KNOTS.abrev 29.1 KNOTS.abrev 27.2 KNOTS.abrev 23.9 KNOTS.abrev 572.91 nm
31/12/2015 12:20:00 UTC 31/12 12:20 UTC 11°05.81'S 34°39.30'W 3906.33 nm -1154.87 nm 4 28.0 KNOTS.abrev 29.3 KNOTS.abrev 27.2 KNOTS.abrev 23.8 KNOTS.abrev 570.57 nm
31/12/2015 12:11:00 UTC 31/12 12:11 UTC 11°10.20'S 34°39.61'W 3910.53 nm -1156.44 nm 2 19.4 KNOTS.abrev 20.6 KNOTS.abrev 27.2 KNOTS.abrev 23.7 KNOTS.abrev 568.25 nm
31/12/2015 12:10:00 UTC 31/12 12:10 UTC 11°10.54'S 34°39.62'W 3910.86 nm -1156.47 nm 5 27.1 KNOTS.abrev 28.2 KNOTS.abrev 27.2 KNOTS.abrev 23.7 KNOTS.abrev 567.91 nm
31/12/2015 12:00:00 UTC 31/12 12:00 UTC 11°15.22'S 34°40.03'W 3915.37 nm -1158.04 nm 9 26.8 KNOTS.abrev 27.4 KNOTS.abrev 27.3 KNOTS.abrev 23.6 KNOTS.abrev 565.31 nm
31/12/2015 11:50:00 UTC 31/12 11:50 UTC 11°19.72'S 34°40.74'W 3919.83 nm -1159.56 nm 11 27.5 KNOTS.abrev 27.9 KNOTS.abrev 27.3 KNOTS.abrev 23.5 KNOTS.abrev 562.82 nm
31/12/2015 11:41:00 UTC 31/12 11:41 UTC 11°23.83'S 34°41.56'W 3923.96 nm -1161.04 nm 8 14.6 KNOTS.abrev 15.0 KNOTS.abrev 27.3 KNOTS.abrev 23.3 KNOTS.abrev 560.62 nm
31/12/2015 11:40:00 UTC 31/12 11:40 UTC 11°24.08'S 34°41.59'W 3924.20 nm -1160.99 nm 11 26.6 KNOTS.abrev 27.0 KNOTS.abrev 27.4 KNOTS.abrev 23.3 KNOTS.abrev 560.38 nm
31/12/2015 11:30:00 UTC 31/12 11:30 UTC 11°28.50'S 34°42.48'W 3928.63 nm -1162.50 nm 11 26.5 KNOTS.abrev 26.9 KNOTS.abrev 27.4 KNOTS.abrev 23.2 KNOTS.abrev 558.00 nm
31/12/2015 11:20:00 UTC 31/12 11:20 UTC 11°32.90'S 34°43.34'W 3933.05 nm -1164.34 nm 11 24.9 KNOTS.abrev 25.3 KNOTS.abrev 27.4 KNOTS.abrev 23.1 KNOTS.abrev 555.58 nm
31/12/2015 11:10:00 UTC 31/12 11:10 UTC 11°37.03'S 34°44.19'W 3937.21 nm -1165.92 nm 9 23.1 KNOTS.abrev 23.7 KNOTS.abrev 27.5 KNOTS.abrev 23.1 KNOTS.abrev 553.34 nm
31/12/2015 11:07:00 UTC 31/12 11:07 UTC 11°38.20'S 34°44.38'W 3938.37 nm -1166.30 nm 8 25.2 KNOTS.abrev 25.8 KNOTS.abrev 27.6 KNOTS.abrev 23.1 KNOTS.abrev 552.17 nm
31/12/2015 11:00:00 UTC 31/12 11:00 UTC 11°41.18'S 34°44.83'W 3941.31 nm -1167.43 nm 6 23.9 KNOTS.abrev 24.8 KNOTS.abrev 27.5 KNOTS.abrev 23.0 KNOTS.abrev 551.41 nm
31/12/2015 10:40:00 UTC 31/12 10:40 UTC 11°49.39'S 34°45.65'W 3949.27 nm -1170.21 nm 2 20.0 KNOTS.abrev 21.1 KNOTS.abrev 28.2 KNOTS.abrev 22.8 KNOTS.abrev 550.33 nm
31/12/2015 10:33:00 UTC 31/12 10:33 UTC 11°51.86'S 34°45.72'W 3951.59 nm -1170.72 nm 357 22.2 KNOTS.abrev 24.3 KNOTS.abrev 28.5 KNOTS.abrev 22.8 KNOTS.abrev 547.86 nm
31/12/2015 10:30:00 UTC 31/12 10:30 UTC 11°53.07'S 34°45.65'W 3952.69 nm -1171.05 nm 348 19.0 KNOTS.abrev 22.7 KNOTS.abrev 28.6 KNOTS.abrev 22.8 KNOTS.abrev 546.65 nm
31/12/2015 10:20:00 UTC 31/12 10:20 UTC 11°56.76'S 34°44.85'W 3955.86 nm -1171.73 nm 7 26.3 KNOTS.abrev 27.2 KNOTS.abrev 29.0 KNOTS.abrev 22.7 KNOTS.abrev 545.56 nm
31/12/2015 10:10:00 UTC 31/12 10:10 UTC 12°01.24'S 34°45.45'W 3960.26 nm -1173.64 nm 9 27.2 KNOTS.abrev 27.8 KNOTS.abrev 29.2 KNOTS.abrev 22.7 KNOTS.abrev 543.92 nm
31/12/2015 10:03:00 UTC 31/12 10:03 UTC 12°04.45'S 34°45.97'W 3963.44 nm -1175.07 nm 9 31.2 KNOTS.abrev 31.9 KNOTS.abrev 29.4 KNOTS.abrev 22.6 KNOTS.abrev 544.11 nm
31/12/2015 10:00:00 UTC 31/12 10:00 UTC 12°06.02'S 34°46.23'W 3965.00 nm -1175.88 nm 10 27.0 KNOTS.abrev 27.5 KNOTS.abrev 29.3 KNOTS.abrev 22.6 KNOTS.abrev 542.54 nm
31/12/2015 09:50:00 UTC 31/12 09:50 UTC 12°10.53'S 34°47.02'W 3969.49 nm -1177.87 nm 9 27.6 KNOTS.abrev 28.2 KNOTS.abrev 29.5 KNOTS.abrev 22.6 KNOTS.abrev 541.53 nm
31/12/2015 09:40:00 UTC 31/12 09:40 UTC 12°15.17'S 34°47.80'W 3974.09 nm -1179.97 nm 9 27.8 KNOTS.abrev 28.4 KNOTS.abrev 29.6 KNOTS.abrev 22.5 KNOTS.abrev 539.82 nm
31/12/2015 09:33:00 UTC 31/12 09:33 UTC 12°18.43'S 34°48.35'W 3977.34 nm -1181.46 nm 11 29.2 KNOTS.abrev 29.6 KNOTS.abrev 29.6 KNOTS.abrev 22.5 KNOTS.abrev 536.54 nm
31/12/2015 09:30:00 UTC 31/12 09:30 UTC 12°19.89'S 34°48.63'W 3978.79 nm -1182.17 nm 10 29.7 KNOTS.abrev 30.3 KNOTS.abrev 29.6 KNOTS.abrev 22.4 KNOTS.abrev 540.72 nm
31/12/2015 09:20:00 UTC 31/12 09:20 UTC 12°24.86'S 34°49.49'W 3983.74 nm -1184.77 nm 10 29.9 KNOTS.abrev 30.4 KNOTS.abrev 29.6 KNOTS.abrev 22.3 KNOTS.abrev 535.73 nm
31/12/2015 09:10:00 UTC 31/12 09:10 UTC 12°29.85'S 34°50.38'W 3988.71 nm -1187.41 nm 10 26.7 KNOTS.abrev 27.2 KNOTS.abrev 29.5 KNOTS.abrev 22.2 KNOTS.abrev 533.37 nm
31/12/2015 09:02:00 UTC 31/12 09:02 UTC 12°33.41'S 34°51.02'W 3992.27 nm -1189.08 nm 8 33.7 KNOTS.abrev 34.6 KNOTS.abrev 29.5 KNOTS.abrev 22.2 KNOTS.abrev 532.35 nm
31/12/2015 09:00:00 UTC 31/12 09:00 UTC 12°34.56'S 34°51.18'W 3993.39 nm -1189.73 nm 8 28.4 KNOTS.abrev 29.1 KNOTS.abrev 29.5 KNOTS.abrev 22.1 KNOTS.abrev 531.20 nm
31/12/2015 08:50:00 UTC 31/12 08:50 UTC 12°39.35'S 34°51.90'W 3998.12 nm -1192.12 nm 8 28.6 KNOTS.abrev 29.4 KNOTS.abrev 29.5 KNOTS.abrev 22.0 KNOTS.abrev 529.08 nm
31/12/2015 08:40:00 UTC 31/12 08:40 UTC 12°44.21'S 34°52.57'W 4002.89 nm -1194.53 nm 5 26.9 KNOTS.abrev 27.9 KNOTS.abrev 29.5 KNOTS.abrev 21.9 KNOTS.abrev 526.70 nm
31/12/2015 08:31:00 UTC 31/12 08:31 UTC 12°48.38'S 34°52.94'W 4006.92 nm -1196.44 nm 4 36.7 KNOTS.abrev 38.3 KNOTS.abrev 29.5 KNOTS.abrev 21.9 KNOTS.abrev 525.08 nm
31/12/2015 08:30:00 UTC 31/12 08:30 UTC 12°49.02'S 34°52.98'W 4007.53 nm -1196.81 nm 5 27.4 KNOTS.abrev 28.5 KNOTS.abrev 29.5 KNOTS.abrev 21.9 KNOTS.abrev 524.45 nm
31/12/2015 08:20:00 UTC 31/12 08:20 UTC 12°53.74'S 34°53.40'W 4012.09 nm -1199.01 nm 9 28.2 KNOTS.abrev 28.8 KNOTS.abrev 29.4 KNOTS.abrev 21.8 KNOTS.abrev 522.51 nm
31/12/2015 08:10:00 UTC 31/12 08:10 UTC 12°58.48'S 34°54.18'W 4016.79 nm -1201.42 nm 11 29.3 KNOTS.abrev 29.8 KNOTS.abrev 29.3 KNOTS.abrev 21.7 KNOTS.abrev 520.87 nm
31/12/2015 08:01:00 UTC 31/12 08:01 UTC 13°02.87'S 34°55.01'W 4021.18 nm -1203.79 nm 8 27.1 KNOTS.abrev 27.9 KNOTS.abrev 29.2 KNOTS.abrev 21.6 KNOTS.abrev 519.72 nm
31/12/2015 07:50:00 UTC 31/12 07:50 UTC 13°07.92'S 34°55.77'W 4026.16 nm -1206.30 nm 6 26.5 KNOTS.abrev 27.5 KNOTS.abrev 29.2 KNOTS.abrev 21.6 KNOTS.abrev 517.91 nm
31/12/2015 07:40:00 UTC 31/12 07:40 UTC 13°12.47'S 34°56.28'W 4030.60 nm -1208.48 nm 6 28.2 KNOTS.abrev 29.2 KNOTS.abrev 29.2 KNOTS.abrev 21.5 KNOTS.abrev 516.89 nm
31/12/2015 07:31:00 UTC 31/12 07:31 UTC 13°16.82'S 34°56.77'W 4034.83 nm -1210.69 nm 8 19.6 KNOTS.abrev 20.1 KNOTS.abrev 29.0 KNOTS.abrev 21.5 KNOTS.abrev 516.04 nm
31/12/2015 07:30:00 UTC 31/12 07:30 UTC 13°17.15'S 34°56.82'W 4035.16 nm -1210.81 nm 7 27.0 KNOTS.abrev 27.8 KNOTS.abrev 29.1 KNOTS.abrev 21.5 KNOTS.abrev 515.71 nm
31/12/2015 07:20:00 UTC 31/12 07:20 UTC 13°21.75'S 34°57.38'W 4039.65 nm -1213.32 nm 9 26.8 KNOTS.abrev 27.4 KNOTS.abrev 29.0 KNOTS.abrev 21.4 KNOTS.abrev 514.55 nm
31/12/2015 07:10:00 UTC 31/12 07:10 UTC 13°26.26'S 34°58.11'W 4044.12 nm -1215.80 nm 2 23.4 KNOTS.abrev 24.7 KNOTS.abrev 28.8 KNOTS.abrev 21.4 KNOTS.abrev 513.40 nm
31/12/2015 07:00:00 UTC 31/12 07:00 UTC 13°30.38'S 34°58.23'W 4048.01 nm -1217.70 nm 6 30.4 KNOTS.abrev 31.4 KNOTS.abrev 28.8 KNOTS.abrev 21.3 KNOTS.abrev 515.85 nm
31/12/2015 06:51:00 UTC 31/12 06:51 UTC 13°35.06'S 34°58.73'W 4052.57 nm -1220.46 nm 4 33.6 KNOTS.abrev 35.1 KNOTS.abrev 28.6 KNOTS.abrev 21.3 KNOTS.abrev 511.17 nm
31/12/2015 06:50:00 UTC 31/12 06:50 UTC 13°35.65'S 34°58.77'W 4053.12 nm -1220.82 nm 6 32.0 KNOTS.abrev 33.1 KNOTS.abrev 28.6 KNOTS.abrev 21.3 KNOTS.abrev 510.58 nm
31/12/2015 06:40:00 UTC 31/12 06:40 UTC 13°41.12'S 34°59.38'W 4058.46 nm -1224.15 nm 6 31.2 KNOTS.abrev 32.3 KNOTS.abrev 28.3 KNOTS.abrev 21.2 KNOTS.abrev 508.51 nm
31/12/2015 06:30:00 UTC 31/12 06:30 UTC 13°46.47'S 34°60.00'W 4063.67 nm -1227.37 nm 15 31.1 KNOTS.abrev 31.2 KNOTS.abrev 28.1 KNOTS.abrev 21.1 KNOTS.abrev 506.55 nm
31/12/2015 06:20:00 UTC 31/12 06:20 UTC 13°51.51'S 35°01.35'W 4068.84 nm -1230.63 nm 12 23.0 KNOTS.abrev 23.3 KNOTS.abrev 28.0 KNOTS.abrev 21.0 KNOTS.abrev 504.61 nm
31/12/2015 06:18:00 UTC 31/12 06:18 UTC 13°52.26'S 35°01.52'W 4069.61 nm -1231.02 nm 8 33.4 KNOTS.abrev 34.3 KNOTS.abrev 28.1 KNOTS.abrev 21.0 KNOTS.abrev 503.85 nm
31/12/2015 06:10:00 UTC 31/12 06:10 UTC 13°56.79'S 35°02.15'W 4074.06 nm -1233.94 nm 13 32.4 KNOTS.abrev 32.7 KNOTS.abrev 27.8 KNOTS.abrev 20.9 KNOTS.abrev 502.39 nm
31/12/2015 06:00:00 UTC 31/12 06:00 UTC 14°02.11'S 35°03.38'W 4079.46 nm -1237.42 nm 11 31.9 KNOTS.abrev 32.4 KNOTS.abrev 27.6 KNOTS.abrev 20.8 KNOTS.abrev 500.09 nm
31/12/2015 05:50:00 UTC 31/12 05:50 UTC 14°07.41'S 35°04.41'W 4084.77 nm -1240.81 nm 13 32.6 KNOTS.abrev 32.9 KNOTS.abrev 27.3 KNOTS.abrev 20.8 KNOTS.abrev 498.01 nm
31/12/2015 05:48:00 UTC 31/12 05:48 UTC 14°08.47'S 35°04.67'W 4085.86 nm -1241.51 nm 13 28.1 KNOTS.abrev 28.4 KNOTS.abrev 27.2 KNOTS.abrev 20.7 KNOTS.abrev 496.95 nm
31/12/2015 05:40:00 UTC 31/12 05:40 UTC 14°12.15'S 35°05.55'W 4089.60 nm -1243.72 nm 12 28.3 KNOTS.abrev 28.7 KNOTS.abrev 27.2 KNOTS.abrev 20.7 KNOTS.abrev 496.82 nm
31/12/2015 05:30:00 UTC 31/12 05:30 UTC 14°16.83'S 35°06.54'W 4094.32 nm -1246.49 nm 10 29.2 KNOTS.abrev 29.7 KNOTS.abrev 27.2 KNOTS.abrev 20.6 KNOTS.abrev 495.04 nm
31/12/2015 05:20:00 UTC 31/12 05:20 UTC 14°21.70'S 35°07.47'W 4099.19 nm -1249.16 nm 12 25.5 KNOTS.abrev 25.8 KNOTS.abrev 27.0 KNOTS.abrev 20.5 KNOTS.abrev 492.72 nm
31/12/2015 05:17:00 UTC 31/12 05:17 UTC 14°22.96'S 35°07.74'W 4100.46 nm -1249.77 nm 23 30.1 KNOTS.abrev 30.1 KNOTS.abrev 27.1 KNOTS.abrev 20.5 KNOTS.abrev 491.48 nm
31/12/2015 05:10:00 UTC 31/12 05:10 UTC 14°26.20'S 35°09.14'W 4103.97 nm -1251.73 nm 14 29.6 KNOTS.abrev 29.8 KNOTS.abrev 26.9 KNOTS.abrev 20.5 KNOTS.abrev 491.48 nm
31/12/2015 04:50:00 UTC 31/12 04:50 UTC 14°35.84'S 35°11.54'W 4113.82 nm -1257.16 nm 16 26.4 KNOTS.abrev 26.5 KNOTS.abrev 26.4 KNOTS.abrev 20.4 KNOTS.abrev 489.72 nm
31/12/2015 04:47:00 UTC 31/12 04:47 UTC 14°37.12'S 35°11.91'W 4115.14 nm -1257.81 nm 14 31.1 KNOTS.abrev 31.4 KNOTS.abrev 26.4 KNOTS.abrev 20.4 KNOTS.abrev 488.46 nm
31/12/2015 04:40:00 UTC 31/12 04:40 UTC 14°40.66'S 35°12.84'W 4118.77 nm -1259.89 nm 13 27.0 KNOTS.abrev 27.3 KNOTS.abrev 26.2 KNOTS.abrev 20.3 KNOTS.abrev 488.37 nm
31/12/2015 04:30:00 UTC 31/12 04:30 UTC 14°45.10'S 35°13.88'W 4123.28 nm -1262.17 nm 12 25.7 KNOTS.abrev 26.0 KNOTS.abrev 26.1 KNOTS.abrev 20.3 KNOTS.abrev 486.15 nm
31/12/2015 04:20:00 UTC 31/12 04:20 UTC 14°49.33'S 35°14.80'W 4127.56 nm -1264.17 nm 13 22.0 KNOTS.abrev 22.2 KNOTS.abrev 26.1 KNOTS.abrev 20.2 KNOTS.abrev 485.15 nm
31/12/2015 04:17:00 UTC 31/12 04:17 UTC 14°50.41'S 35°15.07'W 4128.66 nm -1264.59 nm 13 28.5 KNOTS.abrev 28.7 KNOTS.abrev 26.1 KNOTS.abrev 20.2 KNOTS.abrev 484.09 nm
31/12/2015 04:10:00 UTC 31/12 04:10 UTC 14°53.68'S 35°15.83'W 4131.98 nm -1266.31 nm 12 27.5 KNOTS.abrev 27.8 KNOTS.abrev 25.9 KNOTS.abrev 20.1 KNOTS.abrev 482.24 nm
31/12/2015 04:00:00 UTC 31/12 04:00 UTC 14°58.22'S 35°16.79'W 4136.55 nm -1268.60 nm 10 27.7 KNOTS.abrev 28.2 KNOTS.abrev 25.8 KNOTS.abrev 20.0 KNOTS.abrev 478.93 nm
31/12/2015 03:50:00 UTC 31/12 03:50 UTC 15°02.85'S 35°17.63'W 4141.17 nm -1270.94 nm 9 29.1 KNOTS.abrev 29.7 KNOTS.abrev 25.4 KNOTS.abrev 19.8 KNOTS.abrev 475.33 nm
31/12/2015 03:47:00 UTC 31/12 03:47 UTC 15°04.32'S 35°17.88'W 4142.63 nm -1271.71 nm 13 26.1 KNOTS.abrev 26.4 KNOTS.abrev 25.3 KNOTS.abrev 19.8 KNOTS.abrev 473.89 nm
31/12/2015 03:40:00 UTC 31/12 03:40 UTC 15°07.32'S 35°18.57'W 4145.67 nm -1273.15 nm 11 23.6 KNOTS.abrev 24.0 KNOTS.abrev 25.3 KNOTS.abrev 19.7 KNOTS.abrev 471.67 nm
31/12/2015 03:30:00 UTC 31/12 03:30 UTC 15°11.23'S 35°19.39'W 4149.61 nm -1274.80 nm 9 24.7 KNOTS.abrev 25.2 KNOTS.abrev 25.3 KNOTS.abrev 19.6 KNOTS.abrev 469.34 nm
31/12/2015 03:20:00 UTC 31/12 03:20 UTC 15°15.38'S 35°20.05'W 4153.72 nm -1276.61 nm 8 26.9 KNOTS.abrev 27.6 KNOTS.abrev 25.2 KNOTS.abrev 19.5 KNOTS.abrev 469.14 nm
31/12/2015 03:17:00 UTC 31/12 03:17 UTC 15°16.74'S 35°20.25'W 4155.06 nm -1277.26 nm 8 23.2 KNOTS.abrev 23.8 KNOTS.abrev 25.2 KNOTS.abrev 19.5 KNOTS.abrev 467.79 nm
31/12/2015 03:10:00 UTC 31/12 03:10 UTC 15°19.49'S 35°20.63'W 4157.76 nm -1278.25 nm 5 23.4 KNOTS.abrev 24.3 KNOTS.abrev 25.2 KNOTS.abrev 19.5 KNOTS.abrev 467.45 nm
31/12/2015 03:00:00 UTC 31/12 03:00 UTC 15°23.52'S 35°21.00'W 4161.66 nm -1279.67 nm 4 24.4 KNOTS.abrev 25.5 KNOTS.abrev 25.2 KNOTS.abrev 19.4 KNOTS.abrev 465.88 nm
31/12/2015 02:50:00 UTC 31/12 02:50 UTC 15°27.76'S 35°21.35'W 4165.74 nm -1281.26 nm 7 26.0 KNOTS.abrev 26.8 KNOTS.abrev 25.2 KNOTS.abrev 19.3 KNOTS.abrev 463.96 nm
31/12/2015 02:47:00 UTC 31/12 02:47 UTC 15°29.09'S 35°21.51'W 4167.04 nm -1281.82 nm 7 25.0 KNOTS.abrev 25.7 KNOTS.abrev 25.2 KNOTS.abrev 19.3 KNOTS.abrev 462.65 nm
31/12/2015 02:40:00 UTC 31/12 02:40 UTC 15°32.07'S 35°21.88'W 4169.95 nm -1282.99 nm 7 27.2 KNOTS.abrev 28.1 KNOTS.abrev 25.2 KNOTS.abrev 19.3 KNOTS.abrev 462.19 nm
31/12/2015 02:30:00 UTC 31/12 02:30 UTC 15°36.70'S 35°22.47'W 4174.49 nm -1285.03 nm 5 28.6 KNOTS.abrev 29.8 KNOTS.abrev 25.0 KNOTS.abrev 19.2 KNOTS.abrev 458.38 nm
31/12/2015 02:20:00 UTC 31/12 02:20 UTC 15°41.65'S 35°22.88'W 4179.25 nm -1287.20 nm 6 25.7 KNOTS.abrev 26.6 KNOTS.abrev 24.8 KNOTS.abrev 19.0 KNOTS.abrev 457.16 nm
31/12/2015 02:14:00 UTC 31/12 02:14 UTC 15°44.29'S 35°23.17'W 4181.82 nm -1288.21 nm 3 26.5 KNOTS.abrev 27.9 KNOTS.abrev 24.8 KNOTS.abrev 19.0 KNOTS.abrev 454.55 nm
31/12/2015 02:10:00 UTC 31/12 02:10 UTC 15°46.15'S 35°23.28'W 4183.59 nm -1288.95 nm 5 25.5 KNOTS.abrev 26.5 KNOTS.abrev 24.7 KNOTS.abrev 18.9 KNOTS.abrev 455.75 nm
31/12/2015 02:00:00 UTC 31/12 02:00 UTC 15°50.54'S 35°23.68'W 4187.84 nm -1290.59 nm 4 24.9 KNOTS.abrev 26.0 KNOTS.abrev 24.6 KNOTS.abrev 18.9 KNOTS.abrev 452.94 nm
31/12/2015 01:50:00 UTC 31/12 01:50 UTC 15°54.86'S 35°24.00'W 4191.99 nm -1292.14 nm 1 27.8 KNOTS.abrev 29.6 KNOTS.abrev 24.5 KNOTS.abrev 18.8 KNOTS.abrev 450.78 nm
31/12/2015 01:44:00 UTC 31/12 01:44 UTC 15°57.81'S 35°24.07'W 4194.77 nm -1293.36 nm 4 23.9 KNOTS.abrev 25.0 KNOTS.abrev 24.4 KNOTS.abrev 18.8 KNOTS.abrev 451.79 nm
31/12/2015 01:40:00 UTC 31/12 01:40 UTC 15°59.47'S 35°24.20'W 4196.37 nm -1293.92 nm 5 27.1 KNOTS.abrev 28.2 KNOTS.abrev 24.3 KNOTS.abrev 18.8 KNOTS.abrev 450.15 nm
31/12/2015 01:30:00 UTC 31/12 01:30 UTC 16°04.14'S 35°24.66'W 4200.90 nm -1295.84 nm 5 25.0 KNOTS.abrev 26.0 KNOTS.abrev 24.1 KNOTS.abrev 18.7 KNOTS.abrev 447.89 nm
31/12/2015 01:20:00 UTC 31/12 01:20 UTC 16°08.46'S 35°25.06'W 4205.07 nm -1297.46 nm 4 22.2 KNOTS.abrev 23.2 KNOTS.abrev 24.0 KNOTS.abrev 18.5 KNOTS.abrev 448.10 nm
31/12/2015 01:13:00 UTC 31/12 01:13 UTC 16°11.15'S 35°25.28'W 4207.66 nm -1298.27 nm 5 27.6 KNOTS.abrev 28.7 KNOTS.abrev 24.0 KNOTS.abrev 18.5 KNOTS.abrev 445.44 nm
31/12/2015 01:10:00 UTC 31/12 01:10 UTC 16°12.58'S 35°25.42'W 4209.04 nm -1298.88 nm 4 22.9 KNOTS.abrev 23.9 KNOTS.abrev 23.9 KNOTS.abrev 18.5 KNOTS.abrev 444.03 nm
31/12/2015 00:50:00 UTC 31/12 00:50 UTC 16°20.52'S 35°26.03'W 4216.69 nm -1301.41 nm 8 24.2 KNOTS.abrev 24.9 KNOTS.abrev 23.8 KNOTS.abrev 18.4 KNOTS.abrev 440.51 nm
31/12/2015 00:43:00 UTC 31/12 00:43 UTC 16°23.39'S 35°26.46'W 4219.51 nm -1302.45 nm 5 24.4 KNOTS.abrev 25.4 KNOTS.abrev 23.7 KNOTS.abrev 18.3 KNOTS.abrev 439.90 nm
31/12/2015 00:40:00 UTC 31/12 00:40 UTC 16°24.66'S 35°26.56'W 4220.73 nm -1302.90 nm 1 23.7 KNOTS.abrev 25.1 KNOTS.abrev 23.7 KNOTS.abrev 18.3 KNOTS.abrev 438.65 nm
31/12/2015 00:30:00 UTC 31/12 00:30 UTC 16°28.85'S 35°26.62'W 4224.67 nm -1304.27 nm 4 23.2 KNOTS.abrev 24.2 KNOTS.abrev 23.6 KNOTS.abrev 18.2 KNOTS.abrev 436.62 nm
31/12/2015 00:20:00 UTC 31/12 00:20 UTC 16°32.87'S 35°26.93'W 4228.54 nm -1305.59 nm 4 22.4 KNOTS.abrev 23.4 KNOTS.abrev 23.5 KNOTS.abrev 18.1 KNOTS.abrev 434.74 nm
31/12/2015 00:13:00 UTC 31/12 00:13 UTC 16°35.60'S 35°27.15'W 4231.16 nm -1306.52 nm 5 21.4 KNOTS.abrev 22.3 KNOTS.abrev 23.5 KNOTS.abrev 18.1 KNOTS.abrev 434.38 nm
31/12/2015 00:10:00 UTC 31/12 00:10 UTC 16°36.70'S 35°27.25'W 4232.23 nm -1306.87 nm 2 21.4 KNOTS.abrev 22.6 KNOTS.abrev 23.5 KNOTS.abrev 18.1 KNOTS.abrev 433.29 nm
30/12/2015 23:42:00 UTC 30/12 23:42 UTC 16°47.22'S 35°27.60'W 4242.20 nm -1310.07 nm 0 28.4 KNOTS.abrev 30.4 KNOTS.abrev 23.4 KNOTS.abrev 17.9 KNOTS.abrev 431.68 nm
30/12/2015 23:40:00 UTC 30/12 23:40 UTC 16°48.23'S 35°27.60'W 4243.14 nm -1310.53 nm 359 21.5 KNOTS.abrev 23.1 KNOTS.abrev 23.3 KNOTS.abrev 17.9 KNOTS.abrev 430.68 nm
30/12/2015 23:30:00 UTC 30/12 23:30 UTC 16°52.09'S 35°27.54'W 4246.73 nm -1311.71 nm 3 22.2 KNOTS.abrev 23.4 KNOTS.abrev 23.2 KNOTS.abrev 17.8 KNOTS.abrev 427.46 nm
30/12/2015 23:20:00 UTC 30/12 23:20 UTC 16°55.97'S 35°27.78'W 4250.44 nm -1313.18 nm 4 22.6 KNOTS.abrev 23.6 KNOTS.abrev 23.0 KNOTS.abrev 17.7 KNOTS.abrev 425.75 nm
30/12/2015 23:12:00 UTC 30/12 23:12 UTC 16°59.11'S 35°28.03'W 4253.46 nm -1314.40 nm 4 27.3 KNOTS.abrev 28.5 KNOTS.abrev 22.8 KNOTS.abrev 17.7 KNOTS.abrev 425.03 nm
30/12/2015 23:10:00 UTC 30/12 23:10 UTC 17°00.05'S 35°28.09'W 4254.37 nm -1314.86 nm 3 23.6 KNOTS.abrev 24.8 KNOTS.abrev 22.7 KNOTS.abrev 17.7 KNOTS.abrev 424.10 nm
30/12/2015 23:00:00 UTC 30/12 23:00 UTC 17°04.18'S 35°28.35'W 4258.32 nm -1316.56 nm 2 23.4 KNOTS.abrev 24.7 KNOTS.abrev 22.4 KNOTS.abrev 17.6 KNOTS.abrev 422.50 nm
30/12/2015 22:50:00 UTC 30/12 22:50 UTC 17°08.29'S 35°28.48'W 4262.21 nm -1318.20 nm 4 25.1 KNOTS.abrev 26.2 KNOTS.abrev 22.0 KNOTS.abrev 17.5 KNOTS.abrev 420.63 nm
30/12/2015 22:42:00 UTC 30/12 22:42 UTC 17°11.77'S 35°28.72'W 4265.55 nm -1319.74 nm 2 21.5 KNOTS.abrev 22.7 KNOTS.abrev 21.6 KNOTS.abrev 17.4 KNOTS.abrev 419.30 nm
30/12/2015 22:40:00 UTC 30/12 22:40 UTC 17°12.53'S 35°28.75'W 4266.26 nm -1320.00 nm 6 23.9 KNOTS.abrev 24.7 KNOTS.abrev 21.6 KNOTS.abrev 17.4 KNOTS.abrev 418.55 nm
30/12/2015 22:30:00 UTC 30/12 22:30 UTC 17°16.62'S 35°29.22'W 4270.25 nm -1321.71 nm 6 23.6 KNOTS.abrev 24.4 KNOTS.abrev 21.2 KNOTS.abrev 17.4 KNOTS.abrev 416.74 nm
30/12/2015 22:20:00 UTC 30/12 22:20 UTC 17°20.66'S 35°29.68'W 4274.19 nm -1322.96 nm 6 24.4 KNOTS.abrev 25.2 KNOTS.abrev 21.0 KNOTS.abrev 17.3 KNOTS.abrev 414.63 nm
30/12/2015 22:12:00 UTC 30/12 22:12 UTC 17°24.00'S 35°30.03'W 4277.44 nm -1324.06 nm 4 20.1 KNOTS.abrev 21.0 KNOTS.abrev 20.8 KNOTS.abrev 17.2 KNOTS.abrev 413.17 nm
30/12/2015 22:10:00 UTC 30/12 22:10 UTC 17°24.70'S 35°30.08'W 4278.11 nm -1324.19 nm 4 22.4 KNOTS.abrev 23.4 KNOTS.abrev 20.8 KNOTS.abrev 17.2 KNOTS.abrev 412.49 nm
30/12/2015 22:00:00 UTC 30/12 22:00 UTC 17°28.58'S 35°30.40'W 4281.85 nm -1325.24 nm 4 22.6 KNOTS.abrev 23.6 KNOTS.abrev 20.6 KNOTS.abrev 17.1 KNOTS.abrev 410.35 nm
30/12/2015 21:50:00 UTC 30/12 21:50 UTC 17°32.51'S 35°30.68'W 4285.62 nm -1326.32 nm 3 23.2 KNOTS.abrev 24.4 KNOTS.abrev 20.3 KNOTS.abrev 17.1 KNOTS.abrev 406.51 nm
30/12/2015 21:42:00 UTC 30/12 21:42 UTC 17°35.75'S 35°30.83'W 4288.71 nm -1327.25 nm 0 17.4 KNOTS.abrev 18.6 KNOTS.abrev 20.2 KNOTS.abrev 16.9 KNOTS.abrev 408.21 nm
30/12/2015 21:40:00 UTC 30/12 21:40 UTC 17°36.37'S 35°30.83'W 4289.29 nm -1327.29 nm 1 22.0 KNOTS.abrev 23.4 KNOTS.abrev 20.2 KNOTS.abrev 16.9 KNOTS.abrev 407.60 nm
30/12/2015 21:20:00 UTC 30/12 21:20 UTC 17°44.16'S 35°31.01'W 4296.64 nm -1329.00 nm 360 22.2 KNOTS.abrev 23.7 KNOTS.abrev 19.8 KNOTS.abrev 16.7 KNOTS.abrev 401.65 nm
30/12/2015 21:11:00 UTC 30/12 21:11 UTC 17°47.71'S 35°30.99'W 4299.95 nm -1329.68 nm 6 16.0 KNOTS.abrev 16.6 KNOTS.abrev 19.7 KNOTS.abrev 16.6 KNOTS.abrev 399.70 nm
30/12/2015 21:10:00 UTC 30/12 21:10 UTC 17°47.99'S 35°31.02'W 4300.22 nm -1329.65 nm 359 21.6 KNOTS.abrev 23.3 KNOTS.abrev 19.7 KNOTS.abrev 16.6 KNOTS.abrev 399.43 nm
30/12/2015 21:00:00 UTC 30/12 21:00 UTC 17°51.86'S 35°30.96'W 4303.83 nm -1330.32 nm 1 21.2 KNOTS.abrev 22.6 KNOTS.abrev 19.5 KNOTS.abrev 16.6 KNOTS.abrev 397.27 nm
30/12/2015 20:50:00 UTC 30/12 20:50 UTC 17°55.62'S 35°31.01'W 4307.37 nm -1330.92 nm 358 20.9 KNOTS.abrev 22.7 KNOTS.abrev 19.4 KNOTS.abrev 16.5 KNOTS.abrev 395.17 nm
30/12/2015 20:40:00 UTC 30/12 20:40 UTC 17°59.39'S 35°30.89'W 4310.86 nm -1331.47 nm 358 20.8 KNOTS.abrev 22.5 KNOTS.abrev 19.3 KNOTS.abrev 16.4 KNOTS.abrev 392.61 nm
30/12/2015 20:40:00 UTC 30/12 20:40 UTC 17°59.39'S 35°30.89'W 4310.85 nm -1331.46 nm 321 0.0 KNOTS.abrev 0.0 KNOTS.abrev 19.3 KNOTS.abrev 16.4 KNOTS.abrev 392.62 nm
30/12/2015 20:30:00 UTC 30/12 20:30 UTC 18°03.14'S 35°30.76'W 4314.32 nm -1332.00 nm 0 21.3 KNOTS.abrev 22.7 KNOTS.abrev 19.1 KNOTS.abrev 16.3 KNOTS.abrev 390.14 nm
30/12/2015 20:20:00 UTC 30/12 20:20 UTC 18°06.92'S 35°30.78'W 4317.87 nm -1332.90 nm 1 21.3 KNOTS.abrev 22.6 KNOTS.abrev 19.0 KNOTS.abrev 16.2 KNOTS.abrev 387.94 nm
30/12/2015 20:10:00 UTC 30/12 20:10 UTC 18°10.68'S 35°30.88'W 4321.42 nm -1333.80 nm 1 11.5 KNOTS.abrev 12.2 KNOTS.abrev 19.0 KNOTS.abrev 16.1 KNOTS.abrev 385.73 nm
30/12/2015 20:09:00 UTC 30/12 20:09 UTC 18°10.88'S 35°30.88'W 4321.61 nm -1333.72 nm 360 21.4 KNOTS.abrev 22.8 KNOTS.abrev 19.1 KNOTS.abrev 16.1 KNOTS.abrev 385.53 nm
30/12/2015 19:50:00 UTC 30/12 19:50 UTC 18°18.10'S 35°30.82'W 4328.36 nm -1335.41 nm 0 19.5 KNOTS.abrev 20.8 KNOTS.abrev 18.8 KNOTS.abrev 15.9 KNOTS.abrev 381.39 nm
30/12/2015 19:38:00 UTC 30/12 19:38 UTC 18°22.26'S 35°30.84'W 4332.25 nm -1336.11 nm 360 18.6 KNOTS.abrev 19.8 KNOTS.abrev 19.1 KNOTS.abrev 15.8 KNOTS.abrev 378.79 nm
30/12/2015 19:30:00 UTC 30/12 19:30 UTC 18°24.90'S 35°30.83'W 4334.72 nm -1336.46 nm 356 16.7 KNOTS.abrev 18.4 KNOTS.abrev 19.1 KNOTS.abrev 15.7 KNOTS.abrev 376.96 nm
30/12/2015 19:20:00 UTC 30/12 19:20 UTC 18°27.96'S 35°30.63'W 4337.52 nm -1336.71 nm 351 15.7 KNOTS.abrev 18.1 KNOTS.abrev 19.1 KNOTS.abrev 15.6 KNOTS.abrev 374.89 nm
30/12/2015 19:10:00 UTC 30/12 19:10 UTC 18°30.93'S 35°30.12'W 4340.14 nm -1336.77 nm 352 11.5 KNOTS.abrev 13.1 KNOTS.abrev 19.3 KNOTS.abrev 15.5 KNOTS.abrev 373.10 nm
30/12/2015 19:07:00 UTC 30/12 19:07 UTC 18°31.58'S 35°30.02'W 4340.71 nm -1336.58 nm 343 14.4 KNOTS.abrev 18.1 KNOTS.abrev 19.4 KNOTS.abrev 15.6 KNOTS.abrev 372.44 nm
30/12/2015 19:00:00 UTC 30/12 19:00 UTC 18°33.60'S 35°29.35'W 4342.38 nm -1336.46 nm 347 13.6 KNOTS.abrev 16.3 KNOTS.abrev 19.5 KNOTS.abrev 15.5 KNOTS.abrev 371.34 nm
30/12/2015 18:50:00 UTC 30/12 18:50 UTC 18°36.25'S 35°28.72'W 4344.65 nm -1336.17 nm 349 12.9 KNOTS.abrev 15.1 KNOTS.abrev 19.6 KNOTS.abrev 15.4 KNOTS.abrev 369.72 nm
30/12/2015 18:40:00 UTC 30/12 18:40 UTC 18°38.71'S 35°28.19'W 4346.78 nm -1335.75 nm 351 14.8 KNOTS.abrev 17.1 KNOTS.abrev 19.7 KNOTS.abrev 15.3 KNOTS.abrev 369.54 nm
30/12/2015 18:37:00 UTC 30/12 18:37 UTC 18°39.56'S 35°28.06'W 4347.53 nm -1335.72 nm 353 14.6 KNOTS.abrev 16.4 KNOTS.abrev 19.7 KNOTS.abrev 15.3 KNOTS.abrev 368.69 nm
30/12/2015 18:30:00 UTC 30/12 18:30 UTC 18°41.46'S 35°27.82'W 4349.23 nm -1335.63 nm 353 16.2 KNOTS.abrev 18.3 KNOTS.abrev 19.7 KNOTS.abrev 15.3 KNOTS.abrev 366.78 nm
30/12/2015 18:20:00 UTC 30/12 18:20 UTC 18°44.49'S 35°27.41'W 4351.93 nm -1335.77 nm 354 17.6 KNOTS.abrev 19.6 KNOTS.abrev 19.7 KNOTS.abrev 15.2 KNOTS.abrev 364.95 nm
30/12/2015 18:10:00 UTC 30/12 18:10 UTC 18°47.74'S 35°27.07'W 4354.87 nm -1336.15 nm 353 16.5 KNOTS.abrev 18.6 KNOTS.abrev 19.6 KNOTS.abrev 15.1 KNOTS.abrev 362.96 nm
30/12/2015 18:06:00 UTC 30/12 18:06 UTC 18°48.98'S 35°26.92'W 4355.98 nm -1336.23 nm 352 16.6 KNOTS.abrev 18.9 KNOTS.abrev 19.7 KNOTS.abrev 15.1 KNOTS.abrev 361.72 nm
30/12/2015 17:35:00 UTC 30/12 17:35 UTC 18°58.66'S 35°25.49'W 4364.58 nm -1336.87 nm 352 16.6 KNOTS.abrev 18.9 KNOTS.abrev 19.4 KNOTS.abrev 14.8 KNOTS.abrev 357.32 nm
30/12/2015 17:05:00 UTC 30/12 17:05 UTC 19°07.99'S 35°24.03'W 4372.84 nm -1337.42 nm 353 17.3 KNOTS.abrev 19.5 KNOTS.abrev 19.1 KNOTS.abrev 14.6 KNOTS.abrev 351.58 nm
30/12/2015 16:33:00 UTC 30/12 16:33 UTC 19°18.32'S 35°22.62'W 4382.06 nm -1338.41 nm 353 18.2 KNOTS.abrev 20.5 KNOTS.abrev 18.7 KNOTS.abrev 14.4 KNOTS.abrev 343.71 nm
30/12/2015 16:01:00 UTC 30/12 16:01 UTC 19°29.14'S 35°21.24'W 4391.75 nm -1339.58 nm 351 19.4 KNOTS.abrev 22.2 KNOTS.abrev 17.9 KNOTS.abrev 14.1 KNOTS.abrev 337.57 nm
30/12/2015 15:30:00 UTC 30/12 15:30 UTC 19°40.48'S 35°19.43'W 4401.80 nm -1341.38 nm 355 18.6 KNOTS.abrev 20.5 KNOTS.abrev 16.7 KNOTS.abrev 13.7 KNOTS.abrev 329.66 nm
30/12/2015 15:00:00 UTC 30/12 15:00 UTC 19°50.57'S 35°18.51'W 4410.97 nm -1345.37 nm 350 16.8 KNOTS.abrev 19.4 KNOTS.abrev 15.8 KNOTS.abrev 13.5 KNOTS.abrev 323.24 nm
30/12/2015 15:00:00 UTC 30/12 15:00 UTC 19°50.71'S 35°18.49'W 4411.09 nm -1345.49 nm 173 0.0 KNOTS.abrev 0.0 KNOTS.abrev 15.7 KNOTS.abrev 13.5 KNOTS.abrev 323.11 nm
30/12/2015 14:50:00 UTC 30/12 14:50 UTC 19°53.76'S 35°17.90'W 4413.76 nm -1346.44 nm 349 15.2 KNOTS.abrev 17.7 KNOTS.abrev 15.6 KNOTS.abrev 13.4 KNOTS.abrev 321.31 nm
30/12/2015 14:40:00 UTC 30/12 14:40 UTC 19°56.66'S 35°17.29'W 4416.28 nm -1347.23 nm 347 14.5 KNOTS.abrev 17.4 KNOTS.abrev 15.4 KNOTS.abrev 13.3 KNOTS.abrev 319.79 nm
30/12/2015 14:30:00 UTC 30/12 14:30 UTC 19°59.48'S 35°16.59'W 4418.70 nm -1347.89 nm 345 14.4 KNOTS.abrev 17.7 KNOTS.abrev 15.3 KNOTS.abrev 13.3 KNOTS.abrev 318.29 nm
30/12/2015 14:26:00 UTC 30/12 14:26 UTC 20°00.62'S 35°16.27'W 4419.66 nm -1347.98 nm 348 15.8 KNOTS.abrev 18.6 KNOTS.abrev 15.3 KNOTS.abrev 13.3 KNOTS.abrev 317.13 nm
30/12/2015 14:10:00 UTC 30/12 14:10 UTC 20°05.48'S 35°15.20'W 4423.88 nm -1348.72 nm 347 14.5 KNOTS.abrev 17.3 KNOTS.abrev 15.2 KNOTS.abrev 13.1 KNOTS.abrev 315.92 nm
30/12/2015 14:00:00 UTC 30/12 14:00 UTC 20°08.29'S 35°14.53'W 4426.31 nm -1348.96 nm 345 14.3 KNOTS.abrev 17.5 KNOTS.abrev 15.3 KNOTS.abrev 13.0 KNOTS.abrev 313.07 nm
30/12/2015 13:55:00 UTC 30/12 13:55 UTC 20°09.70'S 35°14.12'W 4427.49 nm -1349.06 nm 344 13.6 KNOTS.abrev 16.9 KNOTS.abrev 15.5 KNOTS.abrev 13.0 KNOTS.abrev 312.96 nm
30/12/2015 13:50:00 UTC 30/12 13:50 UTC 20°11.05'S 35°13.70'W 4428.63 nm -1349.10 nm 340 13.5 KNOTS.abrev 17.6 KNOTS.abrev 15.5 KNOTS.abrev 13.0 KNOTS.abrev 311.59 nm
30/12/2015 13:40:00 UTC 30/12 13:40 UTC 20°13.82'S 35°12.64'W 4430.88 nm -1349.17 nm 348 16.0 KNOTS.abrev 18.9 KNOTS.abrev 15.5 KNOTS.abrev 12.9 KNOTS.abrev 310.12 nm
30/12/2015 13:30:00 UTC 30/12 13:30 UTC 20°16.89'S 35°11.96'W 4433.55 nm -1349.66 nm 341 11.4 KNOTS.abrev 14.7 KNOTS.abrev 15.5 KNOTS.abrev 12.8 KNOTS.abrev 308.07 nm
30/12/2015 13:24:00 UTC 30/12 13:24 UTC 20°18.28'S 35°11.43'W 4434.68 nm -1349.53 nm 342 12.1 KNOTS.abrev 15.4 KNOTS.abrev 15.6 KNOTS.abrev 12.8 KNOTS.abrev 307.99 nm
30/12/2015 13:20:00 UTC 30/12 13:20 UTC 20°19.26'S 35°11.10'W 4435.49 nm -1349.50 nm 350 15.7 KNOTS.abrev 18.1 KNOTS.abrev 15.6 KNOTS.abrev 12.8 KNOTS.abrev 307.00 nm
30/12/2015 13:10:00 UTC 30/12 13:10 UTC 20°22.23'S 35°10.53'W 4438.10 nm -1350.00 nm 351 14.5 KNOTS.abrev 16.6 KNOTS.abrev 15.5 KNOTS.abrev 12.7 KNOTS.abrev 305.39 nm
30/12/2015 13:00:00 UTC 30/12 13:00 UTC 20°24.96'S 35°10.08'W 4440.52 nm -1350.31 nm 349 12.0 KNOTS.abrev 14.0 KNOTS.abrev 15.4 KNOTS.abrev 12.7 KNOTS.abrev 302.64 nm
30/12/2015 12:54:00 UTC 30/12 12:54 UTC 20°26.34'S 35°09.78'W 4441.71 nm -1350.23 nm 345 12.8 KNOTS.abrev 15.7 KNOTS.abrev 15.5 KNOTS.abrev 12.6 KNOTS.abrev 304.26 nm
30/12/2015 12:50:00 UTC 30/12 12:50 UTC 20°27.34'S 35°09.49'W 4442.57 nm -1350.24 nm 344 14.0 KNOTS.abrev 17.3 KNOTS.abrev 15.5 KNOTS.abrev 12.6 KNOTS.abrev 303.25 nm
30/12/2015 12:40:00 UTC 30/12 12:40 UTC 20°30.11'S 35°08.65'W 4444.90 nm -1350.46 nm 347 14.0 KNOTS.abrev 16.7 KNOTS.abrev 15.5 KNOTS.abrev 12.6 KNOTS.abrev 302.03 nm
30/12/2015 12:30:00 UTC 30/12 12:30 UTC 20°32.82'S 35°07.97'W 4447.22 nm -1350.63 nm 354 15.0 KNOTS.abrev 16.8 KNOTS.abrev 15.4 KNOTS.abrev 12.5 KNOTS.abrev 302.85 nm
30/12/2015 12:24:00 UTC 30/12 12:24 UTC 20°34.49'S 35°07.77'W 4448.72 nm -1350.48 nm 351 11.3 KNOTS.abrev 13.0 KNOTS.abrev 15.5 KNOTS.abrev 12.5 KNOTS.abrev 301.18 nm
30/12/2015 12:20:00 UTC 30/12 12:20 UTC 20°35.34'S 35°07.63'W 4449.48 nm -1350.14 nm 349 11.0 KNOTS.abrev 12.9 KNOTS.abrev 15.5 KNOTS.abrev 12.5 KNOTS.abrev 300.33 nm
30/12/2015 12:10:00 UTC 30/12 12:10 UTC 20°37.44'S 35°07.20'W 4451.32 nm -1349.23 nm 347 11.0 KNOTS.abrev 13.1 KNOTS.abrev 15.8 KNOTS.abrev 12.5 KNOTS.abrev 300.19 nm
30/12/2015 12:00:00 UTC 30/12 12:00 UTC 20°39.57'S 35°06.66'W 4453.14 nm -1348.30 nm 346 11.9 KNOTS.abrev 14.4 KNOTS.abrev 16.1 KNOTS.abrev 12.5 KNOTS.abrev 299.96 nm
30/12/2015 11:54:00 UTC 30/12 11:54 UTC 20°40.96'S 35°06.27'W 4454.33 nm -1347.83 nm 347 8.8 KNOTS.abrev 10.5 KNOTS.abrev 16.3 KNOTS.abrev 12.4 KNOTS.abrev 299.40 nm
30/12/2015 11:50:00 UTC 30/12 11:50 UTC 20°41.64'S 35°06.10'W 4454.91 nm -1347.31 nm 342 9.8 KNOTS.abrev 12.4 KNOTS.abrev 16.4 KNOTS.abrev 12.4 KNOTS.abrev 298.72 nm
30/12/2015 11:40:00 UTC 30/12 11:40 UTC 20°43.61'S 35°05.42'W 4456.55 nm -1346.19 nm 344 10.6 KNOTS.abrev 13.1 KNOTS.abrev 16.7 KNOTS.abrev 12.4 KNOTS.abrev 298.01 nm
30/12/2015 11:30:00 UTC 30/12 11:30 UTC 20°45.70'S 35°04.78'W 4458.31 nm -1345.21 nm 344 10.6 KNOTS.abrev 13.1 KNOTS.abrev 17.1 KNOTS.abrev 12.4 KNOTS.abrev 296.85 nm
30/12/2015 11:23:00 UTC 30/12 11:23 UTC 20°47.17'S 35°04.33'W 4459.54 nm -1344.60 nm 346 9.9 KNOTS.abrev 12.0 KNOTS.abrev 17.4 KNOTS.abrev 12.4 KNOTS.abrev 295.38 nm
30/12/2015 11:20:00 UTC 30/12 11:20 UTC 20°47.75'S 35°04.18'W 4460.04 nm -1344.30 nm 346 10.0 KNOTS.abrev 12.0 KNOTS.abrev 17.4 KNOTS.abrev 12.3 KNOTS.abrev 297.44 nm
30/12/2015 11:10:00 UTC 30/12 11:10 UTC 20°49.69'S 35°03.64'W 4461.69 nm -1343.32 nm 345 11.5 KNOTS.abrev 14.0 KNOTS.abrev 17.8 KNOTS.abrev 12.3 KNOTS.abrev 295.49 nm
30/12/2015 11:00:00 UTC 30/12 11:00 UTC 20°51.94'S 35°02.99'W 4463.60 nm -1342.60 nm 354 12.9 KNOTS.abrev 14.4 KNOTS.abrev 18.1 KNOTS.abrev 12.3 KNOTS.abrev 294.58 nm
30/12/2015 10:51:00 UTC 30/12 10:51 UTC 20°54.09'S 35°02.74'W 4465.53 nm -1342.16 nm 348 12.5 KNOTS.abrev 14.7 KNOTS.abrev 18.2 KNOTS.abrev 12.3 KNOTS.abrev 292.43 nm
30/12/2015 10:30:00 UTC 30/12 10:30 UTC 20°59.14'S 35°01.64'W 4469.93 nm -1341.00 nm 352 13.7 KNOTS.abrev 15.6 KNOTS.abrev 18.7 KNOTS.abrev 12.2 KNOTS.abrev 292.34 nm
30/12/2015 10:21:00 UTC 30/12 10:21 UTC 21°01.44'S 35°01.27'W 4471.99 nm -1340.34 nm 353 14.9 KNOTS.abrev 16.7 KNOTS.abrev 18.8 KNOTS.abrev 12.2 KNOTS.abrev 291.85 nm
30/12/2015 10:20:00 UTC 30/12 10:20 UTC 21°01.72'S 35°01.23'W 4472.23 nm -1340.28 nm 351 15.3 KNOTS.abrev 17.5 KNOTS.abrev 18.8 KNOTS.abrev 12.1 KNOTS.abrev 291.57 nm
30/12/2015 10:10:00 UTC 30/12 10:10 UTC 21°04.60'S 35°00.74'W 4474.79 nm -1339.82 nm 349 18.0 KNOTS.abrev 20.9 KNOTS.abrev 18.9 KNOTS.abrev 12.1 KNOTS.abrev 290.16 nm
30/12/2015 10:00:00 UTC 30/12 10:00 UTC 21°08.03'S 35°00.06'W 4477.80 nm -1339.80 nm 352 18.9 KNOTS.abrev 21.4 KNOTS.abrev 18.7 KNOTS.abrev 12.0 KNOTS.abrev 288.28 nm
30/12/2015 09:50:00 UTC 30/12 09:50 UTC 21°11.57'S 34°59.55'W 4480.96 nm -1339.95 nm 347 15.3 KNOTS.abrev 18.2 KNOTS.abrev 18.7 KNOTS.abrev 11.9 KNOTS.abrev 288.67 nm
30/12/2015 09:40:00 UTC 30/12 09:40 UTC 21°14.52'S 34°58.83'W 4483.51 nm -1339.48 nm 349 14.9 KNOTS.abrev 17.3 KNOTS.abrev 18.8 KNOTS.abrev 11.9 KNOTS.abrev 285.72 nm
30/12/2015 09:20:00 UTC 30/12 09:20 UTC 21°20.17'S 34°57.60'W 4488.44 nm -1337.90 nm 348 13.8 KNOTS.abrev 16.3 KNOTS.abrev 18.7 KNOTS.abrev 11.8 KNOTS.abrev 284.38 nm
30/12/2015 09:20:00 UTC 30/12 09:20 UTC 21°20.27'S 34°57.57'W 4488.53 nm -1337.99 nm 169 0.0 KNOTS.abrev 0.0 KNOTS.abrev 18.6 KNOTS.abrev 11.8 KNOTS.abrev 284.28 nm
30/12/2015 09:10:00 UTC 30/12 09:10 UTC 21°22.82'S 34°56.99'W 4490.74 nm -1336.75 nm 348 13.3 KNOTS.abrev 15.7 KNOTS.abrev 18.8 KNOTS.abrev 11.8 KNOTS.abrev 283.85 nm
30/12/2015 09:00:00 UTC 30/12 09:00 UTC 21°25.38'S 34°56.40'W 4492.96 nm -1335.52 nm 345 13.8 KNOTS.abrev 16.8 KNOTS.abrev 19.0 KNOTS.abrev 11.8 KNOTS.abrev 283.56 nm
30/12/2015 08:50:00 UTC 30/12 08:50 UTC 21°28.07'S 34°55.60'W 4495.24 nm -1334.35 nm 349 10.7 KNOTS.abrev 12.5 KNOTS.abrev 19.3 KNOTS.abrev 11.8 KNOTS.abrev 283.23 nm
30/12/2015 08:48:00 UTC 30/12 08:48 UTC 21°28.48'S 34°55.52'W 4495.60 nm -1334.02 nm 346 13.3 KNOTS.abrev 16.0 KNOTS.abrev 19.4 KNOTS.abrev 11.8 KNOTS.abrev 282.83 nm
30/12/2015 08:40:00 UTC 30/12 08:40 UTC 21°30.55'S 34°54.98'W 4497.38 nm -1333.04 nm 346 13.2 KNOTS.abrev 15.8 KNOTS.abrev 19.5 KNOTS.abrev 11.8 KNOTS.abrev 283.22 nm
30/12/2015 08:30:00 UTC 30/12 08:30 UTC 21°33.11'S 34°54.28'W 4499.57 nm -1331.82 nm 340 13.7 KNOTS.abrev 17.8 KNOTS.abrev 19.4 KNOTS.abrev 11.8 KNOTS.abrev 283.14 nm
30/12/2015 08:20:00 UTC 30/12 08:20 UTC 21°35.90'S 34°53.21'W 4501.85 nm -1331.35 nm 342 13.4 KNOTS.abrev 17.0 KNOTS.abrev 19.5 KNOTS.abrev 11.8 KNOTS.abrev 282.75 nm
30/12/2015 08:18:00 UTC 30/12 08:18 UTC 21°36.43'S 34°53.02'W 4502.30 nm -1331.25 nm 346 16.4 KNOTS.abrev 19.8 KNOTS.abrev 19.5 KNOTS.abrev 11.8 KNOTS.abrev 282.23 nm
30/12/2015 08:10:00 UTC 30/12 08:10 UTC 21°38.99'S 34°52.34'W 4504.50 nm -1331.24 nm 347 16.8 KNOTS.abrev 19.9 KNOTS.abrev 19.1 KNOTS.abrev 11.8 KNOTS.abrev 284.51 nm
30/12/2015 08:00:00 UTC 30/12 08:00 UTC 21°42.22'S 34°51.52'W 4507.28 nm -1331.26 nm 346 16.6 KNOTS.abrev 20.0 KNOTS.abrev 18.5 KNOTS.abrev 11.7 KNOTS.abrev 281.36 nm
30/12/2015 07:50:00 UTC 30/12 07:50 UTC 21°45.46'S 34°50.67'W 4510.06 nm -1331.28 nm 351 16.4 KNOTS.abrev 18.7 KNOTS.abrev 18.0 KNOTS.abrev 11.7 KNOTS.abrev 280.65 nm
30/12/2015 07:48:00 UTC 30/12 07:48 UTC 21°46.08'S 34°50.57'W 4510.61 nm -1331.28 nm 349 19.1 KNOTS.abrev 22.2 KNOTS.abrev 18.0 KNOTS.abrev 11.7 KNOTS.abrev 280.05 nm
30/12/2015 07:40:00 UTC 30/12 07:40 UTC 21°48.98'S 34°49.96'W 4513.15 nm -1331.62 nm 348 18.2 KNOTS.abrev 21.3 KNOTS.abrev 17.3 KNOTS.abrev 11.7 KNOTS.abrev 279.78 nm
30/12/2015 07:30:00 UTC 30/12 07:30 UTC 21°52.46'S 34°49.19'W 4516.19 nm -1331.80 nm 350 18.2 KNOTS.abrev 20.9 KNOTS.abrev 16.8 KNOTS.abrev 11.7 KNOTS.abrev 281.57 nm
30/12/2015 07:20:00 UTC 30/12 07:20 UTC 21°55.89'S 34°48.51'W 4519.21 nm -1330.70 nm 349 16.5 KNOTS.abrev 19.2 KNOTS.abrev 16.9 KNOTS.abrev 11.6 KNOTS.abrev 278.25 nm
30/12/2015 07:18:00 UTC 30/12 07:18 UTC 21°56.52'S 34°48.38'W 4519.76 nm -1330.43 nm 350 17.9 KNOTS.abrev 20.6 KNOTS.abrev 16.8 KNOTS.abrev 11.6 KNOTS.abrev 277.64 nm
30/12/2015 07:10:00 UTC 30/12 07:10 UTC 21°59.22'S 34°47.86'W 4522.15 nm -1329.52 nm 354 17.8 KNOTS.abrev 19.8 KNOTS.abrev 16.6 KNOTS.abrev 11.6 KNOTS.abrev 277.59 nm
30/12/2015 06:50:00 UTC 30/12 06:50 UTC 22°05.77'S 34°47.18'W 4528.11 nm -1327.23 nm 349 16.4 KNOTS.abrev 19.1 KNOTS.abrev 16.1 KNOTS.abrev 11.5 KNOTS.abrev 276.38 nm
30/12/2015 06:48:00 UTC 30/12 06:48 UTC 22°06.39'S 34°47.05'W 4528.66 nm -1326.96 nm 352 18.5 KNOTS.abrev 20.9 KNOTS.abrev 16.1 KNOTS.abrev 11.5 KNOTS.abrev 275.78 nm
30/12/2015 06:40:00 UTC 30/12 06:40 UTC 22°09.15'S 34°46.66'W 4531.13 nm -1326.13 nm 350 17.8 KNOTS.abrev 20.5 KNOTS.abrev 15.9 KNOTS.abrev 11.5 KNOTS.abrev 275.67 nm
30/12/2015 06:30:00 UTC 30/12 06:30 UTC 22°12.51'S 34°46.03'W 4534.10 nm -1324.94 nm 353 16.5 KNOTS.abrev 18.4 KNOTS.abrev 15.6 KNOTS.abrev 11.5 KNOTS.abrev 275.10 nm
30/12/2015 06:20:00 UTC 30/12 06:20 UTC 22°15.55'S 34°45.62'W 4536.84 nm -1322.97 nm 352 15.4 KNOTS.abrev 17.4 KNOTS.abrev 15.4 KNOTS.abrev 11.5 KNOTS.abrev 277.35 nm
30/12/2015 06:13:00 UTC 30/12 06:13 UTC 22°17.56'S 34°45.33'W 4538.64 nm -1321.48 nm 352 18.3 KNOTS.abrev 20.7 KNOTS.abrev 15.2 KNOTS.abrev 11.5 KNOTS.abrev 275.42 nm
30/12/2015 06:10:00 UTC 30/12 06:10 UTC 22°18.58'S 34°45.18'W 4539.56 nm -1320.98 nm 350 15.7 KNOTS.abrev 18.1 KNOTS.abrev 15.1 KNOTS.abrev 11.4 KNOTS.abrev 274.44 nm
30/12/2015 06:00:00 UTC 30/12 06:00 UTC 22°21.54'S 34°44.60'W 4542.17 nm -1318.89 nm 349 16.6 KNOTS.abrev 19.3 KNOTS.abrev 15.0 KNOTS.abrev 11.4 KNOTS.abrev 273.66 nm
30/12/2015 05:50:00 UTC 30/12 05:50 UTC 22°24.70'S 34°43.97'W 4544.95 nm -1316.96 nm 344 17.6 KNOTS.abrev 21.6 KNOTS.abrev 14.7 KNOTS.abrev 11.4 KNOTS.abrev 274.05 nm
30/12/2015 05:43:00 UTC 30/12 05:43 UTC 22°27.12'S 34°43.21'W 4547.00 nm -1315.71 nm 347 18.3 KNOTS.abrev 21.8 KNOTS.abrev 14.9 KNOTS.abrev 11.4 KNOTS.abrev 274.58 nm
30/12/2015 05:40:00 UTC 30/12 05:40 UTC 22°28.18'S 34°42.95'W 4547.92 nm -1315.21 nm 352 15.2 KNOTS.abrev 17.2 KNOTS.abrev 14.8 KNOTS.abrev 11.4 KNOTS.abrev 273.60 nm
30/12/2015 05:30:00 UTC 30/12 05:30 UTC 22°31.02'S 34°42.50'W 4550.46 nm -1313.02 nm 13 15.5 KNOTS.abrev 15.6 KNOTS.abrev 14.7 KNOTS.abrev 11.4 KNOTS.abrev 273.55 nm
30/12/2015 05:20:00 UTC 30/12 05:20 UTC 22°33.55'S 34°43.13'W 4553.04 nm -1310.56 nm 358 17.3 KNOTS.abrev 18.6 KNOTS.abrev 14.6 KNOTS.abrev 11.4 KNOTS.abrev 273.77 nm
30/12/2015 05:11:00 UTC 30/12 05:11 UTC 22°36.34'S 34°43.01'W 4555.63 nm -1308.61 nm 3 21.8 KNOTS.abrev 22.7 KNOTS.abrev 14.4 KNOTS.abrev 11.4 KNOTS.abrev 273.87 nm
30/12/2015 05:10:00 UTC 30/12 05:10 UTC 22°36.72'S 34°43.03'W 4556.00 nm -1308.46 nm 6 21.6 KNOTS.abrev 22.2 KNOTS.abrev 14.4 KNOTS.abrev 11.4 KNOTS.abrev 273.50 nm
30/12/2015 05:00:00 UTC 30/12 05:00 UTC 22°40.41'S 34°43.41'W 4559.59 nm -1307.01 nm 358 22.9 KNOTS.abrev 24.6 KNOTS.abrev 14.1 KNOTS.abrev 11.4 KNOTS.abrev 272.83 nm
30/12/2015 04:50:00 UTC 30/12 04:50 UTC 22°44.50'S 34°43.22'W 4563.39 nm -1305.76 nm 353 19.6 KNOTS.abrev 21.9 KNOTS.abrev 13.6 KNOTS.abrev 11.3 KNOTS.abrev 271.80 nm
30/12/2015 04:41:00 UTC 30/12 04:41 UTC 22°47.77'S 34°42.80'W 4566.34 nm -1304.17 nm 17 7.1 KNOTS.abrev 7.1 KNOTS.abrev 13.2 KNOTS.abrev 11.3 KNOTS.abrev 271.56 nm
30/12/2015 04:40:00 UTC 30/12 04:40 UTC 22°47.88'S 34°42.84'W 4566.46 nm -1303.78 nm 2 12.4 KNOTS.abrev 13.0 KNOTS.abrev 13.3 KNOTS.abrev 11.3 KNOTS.abrev 271.44 nm
30/12/2015 04:30:00 UTC 30/12 04:30 UTC 22°50.04'S 34°42.93'W 4568.53 nm -1300.82 nm 337 14.8 KNOTS.abrev 20.1 KNOTS.abrev 13.3 KNOTS.abrev 11.3 KNOTS.abrev 271.94 nm
30/12/2015 04:20:00 UTC 30/12 04:20 UTC 22°53.13'S 34°41.53'W 4571.02 nm -1298.63 nm 340 6.6 KNOTS.abrev 8.5 KNOTS.abrev 13.0 KNOTS.abrev 11.3 KNOTS.abrev 272.24 nm
30/12/2015 04:10:00 UTC 30/12 04:10 UTC 22°54.47'S 34°41.01'W 4572.12 nm -1295.04 nm 327 7.0 KNOTS.abrev 11.5 KNOTS.abrev 13.2 KNOTS.abrev 11.5 KNOTS.abrev 276.80 nm
30/12/2015 04:08:00 UTC 30/12 04:08 UTC 22°54.79'S 34°40.78'W 4572.35 nm -1294.34 nm 308 2.9 KNOTS.abrev 9.2 KNOTS.abrev 13.2 KNOTS.abrev 11.5 KNOTS.abrev 276.55 nm
30/12/2015 04:00:00 UTC 30/12 04:00 UTC 22°55.54'S 34°39.74'W 4572.74 nm -1290.98 nm 313 3.2 KNOTS.abrev 7.9 KNOTS.abrev 13.5 KNOTS.abrev 11.5 KNOTS.abrev 276.09 nm
30/12/2015 03:50:00 UTC 30/12 03:50 UTC 22°56.44'S 34°38.69'W 4573.26 nm -1286.81 nm 299 1.3 KNOTS.abrev 7.7 KNOTS.abrev 13.8 KNOTS.abrev 11.6 KNOTS.abrev 278.40 nm
30/12/2015 03:40:00 UTC 30/12 03:40 UTC 22°57.07'S 34°37.47'W 4573.49 nm -1282.34 nm 300 2.0 KNOTS.abrev 10.7 KNOTS.abrev 14.2 KNOTS.abrev 11.7 KNOTS.abrev 281.13 nm
30/12/2015 03:38:00 UTC 30/12 03:38 UTC 22°57.25'S 34°37.14'W 4573.55 nm -1281.47 nm 336 7.5 KNOTS.abrev 10.4 KNOTS.abrev 14.3 KNOTS.abrev 11.7 KNOTS.abrev 281.04 nm
30/12/2015 03:30:00 UTC 30/12 03:30 UTC 22°58.51'S 34°36.53'W 4574.55 nm -1278.77 nm 10 23.8 KNOTS.abrev 24.1 KNOTS.abrev 14.4 KNOTS.abrev 11.8 KNOTS.abrev 282.95 nm
30/12/2015 03:20:00 UTC 30/12 03:20 UTC 23°02.46'S 34°37.32'W 4578.53 nm -1278.78 nm 357 13.1 KNOTS.abrev 14.2 KNOTS.abrev 14.0 KNOTS.abrev 11.8 KNOTS.abrev 282.02 nm
30/12/2015 03:10:00 UTC 30/12 03:10 UTC 23°04.82'S 34°37.18'W 4580.71 nm -1276.99 nm 4 10.3 KNOTS.abrev 10.7 KNOTS.abrev 14.0 KNOTS.abrev 11.8 KNOTS.abrev 282.85 nm
30/12/2015 03:07:00 UTC 30/12 03:07 UTC 23°05.35'S 34°37.22'W 4581.23 nm -1276.32 nm 356 14.9 KNOTS.abrev 16.2 KNOTS.abrev 14.0 KNOTS.abrev 11.8 KNOTS.abrev 282.33 nm
30/12/2015 03:00:00 UTC 30/12 03:00 UTC 23°07.24'S 34°37.08'W 4582.96 nm -1275.28 nm 354 12.3 KNOTS.abrev 13.7 KNOTS.abrev 14.0 KNOTS.abrev 11.8 KNOTS.abrev 283.52 nm
30/12/2015 02:50:00 UTC 30/12 02:50 UTC 23°09.50'S 34°36.81'W 4585.02 nm -1273.36 nm 355 13.6 KNOTS.abrev 14.9 KNOTS.abrev 14.0 KNOTS.abrev 11.8 KNOTS.abrev 284.36 nm
30/12/2015 02:40:00 UTC 30/12 02:40 UTC 23°11.97'S 34°36.55'W 4587.27 nm -1271.64 nm 358 10.5 KNOTS.abrev 11.3 KNOTS.abrev 13.9 KNOTS.abrev 11.9 KNOTS.abrev 284.91 nm
30/12/2015 02:36:00 UTC 30/12 02:36 UTC 23°12.72'S 34°36.52'W 4587.97 nm -1270.75 nm 358 12.9 KNOTS.abrev 13.8 KNOTS.abrev 14.0 KNOTS.abrev 11.9 KNOTS.abrev 284.76 nm
30/12/2015 02:20:00 UTC 30/12 02:20 UTC 23°16.40'S 34°36.38'W 4591.39 nm -1267.57 nm 353 11.6 KNOTS.abrev 13.0 KNOTS.abrev 13.8 KNOTS.abrev 11.9 KNOTS.abrev 288.72 nm
30/12/2015 02:06:00 UTC 30/12 02:06 UTC 23°19.40'S 34°35.99'W 4594.11 nm -1264.41 nm 350 13.4 KNOTS.abrev 15.3 KNOTS.abrev 13.8 KNOTS.abrev 12.0 KNOTS.abrev 287.01 nm
30/12/2015 02:00:00 UTC 30/12 02:00 UTC 23°20.91'S 34°35.70'W 4595.45 nm -1263.23 nm 359 11.9 KNOTS.abrev 12.7 KNOTS.abrev 13.6 KNOTS.abrev 12.0 KNOTS.abrev 287.38 nm
30/12/2015 01:50:00 UTC 30/12 01:50 UTC 23°23.03'S 34°35.66'W 4597.44 nm -1261.01 nm 3 23.0 KNOTS.abrev 23.9 KNOTS.abrev 13.6 KNOTS.abrev 12.0 KNOTS.abrev 288.21 nm
30/12/2015 01:40:00 UTC 30/12 01:40 UTC 23°27.01'S 34°35.88'W 4601.26 nm -1260.63 nm 350 12.9 KNOTS.abrev 14.8 KNOTS.abrev 12.9 KNOTS.abrev 12.0 KNOTS.abrev 287.17 nm
30/12/2015 01:36:00 UTC 30/12 01:36 UTC 23°27.98'S 34°35.68'W 4602.12 nm -1259.81 nm 349 11.8 KNOTS.abrev 13.7 KNOTS.abrev 12.8 KNOTS.abrev 12.0 KNOTS.abrev 287.53 nm
30/12/2015 01:30:00 UTC 30/12 01:30 UTC 23°29.33'S 34°35.41'W 4603.31 nm -1258.47 nm 349 11.6 KNOTS.abrev 13.4 KNOTS.abrev 12.8 KNOTS.abrev 12.0 KNOTS.abrev 287.92 nm
30/12/2015 01:10:00 UTC 30/12 01:10 UTC 23°33.73'S 34°34.51'W 4607.19 nm -1253.60 nm 349 11.5 KNOTS.abrev 13.3 KNOTS.abrev 12.5 KNOTS.abrev 12.1 KNOTS.abrev 289.62 nm
30/12/2015 01:03:00 UTC 30/12 01:03 UTC 23°35.25'S 34°34.18'W 4608.52 nm -1251.76 nm 347 10.9 KNOTS.abrev 12.9 KNOTS.abrev 12.4 KNOTS.abrev 12.1 KNOTS.abrev 289.62 nm
30/12/2015 00:50:00 UTC 30/12 00:50 UTC 23°37.97'S 34°33.50'W 4610.89 nm -1248.22 nm 349 11.4 KNOTS.abrev 13.2 KNOTS.abrev 12.3 KNOTS.abrev 12.1 KNOTS.abrev 289.91 nm
30/12/2015 00:40:00 UTC 30/12 00:40 UTC 23°40.12'S 34°33.03'W 4612.78 nm -1245.58 nm 345 10.2 KNOTS.abrev 12.3 KNOTS.abrev 12.1 KNOTS.abrev 12.1 KNOTS.abrev 290.94 nm
30/12/2015 00:33:00 UTC 30/12 00:33 UTC 23°41.51'S 34°32.63'W 4613.97 nm -1243.60 nm 345 11.8 KNOTS.abrev 14.3 KNOTS.abrev 11.9 KNOTS.abrev 12.2 KNOTS.abrev 292.51 nm
30/12/2015 00:30:00 UTC 30/12 00:30 UTC 23°42.20'S 34°32.42'W 4614.56 nm -1242.81 nm 346 10.5 KNOTS.abrev 12.6 KNOTS.abrev 11.9 KNOTS.abrev 12.2 KNOTS.abrev 291.97 nm
30/12/2015 00:20:00 UTC 30/12 00:20 UTC 23°44.24'S 34°31.87'W 4616.32 nm -1239.83 nm 350 12.2 KNOTS.abrev 14.0 KNOTS.abrev 11.8 KNOTS.abrev 12.2 KNOTS.abrev 293.00 nm
30/12/2015 00:10:00 UTC 30/12 00:10 UTC 23°46.53'S 34°31.41'W 4618.34 nm -1237.11 nm 348 11.3 KNOTS.abrev 13.2 KNOTS.abrev 11.6 KNOTS.abrev 12.2 KNOTS.abrev 293.60 nm
30/12/2015 00:03:00 UTC 30/12 00:03 UTC 23°48.04'S 34°31.06'W 4619.66 nm -1235.11 nm 341 11.6 KNOTS.abrev 14.8 KNOTS.abrev 11.5 KNOTS.abrev 12.3 KNOTS.abrev 294.85 nm
29/12/2015 23:33:00 UTC 29/12 23:33 UTC 23°55.03'S 34°28.40'W 4625.47 nm -1226.69 nm 341 9.8 KNOTS.abrev 12.5 KNOTS.abrev 10.6 KNOTS.abrev 12.4 KNOTS.abrev 297.22 nm
29/12/2015 23:30:00 UTC 29/12 23:30 UTC 23°55.62'S 34°28.17'W 4625.96 nm -1225.75 nm 342 10.3 KNOTS.abrev 12.9 KNOTS.abrev 10.6 KNOTS.abrev 12.4 KNOTS.abrev 296.80 nm
29/12/2015 23:20:00 UTC 29/12 23:20 UTC 23°57.67'S 34°27.45'W 4627.68 nm -1222.78 nm 342 11.5 KNOTS.abrev 14.4 KNOTS.abrev 10.2 KNOTS.abrev 12.4 KNOTS.abrev 297.64 nm
29/12/2015 23:10:00 UTC 29/12 23:10 UTC 23°59.95'S 34°26.64'W 4629.58 nm -1220.00 nm 339 11.5 KNOTS.abrev 15.0 KNOTS.abrev 9.8 KNOTS.abrev 12.4 KNOTS.abrev 298.35 nm
29/12/2015 23:02:00 UTC 29/12 23:02 UTC 24°01.82'S 34°25.87'W 4631.12 nm -1217.78 nm 342 12.3 KNOTS.abrev 15.4 KNOTS.abrev 9.4 KNOTS.abrev 12.5 KNOTS.abrev 299.39 nm
29/12/2015 23:00:00 UTC 29/12 23:00 UTC 24°02.31'S 34°25.70'W 4631.53 nm -1217.26 nm 341 10.5 KNOTS.abrev 13.3 KNOTS.abrev 9.4 KNOTS.abrev 12.5 KNOTS.abrev 299.04 nm
29/12/2015 22:50:00 UTC 29/12 22:50 UTC 24°04.40'S 34°24.90'W 4633.27 nm -1214.30 nm 340 9.9 KNOTS.abrev 12.8 KNOTS.abrev 9.0 KNOTS.abrev 12.5 KNOTS.abrev 300.02 nm
29/12/2015 22:40:00 UTC 29/12 22:40 UTC 24°06.41'S 34°24.11'W 4634.93 nm -1211.27 nm 336 9.9 KNOTS.abrev 13.6 KNOTS.abrev 8.7 KNOTS.abrev 12.5 KNOTS.abrev 301.07 nm
29/12/2015 22:30:00 UTC 29/12 22:30 UTC 24°08.47'S 34°23.09'W 4636.57 nm -1208.21 nm 333 8.0 KNOTS.abrev 11.5 KNOTS.abrev 8.5 KNOTS.abrev 12.6 KNOTS.abrev 303.99 nm
29/12/2015 22:20:00 UTC 29/12 22:20 UTC 24°10.18'S 34°22.14'W 4637.91 nm -1204.81 nm 327 7.2 KNOTS.abrev 11.7 KNOTS.abrev 8.4 KNOTS.abrev 12.6 KNOTS.abrev 302.95 nm
29/12/2015 22:10:00 UTC 29/12 22:10 UTC 24°11.82'S 34°20.98'W 4639.12 nm -1201.27 nm 345 8.2 KNOTS.abrev 10.0 KNOTS.abrev 8.4 KNOTS.abrev 12.6 KNOTS.abrev 303.48 nm
29/12/2015 22:00:00 UTC 29/12 22:00 UTC 24°13.42'S 34°20.50'W 4640.49 nm -1197.89 nm 333 7.1 KNOTS.abrev 10.2 KNOTS.abrev 8.4 KNOTS.abrev 12.7 KNOTS.abrev 304.15 nm
29/12/2015 21:30:00 UTC 29/12 21:30 UTC 24°17.99'S 34°17.96'W 4644.05 nm -1187.23 nm 337 6.4 KNOTS.abrev 8.7 KNOTS.abrev 8.9 KNOTS.abrev 12.9 KNOTS.abrev 308.46 nm
29/12/2015 21:29:00 UTC 29/12 21:29 UTC 24°18.12'S 34°17.90'W 4644.16 nm -1186.91 nm 337 7.9 KNOTS.abrev 10.7 KNOTS.abrev 8.9 KNOTS.abrev 12.9 KNOTS.abrev 308.37 nm
29/12/2015 21:20:00 UTC 29/12 21:20 UTC 24°19.59'S 34°17.20'W 4645.34 nm -1184.18 nm 342 7.5 KNOTS.abrev 9.4 KNOTS.abrev 9.0 KNOTS.abrev 12.9 KNOTS.abrev 308.70 nm
29/12/2015 21:10:00 UTC 29/12 21:10 UTC 24°21.08'S 34°16.67'W 4646.59 nm -1181.10 nm 335 7.4 KNOTS.abrev 10.4 KNOTS.abrev 9.2 KNOTS.abrev 12.8 KNOTS.abrev 307.53 nm
29/12/2015 21:00:00 UTC 29/12 21:00 UTC 24°22.65'S 34°15.87'W 4647.83 nm -1178.00 nm 328 7.6 KNOTS.abrev 12.0 KNOTS.abrev 9.3 KNOTS.abrev 12.8 KNOTS.abrev 306.42 nm
29/12/2015 20:59:00 UTC 29/12 20:59 UTC 24°22.82'S 34°15.76'W 4647.96 nm -1177.69 nm 329 6.4 KNOTS.abrev 10.0 KNOTS.abrev 9.4 KNOTS.abrev 12.8 KNOTS.abrev 306.33 nm
29/12/2015 20:50:00 UTC 29/12 20:50 UTC 24°24.11'S 34°14.92'W 4648.93 nm -1174.76 nm 316 3.8 KNOTS.abrev 8.5 KNOTS.abrev 9.7 KNOTS.abrev 12.7 KNOTS.abrev 305.54 nm
29/12/2015 20:40:00 UTC 29/12 20:40 UTC 24°25.12'S 34°13.83'W 4649.57 nm -1171.05 nm 319 4.3 KNOTS.abrev 8.6 KNOTS.abrev 10.1 KNOTS.abrev 12.7 KNOTS.abrev 305.03 nm
29/12/2015 20:30:00 UTC 29/12 20:30 UTC 24°26.20'S 34°12.80'W 4650.28 nm -1167.44 nm 333 5.8 KNOTS.abrev 8.3 KNOTS.abrev 10.5 KNOTS.abrev 12.7 KNOTS.abrev 304.49 nm
29/12/2015 20:28:00 UTC 29/12 20:28 UTC 24°26.44'S 34°12.66'W 4650.47 nm -1166.80 nm 325 6.0 KNOTS.abrev 10.2 KNOTS.abrev 10.5 KNOTS.abrev 12.7 KNOTS.abrev 304.34 nm
29/12/2015 20:20:00 UTC 29/12 20:20 UTC 24°27.56'S 34°11.80'W 4651.28 nm -1164.29 nm 322 5.4 KNOTS.abrev 9.8 KNOTS.abrev 10.8 KNOTS.abrev 12.7 KNOTS.abrev 303.73 nm
29/12/2015 20:10:00 UTC 29/12 20:10 UTC 24°28.86'S 34°10.70'W 4652.18 nm -1161.05 nm 321 5.4 KNOTS.abrev 10.2 KNOTS.abrev 11.0 KNOTS.abrev 12.6 KNOTS.abrev 303.24 nm
29/12/2015 20:00:00 UTC 29/12 20:00 UTC 24°30.17'S 34°09.53'W 4653.08 nm -1157.80 nm 312 4.1 KNOTS.abrev 10.5 KNOTS.abrev 11.4 KNOTS.abrev 12.6 KNOTS.abrev 302.75 nm
29/12/2015 19:58:00 UTC 29/12 19:58 UTC 24°30.41'S 34°09.25'W 4653.22 nm -1157.11 nm 316 4.7 KNOTS.abrev 10.3 KNOTS.abrev 11.5 KNOTS.abrev 12.6 KNOTS.abrev 302.68 nm
29/12/2015 19:50:00 UTC 29/12 19:50 UTC 24°31.40'S 34°08.20'W 4653.85 nm -1154.43 nm 315 4.6 KNOTS.abrev 10.6 KNOTS.abrev 11.8 KNOTS.abrev 12.6 KNOTS.abrev 302.25 nm
29/12/2015 19:40:00 UTC 29/12 19:40 UTC 24°32.64'S 34°06.82'W 4654.61 nm -1151.04 nm 47 7.8 KNOTS.abrev 8.9 KNOTS.abrev 12.3 KNOTS.abrev 12.6 KNOTS.abrev 302.15 nm
29/12/2015 19:30:00 UTC 29/12 19:30 UTC 24°33.65'S 34°08.00'W 4655.92 nm -1148.20 nm 48 9.0 KNOTS.abrev 10.3 KNOTS.abrev 12.5 KNOTS.abrev 12.6 KNOTS.abrev 301.96 nm
29/12/2015 19:28:00 UTC 29/12 19:28 UTC 24°33.88'S 34°08.28'W 4656.22 nm -1147.64 nm 48 10.4 KNOTS.abrev 11.9 KNOTS.abrev 12.5 KNOTS.abrev 12.6 KNOTS.abrev 301.63 nm
29/12/2015 19:20:00 UTC 29/12 19:20 UTC 24°34.94'S 34°09.59'W 4657.61 nm -1145.60 nm 41 11.3 KNOTS.abrev 12.2 KNOTS.abrev 12.5 KNOTS.abrev 12.6 KNOTS.abrev 303.39 nm
29/12/2015 19:10:00 UTC 29/12 19:10 UTC 24°36.47'S 34°11.06'W 4659.49 nm -1143.20 nm 48 10.5 KNOTS.abrev 12.0 KNOTS.abrev 12.6 KNOTS.abrev 12.7 KNOTS.abrev 304.71 nm
29/12/2015 19:00:00 UTC 29/12 19:00 UTC 24°37.79'S 34°12.71'W 4661.23 nm -1140.66 nm 46 13.7 KNOTS.abrev 15.4 KNOTS.abrev 12.6 KNOTS.abrev 12.7 KNOTS.abrev 305.97 nm
29/12/2015 18:58:00 UTC 29/12 18:58 UTC 24°38.15'S 34°13.11'W 4661.69 nm -1140.27 nm 49 10.6 KNOTS.abrev 12.2 KNOTS.abrev 12.6 KNOTS.abrev 12.7 KNOTS.abrev 305.48 nm
29/12/2015 18:50:00 UTC 29/12 18:50 UTC 24°39.22'S 34°14.46'W 4663.10 nm -1138.25 nm 48 12.0 KNOTS.abrev 13.7 KNOTS.abrev 12.6 KNOTS.abrev 12.8 KNOTS.abrev 309.53 nm
29/12/2015 18:30:00 UTC 29/12 18:30 UTC 24°42.25'S 34°18.22'W 4667.07 nm -1133.65 nm 45 11.5 KNOTS.abrev 12.8 KNOTS.abrev 12.6 KNOTS.abrev 12.9 KNOTS.abrev 309.04 nm
29/12/2015 18:27:00 UTC 29/12 18:27 UTC 24°42.70'S 34°18.71'W 4667.65 nm -1132.88 nm 47 11.9 KNOTS.abrev 13.5 KNOTS.abrev 12.5 KNOTS.abrev 12.9 KNOTS.abrev 308.43 nm
29/12/2015 18:20:00 UTC 29/12 18:20 UTC 24°43.78'S 34°19.98'W 4669.04 nm -1131.15 nm 46 12.2 KNOTS.abrev 13.7 KNOTS.abrev 12.5 KNOTS.abrev 12.9 KNOTS.abrev 310.11 nm
29/12/2015 18:10:00 UTC 29/12 18:10 UTC 24°45.36'S 34°21.78'W 4671.08 nm -1128.71 nm 43 12.4 KNOTS.abrev 13.5 KNOTS.abrev 11.3 KNOTS.abrev 13.0 KNOTS.abrev 310.52 nm
29/12/2015 18:00:00 UTC 29/12 18:00 UTC 24°47.01'S 34°23.48'W 4673.14 nm -1126.30 nm 45 11.9 KNOTS.abrev 13.2 KNOTS.abrev 11.3 KNOTS.abrev 13.0 KNOTS.abrev 311.97 nm
29/12/2015 17:54:00 UTC 29/12 17:54 UTC 24°47.93'S 34°24.51'W 4674.32 nm -1124.80 nm 46 14.0 KNOTS.abrev 15.7 KNOTS.abrev 10.7 KNOTS.abrev 13.0 KNOTS.abrev 313.77 nm
29/12/2015 17:50:00 UTC 29/12 17:50 UTC 24°48.66'S 34°25.35'W 4675.25 nm -1123.94 nm 48 12.6 KNOTS.abrev 14.4 KNOTS.abrev 10.6 KNOTS.abrev 13.0 KNOTS.abrev 312.76 nm
29/12/2015 17:40:00 UTC 29/12 17:40 UTC 24°50.26'S 34°27.31'W 4677.35 nm -1121.56 nm 46 12.7 KNOTS.abrev 14.3 KNOTS.abrev 10.0 KNOTS.abrev 13.1 KNOTS.abrev 313.61 nm
29/12/2015 17:30:00 UTC 29/12 17:30 UTC 24°51.91'S 34°29.19'W 4679.47 nm -1119.22 nm 43 11.1 KNOTS.abrev 12.1 KNOTS.abrev 9.5 KNOTS.abrev 13.1 KNOTS.abrev 314.56 nm
29/12/2015 17:24:00 UTC 29/12 17:24 UTC 24°52.79'S 34°30.10'W 4680.58 nm -1117.73 nm 45 11.0 KNOTS.abrev 12.2 KNOTS.abrev 9.6 KNOTS.abrev 13.1 KNOTS.abrev 316.24 nm
29/12/2015 17:00:00 UTC 29/12 17:00 UTC 24°56.24'S 34°33.89'W 4684.96 nm -1111.72 nm 48 11.4 KNOTS.abrev 13.0 KNOTS.abrev 9.5 KNOTS.abrev 13.2 KNOTS.abrev 317.82 nm
29/12/2015 16:53:00 UTC 29/12 16:53 UTC 24°57.26'S 34°35.14'W 4686.29 nm -1110.02 nm 47 13.9 KNOTS.abrev 15.7 KNOTS.abrev 9.7 KNOTS.abrev 13.2 KNOTS.abrev 316.37 nm
29/12/2015 16:50:00 UTC 29/12 16:50 UTC 24°57.79'S 34°35.77'W 4686.99 nm -1109.41 nm 45 10.9 KNOTS.abrev 12.2 KNOTS.abrev 9.6 KNOTS.abrev 13.2 KNOTS.abrev 315.62 nm
29/12/2015 16:40:00 UTC 29/12 16:40 UTC 24°59.23'S 34°37.35'W 4688.82 nm -1106.91 nm 42 10.4 KNOTS.abrev 11.3 KNOTS.abrev 9.7 KNOTS.abrev 13.1 KNOTS.abrev 313.97 nm
29/12/2015 16:23:00 UTC 29/12 16:23 UTC 25°01.61'S 34°39.69'W 4691.76 nm -1102.65 nm 37 10.4 KNOTS.abrev 11.0 KNOTS.abrev 9.9 KNOTS.abrev 13.0 KNOTS.abrev 311.62 nm
29/12/2015 16:20:00 UTC 29/12 16:20 UTC 25°02.05'S 34°40.05'W 4692.28 nm -1101.94 nm 41 9.3 KNOTS.abrev 10.1 KNOTS.abrev 9.9 KNOTS.abrev 13.0 KNOTS.abrev 311.08 nm
29/12/2015 16:00:00 UTC 29/12 16:00 UTC 25°04.57'S 34°42.48'W 4695.39 nm -1096.80 nm 45 10.0 KNOTS.abrev 11.1 KNOTS.abrev 10.3 KNOTS.abrev 12.8 KNOTS.abrev 308.23 nm
29/12/2015 15:53:00 UTC 29/12 15:53 UTC 25°05.49'S 34°43.49'W 4696.56 nm -1095.08 nm 44 8.6 KNOTS.abrev 9.5 KNOTS.abrev 9.8 KNOTS.abrev 12.8 KNOTS.abrev 307.02 nm
29/12/2015 15:50:00 UTC 29/12 15:50 UTC 25°05.83'S 34°43.85'W 4696.99 nm -1094.28 nm 48 10.8 KNOTS.abrev 12.3 KNOTS.abrev 9.8 KNOTS.abrev 12.8 KNOTS.abrev 306.56 nm
29/12/2015 15:40:00 UTC 29/12 15:40 UTC 25°07.20'S 34°45.54'W 4698.79 nm -1091.95 nm 49 10.9 KNOTS.abrev 12.5 KNOTS.abrev 9.3 KNOTS.abrev 12.7 KNOTS.abrev 304.62 nm
29/12/2015 15:30:00 UTC 29/12 15:30 UTC 25°08.58'S 34°47.27'W 4700.61 nm -1089.68 nm 48 10.8 KNOTS.abrev 12.3 KNOTS.abrev 9.0 KNOTS.abrev 12.6 KNOTS.abrev 302.57 nm
29/12/2015 15:22:00 UTC 29/12 15:22 UTC 25°09.68'S 34°48.62'W 4702.06 nm -1088.17 nm 44 14.8 KNOTS.abrev 16.3 KNOTS.abrev 8.9 KNOTS.abrev 12.5 KNOTS.abrev 301.02 nm
29/12/2015 15:20:00 UTC 29/12 15:20 UTC 25°10.07'S 34°49.04'W 4702.55 nm -1087.93 nm 50 11.2 KNOTS.abrev 13.0 KNOTS.abrev 8.5 KNOTS.abrev 12.5 KNOTS.abrev 300.51 nm
29/12/2015 15:10:00 UTC 29/12 15:10 UTC 25°11.46'S 34°50.88'W 4704.41 nm -1086.11 nm 53 10.6 KNOTS.abrev 12.7 KNOTS.abrev 8.4 KNOTS.abrev 12.4 KNOTS.abrev 298.61 nm
29/12/2015 15:00:00 UTC 29/12 15:00 UTC 25°12.72'S 34°52.75'W 4706.17 nm -1084.18 nm 49 11.2 KNOTS.abrev 12.9 KNOTS.abrev 8.4 KNOTS.abrev 12.4 KNOTS.abrev 296.97 nm
29/12/2015 14:50:00 UTC 29/12 14:50 UTC 25°14.13'S 34°54.56'W 4708.04 nm -1082.36 nm 46 11.9 KNOTS.abrev 13.3 KNOTS.abrev 8.5 KNOTS.abrev 12.3 KNOTS.abrev 295.44 nm
29/12/2015 14:40:00 UTC 29/12 14:40 UTC 25°15.65'S 34°56.33'W 4710.01 nm -1080.64 nm 47 11.3 KNOTS.abrev 12.7 KNOTS.abrev 8.5 KNOTS.abrev 12.2 KNOTS.abrev 293.91 nm
29/12/2015 14:30:00 UTC 29/12 14:30 UTC 25°17.09'S 34°58.05'W 4711.88 nm -1078.84 nm 49 10.7 KNOTS.abrev 12.3 KNOTS.abrev 8.5 KNOTS.abrev 12.1 KNOTS.abrev 292.71 nm
29/12/2015 14:20:00 UTC 29/12 14:20 UTC 25°18.43'S 34°59.77'W 4713.67 nm -1077.11 nm 307 3.5 KNOTS.abrev 11.5 KNOTS.abrev 8.7 KNOTS.abrev 12.1 KNOTS.abrev 290.94 nm
29/12/2015 14:20:00 UTC 29/12 14:20 UTC 25°18.45'S 34°59.78'W 4713.68 nm -1077.12 nm 191 0.0 KNOTS.abrev 0.0 KNOTS.abrev 8.7 KNOTS.abrev 12.1 KNOTS.abrev 290.93 nm
29/12/2015 14:00:00 UTC 29/12 14:00 UTC 25°20.71'S 34°56.38'W 4714.80 nm -1071.20 nm 305 3.4 KNOTS.abrev 12.7 KNOTS.abrev 8.9 KNOTS.abrev 12.1 KNOTS.abrev 290.59 nm
29/12/2015 13:50:00 UTC 29/12 13:50 UTC 25°21.93'S 34°54.47'W 4715.37 nm -1068.26 nm 308 3.9 KNOTS.abrev 12.3 KNOTS.abrev 9.4 KNOTS.abrev 12.1 KNOTS.abrev 290.55 nm
29/12/2015 13:40:00 UTC 29/12 13:40 UTC 25°23.18'S 34°52.68'W 4716.02 nm -1065.39 nm 312 3.5 KNOTS.abrev 9.0 KNOTS.abrev 9.6 KNOTS.abrev 12.1 KNOTS.abrev 290.51 nm
29/12/2015 13:30:00 UTC 29/12 13:30 UTC 25°24.18'S 34°51.44'W 4716.59 nm -1062.42 nm 52 11.8 KNOTS.abrev 14.0 KNOTS.abrev 10.0 KNOTS.abrev 12.1 KNOTS.abrev 291.22 nm
29/12/2015 13:20:00 UTC 29/12 13:20 UTC 25°25.62'S 34°53.47'W 4718.56 nm -1060.71 nm 47 11.5 KNOTS.abrev 12.9 KNOTS.abrev 10.1 KNOTS.abrev 12.1 KNOTS.abrev 289.29 nm
29/12/2015 13:10:00 UTC 29/12 13:10 UTC 25°27.09'S 34°55.22'W 4720.47 nm -1058.93 nm 45 11.3 KNOTS.abrev 12.6 KNOTS.abrev 10.3 KNOTS.abrev 12.0 KNOTS.abrev 288.13 nm
29/12/2015 12:49:00 UTC 29/12 12:49 UTC 25°30.22'S 34°58.64'W 4724.45 nm -1055.17 nm 42 13.5 KNOTS.abrev 14.6 KNOTS.abrev 10.6 KNOTS.abrev 11.9 KNOTS.abrev 285.78 nm
29/12/2015 12:40:00 UTC 29/12 12:40 UTC 25°31.85'S 35°00.27'W 4726.48 nm -1053.88 nm 41 13.2 KNOTS.abrev 14.2 KNOTS.abrev 10.8 KNOTS.abrev 11.8 KNOTS.abrev 284.32 nm
29/12/2015 12:20:00 UTC 29/12 12:20 UTC 25°35.45'S 35°03.70'W 4730.90 nm -1050.72 nm 39 14.3 KNOTS.abrev 15.2 KNOTS.abrev 11.0 KNOTS.abrev 11.7 KNOTS.abrev 281.37 nm
29/12/2015 12:10:00 UTC 29/12 12:10 UTC 25°37.42'S 35°05.46'W 4733.30 nm -1049.23 nm 42 16.0 KNOTS.abrev 17.3 KNOTS.abrev 11.3 KNOTS.abrev 11.7 KNOTS.abrev 279.77 nm
29/12/2015 12:08:00 UTC 29/12 12:08 UTC 25°37.85'S 35°05.88'W 4733.83 nm -1048.99 nm 34 12.9 KNOTS.abrev 13.3 KNOTS.abrev 11.2 KNOTS.abrev 11.7 KNOTS.abrev 279.27 nm
29/12/2015 12:00:00 UTC 29/12 12:00 UTC 25°39.33'S 35°06.99'W 4735.55 nm -1047.61 nm 297 1.5 KNOTS.abrev 11.1 KNOTS.abrev 11.2 KNOTS.abrev 11.6 KNOTS.abrev 278.40 nm
29/12/2015 11:50:00 UTC 29/12 11:50 UTC 25°40.15'S 35°05.15'W 4735.78 nm -1043.95 nm 299 2.0 KNOTS.abrev 12.0 KNOTS.abrev 11.8 KNOTS.abrev 11.6 KNOTS.abrev 278.85 nm
29/12/2015 11:37:00 UTC 29/12 11:37 UTC 25°41.41'S 35°02.63'W 4736.21 nm -1039.34 nm 301 3.1 KNOTS.abrev 15.6 KNOTS.abrev 12.5 KNOTS.abrev 11.6 KNOTS.abrev 278.94 nm
29/12/2015 11:30:00 UTC 29/12 11:30 UTC 25°42.34'S 35°00.90'W 4736.57 nm -1036.99 nm 299 2.6 KNOTS.abrev 15.8 KNOTS.abrev 13.2 KNOTS.abrev 11.6 KNOTS.abrev 279.11 nm
29/12/2015 11:10:00 UTC 29/12 11:10 UTC 25°44.88'S 34°55.77'W 4737.44 nm -1030.48 nm 301 3.3 KNOTS.abrev 16.2 KNOTS.abrev 14.5 KNOTS.abrev 11.7 KNOTS.abrev 280.95 nm
29/12/2015 11:07:00 UTC 29/12 11:07 UTC 25°45.30'S 34°54.99'W 4737.60 nm -1029.53 nm 304 3.5 KNOTS.abrev 13.8 KNOTS.abrev 14.7 KNOTS.abrev 11.7 KNOTS.abrev 280.67 nm
29/12/2015 11:00:00 UTC 29/12 11:00 UTC 25°46.20'S 34°53.51'W 4738.00 nm -1027.35 nm 27 11.0 KNOTS.abrev 11.0 KNOTS.abrev 15.2 KNOTS.abrev 11.8 KNOTS.abrev 282.58 nm
29/12/2015 10:40:00 UTC 29/12 10:40 UTC 25°49.47'S 34°55.37'W 4741.65 nm -1023.61 nm 35 12.5 KNOTS.abrev 13.0 KNOTS.abrev 15.7 KNOTS.abrev 11.8 KNOTS.abrev 283.59 nm
29/12/2015 10:34:00 UTC 29/12 10:34 UTC 25°50.54'S 34°56.20'W 4742.91 nm -1022.64 nm 37 12.6 KNOTS.abrev 13.2 KNOTS.abrev 15.9 KNOTS.abrev 11.8 KNOTS.abrev 284.35 nm
29/12/2015 10:30:00 UTC 29/12 10:30 UTC 25°51.25'S 34°56.79'W 4743.75 nm -1022.00 nm 37 13.2 KNOTS.abrev 13.8 KNOTS.abrev 15.9 KNOTS.abrev 11.8 KNOTS.abrev 283.55 nm
29/12/2015 10:20:00 UTC 29/12 10:20 UTC 25°53.09'S 34°58.32'W 4745.94 nm -1020.31 nm 38 10.7 KNOTS.abrev 11.2 KNOTS.abrev 16.0 KNOTS.abrev 11.8 KNOTS.abrev 283.45 nm
29/12/2015 10:10:00 UTC 29/12 10:10 UTC 25°54.56'S 34°59.61'W 4747.72 nm -1018.20 nm 42 11.7 KNOTS.abrev 12.6 KNOTS.abrev 16.2 KNOTS.abrev 11.8 KNOTS.abrev 283.53 nm
29/12/2015 10:04:00 UTC 29/12 10:04 UTC 25°55.50'S 35°00.54'W 4748.89 nm -1017.03 nm 40 11.2 KNOTS.abrev 12.0 KNOTS.abrev 16.3 KNOTS.abrev 11.8 KNOTS.abrev 284.25 nm
29/12/2015 10:00:00 UTC 29/12 10:00 UTC 25°56.12'S 35°01.11'W 4749.64 nm -1016.23 nm 37 13.9 KNOTS.abrev 14.6 KNOTS.abrev 16.4 KNOTS.abrev 11.8 KNOTS.abrev 283.53 nm
29/12/2015 09:40:00 UTC 29/12 09:40 UTC 26°00.01'S 35°04.37'W 4754.28 nm -1013.10 nm 31 13.5 KNOTS.abrev 13.8 KNOTS.abrev 16.7 KNOTS.abrev 11.7 KNOTS.abrev 281.54 nm
29/12/2015 09:33:00 UTC 29/12 09:33 UTC 26°01.39'S 35°05.29'W 4755.86 nm -1011.96 nm 31 15.5 KNOTS.abrev 15.8 KNOTS.abrev 16.8 KNOTS.abrev 11.7 KNOTS.abrev 280.93 nm
29/12/2015 09:30:00 UTC 29/12 09:30 UTC 26°02.07'S 35°05.74'W 4756.64 nm -1011.59 nm 33 15.0 KNOTS.abrev 15.5 KNOTS.abrev 16.8 KNOTS.abrev 11.7 KNOTS.abrev 280.19 nm
29/12/2015 09:20:00 UTC 29/12 09:20 UTC 26°04.22'S 35°07.32'W 4759.14 nm -1010.41 nm 39 14.9 KNOTS.abrev 15.9 KNOTS.abrev 16.9 KNOTS.abrev 11.6 KNOTS.abrev 278.63 nm
29/12/2015 09:10:00 UTC 29/12 09:10 UTC 26°06.26'S 35°09.18'W 4761.62 nm -1009.22 nm 37 15.1 KNOTS.abrev 15.8 KNOTS.abrev 17.0 KNOTS.abrev 11.5 KNOTS.abrev 277.08 nm
29/12/2015 09:03:00 UTC 29/12 09:03 UTC 26°07.73'S 35°10.42'W 4763.38 nm -1008.40 nm 34 16.6 KNOTS.abrev 17.1 KNOTS.abrev 17.2 KNOTS.abrev 11.5 KNOTS.abrev 276.41 nm
29/12/2015 09:00:00 UTC 29/12 09:00 UTC 26°08.44'S 35°10.95'W 4764.21 nm -1008.12 nm 35 15.8 KNOTS.abrev 16.4 KNOTS.abrev 17.2 KNOTS.abrev 11.5 KNOTS.abrev 275.65 nm
29/12/2015 08:50:00 UTC 29/12 08:50 UTC 26°10.68'S 35°12.71'W 4766.85 nm -1007.08 nm 35 16.6 KNOTS.abrev 17.2 KNOTS.abrev 17.3 KNOTS.abrev 11.4 KNOTS.abrev 274.23 nm
29/12/2015 08:40:00 UTC 29/12 08:40 UTC 26°13.02'S 35°14.56'W 4769.61 nm -1006.16 nm 34 16.2 KNOTS.abrev 16.8 KNOTS.abrev 17.3 KNOTS.abrev 11.3 KNOTS.abrev 271.89 nm
29/12/2015 08:30:00 UTC 29/12 08:30 UTC 26°15.34'S 35°16.29'W 4772.32 nm -1005.20 nm 35 15.6 KNOTS.abrev 16.1 KNOTS.abrev 17.3 KNOTS.abrev 11.3 KNOTS.abrev 270.77 nm
29/12/2015 08:20:00 UTC 29/12 08:20 UTC 26°17.55'S 35°18.00'W 4774.91 nm -1004.22 nm 33 15.8 KNOTS.abrev 16.3 KNOTS.abrev 17.4 KNOTS.abrev 11.2 KNOTS.abrev 269.78 nm
29/12/2015 08:00:00 UTC 29/12 08:00 UTC 26°22.08'S 35°21.33'W 4780.18 nm -1002.35 nm 32 15.4 KNOTS.abrev 15.7 KNOTS.abrev 17.5 KNOTS.abrev 11.1 KNOTS.abrev 267.01 nm
29/12/2015 07:51:00 UTC 29/12 07:51 UTC 26°24.08'S 35°22.72'W 4782.49 nm -1001.44 nm 36 20.4 KNOTS.abrev 21.3 KNOTS.abrev 17.6 KNOTS.abrev 11.1 KNOTS.abrev 264.98 nm
29/12/2015 07:50:00 UTC 29/12 07:50 UTC 26°24.37'S 35°22.95'W 4782.83 nm -1001.42 nm 34 16.8 KNOTS.abrev 17.3 KNOTS.abrev 17.6 KNOTS.abrev 11.1 KNOTS.abrev 264.68 nm
29/12/2015 07:40:00 UTC 29/12 07:40 UTC 26°26.76'S 35°24.75'W 4785.63 nm -1000.64 nm 35 16.8 KNOTS.abrev 17.5 KNOTS.abrev 17.7 KNOTS.abrev 11.0 KNOTS.abrev 266.74 nm
29/12/2015 07:20:00 UTC 29/12 07:20 UTC 26°31.56'S 35°28.44'W 4791.25 nm -998.96 nm 34 16.6 KNOTS.abrev 17.1 KNOTS.abrev 17.8 KNOTS.abrev 11.0 KNOTS.abrev 261.88 nm
29/12/2015 07:10:00 UTC 29/12 07:10 UTC 26°33.92'S 35°30.20'W 4794.02 nm -998.01 nm 29 7.9 KNOTS.abrev 8.0 KNOTS.abrev 17.9 KNOTS.abrev 10.9 KNOTS.abrev 264.96 nm
29/12/2015 07:09:00 UTC 29/12 07:09 UTC 26°34.04'S 35°30.28'W 4794.15 nm -997.77 nm 36 17.7 KNOTS.abrev 18.4 KNOTS.abrev 18.0 KNOTS.abrev 10.9 KNOTS.abrev 264.85 nm
29/12/2015 07:00:00 UTC 29/12 07:00 UTC 26°36.29'S 35°32.07'W 4796.81 nm -997.08 nm 32 16.6 KNOTS.abrev 17.0 KNOTS.abrev 18.0 KNOTS.abrev 10.9 KNOTS.abrev 262.64 nm
29/12/2015 06:50:00 UTC 29/12 06:50 UTC 26°38.68'S 35°33.77'W 4799.58 nm -996.13 nm 32 16.3 KNOTS.abrev 16.7 KNOTS.abrev 18.1 KNOTS.abrev 10.9 KNOTS.abrev 260.30 nm
29/12/2015 06:40:00 UTC 29/12 06:40 UTC 26°41.03'S 35°35.43'W 4802.29 nm -995.12 nm 34 18.0 KNOTS.abrev 18.6 KNOTS.abrev 18.1 KNOTS.abrev 10.9 KNOTS.abrev 258.01 nm
29/12/2015 06:33:00 UTC 29/12 06:33 UTC 26°42.84'S 35°36.77'W 4804.39 nm -994.62 nm 28 14.0 KNOTS.abrev 14.1 KNOTS.abrev 18.0 KNOTS.abrev 10.9 KNOTS.abrev 262.34 nm
29/12/2015 06:30:00 UTC 29/12 06:30 UTC 26°43.46'S 35°37.15'W 4805.09 nm -994.19 nm 31 16.4 KNOTS.abrev 16.7 KNOTS.abrev 18.1 KNOTS.abrev 10.9 KNOTS.abrev 261.74 nm
29/12/2015 06:10:00 UTC 29/12 06:10 UTC 26°48.20'S 35°40.39'W 4810.54 nm -991.72 nm 35 16.1 KNOTS.abrev 16.7 KNOTS.abrev 18.1 KNOTS.abrev 10.8 KNOTS.abrev 257.26 nm
29/12/2015 06:02:00 UTC 29/12 06:02 UTC 26°50.02'S 35°41.82'W 4812.69 nm -990.71 nm 31 17.6 KNOTS.abrev 17.9 KNOTS.abrev 18.2 KNOTS.abrev 10.8 KNOTS.abrev 262.15 nm
29/12/2015 05:50:00 UTC 29/12 05:50 UTC 26°53.10'S 35°43.87'W 4816.20 nm -989.48 nm 34 17.4 KNOTS.abrev 18.0 KNOTS.abrev 18.2 KNOTS.abrev 10.8 KNOTS.abrev 259.35 nm
29/12/2015 05:40:00 UTC 29/12 05:40 UTC 26°55.58'S 35°45.75'W 4819.10 nm -988.42 nm 32 15.5 KNOTS.abrev 15.8 KNOTS.abrev 18.2 KNOTS.abrev 10.8 KNOTS.abrev 257.13 nm
29/12/2015 05:31:00 UTC 29/12 05:31 UTC 26°57.59'S 35°47.17'W 4821.42 nm -987.19 nm 30 25.1 KNOTS.abrev 25.5 KNOTS.abrev 18.2 KNOTS.abrev 10.8 KNOTS.abrev 255.32 nm
29/12/2015 05:30:00 UTC 29/12 05:30 UTC 26°57.95'S 35°47.41'W 4821.84 nm -987.21 nm 36 17.7 KNOTS.abrev 18.4 KNOTS.abrev 18.2 KNOTS.abrev 10.8 KNOTS.abrev 262.81 nm
29/12/2015 05:20:00 UTC 29/12 05:20 UTC 27°00.44'S 35°49.42'W 4824.79 nm -986.19 nm 35 17.5 KNOTS.abrev 18.2 KNOTS.abrev 18.2 KNOTS.abrev 10.8 KNOTS.abrev 260.71 nm
29/12/2015 05:10:00 UTC 29/12 05:10 UTC 27°02.90'S 35°51.40'W 4827.71 nm -985.14 nm 34 18.7 KNOTS.abrev 19.2 KNOTS.abrev 18.1 KNOTS.abrev 10.8 KNOTS.abrev 258.65 nm
29/12/2015 05:00:00 UTC 29/12 05:00 UTC 27°05.56'S 35°53.41'W 4830.81 nm -984.28 nm 35 17.4 KNOTS.abrev 18.0 KNOTS.abrev 18.0 KNOTS.abrev 10.7 KNOTS.abrev 257.77 nm
29/12/2015 04:53:00 UTC 29/12 04:53 UTC 27°07.28'S 35°54.76'W 4832.84 nm -983.53 nm 33 19.7 KNOTS.abrev 20.3 KNOTS.abrev 17.6 KNOTS.abrev 10.7 KNOTS.abrev 256.36 nm
29/12/2015 04:50:00 UTC 29/12 04:50 UTC 27°08.12'S 35°55.39'W 4833.83 nm -983.33 nm 33 17.5 KNOTS.abrev 18.0 KNOTS.abrev 17.6 KNOTS.abrev 10.7 KNOTS.abrev 255.66 nm
29/12/2015 04:40:00 UTC 29/12 04:40 UTC 27°10.63'S 35°57.23'W 4836.74 nm -982.27 nm 31 16.0 KNOTS.abrev 16.3 KNOTS.abrev 17.6 KNOTS.abrev 10.7 KNOTS.abrev 257.77 nm
29/12/2015 04:30:00 UTC 29/12 04:30 UTC 27°12.97'S 35°58.79'W 4839.42 nm -980.97 nm 35 18.3 KNOTS.abrev 18.9 KNOTS.abrev 17.7 KNOTS.abrev 10.7 KNOTS.abrev 255.86 nm
29/12/2015 04:20:00 UTC 29/12 04:20 UTC 27°15.55'S 36°00.82'W 4842.46 nm -979.94 nm 36 17.6 KNOTS.abrev 18.3 KNOTS.abrev 17.6 KNOTS.abrev 10.8 KNOTS.abrev 261.98 nm
29/12/2015 04:00:00 UTC 29/12 04:00 UTC 27°20.47'S 36°04.86'W 4848.32 nm -977.63 nm 35 17.7 KNOTS.abrev 18.4 KNOTS.abrev 17.4 KNOTS.abrev 10.8 KNOTS.abrev 258.37 nm
29/12/2015 03:50:00 UTC 29/12 03:50 UTC 27°22.97'S 36°06.86'W 4851.27 nm -976.50 nm 38 18.2 KNOTS.abrev 19.2 KNOTS.abrev 17.3 KNOTS.abrev 10.9 KNOTS.abrev 264.89 nm
29/12/2015 03:47:00 UTC 29/12 03:47 UTC 27°23.72'S 36°07.52'W 4852.18 nm -976.19 nm 36 18.5 KNOTS.abrev 19.2 KNOTS.abrev 17.2 KNOTS.abrev 10.9 KNOTS.abrev 264.38 nm
29/12/2015 03:40:00 UTC 29/12 03:40 UTC 27°25.53'S 36°09.02'W 4854.33 nm -975.48 nm 38 17.8 KNOTS.abrev 18.8 KNOTS.abrev 17.1 KNOTS.abrev 10.9 KNOTS.abrev 263.15 nm
29/12/2015 03:30:00 UTC 29/12 03:30 UTC 27°28.01'S 36°11.17'W 4857.32 nm -974.39 nm 39 18.6 KNOTS.abrev 19.6 KNOTS.abrev 17.0 KNOTS.abrev 10.9 KNOTS.abrev 261.50 nm
29/12/2015 03:20:00 UTC 29/12 03:20 UTC 27°30.56'S 36°13.47'W 4860.42 nm -973.52 nm 39 17.9 KNOTS.abrev 19.0 KNOTS.abrev 16.8 KNOTS.abrev 11.1 KNOTS.abrev 269.51 nm
29/12/2015 03:13:00 UTC 29/12 03:13 UTC 27°32.27'S 36°15.05'W 4862.51 nm -972.82 nm 39 19.4 KNOTS.abrev 20.5 KNOTS.abrev 16.7 KNOTS.abrev 11.1 KNOTS.abrev 268.48 nm
29/12/2015 03:10:00 UTC 29/12 03:10 UTC 27°33.07'S 36°15.77'W 4863.48 nm -972.60 nm 41 17.7 KNOTS.abrev 19.0 KNOTS.abrev 16.6 KNOTS.abrev 11.1 KNOTS.abrev 268.00 nm
29/12/2015 03:00:00 UTC 29/12 03:00 UTC 27°35.47'S 36°18.09'W 4866.44 nm -971.59 nm 41 17.5 KNOTS.abrev 18.7 KNOTS.abrev 16.4 KNOTS.abrev 11.2 KNOTS.abrev 266.62 nm
29/12/2015 02:50:00 UTC 29/12 02:50 UTC 27°37.84'S 36°20.40'W 4869.37 nm -970.54 nm 38 16.8 KNOTS.abrev 17.7 KNOTS.abrev 16.3 KNOTS.abrev 11.3 KNOTS.abrev 274.93 nm
29/12/2015 02:40:00 UTC 29/12 02:40 UTC 27°40.16'S 36°22.44'W 4872.17 nm -969.37 nm 38 16.8 KNOTS.abrev 17.6 KNOTS.abrev 16.2 KNOTS.abrev 11.4 KNOTS.abrev 273.62 nm
29/12/2015 02:38:00 UTC 29/12 02:38 UTC 27°40.62'S 36°22.85'W 4872.73 nm -969.13 nm 41 15.5 KNOTS.abrev 16.5 KNOTS.abrev 16.2 KNOTS.abrev 11.4 KNOTS.abrev 273.37 nm
29/12/2015 02:30:00 UTC 29/12 02:30 UTC 27°42.28'S 36°24.48'W 4874.79 nm -968.02 nm 43 15.9 KNOTS.abrev 17.2 KNOTS.abrev 15.9 KNOTS.abrev 11.4 KNOTS.abrev 272.51 nm
29/12/2015 02:10:00 UTC 29/12 02:10 UTC 27°46.47'S 36°28.91'W 4880.08 nm -965.56 nm 46 14.6 KNOTS.abrev 16.2 KNOTS.abrev 15.5 KNOTS.abrev 11.7 KNOTS.abrev 281.37 nm
29/12/2015 02:06:00 UTC 29/12 02:06 UTC 27°47.23'S 36°29.79'W 4881.06 nm -964.98 nm 45 16.9 KNOTS.abrev 18.6 KNOTS.abrev 15.5 KNOTS.abrev 11.7 KNOTS.abrev 281.08 nm
29/12/2015 02:00:00 UTC 29/12 02:00 UTC 27°48.53'S 36°31.28'W 4882.74 nm -964.34 nm 47 16.5 KNOTS.abrev 18.5 KNOTS.abrev 15.3 KNOTS.abrev 11.7 KNOTS.abrev 280.56 nm
29/12/2015 01:50:00 UTC 29/12 01:50 UTC 27°50.64'S 36°33.83'W 4885.49 nm -963.22 nm 46 16.1 KNOTS.abrev 17.9 KNOTS.abrev 15.0 KNOTS.abrev 11.7 KNOTS.abrev 279.82 nm
29/12/2015 01:40:00 UTC 29/12 01:40 UTC 27°52.70'S 36°36.26'W 4888.18 nm -962.03 nm 46 17.5 KNOTS.abrev 19.4 KNOTS.abrev 14.9 KNOTS.abrev 12.0 KNOTS.abrev 288.95 nm
29/12/2015 01:36:00 UTC 29/12 01:36 UTC 27°53.61'S 36°37.31'W 4889.35 nm -961.65 nm 44 15.2 KNOTS.abrev 16.6 KNOTS.abrev 14.9 KNOTS.abrev 12.0 KNOTS.abrev 288.64 nm
29/12/2015 01:30:00 UTC 29/12 01:30 UTC 27°54.79'S 36°38.62'W 4890.86 nm -960.84 nm 44 16.0 KNOTS.abrev 17.5 KNOTS.abrev 14.8 KNOTS.abrev 12.0 KNOTS.abrev 288.52 nm
29/12/2015 01:20:00 UTC 29/12 01:20 UTC 27°56.89'S 36°40.91'W 4893.54 nm -959.64 nm 44 15.9 KNOTS.abrev 17.4 KNOTS.abrev 14.4 KNOTS.abrev 12.1 KNOTS.abrev 290.69 nm
29/12/2015 01:10:00 UTC 29/12 01:10 UTC 27°58.97'S 36°43.19'W 4896.19 nm -958.36 nm 44 14.9 KNOTS.abrev 16.2 KNOTS.abrev 13.5 KNOTS.abrev 12.2 KNOTS.abrev 295.58 nm
29/12/2015 01:05:00 UTC 29/12 01:05 UTC 27°59.95'S 36°44.25'W 4897.43 nm -957.61 nm 48 15.3 KNOTS.abrev 17.3 KNOTS.abrev 12.7 KNOTS.abrev 12.3 KNOTS.abrev 295.26 nm
29/12/2015 01:00:00 UTC 29/12 01:00 UTC 28°00.91'S 36°45.46'W 4898.71 nm -956.90 nm 67 6.7 KNOTS.abrev 9.7 KNOTS.abrev 12.6 KNOTS.abrev 12.3 KNOTS.abrev 295.26 nm
29/12/2015 00:50:00 UTC 29/12 00:50 UTC 28°01.55'S 36°47.15'W 4899.83 nm -954.05 nm 45 16.3 KNOTS.abrev 18.0 KNOTS.abrev 12.2 KNOTS.abrev 12.4 KNOTS.abrev 298.42 nm
29/12/2015 00:40:00 UTC 29/12 00:40 UTC 28°03.67'S 36°49.54'W 4902.55 nm -952.80 nm 44 15.6 KNOTS.abrev 17.0 KNOTS.abrev 11.4 KNOTS.abrev 12.5 KNOTS.abrev 300.84 nm
29/12/2015 00:30:00 UTC 29/12 00:30 UTC 28°05.69'S 36°51.79'W 4905.14 nm -951.43 nm 46 20.0 KNOTS.abrev 22.2 KNOTS.abrev 10.7 KNOTS.abrev 12.6 KNOTS.abrev 303.38 nm
29/12/2015 00:29:00 UTC 29/12 00:29 UTC 28°05.95'S 36°52.09'W 4905.47 nm -951.39 nm 44 14.8 KNOTS.abrev 16.1 KNOTS.abrev 10.7 KNOTS.abrev 12.6 KNOTS.abrev 303.57 nm
29/12/2015 00:20:00 UTC 29/12 00:20 UTC 28°07.70'S 36°53.98'W 4907.70 nm -950.22 nm 43 14.4 KNOTS.abrev 15.6 KNOTS.abrev 10.1 KNOTS.abrev 12.8 KNOTS.abrev 306.08 nm
29/12/2015 00:10:00 UTC 29/12 00:10 UTC 28°09.60'S 36°55.99'W 4910.10 nm -948.84 nm 46 14.1 KNOTS.abrev 15.6 KNOTS.abrev 9.7 KNOTS.abrev 12.9 KNOTS.abrev 308.73 nm
29/12/2015 00:00:00 UTC 29/12 00:00 UTC 28°11.42'S 36°58.09'W 4912.46 nm -947.42 nm 45 19.1 KNOTS.abrev 21.0 KNOTS.abrev 9.4 KNOTS.abrev 12.9 KNOTS.abrev 309.66 nm
28/12/2015 23:59:00 UTC 28/12 23:59 UTC 28°11.67'S 36°58.37'W 4912.78 nm -947.37 nm 47 13.8 KNOTS.abrev 15.4 KNOTS.abrev 9.4 KNOTS.abrev 12.9 KNOTS.abrev 309.62 nm
28/12/2015 23:50:00 UTC 28/12 23:50 UTC 28°13.26'S 37°00.28'W 4914.86 nm -946.05 nm 46 14.6 KNOTS.abrev 16.2 KNOTS.abrev 9.3 KNOTS.abrev 13.0 KNOTS.abrev 312.51 nm
28/12/2015 23:40:00 UTC 28/12 23:40 UTC 28°15.12'S 37°02.49'W 4917.28 nm -944.70 nm 44 13.9 KNOTS.abrev 15.2 KNOTS.abrev 9.2 KNOTS.abrev 13.2 KNOTS.abrev 315.88 nm
28/12/2015 23:30:00 UTC 28/12 23:30 UTC 28°16.93'S 37°04.49'W 4919.60 nm -943.23 nm 47 11.7 KNOTS.abrev 13.1 KNOTS.abrev 9.3 KNOTS.abrev 13.3 KNOTS.abrev 319.21 nm
28/12/2015 23:28:00 UTC 28/12 23:28 UTC 28°17.23'S 37°04.86'W 4919.99 nm -942.85 nm 47 13.6 KNOTS.abrev 15.2 KNOTS.abrev 9.3 KNOTS.abrev 13.3 KNOTS.abrev 320.57 nm
28/12/2015 23:20:00 UTC 28/12 23:20 UTC 28°18.60'S 37°06.55'W 4921.80 nm -941.58 nm 49 13.2 KNOTS.abrev 15.0 KNOTS.abrev 9.4 KNOTS.abrev 13.4 KNOTS.abrev 322.74 nm
28/12/2015 23:10:00 UTC 28/12 23:10 UTC 28°20.26'S 37°08.68'W 4924.01 nm -939.93 nm 46 13.2 KNOTS.abrev 14.6 KNOTS.abrev 9.6 KNOTS.abrev 13.6 KNOTS.abrev 326.20 nm
28/12/2015 23:00:00 UTC 28/12 23:00 UTC 28°21.96'S 37°10.66'W 4926.21 nm -938.28 nm 46 13.8 KNOTS.abrev 15.3 KNOTS.abrev 9.7 KNOTS.abrev 13.7 KNOTS.abrev 329.74 nm
28/12/2015 22:50:00 UTC 28/12 22:50 UTC 28°23.72'S 37°12.74'W 4928.51 nm -936.72 nm 47 13.6 KNOTS.abrev 15.2 KNOTS.abrev 9.9 KNOTS.abrev 13.9 KNOTS.abrev 332.95 nm
28/12/2015 22:50:00 UTC 28/12 22:50 UTC 28°23.72'S 37°12.74'W 4928.51 nm -936.72 nm 284 0.0 KNOTS.abrev 0.0 KNOTS.abrev 9.9 KNOTS.abrev 13.9 KNOTS.abrev 332.95 nm
28/12/2015 22:40:00 UTC 28/12 22:40 UTC 28°25.44'S 37°14.85'W 4930.78 nm -935.13 nm 46 11.9 KNOTS.abrev 13.1 KNOTS.abrev 9.8 KNOTS.abrev 14.0 KNOTS.abrev 336.19 nm
28/12/2015 22:20:00 UTC 28/12 22:20 UTC 28°28.47'S 37°18.44'W 4934.73 nm -931.52 nm 53 8.4 KNOTS.abrev 9.9 KNOTS.abrev 10.2 KNOTS.abrev 14.3 KNOTS.abrev 342.96 nm
28/12/2015 22:19:00 UTC 28/12 22:19 UTC 28°28.57'S 37°18.58'W 4934.87 nm -931.29 nm 61 7.1 KNOTS.abrev 9.3 KNOTS.abrev 10.2 KNOTS.abrev 14.3 KNOTS.abrev 342.97 nm
28/12/2015 22:10:00 UTC 28/12 22:10 UTC 28°29.25'S 37°19.98'W 4935.94 nm -929.02 nm 52 9.8 KNOTS.abrev 11.4 KNOTS.abrev 10.5 KNOTS.abrev 14.4 KNOTS.abrev 346.60 nm
28/12/2015 22:00:00 UTC 28/12 22:00 UTC 28°30.43'S 37°21.68'W 4937.57 nm -926.94 nm 50 11.3 KNOTS.abrev 13.0 KNOTS.abrev 10.8 KNOTS.abrev 14.6 KNOTS.abrev 349.95 nm
28/12/2015 21:48:00 UTC 28/12 21:48 UTC 28°32.11'S 37°23.92'W 4939.85 nm -924.76 nm 48 14.0 KNOTS.abrev 15.7 KNOTS.abrev 11.0 KNOTS.abrev 14.8 KNOTS.abrev 353.74 nm
28/12/2015 21:40:00 UTC 28/12 21:40 UTC 28°33.50'S 37°25.71'W 4941.70 nm -923.65 nm 49 13.3 KNOTS.abrev 15.0 KNOTS.abrev 11.1 KNOTS.abrev 14.9 KNOTS.abrev 357.60 nm
28/12/2015 21:30:00 UTC 28/12 21:30 UTC 28°35.16'S 37°27.85'W 4943.92 nm -922.19 nm 4 8.0 KNOTS.abrev 8.4 KNOTS.abrev 11.2 KNOTS.abrev 15.1 KNOTS.abrev 361.28 nm
28/12/2015 21:20:00 UTC 28/12 21:20 UTC 28°36.55'S 37°27.97'W 4945.26 nm -920.45 nm 299 2.1 KNOTS.abrev 14.8 KNOTS.abrev 11.4 KNOTS.abrev 15.2 KNOTS.abrev 363.77 nm
28/12/2015 21:18:00 UTC 28/12 21:18 UTC 28°36.79'S 37°27.48'W 4945.34 nm -919.91 nm 301 2.9 KNOTS.abrev 16.2 KNOTS.abrev 11.5 KNOTS.abrev 15.2 KNOTS.abrev 363.30 nm
28/12/2015 21:10:00 UTC 28/12 21:10 UTC 28°37.90'S 37°25.37'W 4945.71 nm -917.81 nm 300 2.8 KNOTS.abrev 17.2 KNOTS.abrev 11.8 KNOTS.abrev 15.2 KNOTS.abrev 364.62 nm
28/12/2015 21:00:00 UTC 28/12 21:00 UTC 28°39.34'S 37°22.54'W 4946.18 nm -915.19 nm 301 3.0 KNOTS.abrev 16.6 KNOTS.abrev 12.1 KNOTS.abrev 15.3 KNOTS.abrev 368.55 nm
28/12/2015 20:50:00 UTC 28/12 20:50 UTC 28°40.78'S 37°19.85'W 4946.69 nm -912.62 nm 298 2.3 KNOTS.abrev 17.8 KNOTS.abrev 12.5 KNOTS.abrev 15.3 KNOTS.abrev 366.11 nm
28/12/2015 20:47:00 UTC 28/12 20:47 UTC 28°41.20'S 37°18.95'W 4946.80 nm -911.81 nm 300 2.5 KNOTS.abrev 15.2 KNOTS.abrev 12.6 KNOTS.abrev 15.3 KNOTS.abrev 365.26 nm
28/12/2015 20:40:00 UTC 28/12 20:40 UTC 28°42.10'S 37°17.21'W 4947.11 nm -909.95 nm 300 2.6 KNOTS.abrev 16.3 KNOTS.abrev 12.6 KNOTS.abrev 15.3 KNOTS.abrev 369.48 nm
28/12/2015 20:30:00 UTC 28/12 20:30 UTC 28°43.48'S 37°14.53'W 4947.57 nm -907.33 nm 302 3.5 KNOTS.abrev 18.0 KNOTS.abrev 12.7 KNOTS.abrev 15.3 KNOTS.abrev 366.86 nm
28/12/2015 20:20:00 UTC 28/12 20:20 UTC 28°45.05'S 37°11.62'W 4948.14 nm -904.84 nm 304 3.8 KNOTS.abrev 16.3 KNOTS.abrev 12.8 KNOTS.abrev 15.3 KNOTS.abrev 366.74 nm
28/12/2015 20:15:00 UTC 28/12 20:15 UTC 28°45.81'S 37°10.33'W 4948.45 nm -903.62 nm 305 4.9 KNOTS.abrev 19.9 KNOTS.abrev 12.6 KNOTS.abrev 15.3 KNOTS.abrev 366.62 nm
28/12/2015 20:10:00 UTC 28/12 20:10 UTC 28°46.76'S 37°08.79'W 4948.86 nm -902.50 nm 304 4.5 KNOTS.abrev 19.2 KNOTS.abrev 12.8 KNOTS.abrev 15.3 KNOTS.abrev 365.00 nm
28/12/2015 20:00:00 UTC 28/12 20:00 UTC 28°48.54'S 37°05.76'W 4949.60 nm -900.17 nm 301 3.5 KNOTS.abrev 19.5 KNOTS.abrev 12.7 KNOTS.abrev 15.3 KNOTS.abrev 366.35 nm
28/12/2015 19:50:00 UTC 28/12 19:50 UTC 28°50.20'S 37°02.57'W 4950.18 nm -897.69 nm 308 4.9 KNOTS.abrev 16.4 KNOTS.abrev 12.7 KNOTS.abrev 15.2 KNOTS.abrev 365.75 nm
28/12/2015 19:45:00 UTC 28/12 19:45 UTC 28°51.04'S 37°01.34'W 4950.59 nm -896.56 nm 309 6.0 KNOTS.abrev 18.8 KNOTS.abrev 12.4 KNOTS.abrev 15.2 KNOTS.abrev 365.49 nm
28/12/2015 19:40:00 UTC 28/12 19:40 UTC 28°52.02'S 36°59.94'W 4951.08 nm -895.52 nm 338 9.1 KNOTS.abrev 12.3 KNOTS.abrev 12.6 KNOTS.abrev 15.2 KNOTS.abrev 365.38 nm
28/12/2015 19:30:00 UTC 28/12 19:30 UTC 28°53.91'S 36°59.05'W 4952.59 nm -893.97 nm 50 18.1 KNOTS.abrev 20.8 KNOTS.abrev 12.3 KNOTS.abrev 15.2 KNOTS.abrev 365.75 nm
28/12/2015 19:20:00 UTC 28/12 19:20 UTC 28°56.12'S 37°02.10'W 4955.59 nm -893.95 nm 51 18.2 KNOTS.abrev 21.1 KNOTS.abrev 11.7 KNOTS.abrev 15.4 KNOTS.abrev 368.72 nm
28/12/2015 19:13:00 UTC 28/12 19:13 UTC 28°57.66'S 37°04.29'W 4957.71 nm -893.95 nm 50 18.3 KNOTS.abrev 21.0 KNOTS.abrev 11.3 KNOTS.abrev 15.5 KNOTS.abrev 370.67 nm
28/12/2015 19:10:00 UTC 28/12 19:10 UTC 28°58.34'S 37°05.21'W 4958.62 nm -893.96 nm 48 17.6 KNOTS.abrev 19.8 KNOTS.abrev 11.2 KNOTS.abrev 15.5 KNOTS.abrev 371.90 nm
28/12/2015 19:00:00 UTC 28/12 19:00 UTC 29°00.54'S 37°08.02'W 4961.54 nm -893.87 nm 49 17.2 KNOTS.abrev 19.5 KNOTS.abrev 11.0 KNOTS.abrev 15.6 KNOTS.abrev 374.60 nm
28/12/2015 18:42:00 UTC 28/12 18:42 UTC 29°04.42'S 37°13.03'W 4966.72 nm -893.60 nm 52 14.8 KNOTS.abrev 17.4 KNOTS.abrev 11.0 KNOTS.abrev 15.8 KNOTS.abrev 379.65 nm
28/12/2015 18:40:00 UTC 28/12 18:40 UTC 29°04.77'S 37°13.55'W 4967.21 nm -893.49 nm 53 17.9 KNOTS.abrev 21.2 KNOTS.abrev 11.1 KNOTS.abrev 15.8 KNOTS.abrev 379.74 nm
28/12/2015 18:30:00 UTC 28/12 18:30 UTC 29°06.92'S 37°16.77'W 4970.21 nm -893.46 nm 50 17.6 KNOTS.abrev 20.2 KNOTS.abrev 11.5 KNOTS.abrev 15.9 KNOTS.abrev 382.52 nm
28/12/2015 18:20:00 UTC 28/12 18:20 UTC 29°09.10'S 37°19.69'W 4973.15 nm -893.14 nm 50 17.9 KNOTS.abrev 20.6 KNOTS.abrev 11.8 KNOTS.abrev 16.0 KNOTS.abrev 385.13 nm
28/12/2015 18:12:00 UTC 28/12 18:12 UTC 29°10.87'S 37°22.08'W 4975.55 nm -892.93 nm 50 16.8 KNOTS.abrev 19.2 KNOTS.abrev 12.3 KNOTS.abrev 16.1 KNOTS.abrev 387.62 nm
28/12/2015 18:00:00 UTC 28/12 18:00 UTC 29°13.33'S 37°25.47'W 4978.89 nm -892.36 nm 52 16.8 KNOTS.abrev 19.6 KNOTS.abrev 13.0 KNOTS.abrev 16.3 KNOTS.abrev 390.18 nm
28/12/2015 17:50:00 UTC 28/12 17:50 UTC 29°15.35'S 37°28.41'W 4981.70 nm -891.90 nm 51 17.9 KNOTS.abrev 20.7 KNOTS.abrev 13.9 KNOTS.abrev 16.4 KNOTS.abrev 392.59 nm
28/12/2015 17:42:00 UTC 28/12 17:42 UTC 29°17.10'S 37°30.85'W 4984.09 nm -891.69 nm 50 14.3 KNOTS.abrev 16.4 KNOTS.abrev 14.6 KNOTS.abrev 16.4 KNOTS.abrev 395.19 nm
28/12/2015 17:40:00 UTC 28/12 17:40 UTC 29°17.46'S 37°31.32'W 4984.57 nm -891.51 nm 50 17.8 KNOTS.abrev 20.4 KNOTS.abrev 14.8 KNOTS.abrev 16.5 KNOTS.abrev 395.28 nm
28/12/2015 17:30:00 UTC 28/12 17:30 UTC 29°19.64'S 37°34.32'W 4987.54 nm -891.22 nm 49 15.8 KNOTS.abrev 17.9 KNOTS.abrev 16.0 KNOTS.abrev 16.6 KNOTS.abrev 398.01 nm
28/12/2015 17:20:00 UTC 28/12 17:20 UTC 29°21.59'S 37°36.91'W 4990.17 nm -890.65 nm 49 16.6 KNOTS.abrev 18.8 KNOTS.abrev 16.8 KNOTS.abrev 16.7 KNOTS.abrev 400.46 nm
28/12/2015 17:12:00 UTC 28/12 17:12 UTC 29°23.25'S 37°39.06'W 4992.39 nm -890.29 nm 47 12.9 KNOTS.abrev 14.4 KNOTS.abrev 17.7 KNOTS.abrev 16.7 KNOTS.abrev 402.53 nm
28/12/2015 17:10:00 UTC 28/12 17:10 UTC 29°23.58'S 37°39.46'W 4992.82 nm -890.08 nm 6 11.1 KNOTS.abrev 11.5 KNOTS.abrev 17.9 KNOTS.abrev 16.8 KNOTS.abrev 402.60 nm
28/12/2015 16:50:00 UTC 28/12 16:50 UTC 29°27.39'S 37°39.92'W 4996.53 nm -887.38 nm 307 5.3 KNOTS.abrev 19.1 KNOTS.abrev 19.2 KNOTS.abrev 16.8 KNOTS.abrev 403.73 nm
28/12/2015 16:40:00 UTC 28/12 16:40 UTC 29°29.32'S 37°37.01'W 4997.43 nm -885.07 nm 305 4.8 KNOTS.abrev 19.7 KNOTS.abrev 19.3 KNOTS.abrev 16.8 KNOTS.abrev 400.55 nm
28/12/2015 16:39:00 UTC 28/12 16:39 UTC 29°29.51'S 37°36.70'W 4997.51 nm -884.83 nm 308 5.6 KNOTS.abrev 19.0 KNOTS.abrev 19.3 KNOTS.abrev 16.8 KNOTS.abrev 400.22 nm
28/12/2015 16:30:00 UTC 28/12 16:30 UTC 29°31.27'S 37°34.13'W 4998.37 nm -882.80 nm 307 5.3 KNOTS.abrev 18.8 KNOTS.abrev 19.3 KNOTS.abrev 16.6 KNOTS.abrev 400.01 nm
28/12/2015 16:20:00 UTC 28/12 16:20 UTC 29°33.18'S 37°31.27'W 4999.26 nm -880.70 nm 305 4.6 KNOTS.abrev 18.6 KNOTS.abrev 19.4 KNOTS.abrev 16.5 KNOTS.abrev 396.91 nm
28/12/2015 16:10:00 UTC 28/12 16:10 UTC 29°34.93'S 37°28.34'W 5000.00 nm -878.45 nm 303 3.9 KNOTS.abrev 18.3 KNOTS.abrev 19.4 KNOTS.abrev 16.4 KNOTS.abrev 394.10 nm
28/12/2015 16:04:00 UTC 28/12 16:04 UTC 29°35.92'S 37°26.57'W 5000.38 nm -877.03 nm 300 3.0 KNOTS.abrev 18.4 KNOTS.abrev 19.4 KNOTS.abrev 16.3 KNOTS.abrev 392.81 nm
28/12/2015 16:00:00 UTC 28/12 16:00 UTC 29°36.53'S 37°25.36'W 5000.58 nm -876.03 nm 299 2.7 KNOTS.abrev 18.5 KNOTS.abrev 19.4 KNOTS.abrev 16.3 KNOTS.abrev 391.59 nm
28/12/2015 15:50:00 UTC 28/12 15:50 UTC 29°38.01'S 37°22.25'W 5001.01 nm -873.46 nm 297 2.0 KNOTS.abrev 17.7 KNOTS.abrev 19.4 KNOTS.abrev 16.2 KNOTS.abrev 389.38 nm
28/12/2015 15:40:00 UTC 28/12 15:40 UTC 29°39.34'S 37°19.23'W 5001.33 nm -870.79 nm 294 1.0 KNOTS.abrev 16.8 KNOTS.abrev 19.5 KNOTS.abrev 16.1 KNOTS.abrev 387.45 nm
28/12/2015 15:33:00 UTC 28/12 15:33 UTC 29°40.13'S 37°17.16'W 5001.44 nm -868.80 nm 296 2.0 KNOTS.abrev 21.3 KNOTS.abrev 19.6 KNOTS.abrev 16.1 KNOTS.abrev 386.63 nm
28/12/2015 15:30:00 UTC 28/12 15:30 UTC 29°40.59'S 37°16.06'W 5001.53 nm -868.00 nm 296 1.6 KNOTS.abrev 17.1 KNOTS.abrev 19.6 KNOTS.abrev 16.1 KNOTS.abrev 385.60 nm
28/12/2015 15:20:00 UTC 28/12 15:20 UTC 29°41.82'S 37°13.10'W 5001.78 nm -865.48 nm 297 1.9 KNOTS.abrev 17.1 KNOTS.abrev 19.4 KNOTS.abrev 16.0 KNOTS.abrev 384.07 nm
28/12/2015 15:10:00 UTC 28/12 15:10 UTC 29°43.09'S 37°10.18'W 5002.08 nm -863.01 nm 299 2.6 KNOTS.abrev 17.5 KNOTS.abrev 18.5 KNOTS.abrev 15.9 KNOTS.abrev 382.39 nm
28/12/2015 15:00:00 UTC 28/12 15:00 UTC 29°44.49'S 37°07.23'W 5002.49 nm -860.66 nm 300 2.8 KNOTS.abrev 16.8 KNOTS.abrev 17.6 KNOTS.abrev 15.9 KNOTS.abrev 380.61 nm
28/12/2015 14:53:00 UTC 28/12 14:53 UTC 29°45.48'S 37°05.27'W 5002.83 nm -859.06 nm 303 4.5 KNOTS.abrev 20.9 KNOTS.abrev 16.9 KNOTS.abrev 15.8 KNOTS.abrev 380.09 nm
28/12/2015 14:50:00 UTC 28/12 14:50 UTC 29°46.05'S 37°04.27'W 5003.06 nm -858.46 nm 302 3.7 KNOTS.abrev 18.3 KNOTS.abrev 16.9 KNOTS.abrev 15.8 KNOTS.abrev 379.05 nm
28/12/2015 14:40:00 UTC 28/12 14:40 UTC 29°47.67'S 37°01.30'W 5003.68 nm -856.31 nm 299 2.9 KNOTS.abrev 19.7 KNOTS.abrev 16.1 KNOTS.abrev 15.7 KNOTS.abrev 377.68 nm
28/12/2015 14:22:00 UTC 28/12 14:22 UTC 29°50.52'S 36°55.33'W 5004.55 nm -852.36 nm 293 1.0 KNOTS.abrev 21.8 KNOTS.abrev 14.3 KNOTS.abrev 15.6 KNOTS.abrev 374.76 nm
28/12/2015 14:20:00 UTC 28/12 14:20 UTC 29°50.81'S 36°54.57'W 5004.59 nm -851.89 nm 299 2.9 KNOTS.abrev 19.4 KNOTS.abrev 14.3 KNOTS.abrev 15.6 KNOTS.abrev 374.07 nm
28/12/2015 14:10:00 UTC 28/12 14:10 UTC 29°52.36'S 36°51.29'W 5005.06 nm -849.77 nm 296 2.1 KNOTS.abrev 20.6 KNOTS.abrev 13.4 KNOTS.abrev 15.5 KNOTS.abrev 371.49 nm
28/12/2015 14:00:00 UTC 28/12 14:00 UTC 29°53.84'S 36°47.73'W 5005.38 nm -847.51 nm 300 3.3 KNOTS.abrev 19.5 KNOTS.abrev 12.6 KNOTS.abrev 15.4 KNOTS.abrev 368.73 nm
28/12/2015 13:50:00 UTC 28/12 13:50 UTC 29°55.46'S 36°44.47'W 5005.93 nm -845.48 nm 300 3.5 KNOTS.abrev 20.6 KNOTS.abrev 12.2 KNOTS.abrev 15.3 KNOTS.abrev 366.25 nm
28/12/2015 13:40:00 UTC 28/12 13:40 UTC 29°57.19'S 36°41.04'W 5006.52 nm -843.49 nm 300 3.6 KNOTS.abrev 21.0 KNOTS.abrev 12.0 KNOTS.abrev 15.1 KNOTS.abrev 363.36 nm
28/12/2015 13:20:00 UTC 28/12 13:20 UTC 30°00.68'S 36°34.04'W 5007.71 nm -839.96 nm 304 3.7 KNOTS.abrev 15.5 KNOTS.abrev 11.7 KNOTS.abrev 14.9 KNOTS.abrev 358.17 nm
28/12/2015 13:19:00 UTC 28/12 13:19 UTC 30°00.82'S 36°33.79'W 5007.78 nm -839.80 nm 299 3.4 KNOTS.abrev 22.1 KNOTS.abrev 11.7 KNOTS.abrev 14.9 KNOTS.abrev 358.01 nm
28/12/2015 13:10:00 UTC 28/12 13:10 UTC 30°02.43'S 36°30.45'W 5008.29 nm -838.36 nm 301 4.0 KNOTS.abrev 21.2 KNOTS.abrev 11.4 KNOTS.abrev 14.8 KNOTS.abrev 355.39 nm
28/12/2015 13:00:00 UTC 28/12 13:00 UTC 30°04.23'S 36°26.95'W 5008.95 nm -836.85 nm 296 2.2 KNOTS.abrev 20.9 KNOTS.abrev 11.2 KNOTS.abrev 14.7 KNOTS.abrev 352.75 nm
28/12/2015 12:50:00 UTC 28/12 12:50 UTC 30°05.76'S 36°23.34'W 5009.32 nm -835.05 nm 294 1.8 KNOTS.abrev 25.8 KNOTS.abrev 11.1 KNOTS.abrev 14.6 KNOTS.abrev 350.33 nm
28/12/2015 12:49:00 UTC 28/12 12:49 UTC 30°05.93'S 36°22.89'W 5009.34 nm -834.86 nm 294 1.4 KNOTS.abrev 19.8 KNOTS.abrev 11.1 KNOTS.abrev 14.6 KNOTS.abrev 349.93 nm
28/12/2015 12:40:00 UTC 28/12 12:40 UTC 30°07.15'S 36°19.76'W 5009.57 nm -833.13 nm 295 1.8 KNOTS.abrev 20.3 KNOTS.abrev 10.7 KNOTS.abrev 14.5 KNOTS.abrev 347.95 nm
28/12/2015 12:30:00 UTC 28/12 12:30 UTC 30°08.58'S 36°16.22'W 5009.88 nm -831.25 nm 294 1.4 KNOTS.abrev 20.1 KNOTS.abrev 10.7 KNOTS.abrev 14.4 KNOTS.abrev 345.53 nm
28/12/2015 12:20:00 UTC 28/12 12:20 UTC 30°09.94'S 36°12.69'W 5010.12 nm -829.18 nm 291 0.6 KNOTS.abrev 26.7 KNOTS.abrev 10.6 KNOTS.abrev 14.3 KNOTS.abrev 343.33 nm
28/12/2015 12:19:00 UTC 28/12 12:19 UTC 30°10.10'S 36°12.21'W 5010.13 nm -828.96 nm 295 1.7 KNOTS.abrev 18.5 KNOTS.abrev 10.5 KNOTS.abrev 14.3 KNOTS.abrev 342.92 nm
28/12/2015 12:10:00 UTC 28/12 12:10 UTC 30°11.26'S 36°09.30'W 5010.36 nm -827.12 nm 296 2.0 KNOTS.abrev 18.9 KNOTS.abrev 10.3 KNOTS.abrev 14.2 KNOTS.abrev 341.23 nm
28/12/2015 12:00:00 UTC 28/12 12:00 UTC 30°12.61'S 36°06.02'W 5010.68 nm -825.12 nm 299 3.0 KNOTS.abrev 18.9 KNOTS.abrev 10.3 KNOTS.abrev 14.1 KNOTS.abrev 339.24 nm
28/12/2015 11:50:00 UTC 28/12 11:50 UTC 30°14.12'S 36°02.83'W 5011.17 nm -823.30 nm 295 2.6 KNOTS.abrev 27.7 KNOTS.abrev 10.0 KNOTS.abrev 14.1 KNOTS.abrev 337.23 nm
28/12/2015 11:49:00 UTC 28/12 11:49 UTC 30°14.31'S 36°02.34'W 5011.21 nm -823.11 nm 298 2.6 KNOTS.abrev 18.0 KNOTS.abrev 10.0 KNOTS.abrev 14.0 KNOTS.abrev 336.81 nm
28/12/2015 11:40:00 UTC 28/12 11:40 UTC 30°15.59'S 35°59.60'W 5011.62 nm -821.42 nm 295 1.8 KNOTS.abrev 19.5 KNOTS.abrev 10.5 KNOTS.abrev 14.0 KNOTS.abrev 335.22 nm
28/12/2015 11:30:00 UTC 28/12 11:30 UTC 30°16.95'S 35°56.19'W 5011.91 nm -819.40 nm 305 3.7 KNOTS.abrev 14.1 KNOTS.abrev 10.2 KNOTS.abrev 13.9 KNOTS.abrev 333.27 nm
28/12/2015 11:20:00 UTC 28/12 11:20 UTC 30°18.28'S 35°53.96'W 5012.52 nm -817.59 nm 45 15.5 KNOTS.abrev 17.2 KNOTS.abrev 10.1 KNOTS.abrev 13.9 KNOTS.abrev 333.71 nm
28/12/2015 11:18:00 UTC 28/12 11:18 UTC 30°18.69'S 35°54.43'W 5013.04 nm -817.63 nm 42 17.0 KNOTS.abrev 18.4 KNOTS.abrev 10.2 KNOTS.abrev 13.9 KNOTS.abrev 333.68 nm
28/12/2015 11:10:00 UTC 28/12 11:10 UTC 30°20.52'S 35°56.32'W 5015.31 nm -817.97 nm 44 16.3 KNOTS.abrev 17.9 KNOTS.abrev 11.2 KNOTS.abrev 14.0 KNOTS.abrev 333.41 nm
28/12/2015 11:00:00 UTC 28/12 11:00 UTC 30°22.68'S 35°58.70'W 5018.03 nm -818.28 nm 36 16.0 KNOTS.abrev 16.7 KNOTS.abrev 11.6 KNOTS.abrev 14.0 KNOTS.abrev 339.66 nm
28/12/2015 10:50:00 UTC 28/12 10:50 UTC 30°24.93'S 36°00.59'W 5020.71 nm -818.54 nm 36 12.1 KNOTS.abrev 12.6 KNOTS.abrev 11.9 KNOTS.abrev 14.1 KNOTS.abrev 339.06 nm
28/12/2015 10:47:00 UTC 28/12 10:47 UTC 30°25.44'S 36°01.02'W 5021.32 nm -818.42 nm 40 13.0 KNOTS.abrev 13.9 KNOTS.abrev 12.0 KNOTS.abrev 14.1 KNOTS.abrev 338.93 nm
28/12/2015 10:40:00 UTC 28/12 10:40 UTC 30°26.68'S 36°02.22'W 5022.83 nm -818.24 nm 47 12.6 KNOTS.abrev 14.2 KNOTS.abrev 12.4 KNOTS.abrev 14.2 KNOTS.abrev 338.71 nm
28/12/2015 10:30:00 UTC 28/12 10:30 UTC 30°28.30'S 36°04.22'W 5024.94 nm -817.92 nm 50 12.9 KNOTS.abrev 14.9 KNOTS.abrev 13.8 KNOTS.abrev 14.3 KNOTS.abrev 342.50 nm
28/12/2015 10:20:00 UTC 28/12 10:20 UTC 30°29.91'S 36°06.42'W 5027.10 nm -817.47 nm 57 96.7 KNOTS.abrev 121.6 KNOTS.abrev 14.6 KNOTS.abrev 14.4 KNOTS.abrev 346.39 nm
28/12/2015 10:17:00 UTC 28/12 10:17 UTC 30°33.20'S 36°12.35'W 5031.92 nm -821.51 nm 240 -24.9 KNOTS.abrev 32.6 KNOTS.abrev 15.4 KNOTS.abrev 14.5 KNOTS.abrev 347.40 nm
28/12/2015 10:10:00 UTC 28/12 10:10 UTC 30°31.33'S 36°08.51'W 5029.04 nm -816.80 nm 53 12.0 KNOTS.abrev 14.3 KNOTS.abrev 15.4 KNOTS.abrev 14.5 KNOTS.abrev 347.90 nm
28/12/2015 10:00:00 UTC 28/12 10:00 UTC 30°32.75'S 36°10.73'W 5031.02 nm -816.17 nm 331 6.8 KNOTS.abrev 10.3 KNOTS.abrev 16.7 KNOTS.abrev 14.6 KNOTS.abrev 350.16 nm
28/12/2015 09:45:00 UTC 28/12 09:45 UTC 30°35.00'S 36°09.30'W 5032.72 nm -813.95 nm 302 3.6 KNOTS.abrev 17.1 KNOTS.abrev 17.2 KNOTS.abrev 14.6 KNOTS.abrev 350.72 nm
28/12/2015 09:40:00 UTC 28/12 09:40 UTC 30°35.75'S 36°07.89'W 5033.02 nm -812.94 nm 300 3.0 KNOTS.abrev 16.7 KNOTS.abrev 17.2 KNOTS.abrev 14.6 KNOTS.abrev 350.55 nm
28/12/2015 09:30:00 UTC 28/12 09:30 UTC 30°37.15'S 36°05.09'W 5033.53 nm -810.82 nm 298 2.3 KNOTS.abrev 16.2 KNOTS.abrev 17.2 KNOTS.abrev 14.6 KNOTS.abrev 352.28 nm
28/12/2015 09:20:00 UTC 28/12 09:20 UTC 30°38.42'S 36°02.33'W 5033.92 nm -808.30 nm 297 2.0 KNOTS.abrev 15.5 KNOTS.abrev 17.3 KNOTS.abrev 14.6 KNOTS.abrev 349.77 nm
28/12/2015 09:10:00 UTC 28/12 09:10 UTC 30°39.57'S 35°59.65'W 5034.23 nm -805.70 nm 300 2.9 KNOTS.abrev 16.1 KNOTS.abrev 17.4 KNOTS.abrev 14.5 KNOTS.abrev 348.92 nm
28/12/2015 09:00:00 UTC 28/12 09:00 UTC 30°40.91'S 35°56.95'W 5034.72 nm -803.27 nm 300 3.0 KNOTS.abrev 16.8 KNOTS.abrev 17.4 KNOTS.abrev 14.5 KNOTS.abrev 347.98 nm
28/12/2015 08:50:00 UTC 28/12 08:50 UTC 30°42.29'S 35°54.12'W 5035.20 nm -800.84 nm 283 -1.3 KNOTS.abrev 11.3 KNOTS.abrev 17.4 KNOTS.abrev 14.4 KNOTS.abrev 347.37 nm
28/12/2015 08:40:00 UTC 28/12 08:40 UTC 30°42.73'S 35°51.99'W 5035.00 nm -797.73 nm 306 5.1 KNOTS.abrev 18.0 KNOTS.abrev 17.6 KNOTS.abrev 14.4 KNOTS.abrev 346.12 nm
28/12/2015 08:31:00 UTC 28/12 08:31 UTC 30°44.31'S 35°49.46'W 5035.77 nm -795.87 nm 301 1.0 KNOTS.abrev 5.0 KNOTS.abrev 17.6 KNOTS.abrev 14.4 KNOTS.abrev 343.52 nm
28/12/2015 08:30:00 UTC 28/12 08:30 UTC 30°44.35'S 35°49.38'W 5035.78 nm -795.59 nm 308 4.9 KNOTS.abrev 15.5 KNOTS.abrev 17.7 KNOTS.abrev 14.4 KNOTS.abrev 343.45 nm
28/12/2015 08:20:00 UTC 28/12 08:20 UTC 30°45.94'S 35°47.01'W 5036.60 nm -793.34 nm 296 1.4 KNOTS.abrev 12.1 KNOTS.abrev 18.0 KNOTS.abrev 14.2 KNOTS.abrev 343.94 nm
28/12/2015 08:10:00 UTC 28/12 08:10 UTC 30°46.81'S 35°44.91'W 5036.82 nm -790.50 nm 303 3.8 KNOTS.abrev 16.2 KNOTS.abrev 18.3 KNOTS.abrev 14.3 KNOTS.abrev 342.14 nm
28/12/2015 08:00:00 UTC 28/12 08:00 UTC 30°48.28'S 35°42.28'W 5037.45 nm -788.07 nm 305 1.7 KNOTS.abrev 6.5 KNOTS.abrev 18.4 KNOTS.abrev 14.2 KNOTS.abrev 340.92 nm
28/12/2015 07:59:00 UTC 28/12 07:59 UTC 30°48.34'S 35°42.18'W 5037.48 nm -787.79 nm 303 4.1 KNOTS.abrev 17.5 KNOTS.abrev 18.4 KNOTS.abrev 14.2 KNOTS.abrev 340.82 nm
28/12/2015 07:28:00 UTC 28/12 07:28 UTC 30°53.22'S 35°33.33'W 5039.57 nm -780.39 nm 301 3.8 KNOTS.abrev 18.6 KNOTS.abrev 18.7 KNOTS.abrev 14.1 KNOTS.abrev 335.48 nm
28/12/2015 06:54:00 UTC 28/12 06:54 UTC 30°58.63'S 35°22.81'W 5041.70 nm -772.31 nm 302 4.4 KNOTS.abrev 19.9 KNOTS.abrev 19.1 KNOTS.abrev 13.7 KNOTS.abrev 331.21 nm
28/12/2015 06:23:00 UTC 28/12 06:23 UTC 31°04.15'S 35°12.69'W 5044.07 nm -765.75 nm 303 4.8 KNOTS.abrev 19.8 KNOTS.abrev 19.2 KNOTS.abrev 13.4 KNOTS.abrev 325.60 nm
28/12/2015 05:52:00 UTC 28/12 05:52 UTC 31°09.76'S 35°02.70'W 5046.59 nm -760.48 nm 298 2.7 KNOTS.abrev 17.1 KNOTS.abrev 19.2 KNOTS.abrev 13.2 KNOTS.abrev 319.71 nm
28/12/2015 05:08:00 UTC 28/12 05:08 UTC 31°15.72'S 34°49.82'W 5048.68 nm -750.72 nm 294 1.5 KNOTS.abrev 16.7 KNOTS.abrev 19.5 KNOTS.abrev 13.0 KNOTS.abrev 311.40 nm
28/12/2015 05:00:00 UTC 28/12 05:00 UTC 31°16.64'S 34°47.45'W 5048.89 nm -748.10 nm 295 1.8 KNOTS.abrev 16.9 KNOTS.abrev 19.6 KNOTS.abrev 13.0 KNOTS.abrev 309.56 nm
28/12/2015 04:37:00 UTC 28/12 04:37 UTC 31°19.40'S 34°40.62'W 5049.64 nm -740.68 nm 307 6.3 KNOTS.abrev 20.1 KNOTS.abrev 19.9 KNOTS.abrev 12.8 KNOTS.abrev 307.54 nm
28/12/2015 04:07:00 UTC 28/12 04:07 UTC 31°25.45'S 34°31.25'W 5052.82 nm -734.50 nm 304 5.3 KNOTS.abrev 19.9 KNOTS.abrev 20.0 KNOTS.abrev 12.6 KNOTS.abrev 302.56 nm
28/12/2015 03:36:00 UTC 28/12 03:36 UTC 31°31.19'S 34°21.22'W 5055.55 nm -727.92 nm 309 7.6 KNOTS.abrev 21.7 KNOTS.abrev 19.7 KNOTS.abrev 12.4 KNOTS.abrev 297.98 nm
28/12/2015 03:06:00 UTC 28/12 03:06 UTC 31°38.08'S 34°11.36'W 5059.44 nm -722.62 nm 311 7.8 KNOTS.abrev 20.2 KNOTS.abrev 19.7 KNOTS.abrev 12.1 KNOTS.abrev 290.82 nm
28/12/2015 02:35:00 UTC 28/12 02:35 UTC 31°44.97'S 34°02.14'W 5063.53 nm -717.17 nm 313 8.4 KNOTS.abrev 20.1 KNOTS.abrev 19.8 KNOTS.abrev 11.9 KNOTS.abrev 284.08 nm
28/12/2015 02:01:00 UTC 28/12 02:01 UTC 31°52.71'S 33°52.36'W 5068.30 nm -711.60 nm 317 9.7 KNOTS.abrev 20.1 KNOTS.abrev 19.8 KNOTS.abrev 11.5 KNOTS.abrev 276.12 nm
28/12/2015 01:31:00 UTC 28/12 01:31 UTC 32°00.05'S 33°44.25'W 5073.16 nm -707.35 nm 314 8.3 KNOTS.abrev 18.8 KNOTS.abrev 20.1 KNOTS.abrev 11.2 KNOTS.abrev 268.73 nm
28/12/2015 01:30:00 UTC 28/12 01:30 UTC 32°00.27'S 33°43.99'W 5073.30 nm -707.18 nm 312 7.4 KNOTS.abrev 18.1 KNOTS.abrev 20.1 KNOTS.abrev 11.2 KNOTS.abrev 268.44 nm
28/12/2015 01:20:00 UTC 28/12 01:20 UTC 32°02.30'S 33°41.35'W 5074.53 nm -705.34 nm 310 6.9 KNOTS.abrev 18.4 KNOTS.abrev 20.1 KNOTS.abrev 11.0 KNOTS.abrev 267.46 nm
28/12/2015 01:01:00 UTC 28/12 01:01 UTC 32°06.03'S 33°36.09'W 5076.71 nm -701.66 nm 306 4.8 KNOTS.abrev 15.3 KNOTS.abrev 20.3 KNOTS.abrev 11.0 KNOTS.abrev 262.34 nm
28/12/2015 01:00:00 UTC 28/12 01:00 UTC 32°06.18'S 33°35.85'W 5076.79 nm -701.43 nm 305 5.4 KNOTS.abrev 18.4 KNOTS.abrev 20.4 KNOTS.abrev 11.0 KNOTS.abrev 262.12 nm
28/12/2015 00:50:00 UTC 28/12 00:50 UTC 32°07.94'S 33°32.90'W 5077.70 nm -699.26 nm 298 3.5 KNOTS.abrev 20.1 KNOTS.abrev 20.4 KNOTS.abrev 10.8 KNOTS.abrev 262.24 nm
28/12/2015 00:40:00 UTC 28/12 00:40 UTC 32°09.51'S 33°29.41'W 5078.29 nm -696.76 nm 299 3.9 KNOTS.abrev 20.3 KNOTS.abrev 20.2 KNOTS.abrev 10.8 KNOTS.abrev 259.74 nm
28/12/2015 00:30:00 UTC 28/12 00:30 UTC 32°11.13'S 33°25.90'W 5078.94 nm -694.32 nm 298 2.9 KNOTS.abrev 16.1 KNOTS.abrev 20.2 KNOTS.abrev 10.8 KNOTS.abrev 257.20 nm
28/12/2015 00:29:00 UTC 28/12 00:29 UTC 32°11.26'S 33°25.62'W 5078.98 nm -694.05 nm 296 3.2 KNOTS.abrev 22.2 KNOTS.abrev 20.3 KNOTS.abrev 10.8 KNOTS.abrev 257.00 nm
28/12/2015 00:20:00 UTC 28/12 00:20 UTC 32°12.70'S 33°22.07'W 5079.44 nm -691.66 nm 298 3.7 KNOTS.abrev 20.6 KNOTS.abrev 20.0 KNOTS.abrev 10.6 KNOTS.abrev 257.40 nm
28/12/2015 00:10:00 UTC 28/12 00:10 UTC 32°14.30'S 33°18.48'W 5080.04 nm -689.11 nm 269 -3.6 KNOTS.abrev 11.4 KNOTS.abrev 20.0 KNOTS.abrev 10.6 KNOTS.abrev 254.91 nm
27/12/2015 23:59:00 UTC 27/12 23:59 UTC 32°14.26'S 33°16.02'W 5079.37 nm -684.96 nm 301 5.1 KNOTS.abrev 22.1 KNOTS.abrev 20.3 KNOTS.abrev 10.6 KNOTS.abrev 254.31 nm
27/12/2015 23:50:00 UTC 27/12 23:50 UTC 32°15.95'S 33°12.66'W 5080.12 nm -682.87 nm 299 4.6 KNOTS.abrev 23.2 KNOTS.abrev 20.1 KNOTS.abrev 10.5 KNOTS.abrev 254.30 nm
27/12/2015 23:40:00 UTC 27/12 23:40 UTC 32°17.81'S 33°08.64'W 5080.87 nm -680.46 nm 304 6.4 KNOTS.abrev 22.6 KNOTS.abrev 19.8 KNOTS.abrev 10.4 KNOTS.abrev 251.55 nm
27/12/2015 23:30:00 UTC 27/12 23:30 UTC 32°19.89'S 33°04.94'W 5081.91 nm -678.35 nm 302 5.4 KNOTS.abrev 21.6 KNOTS.abrev 19.4 KNOTS.abrev 10.4 KNOTS.abrev 248.68 nm
27/12/2015 23:26:00 UTC 27/12 23:26 UTC 32°20.64'S 33°03.49'W 5082.27 nm -677.53 nm 309 8.5 KNOTS.abrev 23.1 KNOTS.abrev 19.4 KNOTS.abrev 10.4 KNOTS.abrev 247.62 nm
27/12/2015 23:20:00 UTC 27/12 23:20 UTC 32°22.09'S 33°01.36'W 5083.10 nm -676.59 nm 307 7.2 KNOTS.abrev 21.4 KNOTS.abrev 19.1 KNOTS.abrev 10.3 KNOTS.abrev 245.75 nm
27/12/2015 23:10:00 UTC 27/12 23:10 UTC 32°24.24'S 32°57.99'W 5084.30 nm -674.83 nm 304 6.5 KNOTS.abrev 22.8 KNOTS.abrev 19.0 KNOTS.abrev 10.2 KNOTS.abrev 245.27 nm
27/12/2015 23:00:00 UTC 27/12 23:00 UTC 32°26.36'S 32°54.27'W 5085.39 nm -672.97 nm 306 6.4 KNOTS.abrev 20.2 KNOTS.abrev 18.6 KNOTS.abrev 10.1 KNOTS.abrev 242.44 nm
27/12/2015 22:54:00 UTC 27/12 22:54 UTC 32°27.54'S 32°52.33'W 5086.03 nm -671.83 nm 306 6.5 KNOTS.abrev 20.4 KNOTS.abrev 18.4 KNOTS.abrev 10.1 KNOTS.abrev 240.90 nm
27/12/2015 22:50:00 UTC 27/12 22:50 UTC 32°28.34'S 32°51.03'W 5086.46 nm -671.08 nm 310 7.6 KNOTS.abrev 19.8 KNOTS.abrev 18.4 KNOTS.abrev 10.1 KNOTS.abrev 239.87 nm
27/12/2015 22:40:00 UTC 27/12 22:40 UTC 32°30.45'S 32°48.03'W 5087.73 nm -669.40 nm 309 7.6 KNOTS.abrev 20.6 KNOTS.abrev 18.1 KNOTS.abrev 9.9 KNOTS.abrev 239.21 nm
27/12/2015 22:30:00 UTC 27/12 22:30 UTC 32°32.62'S 32°44.88'W 5089.01 nm -667.74 nm 310 7.8 KNOTS.abrev 20.2 KNOTS.abrev 17.8 KNOTS.abrev 9.9 KNOTS.abrev 236.52 nm
27/12/2015 22:23:00 UTC 27/12 22:23 UTC 32°34.13'S 32°42.73'W 5089.92 nm -666.72 nm 311 9.0 KNOTS.abrev 22.3 KNOTS.abrev 17.5 KNOTS.abrev 9.8 KNOTS.abrev 234.66 nm
27/12/2015 22:20:00 UTC 27/12 22:20 UTC 32°34.86'S 32°41.74'W 5090.37 nm -666.36 nm 312 8.3 KNOTS.abrev 19.8 KNOTS.abrev 17.5 KNOTS.abrev 9.7 KNOTS.abrev 234.78 nm
27/12/2015 22:10:00 UTC 27/12 22:10 UTC 32°37.07'S 32°38.82'W 5091.75 nm -664.99 nm 310 7.4 KNOTS.abrev 19.1 KNOTS.abrev 17.2 KNOTS.abrev 9.7 KNOTS.abrev 232.12 nm
27/12/2015 22:00:00 UTC 27/12 22:00 UTC 32°39.10'S 32°35.91'W 5092.97 nm -663.47 nm 313 9.2 KNOTS.abrev 21.1 KNOTS.abrev 16.9 KNOTS.abrev 9.6 KNOTS.abrev 230.19 nm
27/12/2015 21:53:00 UTC 27/12 21:53 UTC 32°40.78'S 32°33.78'W 5094.05 nm -662.64 nm 313 10.3 KNOTS.abrev 23.5 KNOTS.abrev 16.5 KNOTS.abrev 9.5 KNOTS.abrev 228.82 nm
27/12/2015 21:50:00 UTC 27/12 21:50 UTC 32°41.58'S 32°32.75'W 5094.56 nm -662.32 nm 315 10.6 KNOTS.abrev 22.6 KNOTS.abrev 16.4 KNOTS.abrev 9.5 KNOTS.abrev 227.88 nm
27/12/2015 21:40:00 UTC 27/12 21:40 UTC 32°44.23'S 32°29.57'W 5096.30 nm -661.33 nm 315 10.0 KNOTS.abrev 21.3 KNOTS.abrev 16.0 KNOTS.abrev 9.4 KNOTS.abrev 225.33 nm
27/12/2015 21:30:00 UTC 27/12 21:30 UTC 32°46.76'S 32°26.61'W 5097.99 nm -660.28 nm 318 11.5 KNOTS.abrev 22.3 KNOTS.abrev 15.7 KNOTS.abrev 9.3 KNOTS.abrev 222.69 nm
27/12/2015 21:23:00 UTC 27/12 21:23 UTC 32°48.68'S 32°24.53'W 5099.32 nm -659.75 nm 326 10.7 KNOTS.abrev 16.9 KNOTS.abrev 15.3 KNOTS.abrev 9.2 KNOTS.abrev 220.98 nm
27/12/2015 21:20:00 UTC 27/12 21:20 UTC 32°49.38'S 32°23.97'W 5099.86 nm -659.50 nm 316 9.9 KNOTS.abrev 20.5 KNOTS.abrev 15.3 KNOTS.abrev 9.2 KNOTS.abrev 220.21 nm
27/12/2015 21:10:00 UTC 27/12 21:10 UTC 32°51.84'S 32°21.14'W 5101.51 nm -658.50 nm 313 9.3 KNOTS.abrev 21.1 KNOTS.abrev 14.9 KNOTS.abrev 9.1 KNOTS.abrev 217.72 nm
27/12/2015 20:51:00 UTC 27/12 20:51 UTC 32°56.40'S 32°15.31'W 5104.45 nm -656.41 nm 302 3.8 KNOTS.abrev 14.7 KNOTS.abrev 14.0 KNOTS.abrev 8.9 KNOTS.abrev 212.93 nm
27/12/2015 20:50:00 UTC 27/12 20:50 UTC 32°56.52'S 32°15.06'W 5104.51 nm -656.21 nm 315 8.4 KNOTS.abrev 17.8 KNOTS.abrev 14.0 KNOTS.abrev 8.9 KNOTS.abrev 212.78 nm
27/12/2015 20:30:00 UTC 27/12 20:30 UTC 33°00.72'S 32°10.05'W 5107.31 nm -653.69 nm 316 8.2 KNOTS.abrev 16.8 KNOTS.abrev 12.9 KNOTS.abrev 8.9 KNOTS.abrev 208.11 nm
27/12/2015 20:20:00 UTC 27/12 20:20 UTC 33°02.73'S 32°07.74'W 5108.68 nm -652.13 nm 314 8.3 KNOTS.abrev 18.3 KNOTS.abrev 12.5 KNOTS.abrev 8.8 KNOTS.abrev 205.91 nm
27/12/2015 20:16:00 UTC 27/12 20:16 UTC 33°03.58'S 32°06.70'W 5109.24 nm -651.51 nm 310 6.6 KNOTS.abrev 16.8 KNOTS.abrev 12.5 KNOTS.abrev 8.8 KNOTS.abrev 204.98 nm
27/12/2015 20:00:00 UTC 27/12 20:00 UTC 33°06.45'S 32°02.59'W 5110.99 nm -648.58 nm 307 5.3 KNOTS.abrev 15.4 KNOTS.abrev 11.3 KNOTS.abrev 8.4 KNOTS.abrev 205.67 nm
27/12/2015 19:50:00 UTC 27/12 19:50 UTC 33°07.98'S 32°00.15'W 5111.87 nm -646.53 nm 302 4.4 KNOTS.abrev 16.6 KNOTS.abrev 10.8 KNOTS.abrev 8.4 KNOTS.abrev 203.98 nm
27/12/2015 19:46:00 UTC 27/12 19:46 UTC 33°08.57'S 31°59.03'W 5112.17 nm -645.66 nm 299 3.2 KNOTS.abrev 15.0 KNOTS.abrev 10.7 KNOTS.abrev 8.4 KNOTS.abrev 203.33 nm
27/12/2015 19:40:00 UTC 27/12 19:40 UTC 33°09.29'S 31°57.45'W 5112.48 nm -644.21 nm 298 2.8 KNOTS.abrev 14.2 KNOTS.abrev 10.4 KNOTS.abrev 8.4 KNOTS.abrev 202.53 nm
27/12/2015 19:30:00 UTC 27/12 19:30 UTC 33°10.41'S 31°54.98'W 5112.96 nm -641.74 nm 303 4.6 KNOTS.abrev 16.3 KNOTS.abrev 10.1 KNOTS.abrev 8.4 KNOTS.abrev 201.29 nm
27/12/2015 19:20:00 UTC 27/12 19:20 UTC 33°11.88'S 31°52.25'W 5113.72 nm -639.25 nm 307 5.9 KNOTS.abrev 16.9 KNOTS.abrev 9.8 KNOTS.abrev 8.3 KNOTS.abrev 200.04 nm
27/12/2015 19:14:00 UTC 27/12 19:14 UTC 33°12.90'S 31°50.64'W 5114.31 nm -637.89 nm 303 4.9 KNOTS.abrev 17.3 KNOTS.abrev 9.5 KNOTS.abrev 8.3 KNOTS.abrev 199.21 nm
27/12/2015 19:10:00 UTC 27/12 19:10 UTC 33°13.53'S 31°49.48'W 5114.63 nm -636.91 nm 299 3.3 KNOTS.abrev 15.3 KNOTS.abrev 9.4 KNOTS.abrev 8.3 KNOTS.abrev 198.55 nm
27/12/2015 19:00:00 UTC 27/12 19:00 UTC 33°14.75'S 31°46.81'W 5115.17 nm -634.19 nm 288 0.4 KNOTS.abrev 15.4 KNOTS.abrev 9.1 KNOTS.abrev 8.2 KNOTS.abrev 197.81 nm
27/12/2015 18:50:00 UTC 27/12 18:50 UTC 33°15.55'S 31°43.90'W 5115.25 nm -631.02 nm 287 0.1 KNOTS.abrev 14.2 KNOTS.abrev 9.0 KNOTS.abrev 8.2 KNOTS.abrev 197.59 nm
27/12/2015 18:40:00 UTC 27/12 18:40 UTC 33°16.26'S 31°41.21'W 5115.29 nm -627.80 nm 292 1.3 KNOTS.abrev 13.6 KNOTS.abrev 9.1 KNOTS.abrev 8.2 KNOTS.abrev 197.16 nm
27/12/2015 18:30:00 UTC 27/12 18:30 UTC 33°17.13'S 31°38.71'W 5115.53 nm -624.80 nm 293 1.6 KNOTS.abrev 13.6 KNOTS.abrev 9.2 KNOTS.abrev 8.2 KNOTS.abrev 196.82 nm
27/12/2015 18:20:00 UTC 27/12 18:20 UTC 33°17.99'S 31°36.21'W 5115.77 nm -621.91 nm 292 1.3 KNOTS.abrev 13.1 KNOTS.abrev 9.2 KNOTS.abrev 8.2 KNOTS.abrev 196.29 nm
27/12/2015 18:10:00 UTC 27/12 18:10 UTC 33°18.81'S 31°33.78'W 5115.98 nm -618.99 nm 293 1.4 KNOTS.abrev 12.0 KNOTS.abrev 9.1 KNOTS.abrev 8.2 KNOTS.abrev 195.53 nm
27/12/2015 18:05:00 UTC 27/12 18:05 UTC 33°19.20'S 31°32.68'W 5116.09 nm -617.53 nm 293 1.4 KNOTS.abrev 12.2 KNOTS.abrev 9.0 KNOTS.abrev 8.1 KNOTS.abrev 196.90 nm
27/12/2015 18:00:00 UTC 27/12 18:00 UTC 33°19.59'S 31°31.56'W 5116.21 nm -616.08 nm 292 1.1 KNOTS.abrev 11.0 KNOTS.abrev 9.1 KNOTS.abrev 8.1 KNOTS.abrev 196.54 nm
27/12/2015 17:50:00 UTC 27/12 17:50 UTC 33°20.27'S 31°29.53'W 5116.38 nm -613.12 nm 285 -0.3 KNOTS.abrev 13.5 KNOTS.abrev 9.1 KNOTS.abrev 8.2 KNOTS.abrev 195.95 nm
27/12/2015 17:40:00 UTC 27/12 17:40 UTC 33°20.86'S 31°26.93'W 5116.34 nm -609.94 nm 290 0.8 KNOTS.abrev 12.8 KNOTS.abrev 9.2 KNOTS.abrev 8.2 KNOTS.abrev 195.91 nm
27/12/2015 17:34:00 UTC 27/12 17:34 UTC 33°21.29'S 31°25.49'W 5116.41 nm -608.14 nm 287 0.2 KNOTS.abrev 13.8 KNOTS.abrev 9.3 KNOTS.abrev 8.2 KNOTS.abrev 195.56 nm
27/12/2015 17:30:00 UTC 27/12 17:30 UTC 33°21.56'S 31°24.44'W 5116.42 nm -606.91 nm 297 2.2 KNOTS.abrev 11.6 KNOTS.abrev 9.4 KNOTS.abrev 8.2 KNOTS.abrev 195.35 nm
27/12/2015 17:20:00 UTC 27/12 17:20 UTC 33°22.43'S 31°22.38'W 5116.78 nm -604.26 nm 307 3.5 KNOTS.abrev 9.7 KNOTS.abrev 9.6 KNOTS.abrev 8.2 KNOTS.abrev 194.61 nm
27/12/2015 17:10:00 UTC 27/12 17:10 UTC 33°23.40'S 31°20.82'W 5117.35 nm -601.83 nm 302 2.4 KNOTS.abrev 8.9 KNOTS.abrev 9.8 KNOTS.abrev 8.2 KNOTS.abrev 193.76 nm
27/12/2015 17:00:00 UTC 27/12 17:00 UTC 33°24.19'S 31°19.31'W 5117.75 nm -599.23 nm 284 -0.4 KNOTS.abrev 11.1 KNOTS.abrev 10.0 KNOTS.abrev 8.3 KNOTS.abrev 193.09 nm
27/12/2015 16:56:00 UTC 27/12 16:56 UTC 33°24.37'S 31°18.44'W 5117.72 nm -598.00 nm 285 -0.2 KNOTS.abrev 10.4 KNOTS.abrev 10.1 KNOTS.abrev 8.3 KNOTS.abrev 192.98 nm
27/12/2015 16:50:00 UTC 27/12 16:50 UTC 33°24.63'S 31°17.24'W 5117.70 nm -596.17 nm 309 2.4 KNOTS.abrev 6.1 KNOTS.abrev 10.3 KNOTS.abrev 8.3 KNOTS.abrev 192.82 nm
27/12/2015 16:24:00 UTC 27/12 16:24 UTC 33°26.28'S 31°14.76'W 5118.71 nm -589.51 nm 31 9.2 KNOTS.abrev 9.5 KNOTS.abrev 11.2 KNOTS.abrev 8.4 KNOTS.abrev 191.40 nm
27/12/2015 16:20:00 UTC 27/12 16:20 UTC 33°26.83'S 31°15.15'W 5119.32 nm -589.00 nm 25 10.1 KNOTS.abrev 10.2 KNOTS.abrev 11.3 KNOTS.abrev 8.4 KNOTS.abrev 190.83 nm
27/12/2015 16:10:00 UTC 27/12 16:10 UTC 33°28.36'S 31°16.01'W 5121.00 nm -587.86 nm 17 10.5 KNOTS.abrev 10.5 KNOTS.abrev 11.3 KNOTS.abrev 7.9 KNOTS.abrev 197.68 nm
27/12/2015 16:00:00 UTC 27/12 16:00 UTC 33°30.03'S 31°16.64'W 5122.75 nm -586.80 nm 11 11.8 KNOTS.abrev 11.9 KNOTS.abrev 11.3 KNOTS.abrev 7.9 KNOTS.abrev 195.96 nm
27/12/2015 15:54:00 UTC 27/12 15:54 UTC 33°31.20'S 31°16.91'W 5123.93 nm -586.30 nm 9 11.3 KNOTS.abrev 11.4 KNOTS.abrev 11.2 KNOTS.abrev 7.9 KNOTS.abrev 194.78 nm
27/12/2015 15:50:00 UTC 27/12 15:50 UTC 33°31.95'S 31°17.05'W 5124.69 nm -585.93 nm 7 11.7 KNOTS.abrev 11.9 KNOTS.abrev 11.2 KNOTS.abrev 7.9 KNOTS.abrev 194.02 nm
27/12/2015 15:40:00 UTC 27/12 15:40 UTC 33°33.92'S 31°17.33'W 5126.64 nm -585.07 nm 3 11.5 KNOTS.abrev 11.8 KNOTS.abrev 11.2 KNOTS.abrev 7.8 KNOTS.abrev 192.04 nm
27/12/2015 15:30:00 UTC 27/12 15:30 UTC 33°35.89'S 31°17.44'W 5128.56 nm -584.18 nm 358 11.4 KNOTS.abrev 12.0 KNOTS.abrev 11.2 KNOTS.abrev 7.8 KNOTS.abrev 190.07 nm
27/12/2015 15:20:00 UTC 27/12 15:20 UTC 33°37.88'S 31°17.35'W 5130.45 nm -583.21 nm 6 12.5 KNOTS.abrev 12.7 KNOTS.abrev 11.3 KNOTS.abrev 7.8 KNOTS.abrev 188.10 nm
27/12/2015 15:10:00 UTC 27/12 15:10 UTC 33°39.99'S 31°17.60'W 5132.54 nm -582.43 nm 3 11.4 KNOTS.abrev 11.7 KNOTS.abrev 11.2 KNOTS.abrev 7.7 KNOTS.abrev 185.97 nm
27/12/2015 15:00:00 UTC 27/12 15:00 UTC 33°41.94'S 31°17.73'W 5134.44 nm -581.48 nm 359 13.1 KNOTS.abrev 13.7 KNOTS.abrev 12.0 KNOTS.abrev 7.7 KNOTS.abrev 184.91 nm
27/12/2015 14:50:00 UTC 27/12 14:50 UTC 33°44.22'S 31°17.67'W 5136.62 nm -580.79 nm 360 15.3 KNOTS.abrev 15.9 KNOTS.abrev 11.9 KNOTS.abrev 7.7 KNOTS.abrev 182.64 nm
27/12/2015 14:40:00 UTC 27/12 14:40 UTC 33°46.87'S 31°17.64'W 5139.16 nm -580.47 nm 357 14.5 KNOTS.abrev 15.3 KNOTS.abrev 11.7 KNOTS.abrev 7.6 KNOTS.abrev 180.01 nm
27/12/2015 14:30:00 UTC 27/12 14:30 UTC 33°49.41'S 31°17.46'W 5141.57 nm -580.02 nm 1 11.1 KNOTS.abrev 11.5 KNOTS.abrev 12.1 KNOTS.abrev 7.6 KNOTS.abrev 177.49 nm
27/12/2015 14:20:00 UTC 27/12 14:20 UTC 33°51.34'S 31°17.49'W 5143.42 nm -579.01 nm 360 5.3 KNOTS.abrev 5.5 KNOTS.abrev 12.7 KNOTS.abrev 7.5 KNOTS.abrev 175.58 nm
27/12/2015 14:19:00 UTC 27/12 14:19 UTC 33°51.43'S 31°17.49'W 5143.51 nm -578.81 nm 16 8.7 KNOTS.abrev 8.7 KNOTS.abrev 12.7 KNOTS.abrev 7.5 KNOTS.abrev 175.49 nm
27/12/2015 14:10:00 UTC 27/12 14:10 UTC 33°52.69'S 31°17.91'W 5144.82 nm -577.54 nm 17 8.8 KNOTS.abrev 8.8 KNOTS.abrev 13.1 KNOTS.abrev 7.5 KNOTS.abrev 174.19 nm
27/12/2015 14:00:00 UTC 27/12 14:00 UTC 33°54.08'S 31°18.44'W 5146.28 nm -576.14 nm 12 9.1 KNOTS.abrev 9.1 KNOTS.abrev 13.4 KNOTS.abrev 7.5 KNOTS.abrev 172.76 nm
27/12/2015 13:50:00 UTC 27/12 13:50 UTC 33°55.57'S 31°18.82'W 5147.79 nm -574.79 nm 17 9.3 KNOTS.abrev 9.3 KNOTS.abrev 13.8 KNOTS.abrev 7.2 KNOTS.abrev 179.91 nm
27/12/2015 13:49:00 UTC 27/12 13:49 UTC 33°55.72'S 31°18.88'W 5147.95 nm -574.66 nm 23 9.4 KNOTS.abrev 9.4 KNOTS.abrev 13.9 KNOTS.abrev 7.2 KNOTS.abrev 179.76 nm
27/12/2015 13:40:00 UTC 27/12 13:40 UTC 33°57.02'S 31°19.54'W 5149.36 nm -573.49 nm 19 11.2 KNOTS.abrev 11.2 KNOTS.abrev 14.3 KNOTS.abrev 7.2 KNOTS.abrev 178.41 nm
27/12/2015 13:30:00 UTC 27/12 13:30 UTC 33°58.78'S 31°20.27'W 5151.22 nm -572.50 nm 12 11.8 KNOTS.abrev 11.8 KNOTS.abrev 14.7 KNOTS.abrev 7.2 KNOTS.abrev 176.60 nm
27/12/2015 13:20:00 UTC 27/12 13:20 UTC 34°00.71'S 31°20.74'W 5153.18 nm -571.83 nm 11 11.4 KNOTS.abrev 11.5 KNOTS.abrev 14.9 KNOTS.abrev 7.2 KNOTS.abrev 174.64 nm
27/12/2015 13:19:00 UTC 27/12 13:19 UTC 34°00.90'S 31°20.79'W 5153.37 nm -571.75 nm 19 10.6 KNOTS.abrev 10.6 KNOTS.abrev 14.9 KNOTS.abrev 7.2 KNOTS.abrev 174.45 nm
27/12/2015 13:10:00 UTC 27/12 13:10 UTC 34°02.40'S 31°21.43'W 5154.97 nm -570.97 nm 12 9.8 KNOTS.abrev 9.8 KNOTS.abrev 15.0 KNOTS.abrev 7.2 KNOTS.abrev 172.90 nm
27/12/2015 13:00:00 UTC 27/12 13:00 UTC 34°04.00'S 31°21.84'W 5156.60 nm -569.95 nm 12 10.5 KNOTS.abrev 10.6 KNOTS.abrev 15.1 KNOTS.abrev 7.1 KNOTS.abrev 171.28 nm
27/12/2015 12:50:00 UTC 27/12 12:50 UTC 34°05.72'S 31°22.28'W 5158.35 nm -569.06 nm 15 10.5 KNOTS.abrev 10.5 KNOTS.abrev 14.9 KNOTS.abrev 7.1 KNOTS.abrev 170.57 nm
27/12/2015 12:40:00 UTC 27/12 12:40 UTC 34°07.42'S 31°22.82'W 5160.11 nm -568.17 nm 21 11.5 KNOTS.abrev 11.6 KNOTS.abrev 15.1 KNOTS.abrev 7.1 KNOTS.abrev 169.80 nm
27/12/2015 12:34:00 UTC 27/12 12:34 UTC 34°08.49'S 31°23.33'W 5161.26 nm -567.74 nm 17 11.6 KNOTS.abrev 11.6 KNOTS.abrev 15.2 KNOTS.abrev 7.1 KNOTS.abrev 169.75 nm
27/12/2015 12:30:00 UTC 27/12 12:30 UTC 34°09.23'S 31°23.60'W 5162.03 nm -567.45 nm 16 12.1 KNOTS.abrev 12.1 KNOTS.abrev 15.2 KNOTS.abrev 7.0 KNOTS.abrev 169.00 nm
27/12/2015 12:20:00 UTC 27/12 12:20 UTC 34°11.16'S 31°24.28'W 5164.04 nm -566.79 nm 15 11.1 KNOTS.abrev 11.1 KNOTS.abrev 14.7 KNOTS.abrev 7.0 KNOTS.abrev 168.16 nm
27/12/2015 12:10:00 UTC 27/12 12:10 UTC 34°12.94'S 31°24.86'W 5165.88 nm -565.97 nm 10 10.4 KNOTS.abrev 10.5 KNOTS.abrev 14.9 KNOTS.abrev 7.0 KNOTS.abrev 167.37 nm
27/12/2015 12:02:00 UTC 27/12 12:02 UTC 34°14.31'S 31°25.16'W 5167.27 nm -565.23 nm 14 10.1 KNOTS.abrev 10.1 KNOTS.abrev 14.9 KNOTS.abrev 7.0 KNOTS.abrev 167.05 nm
27/12/2015 12:00:00 UTC 27/12 12:00 UTC 34°14.64'S 31°25.25'W 5167.61 nm -565.04 nm 10 10.3 KNOTS.abrev 10.4 KNOTS.abrev 15.0 KNOTS.abrev 6.9 KNOTS.abrev 166.71 nm
27/12/2015 11:50:00 UTC 27/12 11:50 UTC 34°16.34'S 31°25.61'W 5169.33 nm -564.10 nm 15 11.6 KNOTS.abrev 11.6 KNOTS.abrev 15.1 KNOTS.abrev 6.9 KNOTS.abrev 166.28 nm
27/12/2015 11:40:00 UTC 27/12 11:40 UTC 34°18.21'S 31°26.23'W 5171.26 nm -563.36 nm 5 11.7 KNOTS.abrev 11.9 KNOTS.abrev 15.0 KNOTS.abrev 6.9 KNOTS.abrev 165.80 nm
27/12/2015 11:32:00 UTC 27/12 11:32 UTC 34°19.79'S 31°26.38'W 5172.82 nm -562.79 nm 354 12.1 KNOTS.abrev 13.1 KNOTS.abrev 15.1 KNOTS.abrev 6.9 KNOTS.abrev 165.60 nm
27/12/2015 11:16:00 UTC 27/12 11:16 UTC 34°23.25'S 31°25.97'W 5176.05 nm -561.98 nm 359 16.9 KNOTS.abrev 17.7 KNOTS.abrev 14.2 KNOTS.abrev 6.8 KNOTS.abrev 163.71 nm
27/12/2015 10:46:00 UTC 27/12 10:46 UTC 34°32.09'S 31°25.70'W 5184.48 nm -562.88 nm 359 18.8 KNOTS.abrev 19.7 KNOTS.abrev 12.8 KNOTS.abrev 6.7 KNOTS.abrev 159.92 nm
27/12/2015 10:30:00 UTC 27/12 10:30 UTC 34°37.35'S 31°25.54'W 5189.49 nm -563.87 nm 0 20.8 KNOTS.abrev 21.6 KNOTS.abrev 12.3 KNOTS.abrev 6.6 KNOTS.abrev 157.71 nm
27/12/2015 10:15:00 UTC 27/12 10:15 UTC 34°42.75'S 31°25.59'W 5194.69 nm -565.32 nm 1 22.4 KNOTS.abrev 23.2 KNOTS.abrev 11.4 KNOTS.abrev 6.5 KNOTS.abrev 155.54 nm
27/12/2015 10:10:00 UTC 27/12 10:10 UTC 34°44.67'S 31°25.62'W 5196.55 nm -565.93 nm 359 16.0 KNOTS.abrev 16.8 KNOTS.abrev 11.1 KNOTS.abrev 6.4 KNOTS.abrev 153.61 nm
27/12/2015 10:00:00 UTC 27/12 10:00 UTC 34°47.47'S 31°25.54'W 5199.22 nm -566.10 nm 5 18.5 KNOTS.abrev 18.9 KNOTS.abrev 10.9 KNOTS.abrev 6.4 KNOTS.abrev 152.51 nm
27/12/2015 09:50:00 UTC 27/12 09:50 UTC 34°50.60'S 31°25.87'W 5202.30 nm -566.68 nm 5 18.3 KNOTS.abrev 18.7 KNOTS.abrev 10.4 KNOTS.abrev 6.3 KNOTS.abrev 151.26 nm
27/12/2015 09:45:00 UTC 27/12 09:45 UTC 34°52.15'S 31°26.05'W 5203.83 nm -566.96 nm 4 21.1 KNOTS.abrev 21.5 KNOTS.abrev 10.2 KNOTS.abrev 6.3 KNOTS.abrev 149.70 nm
27/12/2015 09:40:00 UTC 27/12 09:40 UTC 34°53.94'S 31°26.22'W 5205.59 nm -567.47 nm 360 17.3 KNOTS.abrev 18.0 KNOTS.abrev 9.9 KNOTS.abrev 6.3 KNOTS.abrev 151.43 nm
27/12/2015 09:20:00 UTC 27/12 09:20 UTC 34°59.93'S 31°26.19'W 5211.34 nm -569.65 nm 4 12.4 KNOTS.abrev 12.7 KNOTS.abrev 9.0 KNOTS.abrev 6.1 KNOTS.abrev 147.49 nm
27/12/2015 09:15:00 UTC 27/12 09:15 UTC 35°00.99'S 31°26.28'W 5212.38 nm -570.11 nm 359 12.1 KNOTS.abrev 12.7 KNOTS.abrev 8.9 KNOTS.abrev 6.2 KNOTS.abrev 148.45 nm
27/12/2015 09:10:00 UTC 27/12 09:10 UTC 35°02.05'S 31°26.26'W 5213.39 nm -570.54 nm 359 12.0 KNOTS.abrev 12.6 KNOTS.abrev 8.9 KNOTS.abrev 6.1 KNOTS.abrev 147.39 nm
27/12/2015 09:00:00 UTC 27/12 09:00 UTC 35°04.14'S 31°26.19'W 5215.39 nm -571.36 nm 8 10.1 KNOTS.abrev 10.2 KNOTS.abrev 8.7 KNOTS.abrev 6.1 KNOTS.abrev 147.24 nm
27/12/2015 08:42:00 UTC 27/12 08:42 UTC 35°07.18'S 31°26.71'W 5218.43 nm -572.30 nm 2 10.0 KNOTS.abrev 10.3 KNOTS.abrev 8.6 KNOTS.abrev 6.2 KNOTS.abrev 148.19 nm
27/12/2015 08:40:00 UTC 27/12 08:40 UTC 35°07.52'S 31°26.72'W 5218.76 nm -572.40 nm 10 9.8 KNOTS.abrev 9.8 KNOTS.abrev 8.6 KNOTS.abrev 6.2 KNOTS.abrev 147.85 nm
27/12/2015 08:11:00 UTC 27/12 08:11 UTC 35°12.20'S 31°27.74'W 5223.49 nm -573.82 nm 15 12.7 KNOTS.abrev 12.7 KNOTS.abrev 8.6 KNOTS.abrev 6.2 KNOTS.abrev 149.42 nm
27/12/2015 08:00:00 UTC 27/12 08:00 UTC 35°14.44'S 31°28.48'W 5225.81 nm -574.90 nm 357 12.4 KNOTS.abrev 13.1 KNOTS.abrev 8.5 KNOTS.abrev 6.2 KNOTS.abrev 149.27 nm
27/12/2015 07:50:00 UTC 27/12 07:50 UTC 35°16.63'S 31°28.32'W 5227.88 nm -575.83 nm 353 9.0 KNOTS.abrev 9.8 KNOTS.abrev 8.5 KNOTS.abrev 6.2 KNOTS.abrev 149.18 nm
27/12/2015 07:41:00 UTC 27/12 07:41 UTC 35°18.09'S 31°28.10'W 5229.23 nm -576.17 nm 355 8.3 KNOTS.abrev 8.9 KNOTS.abrev 8.5 KNOTS.abrev 6.2 KNOTS.abrev 150.01 nm
27/12/2015 07:40:00 UTC 27/12 07:40 UTC 35°18.24'S 31°28.08'W 5229.37 nm -576.19 nm 347 5.5 KNOTS.abrev 6.3 KNOTS.abrev 8.5 KNOTS.abrev 6.2 KNOTS.abrev 149.87 nm
27/12/2015 07:10:00 UTC 27/12 07:10 UTC 35°21.28'S 31°27.23'W 5232.10 nm -572.73 nm 354 5.7 KNOTS.abrev 6.2 KNOTS.abrev 8.6 KNOTS.abrev 6.4 KNOTS.abrev 153.51 nm
27/12/2015 06:40:00 UTC 27/12 06:40 UTC 35°24.35'S 31°26.85'W 5234.96 nm -568.14 nm 1 9.2 KNOTS.abrev 9.5 KNOTS.abrev 8.7 KNOTS.abrev 6.6 KNOTS.abrev 157.96 nm
27/12/2015 06:09:00 UTC 27/12 06:09 UTC 35°29.28'S 31°26.94'W 5239.72 nm -565.03 nm 4 9.0 KNOTS.abrev 9.2 KNOTS.abrev 8.4 KNOTS.abrev 6.7 KNOTS.abrev 162.96 nm
27/12/2015 05:39:00 UTC 27/12 05:39 UTC 35°33.87'S 31°27.30'W 5244.21 nm -561.35 nm 11 7.5 KNOTS.abrev 7.6 KNOTS.abrev 8.1 KNOTS.abrev 6.8 KNOTS.abrev 163.77 nm
27/12/2015 05:09:00 UTC 27/12 05:09 UTC 35°37.57'S 31°28.18'W 5247.97 nm -556.98 nm 9 8.9 KNOTS.abrev 9.0 KNOTS.abrev 8.0 KNOTS.abrev 7.1 KNOTS.abrev 172.13 nm
27/12/2015 04:39:00 UTC 27/12 04:39 UTC 35°42.02'S 31°29.01'W 5252.43 nm -553.32 nm 3 9.7 KNOTS.abrev 9.9 KNOTS.abrev 7.7 KNOTS.abrev 7.3 KNOTS.abrev 177.32 nm
27/12/2015 04:08:00 UTC 27/12 04:08 UTC 35°47.14'S 31°29.30'W 5257.41 nm -550.58 nm 360 10.1 KNOTS.abrev 10.5 KNOTS.abrev 7.4 KNOTS.abrev 7.5 KNOTS.abrev 178.83 nm
27/12/2015 03:38:00 UTC 27/12 03:38 UTC 35°52.40'S 31°29.26'W 5262.46 nm -548.38 nm 3 6.5 KNOTS.abrev 6.7 KNOTS.abrev 6.9 KNOTS.abrev 7.7 KNOTS.abrev 183.59 nm
27/12/2015 03:08:00 UTC 27/12 03:08 UTC 35°55.74'S 31°29.50'W 5265.72 nm -544.37 nm 12 7.3 KNOTS.abrev 7.3 KNOTS.abrev 6.7 KNOTS.abrev 8.0 KNOTS.abrev 193.67 nm
27/12/2015 02:37:00 UTC 27/12 02:37 UTC 35°59.44'S 31°30.49'W 5269.51 nm -540.63 nm 21 7.3 KNOTS.abrev 7.4 KNOTS.abrev 6.3 KNOTS.abrev 8.2 KNOTS.abrev 197.00 nm
27/12/2015 02:06:00 UTC 27/12 02:06 UTC 36°02.99'S 31°32.19'W 5273.30 nm -537.44 nm 31 7.2 KNOTS.abrev 7.4 KNOTS.abrev 5.7 KNOTS.abrev 8.6 KNOTS.abrev 208.02 nm
27/12/2015 01:36:00 UTC 27/12 01:36 UTC 36°06.19'S 31°34.54'W 5276.90 nm -534.43 nm 37 6.6 KNOTS.abrev 7.1 KNOTS.abrev 5.3 KNOTS.abrev 8.9 KNOTS.abrev 212.24 nm
27/12/2015 01:06:00 UTC 27/12 01:06 UTC 36°09.02'S 31°37.16'W 5280.22 nm -530.61 nm 22 7.1 KNOTS.abrev 7.1 KNOTS.abrev 4.7 KNOTS.abrev 9.2 KNOTS.abrev 219.62 nm
27/12/2015 00:35:00 UTC 27/12 00:35 UTC 36°12.44'S 31°38.85'W 5283.89 nm -526.79 nm 16 6.8 KNOTS.abrev 6.8 KNOTS.abrev 4.3 KNOTS.abrev 9.6 KNOTS.abrev 230.29 nm
27/12/2015 00:05:00 UTC 27/12 00:05 UTC 36°15.71'S 31°40.04'W 5287.30 nm -524.02 nm 18 6.1 KNOTS.abrev 6.1 KNOTS.abrev 3.4 KNOTS.abrev 9.8 KNOTS.abrev 234.11 nm
26/12/2015 23:35:00 UTC 26/12 23:35 UTC 36°18.61'S 31°41.23'W 5290.35 nm -521.06 nm 11 5.0 KNOTS.abrev 5.0 KNOTS.abrev 3.1 KNOTS.abrev 10.3 KNOTS.abrev 248.34 nm
26/12/2015 23:04:00 UTC 26/12 23:04 UTC 36°21.15'S 31°41.83'W 5292.93 nm -519.36 nm 4 3.9 KNOTS.abrev 4.0 KNOTS.abrev 2.8 KNOTS.abrev 10.8 KNOTS.abrev 259.39 nm
26/12/2015 22:33:00 UTC 26/12 22:33 UTC 36°23.23'S 31°42.01'W 5294.96 nm -517.43 nm 3 2.7 KNOTS.abrev 2.7 KNOTS.abrev 2.6 KNOTS.abrev 11.2 KNOTS.abrev 270.25 nm
26/12/2015 22:10:00 UTC 26/12 22:10 UTC 36°24.28'S 31°42.08'W 5295.98 nm -514.69 nm 6 3.6 KNOTS.abrev 3.7 KNOTS.abrev 2.6 KNOTS.abrev 11.6 KNOTS.abrev 278.07 nm
26/12/2015 22:02:00 UTC 26/12 22:02 UTC 36°24.76'S 31°42.15'W 5296.46 nm -513.83 nm 352 2.0 KNOTS.abrev 2.2 KNOTS.abrev 2.6 KNOTS.abrev 11.6 KNOTS.abrev 277.59 nm
26/12/2015 22:00:00 UTC 26/12 22:00 UTC 36°24.83'S 31°42.13'W 5296.53 nm -513.57 nm 355 3.5 KNOTS.abrev 3.7 KNOTS.abrev 2.6 KNOTS.abrev 11.8 KNOTS.abrev 286.16 nm
26/12/2015 21:50:00 UTC 26/12 21:50 UTC 36°25.45'S 31°42.06'W 5297.11 nm -512.47 nm 10 3.3 KNOTS.abrev 3.3 KNOTS.abrev 2.6 KNOTS.abrev 11.9 KNOTS.abrev 285.54 nm
26/12/2015 21:40:00 UTC